<?xml version='1.0' encoding='UTF-8'?><gpx version="1.1" creator="JPX - https://github.com/jenetics/jpx" xmlns="http://www.topografix.com/GPX/1/1"><trk><trkseg><trkpt lat="42.77406589422573" lon="10.325961618677194"><ele>266.0</ele><time>2026-04-18T08:36:33.992Z</time></trkpt><trkpt lat="42.77386960548053" lon="10.327638516452536"><ele>266.0</ele><time>2026-04-18T08:39:05.992Z</time></trkpt><trkpt lat="42.77383805514587" lon="10.327743765208332"><ele>266.0</ele><time>2026-04-18T08:39:06.992Z</time></trkpt><trkpt lat="42.773812882490866" lon="10.327841970764817"><ele>266.0</ele><time>2026-04-18T08:39:07.992Z</time></trkpt><trkpt lat="42.773766377873216" lon="10.327930254190628"><ele>266.0</ele><time>2026-04-18T08:39:08.992Z</time></trkpt><trkpt lat="42.77371963893399" lon="10.328010868276698"><ele>266.0</ele><time>2026-04-18T08:39:09.992Z</time></trkpt><trkpt lat="42.77366346278475" lon="10.32808008080185"><ele>266.0</ele><time>2026-04-18T08:39:10.992Z</time></trkpt><trkpt lat="42.77360124930394" lon="10.328145046778527"><ele>267.0</ele><time>2026-04-18T08:39:11.992Z</time></trkpt><trkpt lat="42.773542829853945" lon="10.328198558903122"><ele>268.0</ele><time>2026-04-18T08:39:12.992Z</time></trkpt><trkpt lat="42.77347842555126" lon="10.328235429868014"><ele>269.0</ele><time>2026-04-18T08:39:13.992Z</time></trkpt><trkpt lat="42.77335153822248" lon="10.328263586170609"><ele>270.0</ele><time>2026-04-18T08:39:15.992Z</time></trkpt><trkpt lat="42.77327400808512" lon="10.328279612154114"><ele>271.0</ele><time>2026-04-18T08:39:16.992Z</time></trkpt><trkpt lat="42.773211259134285" lon="10.328299278631055"><ele>272.0</ele><time>2026-04-18T08:39:17.992Z</time></trkpt><trkpt lat="42.77315092231879" lon="10.328268606707145"><ele>268.0</ele><time>2026-04-18T08:39:18.992Z</time></trkpt><trkpt lat="42.77303999351322" lon="10.328256698102177"><ele>264.0</ele><time>2026-04-18T08:39:20.992Z</time></trkpt><trkpt lat="42.7730034310677" lon="10.328368257199799"><ele>260.0</ele><time>2026-04-18T08:39:22.992Z</time></trkpt><trkpt lat="42.77303955637458" lon="10.328440409540946"><ele>256.0</ele><time>2026-04-18T08:39:23.992Z</time></trkpt><trkpt lat="42.773097497355025" lon="10.328521247617962"><ele>252.00000000000003</ele><time>2026-04-18T08:39:24.992Z</time></trkpt><trkpt lat="42.773162283353564" lon="10.328597558433291"><ele>248.0</ele><time>2026-04-18T08:39:25.992Z</time></trkpt><trkpt lat="42.773206980087224" lon="10.328685585325442"><ele>248.0</ele><time>2026-04-18T08:39:26.992Z</time></trkpt><trkpt lat="42.77323108982873" lon="10.328776700932462"><ele>248.0</ele><time>2026-04-18T08:39:27.992Z</time></trkpt><trkpt lat="42.77318547214846" lon="10.328904742789646"><ele>248.0</ele><time>2026-04-18T08:39:29.992Z</time></trkpt><trkpt lat="42.77308288704909" lon="10.32893509341755"><ele>248.0</ele><time>2026-04-18T08:39:31.992Z</time></trkpt><trkpt lat="42.7730173319215" lon="10.328898243362683"><ele>248.0</ele><time>2026-04-18T08:39:32.992Z</time></trkpt><trkpt lat="42.77291940563265" lon="10.328821010313007"><ele>248.00000000000003</ele><time>2026-04-18T08:39:34.992Z</time></trkpt><trkpt lat="42.77285678961846" lon="10.328804105909745"><ele>248.0</ele><time>2026-04-18T08:39:35.992Z</time></trkpt><trkpt lat="42.772771464742426" lon="10.32881188068621"><ele>248.0</ele><time>2026-04-18T08:39:36.992Z</time></trkpt><trkpt lat="42.77268780865834" lon="10.328816388513305"><ele>248.0</ele><time>2026-04-18T08:39:37.992Z</time></trkpt><trkpt lat="42.77261109803514" lon="10.328837918152475"><ele>248.00000000000003</ele><time>2026-04-18T08:39:38.992Z</time></trkpt><trkpt lat="42.77252648258228" lon="10.328875241166392"><ele>248.0</ele><time>2026-04-18T08:39:39.992Z</time></trkpt><trkpt lat="42.772434931574274" lon="10.328911376935656"><ele>246.0</ele><time>2026-04-18T08:39:40.992Z</time></trkpt><trkpt lat="42.77234818850364" lon="10.328955243527945"><ele>244.0</ele><time>2026-04-18T08:39:41.992Z</time></trkpt><trkpt lat="42.77225290225408" lon="10.328991064930426"><ele>242.0</ele><time>2026-04-18T08:39:42.992Z</time></trkpt><trkpt lat="42.77215206599557" lon="10.329027725269693"><ele>240.0</ele><time>2026-04-18T08:39:43.992Z</time></trkpt><trkpt lat="42.77205974617338" lon="10.329066785266516"><ele>238.0</ele><time>2026-04-18T08:39:44.992Z</time></trkpt><trkpt lat="42.77197583051697" lon="10.329110223168431"><ele>238.0</ele><time>2026-04-18T08:39:45.992Z</time></trkpt><trkpt lat="42.771899288051564" lon="10.329151364860936"><ele>238.0</ele><time>2026-04-18T08:39:46.992Z</time></trkpt><trkpt lat="42.77181535312236" lon="10.329165804063118"><ele>238.0</ele><time>2026-04-18T08:39:47.992Z</time></trkpt><trkpt lat="42.771710543970855" lon="10.32914190544938"><ele>238.0</ele><time>2026-04-18T08:39:48.992Z</time></trkpt><trkpt lat="42.771624501546945" lon="10.329081250503519"><ele>238.0</ele><time>2026-04-18T08:39:49.992Z</time></trkpt><trkpt lat="42.771541990666925" lon="10.329049377972925"><ele>236.2</ele><time>2026-04-18T08:39:50.992Z</time></trkpt><trkpt lat="42.77144957166136" lon="10.32901080827586"><ele>234.4</ele><time>2026-04-18T08:39:51.992Z</time></trkpt><trkpt lat="42.77136285168421" lon="10.328971398818153"><ele>232.59999999999997</ele><time>2026-04-18T08:39:52.992Z</time></trkpt><trkpt lat="42.771265596860694" lon="10.328964793581253"><ele>230.79999999999998</ele><time>2026-04-18T08:39:53.992Z</time></trkpt><trkpt lat="42.771155792562766" lon="10.328932774825333"><ele>229.0</ele><time>2026-04-18T08:39:54.992Z</time></trkpt><trkpt lat="42.77104297290779" lon="10.328900456873095"><ele>223.39999999999998</ele><time>2026-04-18T08:39:55.992Z</time></trkpt><trkpt lat="42.770944472242896" lon="10.32886390536565"><ele>217.79999999999998</ele><time>2026-04-18T08:39:56.992Z</time></trkpt><trkpt lat="42.7708365016094" lon="10.328824221931885"><ele>212.2</ele><time>2026-04-18T08:39:57.992Z</time></trkpt><trkpt lat="42.77074944437739" lon="10.328785428486238"><ele>206.60000000000002</ele><time>2026-04-18T08:39:58.992Z</time></trkpt><trkpt lat="42.77067185222037" lon="10.328761507978708"><ele>201.0</ele><time>2026-04-18T08:39:59.992Z</time></trkpt><trkpt lat="42.77059065763081" lon="10.328768941594168"><ele>201.0</ele><time>2026-04-18T08:40:00.992Z</time></trkpt><trkpt lat="42.77052034790161" lon="10.32881371009377"><ele>201.0</ele><time>2026-04-18T08:40:01.992Z</time></trkpt><trkpt lat="42.770464347936226" lon="10.328981862973766"><ele>201.0</ele><time>2026-04-18T08:40:03.992Z</time></trkpt><trkpt lat="42.77046137847088" lon="10.329130274129161"><ele>201.0</ele><time>2026-04-18T08:40:04.992Z</time></trkpt><trkpt lat="42.77234163340396" lon="10.331544787503674"><ele>216.20000000000002</ele><time>2026-04-18T08:41:05.991Z</time></trkpt><trkpt lat="42.77233487256508" lon="10.331380798114262"><ele>231.4</ele><time>2026-04-18T08:41:07.991Z</time></trkpt><trkpt lat="42.77239147479447" lon="10.331283714877856"><ele>246.6</ele><time>2026-04-18T08:41:09.992Z</time></trkpt><trkpt lat="42.77242551482058" lon="10.331140787869078"><ele>261.8</ele><time>2026-04-18T08:41:11.992Z</time></trkpt><trkpt lat="42.772493318975755" lon="10.331046122122006"><ele>277.0</ele><time>2026-04-18T08:41:13.992Z</time></trkpt><trkpt lat="42.772584830262836" lon="10.330911265539717"><ele>277.0</ele><time>2026-04-18T08:41:15.992Z</time></trkpt><trkpt lat="42.77264312488295" lon="10.330832068106242"><ele>277.0</ele><time>2026-04-18T08:41:16.991Z</time></trkpt><trkpt lat="42.77269922490355" lon="10.330753753998856"><ele>277.0</ele><time>2026-04-18T08:41:17.991Z</time></trkpt><trkpt lat="42.77275011326239" lon="10.33066607970254"><ele>277.0</ele><time>2026-04-18T08:41:18.991Z</time></trkpt><trkpt lat="42.77280370989807" lon="10.33061358286739"><ele>277.0</ele><time>2026-04-18T08:41:19.991Z</time></trkpt><trkpt lat="42.77289403564182" lon="10.330594528646333"><ele>277.0</ele><time>2026-04-18T08:41:21.991Z</time></trkpt><trkpt lat="42.77298981298336" lon="10.330540661077237"><ele>275.4</ele><time>2026-04-18T08:41:23.991Z</time></trkpt><trkpt lat="42.77311780854261" lon="10.330493780837575"><ele>273.79999999999995</ele><time>2026-04-18T08:41:25.991Z</time></trkpt><trkpt lat="42.773180621924354" lon="10.330470619939007"><ele>272.2</ele><time>2026-04-18T08:41:26.991Z</time></trkpt><trkpt lat="42.77324547342723" lon="10.330460365009728"><ele>270.59999999999997</ele><time>2026-04-18T08:41:27.991Z</time></trkpt><trkpt lat="42.773372327283106" lon="10.330435005924942"><ele>269.0</ele><time>2026-04-18T08:41:29.991Z</time></trkpt><trkpt lat="42.77343805309114" lon="10.330426261798095"><ele>268.5</ele><time>2026-04-18T08:41:30.991Z</time></trkpt><trkpt lat="42.77354141572114" lon="10.330410593226578"><ele>268.0</ele><time>2026-04-18T08:41:32.991Z</time></trkpt><trkpt lat="42.773618353028276" lon="10.330406650821237"><ele>267.5</ele><time>2026-04-18T08:41:34.991Z</time></trkpt><trkpt lat="42.77372786542207" lon="10.330357182307038"><ele>267.0</ele><time>2026-04-18T08:41:36.991Z</time></trkpt><trkpt lat="42.77379821899335" lon="10.33029394073385"><ele>266.5</ele><time>2026-04-18T08:41:37.991Z</time></trkpt><trkpt lat="42.773845774984636" lon="10.330235976150853"><ele>266.0</ele><time>2026-04-18T08:41:38.991Z</time></trkpt><trkpt lat="42.773894227537156" lon="10.33017862860327"><ele>266.0</ele><time>2026-04-18T08:41:39.991Z</time></trkpt><trkpt lat="42.77396050220411" lon="10.330120678574172"><ele>266.0</ele><time>2026-04-18T08:41:41.991Z</time></trkpt><trkpt lat="42.77398795622676" lon="10.330027463308847"><ele>266.0</ele><time>2026-04-18T08:41:45.991Z</time></trkpt><trkpt lat="42.77402354712814" lon="10.32990139426648"><ele>266.0</ele><time>2026-04-18T08:41:47.991Z</time></trkpt><trkpt lat="42.77406022631472" lon="10.329817963245802"><ele>266.0</ele><time>2026-04-18T08:41:48.991Z</time></trkpt><trkpt lat="42.77409312954935" lon="10.329714022452631"><ele>266.0</ele><time>2026-04-18T08:41:49.991Z</time></trkpt><trkpt lat="42.7741196672819" lon="10.329609278068839"><ele>266.83333333333337</ele><time>2026-04-18T08:41:50.991Z</time></trkpt><trkpt lat="42.77413333233234" lon="10.329514897244541"><ele>267.6666666666667</ele><time>2026-04-18T08:41:51.991Z</time></trkpt><trkpt lat="42.77415447432699" lon="10.329371874834072"><ele>268.5</ele><time>2026-04-18T08:41:53.991Z</time></trkpt><trkpt lat="42.7741892157975" lon="10.329273562847963"><ele>269.3333333333333</ele><time>2026-04-18T08:41:55.991Z</time></trkpt><trkpt lat="42.774224471308294" lon="10.329161937266568"><ele>270.16666666666663</ele><time>2026-04-18T08:41:57.991Z</time></trkpt><trkpt lat="42.774243202926264" lon="10.32904647501013"><ele>271.0</ele><time>2026-04-18T08:41:59.991Z</time></trkpt><trkpt lat="42.774176181149016" lon="10.32905835543645"><ele>271.0</ele><time>2026-04-18T08:42:02.991Z</time></trkpt><trkpt lat="42.77415261720255" lon="10.329507599478392"><ele>271.0</ele><time>2026-04-18T08:43:05.991Z</time></trkpt><trkpt lat="42.77424387659683" lon="10.328982140531892"><ele>271.16666666666663</ele><time>2026-04-18T08:45:05.99Z</time></trkpt><trkpt lat="42.77424060591655" lon="10.328852551487897"><ele>271.3333333333333</ele><time>2026-04-18T08:45:16.991Z</time></trkpt><trkpt lat="42.7742676319739" lon="10.328713743825173"><ele>271.5</ele><time>2026-04-18T08:45:18.99Z</time></trkpt><trkpt lat="42.77429017312631" lon="10.328619303658442"><ele>271.6666666666667</ele><time>2026-04-18T08:45:19.99Z</time></trkpt><trkpt lat="42.77431186920404" lon="10.328527161142436"><ele>271.83333333333337</ele><time>2026-04-18T08:45:20.99Z</time></trkpt><trkpt lat="42.77435385234705" lon="10.328410971768475"><ele>272.0</ele><time>2026-04-18T08:45:21.99Z</time></trkpt><trkpt lat="42.77439262782554" lon="10.328287869405896"><ele>272.0</ele><time>2026-04-18T08:45:22.991Z</time></trkpt><trkpt lat="42.77451181727801" lon="10.328222905084546"><ele>272.0</ele><time>2026-04-18T08:45:23.991Z</time></trkpt><trkpt lat="42.77453911918805" lon="10.328128490940543"><ele>272.0</ele><time>2026-04-18T08:45:24.991Z</time></trkpt><trkpt lat="42.77457201857649" lon="10.328053771042727"><ele>272.0</ele><time>2026-04-18T08:45:25.991Z</time></trkpt><trkpt lat="42.77467292888682" lon="10.327907066839996"><ele>272.0</ele><time>2026-04-18T08:45:27.99Z</time></trkpt><trkpt lat="42.774842332238364" lon="10.327885605370719"><ele>274.1666666666667</ele><time>2026-04-18T08:45:29.991Z</time></trkpt><trkpt lat="42.77491897544898" lon="10.327794887558719"><ele>276.33333333333337</ele><time>2026-04-18T08:45:30.991Z</time></trkpt><trkpt lat="42.774968673188624" lon="10.32772864301703"><ele>278.5</ele><time>2026-04-18T08:45:31.991Z</time></trkpt><trkpt lat="42.77501449192755" lon="10.327667568970519"><ele>280.6666666666667</ele><time>2026-04-18T08:45:32.991Z</time></trkpt><trkpt lat="42.775079435006894" lon="10.32758100306006"><ele>282.8333333333333</ele><time>2026-04-18T08:45:33.991Z</time></trkpt><trkpt lat="42.77513877351757" lon="10.327513701661287"><ele>285.0</ele><time>2026-04-18T08:45:34.991Z</time></trkpt><trkpt lat="42.77525411471075" lon="10.32742403363796"><ele>285.0</ele><time>2026-04-18T08:45:36.991Z</time></trkpt><trkpt lat="42.775317177304395" lon="10.327394489950692"><ele>285.0</ele><time>2026-04-18T08:45:37.991Z</time></trkpt><trkpt lat="42.775367470544886" lon="10.327332509884592"><ele>285.0</ele><time>2026-04-18T08:45:38.991Z</time></trkpt><trkpt lat="42.77547600178115" lon="10.327208618086937"><ele>285.0</ele><time>2026-04-18T08:45:40.991Z</time></trkpt><trkpt lat="42.77533729428595" lon="10.326228837823265"><ele>289.8333333333333</ele><time>2026-04-18T08:45:42.991Z</time></trkpt><trkpt lat="42.77541543482844" lon="10.326141366324148"><ele>294.6666666666667</ele><time>2026-04-18T08:45:43.991Z</time></trkpt><trkpt lat="42.77546774307378" lon="10.326089814847522"><ele>299.5</ele><time>2026-04-18T08:45:44.991Z</time></trkpt><trkpt lat="42.77552826576714" lon="10.325992059513096"><ele>304.33333333333337</ele><time>2026-04-18T08:45:45.991Z</time></trkpt><trkpt lat="42.77559598693707" lon="10.325889393262104"><ele>309.1666666666667</ele><time>2026-04-18T08:45:46.991Z</time></trkpt><trkpt lat="42.77565085410747" lon="10.325804828934771"><ele>314.0</ele><time>2026-04-18T08:45:47.991Z</time></trkpt><trkpt lat="42.77569899967006" lon="10.325738051845509"><ele>314.0</ele><time>2026-04-18T08:45:48.991Z</time></trkpt><trkpt lat="42.77574996302321" lon="10.32564216770185"><ele>314.0</ele><time>2026-04-18T08:45:49.991Z</time></trkpt><trkpt lat="42.77579790220402" lon="10.325533428779112"><ele>314.0</ele><time>2026-04-18T08:45:50.991Z</time></trkpt><trkpt lat="42.77583655072223" lon="10.325443573122982"><ele>314.0</ele><time>2026-04-18T08:45:51.991Z</time></trkpt><trkpt lat="42.775878853744445" lon="10.325321771147046"><ele>314.0</ele><time>2026-04-18T08:45:53.991Z</time></trkpt><trkpt lat="42.775926513173076" lon="10.325199118062384"><ele>313.59999999999997</ele><time>2026-04-18T08:45:55.991Z</time></trkpt><trkpt lat="42.77601807913777" lon="10.32513893816446"><ele>313.2</ele><time>2026-04-18T08:45:58.991Z</time></trkpt><trkpt lat="42.776131231476896" lon="10.325035065824844"><ele>312.79999999999995</ele><time>2026-04-18T08:46:00.991Z</time></trkpt><trkpt lat="42.776195766974496" lon="10.324968799265806"><ele>312.4</ele><time>2026-04-18T08:46:01.991Z</time></trkpt><trkpt lat="42.77626336757888" lon="10.324889589625956"><ele>312.0</ele><time>2026-04-18T08:46:02.991Z</time></trkpt><trkpt lat="42.77632028361209" lon="10.32479821103404"><ele>306.5</ele><time>2026-04-18T08:46:03.991Z</time></trkpt><trkpt lat="42.776391250561176" lon="10.32472555669936"><ele>301.0</ele><time>2026-04-18T08:46:04.991Z</time></trkpt><trkpt lat="42.775351276840624" lon="10.327322236085118"><ele>297.5</ele><time>2026-04-18T08:47:05.99Z</time></trkpt><trkpt lat="42.775240731470646" lon="10.327397134054594"><ele>294.0</ele><time>2026-04-18T08:47:06.99Z</time></trkpt><trkpt lat="42.7751342280277" lon="10.3274710621251"><ele>290.5</ele><time>2026-04-18T08:47:07.99Z</time></trkpt><trkpt lat="42.77505153582804" lon="10.327557911263208"><ele>287.0</ele><time>2026-04-18T08:47:08.99Z</time></trkpt><trkpt lat="42.77497246880164" lon="10.327660223488131"><ele>287.0</ele><time>2026-04-18T08:47:09.99Z</time></trkpt><trkpt lat="42.77490672450762" lon="10.327747857257322"><ele>287.0</ele><time>2026-04-18T08:47:10.99Z</time></trkpt><trkpt lat="42.77484340397351" lon="10.327821640209585"><ele>287.0</ele><time>2026-04-18T08:47:11.99Z</time></trkpt><trkpt lat="42.77477597731408" lon="10.327877840317322"><ele>287.0</ele><time>2026-04-18T08:47:12.99Z</time></trkpt><trkpt lat="42.774707754720154" lon="10.32792968340055"><ele>287.0</ele><time>2026-04-18T08:47:13.99Z</time></trkpt><trkpt lat="42.77463225542688" lon="10.327937717347366"><ele>287.0</ele><time>2026-04-18T08:47:14.99Z</time></trkpt><trkpt lat="42.77457554837995" lon="10.328005943165998"><ele>283.25</ele><time>2026-04-18T08:47:15.99Z</time></trkpt><trkpt lat="42.77451005644757" lon="10.328103821127424"><ele>279.5</ele><time>2026-04-18T08:47:16.99Z</time></trkpt><trkpt lat="42.77448094728213" lon="10.328280413891408"><ele>275.75</ele><time>2026-04-18T08:47:17.99Z</time></trkpt><trkpt lat="42.77448440256471" lon="10.328440917200721"><ele>272.0</ele><time>2026-04-18T08:47:18.99Z</time></trkpt><trkpt lat="42.77449068440848" lon="10.328594959486727"><ele>272.0</ele><time>2026-04-18T08:47:19.99Z</time></trkpt><trkpt lat="42.77449288730007" lon="10.328759669857117"><ele>272.0</ele><time>2026-04-18T08:47:20.991Z</time></trkpt><trkpt lat="42.77449044341492" lon="10.328891181043987"><ele>272.0</ele><time>2026-04-18T08:47:21.991Z</time></trkpt><trkpt lat="42.77448903157301" lon="10.32904991611671"><ele>272.0</ele><time>2026-04-18T08:47:22.99Z</time></trkpt><trkpt lat="42.77448789862119" lon="10.32923125070348"><ele>270.8</ele><time>2026-04-18T08:47:23.99Z</time></trkpt><trkpt lat="42.77448154762424" lon="10.32938147433779"><ele>269.6</ele><time>2026-04-18T08:47:24.99Z</time></trkpt><trkpt lat="42.77446829986216" lon="10.32950861367748"><ele>268.40000000000003</ele><time>2026-04-18T08:47:25.99Z</time></trkpt><trkpt lat="42.77444579303307" lon="10.3296329915597"><ele>267.2</ele><time>2026-04-18T08:47:26.991Z</time></trkpt><trkpt lat="42.77440710486357" lon="10.329726775462415"><ele>266.0</ele><time>2026-04-18T08:47:27.991Z</time></trkpt><trkpt lat="42.7743511709075" lon="10.32981655320064"><ele>266.0</ele><time>2026-04-18T08:47:28.99Z</time></trkpt><trkpt lat="42.774285544542266" lon="10.329911069722534"><ele>266.0</ele><time>2026-04-18T08:47:29.99Z</time></trkpt><trkpt lat="42.774212884695004" lon="10.329979622350871"><ele>266.0</ele><time>2026-04-18T08:47:30.99Z</time></trkpt><trkpt lat="42.77417151783516" lon="10.330077187381715"><ele>266.0</ele><time>2026-04-18T08:47:31.99Z</time></trkpt><trkpt lat="42.77411364150403" lon="10.330217930781844"><ele>266.0</ele><time>2026-04-18T08:47:32.99Z</time></trkpt><trkpt lat="42.77406164543532" lon="10.330352785323589"><ele>266.0</ele><time>2026-04-18T08:47:33.99Z</time></trkpt><trkpt lat="42.77402498636884" lon="10.330473568929861"><ele>266.0</ele><time>2026-04-18T08:47:34.99Z</time></trkpt><trkpt lat="42.773975006082416" lon="10.330571379126482"><ele>266.0</ele><time>2026-04-18T08:47:35.99Z</time></trkpt><trkpt lat="42.77393307637616" lon="10.330645268782845"><ele>266.0</ele><time>2026-04-18T08:47:36.99Z</time></trkpt><trkpt lat="42.773880547885355" lon="10.330722594642669"><ele>266.0</ele><time>2026-04-18T08:47:37.99Z</time></trkpt><trkpt lat="42.77380786207433" lon="10.330795326009449"><ele>266.0</ele><time>2026-04-18T08:47:38.99Z</time></trkpt><trkpt lat="42.77374704658507" lon="10.330846893234906"><ele>266.8</ele><time>2026-04-18T08:47:39.99Z</time></trkpt><trkpt lat="42.77368386778623" lon="10.330896373040696"><ele>267.6</ele><time>2026-04-18T08:47:40.99Z</time></trkpt><trkpt lat="42.77360377831196" lon="10.330952671206896"><ele>268.4</ele><time>2026-04-18T08:47:42.99Z</time></trkpt><trkpt lat="42.77350506771427" lon="10.331022160800545"><ele>269.2</ele><time>2026-04-18T08:47:44.99Z</time></trkpt><trkpt lat="42.773373026992395" lon="10.331117742832676"><ele>270.0</ele><time>2026-04-18T08:47:46.99Z</time></trkpt><trkpt lat="42.77322962675086" lon="10.331243804617731"><ele>266.0</ele><time>2026-04-18T08:47:47.99Z</time></trkpt><trkpt lat="42.77311447187407" lon="10.331422221625955"><ele>262.0</ele><time>2026-04-18T08:47:48.99Z</time></trkpt><trkpt lat="42.77305152355224" lon="10.33156945845506"><ele>258.0</ele><time>2026-04-18T08:47:49.99Z</time></trkpt><trkpt lat="42.773013281995446" lon="10.331688443267504"><ele>254.0</ele><time>2026-04-18T08:47:50.99Z</time></trkpt><trkpt lat="42.77297740113564" lon="10.33181704717614"><ele>254.0</ele><time>2026-04-18T08:47:51.99Z</time></trkpt><trkpt lat="42.772937957576865" lon="10.331943506205175"><ele>253.99999999999997</ele><time>2026-04-18T08:47:52.99Z</time></trkpt><trkpt lat="42.77290683682203" lon="10.332021570736616"><ele>253.99999999999997</ele><time>2026-04-18T08:47:53.99Z</time></trkpt><trkpt lat="42.77287180221547" lon="10.332131475576015"><ele>254.0</ele><time>2026-04-18T08:47:55.99Z</time></trkpt><trkpt lat="42.77283467875792" lon="10.332276679537742"><ele>254.0</ele><time>2026-04-18T08:47:57.99Z</time></trkpt><trkpt lat="42.772833216867525" lon="10.332418957322059"><ele>253.16666666666669</ele><time>2026-04-18T08:47:58.99Z</time></trkpt><trkpt lat="42.772860269506914" lon="10.332544867534214"><ele>252.33333333333334</ele><time>2026-04-18T08:47:59.99Z</time></trkpt><trkpt lat="42.77291433914541" lon="10.332666115441398"><ele>251.5</ele><time>2026-04-18T08:48:00.99Z</time></trkpt><trkpt lat="42.77295400596213" lon="10.332745610623645"><ele>250.66666666666669</ele><time>2026-04-18T08:48:01.99Z</time></trkpt><trkpt lat="42.772997636097514" lon="10.332824697019108"><ele>249.83333333333334</ele><time>2026-04-18T08:48:02.99Z</time></trkpt><trkpt lat="42.773048033745354" lon="10.332916050549308"><ele>249.0</ele><time>2026-04-18T08:48:03.99Z</time></trkpt><trkpt lat="42.773092514183276" lon="10.332998309249627"><ele>208.0</ele><time>2026-04-18T08:48:04.99Z</time></trkpt><trkpt lat="42.769889300028346" lon="10.331706880423779"><ele>208.0</ele><time>2026-04-18T08:49:05.989Z</time></trkpt><trkpt lat="42.769799511490525" lon="10.331655677970106"><ele>208.0</ele><time>2026-04-18T08:49:06.989Z</time></trkpt><trkpt lat="42.76970146598597" lon="10.331597553866523"><ele>208.0</ele><time>2026-04-18T08:49:07.989Z</time></trkpt><trkpt lat="42.76957289621511" lon="10.331513717464464"><ele>208.0</ele><time>2026-04-18T08:49:08.989Z</time></trkpt><trkpt lat="42.76946047862745" lon="10.331431704705857"><ele>207.2</ele><time>2026-04-18T08:49:09.989Z</time></trkpt><trkpt lat="42.76936445140485" lon="10.331365336262897"><ele>206.4</ele><time>2026-04-18T08:49:10.989Z</time></trkpt><trkpt lat="42.76926181810899" lon="10.331296220307026"><ele>205.6</ele><time>2026-04-18T08:49:11.989Z</time></trkpt><trkpt lat="42.769170862866396" lon="10.331221289503612"><ele>204.79999999999998</ele><time>2026-04-18T08:49:12.989Z</time></trkpt><trkpt lat="42.769093857763615" lon="10.331155228420176"><ele>204.0</ele><time>2026-04-18T08:49:13.989Z</time></trkpt><trkpt lat="42.769027468886165" lon="10.331083556190515"><ele>202.5</ele><time>2026-04-18T08:49:14.989Z</time></trkpt><trkpt lat="42.76895712851884" lon="10.331035893885309"><ele>201.0</ele><time>2026-04-18T08:49:15.989Z</time></trkpt><trkpt lat="42.76889024620448" lon="10.331017889059012"><ele>199.5</ele><time>2026-04-18T08:49:16.989Z</time></trkpt><trkpt lat="42.76882115489985" lon="10.331039751485292"><ele>198.0</ele><time>2026-04-18T08:49:17.989Z</time></trkpt><trkpt lat="42.76877019844402" lon="10.331116244270662"><ele>196.5</ele><time>2026-04-18T08:49:18.989Z</time></trkpt><trkpt lat="42.76872154730934" lon="10.33121875833636"><ele>195.0</ele><time>2026-04-18T08:49:19.989Z</time></trkpt><trkpt lat="42.768670794170596" lon="10.33129626168611"><ele>195.0</ele><time>2026-04-18T08:49:20.989Z</time></trkpt><trkpt lat="42.76860482616999" lon="10.331361917018123"><ele>195.0</ele><time>2026-04-18T08:49:21.989Z</time></trkpt><trkpt lat="42.768516397656946" lon="10.331427652162542"><ele>195.0</ele><time>2026-04-18T08:49:22.99Z</time></trkpt><trkpt lat="42.76845213000516" lon="10.331492682743331"><ele>195.0</ele><time>2026-04-18T08:49:23.99Z</time></trkpt><trkpt lat="42.76839534798394" lon="10.331577370482087"><ele>195.0</ele><time>2026-04-18T08:49:24.991Z</time></trkpt><trkpt lat="42.7683611054653" lon="10.331674951486804"><ele>195.0</ele><time>2026-04-18T08:49:25.991Z</time></trkpt><trkpt lat="42.76835596312866" lon="10.331787698025835"><ele>192.8</ele><time>2026-04-18T08:49:26.991Z</time></trkpt><trkpt lat="42.76835067910643" lon="10.331917908981737"><ele>190.6</ele><time>2026-04-18T08:49:27.991Z</time></trkpt><trkpt lat="42.76838723951601" lon="10.332066919159406"><ele>188.39999999999998</ele><time>2026-04-18T08:49:28.991Z</time></trkpt><trkpt lat="42.76843541102108" lon="10.332178099234286"><ele>186.2</ele><time>2026-04-18T08:49:29.991Z</time></trkpt><trkpt lat="42.76848220657453" lon="10.33224639225102"><ele>184.0</ele><time>2026-04-18T08:49:30.99Z</time></trkpt><trkpt lat="42.768472103150735" lon="10.332402763091174"><ele>184.0</ele><time>2026-04-18T08:49:32.99Z</time></trkpt><trkpt lat="42.76840715473325" lon="10.332445429453735"><ele>184.0</ele><time>2026-04-18T08:49:33.99Z</time></trkpt><trkpt lat="42.768329958795405" lon="10.332445340031631"><ele>184.0</ele><time>2026-04-18T08:49:34.99Z</time></trkpt><trkpt lat="42.76825256077364" lon="10.332423345716004"><ele>184.0</ele><time>2026-04-18T08:49:35.99Z</time></trkpt><trkpt lat="42.76819249600942" lon="10.332354153146811"><ele>184.0</ele><time>2026-04-18T08:49:36.991Z</time></trkpt><trkpt lat="42.768131895910024" lon="10.332235862896736"><ele>184.0</ele><time>2026-04-18T08:49:37.991Z</time></trkpt><trkpt lat="42.768078762087164" lon="10.332117405468564"><ele>184.0</ele><time>2026-04-18T08:49:38.991Z</time></trkpt><trkpt lat="42.76805091969384" lon="10.332028954414861"><ele>184.0</ele><time>2026-04-18T08:49:39.991Z</time></trkpt><trkpt lat="42.76804432819491" lon="10.331809171968658"><ele>184.0</ele><time>2026-04-18T08:49:41.99Z</time></trkpt><trkpt lat="42.76803650021768" lon="10.331653971942432"><ele>184.0</ele><time>2026-04-18T08:49:42.99Z</time></trkpt><trkpt lat="42.76803527872339" lon="10.331515874907627"><ele>184.0</ele><time>2026-04-18T08:49:43.99Z</time></trkpt><trkpt lat="42.76803969609314" lon="10.331405223643502"><ele>183.33333333333334</ele><time>2026-04-18T08:49:44.99Z</time></trkpt><trkpt lat="42.76806456171846" lon="10.331308892456281"><ele>182.66666666666669</ele><time>2026-04-18T08:49:45.99Z</time></trkpt><trkpt lat="42.76809347688037" lon="10.331197503402262"><ele>182.0</ele><time>2026-04-18T08:49:46.99Z</time></trkpt><trkpt lat="42.76812845244759" lon="10.331089149039206"><ele>181.33333333333334</ele><time>2026-04-18T08:49:47.99Z</time></trkpt><trkpt lat="42.76816568718549" lon="10.33100687914813"><ele>180.66666666666666</ele><time>2026-04-18T08:49:48.99Z</time></trkpt><trkpt lat="42.76817372541823" lon="10.330918093908009"><ele>180.0</ele><time>2026-04-18T08:49:49.99Z</time></trkpt><trkpt lat="42.76814686192764" lon="10.330815270090302"><ele>180.0</ele><time>2026-04-18T08:49:50.99Z</time></trkpt><trkpt lat="42.76808652855731" lon="10.330688876759666"><ele>180.0</ele><time>2026-04-18T08:49:51.99Z</time></trkpt><trkpt lat="42.76802828980427" lon="10.330577707884926"><ele>180.0</ele><time>2026-04-18T08:49:52.99Z</time></trkpt><trkpt lat="42.767967763418326" lon="10.330465035854004"><ele>180.0</ele><time>2026-04-18T08:49:53.99Z</time></trkpt><trkpt lat="42.76791374368948" lon="10.33036584674866"><ele>180.0</ele><time>2026-04-18T08:49:54.99Z</time></trkpt><trkpt lat="42.76785420746377" lon="10.330294774031119"><ele>178.16666666666666</ele><time>2026-04-18T08:49:55.99Z</time></trkpt><trkpt lat="42.76778404588418" lon="10.330219330328733"><ele>176.33333333333334</ele><time>2026-04-18T08:49:56.99Z</time></trkpt><trkpt lat="42.767731289592625" lon="10.330136478917014"><ele>174.5</ele><time>2026-04-18T08:49:57.99Z</time></trkpt><trkpt lat="42.76767715272525" lon="10.330056858447026"><ele>172.66666666666669</ele><time>2026-04-18T08:49:58.99Z</time></trkpt><trkpt lat="42.7676236705045" lon="10.329962673441836"><ele>170.83333333333334</ele><time>2026-04-18T08:49:59.99Z</time></trkpt><trkpt lat="42.76757820989176" lon="10.329874881190513"><ele>169.0</ele><time>2026-04-18T08:50:00.99Z</time></trkpt><trkpt lat="42.76753514989575" lon="10.329791157740953"><ele>162.25</ele><time>2026-04-18T08:50:01.99Z</time></trkpt><trkpt lat="42.76748236058757" lon="10.329717112057448"><ele>155.5</ele><time>2026-04-18T08:50:02.99Z</time></trkpt><trkpt lat="42.76740109967237" lon="10.329651607253991"><ele>148.75</ele><time>2026-04-18T08:50:03.99Z</time></trkpt><trkpt lat="42.76732704151003" lon="10.329607648791162"><ele>142.0</ele><time>2026-04-18T08:50:04.99Z</time></trkpt><trkpt lat="42.7657824970316" lon="10.328660955642395"><ele>82.0</ele><time>2026-04-18T08:51:05.989Z</time></trkpt><trkpt lat="42.76743291146046" lon="10.32707973934843"><ele>82.0</ele><time>2026-04-18T08:54:05.99Z</time></trkpt><trkpt lat="42.76752322168583" lon="10.326892451238304"><ele>82.0</ele><time>2026-04-18T08:54:09.99Z</time></trkpt><trkpt lat="42.76750129396808" lon="10.32679342400321"><ele>82.0</ele><time>2026-04-18T08:54:10.99Z</time></trkpt><trkpt lat="42.76744829930615" lon="10.326721236432775"><ele>82.0</ele><time>2026-04-18T08:54:12.99Z</time></trkpt><trkpt lat="42.76737037069655" lon="10.326615084921004"><ele>82.0</ele><time>2026-04-18T08:54:14.99Z</time></trkpt><trkpt lat="42.767334664520995" lon="10.326525527341527"><ele>82.0</ele><time>2026-04-18T08:54:16.99Z</time></trkpt><trkpt lat="42.76727025304657" lon="10.326412715507612"><ele>82.0</ele><time>2026-04-18T08:54:19.99Z</time></trkpt><trkpt lat="42.76691514539425" lon="10.326595039041068"><ele>80.6</ele><time>2026-04-18T08:54:23.99Z</time></trkpt><trkpt lat="42.76680793291115" lon="10.326560408697414"><ele>79.19999999999999</ele><time>2026-04-18T08:54:25.99Z</time></trkpt><trkpt lat="42.76672642371111" lon="10.326520489023785"><ele>77.8</ele><time>2026-04-18T08:54:26.99Z</time></trkpt><trkpt lat="42.766650202390686" lon="10.326498363463438"><ele>76.4</ele><time>2026-04-18T08:54:27.99Z</time></trkpt><trkpt lat="42.76654069172042" lon="10.326441402290815"><ele>75.0</ele><time>2026-04-18T08:54:29.99Z</time></trkpt><trkpt lat="42.76643239865747" lon="10.326382629004765"><ele>72.8</ele><time>2026-04-18T08:54:31.99Z</time></trkpt><trkpt lat="42.766321443052014" lon="10.326387295536854"><ele>70.6</ele><time>2026-04-18T08:54:33.99Z</time></trkpt><trkpt lat="42.76626694335366" lon="10.326295425777843"><ele>68.4</ele><time>2026-04-18T08:54:35.99Z</time></trkpt><trkpt lat="42.766243204326585" lon="10.326182315680178"><ele>66.2</ele><time>2026-04-18T08:54:37.99Z</time></trkpt><trkpt lat="42.76623035841521" lon="10.326046265289175"><ele>64.0</ele><time>2026-04-18T08:54:39.99Z</time></trkpt><trkpt lat="42.766162782850856" lon="10.325926469122605"><ele>64.0</ele><time>2026-04-18T08:54:41.99Z</time></trkpt><trkpt lat="42.76613014164349" lon="10.325850506630255"><ele>64.0</ele><time>2026-04-18T08:54:42.99Z</time></trkpt><trkpt lat="42.766076347164216" lon="10.32571484379814"><ele>64.0</ele><time>2026-04-18T08:54:44.99Z</time></trkpt><trkpt lat="42.76603924636272" lon="10.325587920820263"><ele>64.0</ele><time>2026-04-18T08:54:46.99Z</time></trkpt><trkpt lat="42.76598479737488" lon="10.32546169796814"><ele>64.0</ele><time>2026-04-18T08:54:48.99Z</time></trkpt><trkpt lat="42.76594044700583" lon="10.325389015308195"><ele>61.6</ele><time>2026-04-18T08:54:49.99Z</time></trkpt><trkpt lat="42.76587392388207" lon="10.325302882413844"><ele>59.2</ele><time>2026-04-18T08:54:51.99Z</time></trkpt><trkpt lat="42.765818786074206" lon="10.325251279329098"><ele>56.800000000000004</ele><time>2026-04-18T08:54:52.99Z</time></trkpt><trkpt lat="42.76576742550068" lon="10.325121842905366"><ele>54.400000000000006</ele><time>2026-04-18T08:54:54.99Z</time></trkpt><trkpt lat="42.76568817118387" lon="10.324984602101509"><ele>52.0</ele><time>2026-04-18T08:54:56.99Z</time></trkpt><trkpt lat="42.76564824230198" lon="10.324908372836035"><ele>52.0</ele><time>2026-04-18T08:54:57.99Z</time></trkpt><trkpt lat="42.76556289070616" lon="10.324800826033844"><ele>52.0</ele><time>2026-04-18T08:54:59.989Z</time></trkpt><trkpt lat="42.76546987670241" lon="10.324713529499336"><ele>52.0</ele><time>2026-04-18T08:55:01.989Z</time></trkpt><trkpt lat="42.76540787244709" lon="10.324696699775979"><ele>52.0</ele><time>2026-04-18T08:55:02.989Z</time></trkpt><trkpt lat="42.76526687092506" lon="10.324699882890359"><ele>52.0</ele><time>2026-04-18T08:55:04.989Z</time></trkpt><trkpt lat="42.76652329993492" lon="10.321776974639814"><ele>50.400000000000006</ele><time>2026-04-18T08:56:05.989Z</time></trkpt><trkpt lat="42.76648093669322" lon="10.321668847267775"><ele>48.800000000000004</ele><time>2026-04-18T08:56:06.989Z</time></trkpt><trkpt lat="42.76642260000333" lon="10.321561919926657"><ele>47.2</ele><time>2026-04-18T08:56:07.989Z</time></trkpt><trkpt lat="42.76636905823443" lon="10.321436237158121"><ele>45.6</ele><time>2026-04-18T08:56:08.989Z</time></trkpt><trkpt lat="42.76630918511823" lon="10.321314447900571"><ele>44.0</ele><time>2026-04-18T08:56:09.989Z</time></trkpt><trkpt lat="42.766254908350035" lon="10.321187220335334"><ele>44.0</ele><time>2026-04-18T08:56:10.989Z</time></trkpt><trkpt lat="42.766194264479445" lon="10.321060524288768"><ele>44.0</ele><time>2026-04-18T08:56:11.989Z</time></trkpt><trkpt lat="42.76612450380114" lon="10.320948436840071"><ele>44.0</ele><time>2026-04-18T08:56:12.989Z</time></trkpt><trkpt lat="42.766049752912025" lon="10.320840201838537"><ele>44.0</ele><time>2026-04-18T08:56:13.989Z</time></trkpt><trkpt lat="42.765958257762954" lon="10.320751286734662"><ele>44.0</ele><time>2026-04-18T08:56:14.989Z</time></trkpt><trkpt lat="42.76586146299821" lon="10.320668223739805"><ele>42.0</ele><time>2026-04-18T08:56:15.989Z</time></trkpt><trkpt lat="42.765770976314116" lon="10.320567987233938"><ele>40.0</ele><time>2026-04-18T08:56:16.989Z</time></trkpt><trkpt lat="42.765695745895705" lon="10.320443997648258"><ele>38.0</ele><time>2026-04-18T08:56:17.989Z</time></trkpt><trkpt lat="42.76563550138999" lon="10.320305955024041"><ele>36.0</ele><time>2026-04-18T08:56:18.989Z</time></trkpt><trkpt lat="42.765558852763974" lon="10.320178086479208"><ele>36.0</ele><time>2026-04-18T08:56:19.989Z</time></trkpt><trkpt lat="42.765457662294665" lon="10.320070368887595"><ele>36.0</ele><time>2026-04-18T08:56:20.989Z</time></trkpt><trkpt lat="42.76535143745711" lon="10.319976903133236"><ele>36.0</ele><time>2026-04-18T08:56:21.989Z</time></trkpt><trkpt lat="42.76524194893119" lon="10.3198947924096"><ele>36.0</ele><time>2026-04-18T08:56:22.989Z</time></trkpt><trkpt lat="42.76514138883" lon="10.319803199108271"><ele>34.5</ele><time>2026-04-18T08:56:23.989Z</time></trkpt><trkpt lat="42.765045480352164" lon="10.31972466420444"><ele>33.0</ele><time>2026-04-18T08:56:24.989Z</time></trkpt><trkpt lat="42.764948902984536" lon="10.319636026293658"><ele>31.5</ele><time>2026-04-18T08:56:25.989Z</time></trkpt><trkpt lat="42.764862096973246" lon="10.31952900416065"><ele>30.0</ele><time>2026-04-18T08:56:26.989Z</time></trkpt><trkpt lat="42.76478969035434" lon="10.319403646684297"><ele>30.0</ele><time>2026-04-18T08:56:27.989Z</time></trkpt><trkpt lat="42.76474122941039" lon="10.31926594026718"><ele>30.0</ele><time>2026-04-18T08:56:28.989Z</time></trkpt><trkpt lat="42.76472884373814" lon="10.319116595459759"><ele>30.0</ele><time>2026-04-18T08:56:29.989Z</time></trkpt><trkpt lat="42.764731820042854" lon="10.3189681515907"><ele>30.0</ele><time>2026-04-18T08:56:30.989Z</time></trkpt><trkpt lat="42.76478061783943" lon="10.318820170231133"><ele>29.8</ele><time>2026-04-18T08:56:31.988Z</time></trkpt><trkpt lat="42.76480925676301" lon="10.31865892693758"><ele>29.6</ele><time>2026-04-18T08:56:32.988Z</time></trkpt><trkpt lat="42.76485014632115" lon="10.318514438947398"><ele>29.4</ele><time>2026-04-18T08:56:33.988Z</time></trkpt><trkpt lat="42.76489245035232" lon="10.318377325694893"><ele>29.2</ele><time>2026-04-18T08:56:34.988Z</time></trkpt><trkpt lat="42.764912207101254" lon="10.318259501499659"><ele>29.0</ele><time>2026-04-18T08:56:35.988Z</time></trkpt><trkpt lat="42.76491123122914" lon="10.31816423274942"><ele>28.999999999999996</ele><time>2026-04-18T08:56:36.988Z</time></trkpt><trkpt lat="42.7649125018762" lon="10.318071257281613"><ele>29.0</ele><time>2026-04-18T08:56:39.988Z</time></trkpt><trkpt lat="42.7648284243936" lon="10.317976377350073"><ele>29.0</ele><time>2026-04-18T08:57:01.929Z</time></trkpt><trkpt lat="42.76477387178391" lon="10.317913182992868"><ele>29.0</ele><time>2026-04-18T08:57:02.929Z</time></trkpt><trkpt lat="42.76470753267493" lon="10.317834140870707"><ele>28.999999999999996</ele><time>2026-04-18T08:57:03.929Z</time></trkpt><trkpt lat="42.76463277335075" lon="10.317749890068898"><ele>29.0</ele><time>2026-04-18T08:57:04.929Z</time></trkpt><trkpt lat="42.76454647002434" lon="10.317656630358593"><ele>29.2</ele><time>2026-04-18T08:57:05.929Z</time></trkpt><trkpt lat="42.76446934843026" lon="10.317526058938382"><ele>29.4</ele><time>2026-04-18T08:57:06.929Z</time></trkpt><trkpt lat="42.764418145731135" lon="10.317398535856206"><ele>29.6</ele><time>2026-04-18T08:57:07.929Z</time></trkpt><trkpt lat="42.76439189470195" lon="10.317275443146956"><ele>29.8</ele><time>2026-04-18T08:57:08.929Z</time></trkpt><trkpt lat="42.7643432252707" lon="10.317177084860386"><ele>30.0</ele><time>2026-04-18T08:57:09.929Z</time></trkpt><trkpt lat="42.76426072310922" lon="10.317100323053264"><ele>27.75</ele><time>2026-04-18T08:57:10.929Z</time></trkpt><trkpt lat="42.764151356358745" lon="10.317054067805856"><ele>25.5</ele><time>2026-04-18T08:57:11.929Z</time></trkpt><trkpt lat="42.76402156506972" lon="10.317015177376872"><ele>23.25</ele><time>2026-04-18T08:57:12.929Z</time></trkpt><trkpt lat="42.7638965051242" lon="10.31700384056558"><ele>21.0</ele><time>2026-04-18T08:57:13.929Z</time></trkpt><trkpt lat="42.76377407931943" lon="10.31698228370456"><ele>21.0</ele><time>2026-04-18T08:57:14.929Z</time></trkpt><trkpt lat="42.763658205560674" lon="10.316957278618656"><ele>21.0</ele><time>2026-04-18T08:57:15.929Z</time></trkpt><trkpt lat="42.763546831018175" lon="10.316933224752965"><ele>21.0</ele><time>2026-04-18T08:57:16.929Z</time></trkpt><trkpt lat="42.763441262278945" lon="10.316911309325588"><ele>21.0</ele><time>2026-04-18T08:57:17.929Z</time></trkpt><trkpt lat="42.763337143201994" lon="10.316893658953383"><ele>21.0</ele><time>2026-04-18T08:57:18.929Z</time></trkpt><trkpt lat="42.763221695597856" lon="10.316874220759974"><ele>20.25</ele><time>2026-04-18T08:57:19.929Z</time></trkpt><trkpt lat="42.763092990543775" lon="10.316850240009858"><ele>19.5</ele><time>2026-04-18T08:57:20.929Z</time></trkpt><trkpt lat="42.76296546292741" lon="10.316827314354192"><ele>18.75</ele><time>2026-04-18T08:57:21.929Z</time></trkpt><trkpt lat="42.76283262606154" lon="10.316803418090851"><ele>18.0</ele><time>2026-04-18T08:57:22.929Z</time></trkpt><trkpt lat="42.762703012072194" lon="10.316783296693082"><ele>17.25</ele><time>2026-04-18T08:57:23.929Z</time></trkpt><trkpt lat="42.762575930063875" lon="10.316759944422401"><ele>16.5</ele><time>2026-04-18T08:57:24.929Z</time></trkpt><trkpt lat="42.762456843173794" lon="10.316739210458133"><ele>15.75</ele><time>2026-04-18T08:57:25.929Z</time></trkpt><trkpt lat="42.76234513039138" lon="10.31671645417301"><ele>15.0</ele><time>2026-04-18T08:57:26.929Z</time></trkpt><trkpt lat="42.76223038414925" lon="10.316692843641244"><ele>15.0</ele><time>2026-04-18T08:57:27.929Z</time></trkpt><trkpt lat="42.76211185039275" lon="10.31666600473386"><ele>15.0</ele><time>2026-04-18T08:57:28.929Z</time></trkpt><trkpt lat="42.761997294921166" lon="10.316650034191614"><ele>15.0</ele><time>2026-04-18T08:57:29.929Z</time></trkpt><trkpt lat="42.76188001664301" lon="10.316621696133014"><ele>15.0</ele><time>2026-04-18T08:57:30.929Z</time></trkpt><trkpt lat="42.7617628963197" lon="10.316599645582897"><ele>14.0</ele><time>2026-04-18T08:57:31.929Z</time></trkpt><trkpt lat="42.76164675978703" lon="10.31658198906425"><ele>13.0</ele><time>2026-04-18T08:57:32.929Z</time></trkpt><trkpt lat="42.76152577657413" lon="10.316561574568402"><ele>12.0</ele><time>2026-04-18T08:57:33.928Z</time></trkpt><trkpt lat="42.761406324313526" lon="10.31653643123275"><ele>11.0</ele><time>2026-04-18T08:57:34.928Z</time></trkpt><trkpt lat="42.76129316351798" lon="10.31651587914869"><ele>11.0</ele><time>2026-04-18T08:57:35.928Z</time></trkpt><trkpt lat="42.76117587131337" lon="10.31649220223136"><ele>11.0</ele><time>2026-04-18T08:57:36.928Z</time></trkpt><trkpt lat="42.76105598033467" lon="10.31646437748622"><ele>11.0</ele><time>2026-04-18T08:57:37.928Z</time></trkpt><trkpt lat="42.76093108467275" lon="10.31643333426513"><ele>11.0</ele><time>2026-04-18T08:57:38.928Z</time></trkpt><trkpt lat="42.76079944315854" lon="10.316397527316868"><ele>10.0</ele><time>2026-04-18T08:57:39.928Z</time></trkpt><trkpt lat="42.76068227816644" lon="10.31636751397877"><ele>9.0</ele><time>2026-04-18T08:57:40.928Z</time></trkpt><trkpt lat="42.760572223893504" lon="10.316345029903736"><ele>8.0</ele><time>2026-04-18T08:57:41.928Z</time></trkpt><trkpt lat="42.76046409178848" lon="10.316318807659627"><ele>7.0</ele><time>2026-04-18T08:57:42.928Z</time></trkpt><trkpt lat="42.760353238132915" lon="10.316293051683285"><ele>7.0</ele><time>2026-04-18T08:57:43.928Z</time></trkpt><trkpt lat="42.76026254934365" lon="10.316234828983816"><ele>6.999999999999999</ele><time>2026-04-18T08:57:44.928Z</time></trkpt><trkpt lat="42.76021620641428" lon="10.316136176229776"><ele>6.999999999999999</ele><time>2026-04-18T08:57:45.928Z</time></trkpt><trkpt lat="42.76018934534915" lon="10.316004750106513"><ele>7.0</ele><time>2026-04-18T08:57:46.93Z</time></trkpt><trkpt lat="42.76016655062842" lon="10.31586988200431"><ele>7.0</ele><time>2026-04-18T08:57:47.93Z</time></trkpt><trkpt lat="42.76011896413867" lon="10.315755505165786"><ele>6.666666666666667</ele><time>2026-04-18T08:57:48.93Z</time></trkpt><trkpt lat="42.76024110282222" lon="10.31552387280128"><ele>6.333333333333334</ele><time>2026-04-18T08:57:49.93Z</time></trkpt><trkpt lat="42.760267841497736" lon="10.315348357015791"><ele>6.0</ele><time>2026-04-18T08:57:50.929Z</time></trkpt><trkpt lat="42.76029729414607" lon="10.315187670707193"><ele>6.0</ele><time>2026-04-18T08:57:51.929Z</time></trkpt><trkpt lat="42.760325068866294" lon="10.315041223806174"><ele>6.0</ele><time>2026-04-18T08:57:52.929Z</time></trkpt><trkpt lat="42.760352854125664" lon="10.314884489973824"><ele>6.0</ele><time>2026-04-18T08:57:53.929Z</time></trkpt><trkpt lat="42.76038909006995" lon="10.314733976286497"><ele>6.0</ele><time>2026-04-18T08:57:54.93Z</time></trkpt><trkpt lat="42.760411133496" lon="10.314578823134578"><ele>5.8</ele><time>2026-04-18T08:57:55.93Z</time></trkpt><trkpt lat="42.760434400904415" lon="10.314437112717153"><ele>5.6</ele><time>2026-04-18T08:57:56.93Z</time></trkpt><trkpt lat="42.760458063679025" lon="10.314294831005745"><ele>5.4</ele><time>2026-04-18T08:57:57.93Z</time></trkpt><trkpt lat="42.76047483409988" lon="10.31415914520168"><ele>5.2</ele><time>2026-04-18T08:57:58.929Z</time></trkpt><trkpt lat="42.76050262007094" lon="10.314016172574219"><ele>5.0</ele><time>2026-04-18T08:57:59.929Z</time></trkpt><trkpt lat="42.760526885008325" lon="10.313868288805502"><ele>4.8</ele><time>2026-04-18T08:58:00.929Z</time></trkpt><trkpt lat="42.76054860451698" lon="10.313711388106988"><ele>4.6</ele><time>2026-04-18T08:58:01.929Z</time></trkpt><trkpt lat="42.760576234951024" lon="10.313561823554982"><ele>4.4</ele><time>2026-04-18T08:58:02.93Z</time></trkpt><trkpt lat="42.760600461725986" lon="10.313419767133126"><ele>4.2</ele><time>2026-04-18T08:58:03.93Z</time></trkpt><trkpt lat="42.76062801883407" lon="10.31329595059177"><ele>4.0</ele><time>2026-04-18T08:58:04.929Z</time></trkpt><trkpt lat="42.760476593153406" lon="10.312946280262292"><ele>7.0</ele><time>2026-04-18T09:00:07.928Z</time></trkpt><trkpt lat="42.761934688029484" lon="10.303289009163652"><ele>7.0</ele><time>2026-04-18T09:30:05.905Z</time></trkpt><trkpt lat="42.76193348980338" lon="10.303110738469844"><ele>7.0</ele><time>2026-04-18T09:30:06.905Z</time></trkpt><trkpt lat="42.76193240148616" lon="10.302937201911762"><ele>7.0</ele><time>2026-04-18T09:30:07.905Z</time></trkpt><trkpt lat="42.76192207364902" lon="10.302779858311895"><ele>7.0</ele><time>2026-04-18T09:30:08.905Z</time></trkpt><trkpt lat="42.76190945998815" lon="10.302621929471144"><ele>7.0</ele><time>2026-04-18T09:30:09.905Z</time></trkpt><trkpt lat="42.76190328293382" lon="10.302449868408456"><ele>7.0</ele><time>2026-04-18T09:30:10.905Z</time></trkpt><trkpt lat="42.761889149552566" lon="10.30226496394073"><ele>7.0</ele><time>2026-04-18T09:30:11.905Z</time></trkpt><trkpt lat="42.76188087672314" lon="10.302076159059158"><ele>7.0</ele><time>2026-04-18T09:30:12.905Z</time></trkpt><trkpt lat="42.76187304321939" lon="10.301879127809633"><ele>6.5</ele><time>2026-04-18T09:30:13.905Z</time></trkpt><trkpt lat="42.761863428509805" lon="10.30167370065656"><ele>6.0</ele><time>2026-04-18T09:30:14.905Z</time></trkpt><trkpt lat="42.761855450644205" lon="10.301479222499683"><ele>5.5</ele><time>2026-04-18T09:30:15.905Z</time></trkpt><trkpt lat="42.76184028156093" lon="10.301308619313243"><ele>5.0</ele><time>2026-04-18T09:30:16.905Z</time></trkpt><trkpt lat="42.76182873636025" lon="10.301154629133308"><ele>5.0</ele><time>2026-04-18T09:30:17.905Z</time></trkpt><trkpt lat="42.76181910467887" lon="10.301017479481496"><ele>5.0</ele><time>2026-04-18T09:30:18.905Z</time></trkpt><trkpt lat="42.761809539644894" lon="10.30088430442911"><ele>5.0</ele><time>2026-04-18T09:30:19.905Z</time></trkpt><trkpt lat="42.76180175998465" lon="10.300749814805291"><ele>5.0</ele><time>2026-04-18T09:30:20.905Z</time></trkpt><trkpt lat="42.761793446729605" lon="10.300609970156206"><ele>5.0</ele><time>2026-04-18T09:30:21.905Z</time></trkpt><trkpt lat="42.76178764125766" lon="10.300470668631535"><ele>5.0</ele><time>2026-04-18T09:30:22.905Z</time></trkpt><trkpt lat="42.76179254800308" lon="10.300327217771965"><ele>5.0</ele><time>2026-04-18T09:30:23.905Z</time></trkpt><trkpt lat="42.7618044065152" lon="10.300183453364767"><ele>5.0</ele><time>2026-04-18T09:30:24.905Z</time></trkpt><trkpt lat="42.76182998084795" lon="10.300037821603407"><ele>5.0</ele><time>2026-04-18T09:30:25.905Z</time></trkpt><trkpt lat="42.761889450596286" lon="10.299899422796264"><ele>5.0</ele><time>2026-04-18T09:30:26.905Z</time></trkpt><trkpt lat="42.761956403547686" lon="10.299765861352823"><ele>7.0</ele><time>2026-04-18T09:30:27.905Z</time></trkpt><trkpt lat="42.762018732758534" lon="10.299643971097344"><ele>9.0</ele><time>2026-04-18T09:30:28.905Z</time></trkpt><trkpt lat="42.76208832864655" lon="10.299505028313131"><ele>11.0</ele><time>2026-04-18T09:30:29.905Z</time></trkpt><trkpt lat="42.76214732509329" lon="10.299358778036009"><ele>13.0</ele><time>2026-04-18T09:30:30.905Z</time></trkpt><trkpt lat="42.76220436844956" lon="10.299176701991907"><ele>13.0</ele><time>2026-04-18T09:30:31.905Z</time></trkpt><trkpt lat="42.76225294424658" lon="10.298968551441481"><ele>13.0</ele><time>2026-04-18T09:30:32.905Z</time></trkpt><trkpt lat="42.762306013114944" lon="10.298752814401762"><ele>13.0</ele><time>2026-04-18T09:30:33.905Z</time></trkpt><trkpt lat="42.762355136258385" lon="10.298526699091529"><ele>12.666666666666666</ele><time>2026-04-18T09:30:34.905Z</time></trkpt><trkpt lat="42.76239622168124" lon="10.298277481682161"><ele>12.333333333333332</ele><time>2026-04-18T09:30:35.905Z</time></trkpt><trkpt lat="42.762437966431975" lon="10.298042038666367"><ele>12.0</ele><time>2026-04-18T09:30:36.905Z</time></trkpt><trkpt lat="42.76249614407408" lon="10.297837913876434"><ele>11.75</ele><time>2026-04-18T09:30:37.905Z</time></trkpt><trkpt lat="42.76256688363327" lon="10.297659087578069"><ele>11.5</ele><time>2026-04-18T09:30:38.905Z</time></trkpt><trkpt lat="42.76261871291971" lon="10.297492911845827"><ele>11.25</ele><time>2026-04-18T09:30:39.905Z</time></trkpt><trkpt lat="42.7626126345688" lon="10.297306868501842"><ele>11.0</ele><time>2026-04-18T09:30:40.905Z</time></trkpt><trkpt lat="42.7625723249377" lon="10.297117411731941"><ele>11.666666666666666</ele><time>2026-04-18T09:30:41.905Z</time></trkpt><trkpt lat="42.76251773202924" lon="10.29693638204884"><ele>12.333333333333332</ele><time>2026-04-18T09:30:42.905Z</time></trkpt><trkpt lat="42.76242991118404" lon="10.296752466746305"><ele>13.0</ele><time>2026-04-18T09:30:43.905Z</time></trkpt><trkpt lat="42.762323492282334" lon="10.296572191695118"><ele>13.75</ele><time>2026-04-18T09:30:44.905Z</time></trkpt><trkpt lat="42.762208026608434" lon="10.29637697057897"><ele>14.5</ele><time>2026-04-18T09:30:45.905Z</time></trkpt><trkpt lat="42.76212782594314" lon="10.296205643415876"><ele>15.25</ele><time>2026-04-18T09:30:46.905Z</time></trkpt><trkpt lat="42.76205428926617" lon="10.29608669706138"><ele>16.0</ele><time>2026-04-18T09:30:47.905Z</time></trkpt><trkpt lat="42.76200434806479" lon="10.295999405122476"><ele>16.0</ele><time>2026-04-18T09:30:48.905Z</time></trkpt><trkpt lat="42.76191066893813" lon="10.29592216687809"><ele>16.0</ele><time>2026-04-18T09:30:50.905Z</time></trkpt><trkpt lat="42.76182533488138" lon="10.296016830525394"><ele>16.0</ele><time>2026-04-18T09:30:54.904Z</time></trkpt><trkpt lat="42.76181854445816" lon="10.29613906089567"><ele>16.0</ele><time>2026-04-18T09:30:56.904Z</time></trkpt><trkpt lat="42.761852458443045" lon="10.296298957095535"><ele>16.0</ele><time>2026-04-18T09:30:58.904Z</time></trkpt><trkpt lat="42.76181936758828" lon="10.29645532495594"><ele>16.75</ele><time>2026-04-18T09:31:00.904Z</time></trkpt><trkpt lat="42.76170961925585" lon="10.296520780796996"><ele>17.5</ele><time>2026-04-18T09:31:01.904Z</time></trkpt><trkpt lat="42.761616956689274" lon="10.296589712346362"><ele>18.25</ele><time>2026-04-18T09:31:02.904Z</time></trkpt><trkpt lat="42.761532055074" lon="10.296662175733628"><ele>19.0</ele><time>2026-04-18T09:31:03.904Z</time></trkpt><trkpt lat="42.76142282140968" lon="10.296784026918592"><ele>45.0</ele><time>2026-04-18T09:31:04.904Z</time></trkpt><trkpt lat="42.75859146051154" lon="10.295046340664294"><ele>42.833333333333336</ele><time>2026-04-18T09:32:05.904Z</time></trkpt><trkpt lat="42.75851162155271" lon="10.294967186417841"><ele>40.666666666666664</ele><time>2026-04-18T09:32:06.904Z</time></trkpt><trkpt lat="42.758430733773295" lon="10.294923267319511"><ele>38.5</ele><time>2026-04-18T09:32:07.904Z</time></trkpt><trkpt lat="42.758361409397324" lon="10.294899430405241"><ele>36.33333333333333</ele><time>2026-04-18T09:32:08.904Z</time></trkpt><trkpt lat="42.75829879054502" lon="10.294916591196875"><ele>34.166666666666664</ele><time>2026-04-18T09:32:09.903Z</time></trkpt><trkpt lat="42.75822480907701" lon="10.294980559029504"><ele>32.0</ele><time>2026-04-18T09:32:10.903Z</time></trkpt><trkpt lat="42.758163964732624" lon="10.295018726580386"><ele>31.999999999999996</ele><time>2026-04-18T09:32:11.903Z</time></trkpt><trkpt lat="42.75809696877185" lon="10.295013602083207"><ele>32.0</ele><time>2026-04-18T09:32:12.903Z</time></trkpt><trkpt lat="42.75801939606231" lon="10.295012451243368"><ele>32.0</ele><time>2026-04-18T09:32:13.903Z</time></trkpt><trkpt lat="42.75795317695102" lon="10.295013940336005"><ele>32.0</ele><time>2026-04-18T09:32:14.903Z</time></trkpt><trkpt lat="42.757886262415454" lon="10.295028763705988"><ele>31.999999999999996</ele><time>2026-04-18T09:32:15.903Z</time></trkpt><trkpt lat="42.75778185750733" lon="10.295027052664555"><ele>32.0</ele><time>2026-04-18T09:32:17.903Z</time></trkpt><trkpt lat="42.7577061045518" lon="10.294986682591253"><ele>36.0</ele><time>2026-04-18T09:32:19.903Z</time></trkpt><trkpt lat="42.756309064516316" lon="10.293196587652837"><ele>36.0</ele><time>2026-04-18T09:34:05.902Z</time></trkpt><trkpt lat="42.75624582035855" lon="10.293113340852374"><ele>36.0</ele><time>2026-04-18T09:34:06.902Z</time></trkpt><trkpt lat="42.75619295788999" lon="10.293018013997264"><ele>36.0</ele><time>2026-04-18T09:34:07.902Z</time></trkpt><trkpt lat="42.75614009489468" lon="10.292939457746167"><ele>36.0</ele><time>2026-04-18T09:34:08.902Z</time></trkpt><trkpt lat="42.75609602247877" lon="10.292854270171066"><ele>36.0</ele><time>2026-04-18T09:34:09.902Z</time></trkpt><trkpt lat="42.75603260644144" lon="10.29278469025436"><ele>36.0</ele><time>2026-04-18T09:34:10.902Z</time></trkpt><trkpt lat="42.75597220006127" lon="10.292711508348932"><ele>35.333333333333336</ele><time>2026-04-18T09:34:11.902Z</time></trkpt><trkpt lat="42.755900287710304" lon="10.292687959146823"><ele>34.666666666666664</ele><time>2026-04-18T09:34:12.902Z</time></trkpt><trkpt lat="42.75581838693446" lon="10.292646906809749"><ele>34.0</ele><time>2026-04-18T09:34:13.902Z</time></trkpt><trkpt lat="42.755745185290856" lon="10.29263718323036"><ele>33.33333333333333</ele><time>2026-04-18T09:34:14.901Z</time></trkpt><trkpt lat="42.75567145267181" lon="10.29249837039598"><ele>32.666666666666664</ele><time>2026-04-18T09:34:16.901Z</time></trkpt><trkpt lat="42.75566462388997" lon="10.292397665250315"><ele>32.0</ele><time>2026-04-18T09:34:17.901Z</time></trkpt><trkpt lat="42.75565690177021" lon="10.29230218800746"><ele>34.666666666666664</ele><time>2026-04-18T09:34:18.901Z</time></trkpt><trkpt lat="42.755616422569794" lon="10.29222686372796"><ele>37.33333333333333</ele><time>2026-04-18T09:34:19.901Z</time></trkpt><trkpt lat="42.75553815768958" lon="10.29218187549822"><ele>40.0</ele><time>2026-04-18T09:34:20.901Z</time></trkpt><trkpt lat="42.75544180605481" lon="10.292148907767977"><ele>42.666666666666664</ele><time>2026-04-18T09:34:21.901Z</time></trkpt><trkpt lat="42.755362882964114" lon="10.29209213485186"><ele>45.333333333333336</ele><time>2026-04-18T09:34:22.901Z</time></trkpt><trkpt lat="42.75529306104587" lon="10.292022403896603"><ele>48.0</ele><time>2026-04-18T09:34:23.901Z</time></trkpt><trkpt lat="42.75523780164033" lon="10.291950161555448"><ele>45.0</ele><time>2026-04-18T09:34:24.901Z</time></trkpt><trkpt lat="42.75519851947857" lon="10.291864969951062"><ele>42.0</ele><time>2026-04-18T09:34:25.901Z</time></trkpt><trkpt lat="42.755144908833316" lon="10.29177374727689"><ele>39.0</ele><time>2026-04-18T09:34:26.901Z</time></trkpt><trkpt lat="42.75510884080799" lon="10.29165555741542"><ele>36.0</ele><time>2026-04-18T09:34:27.901Z</time></trkpt><trkpt lat="42.7550771385679" lon="10.291521471054246"><ele>33.0</ele><time>2026-04-18T09:34:28.901Z</time></trkpt><trkpt lat="42.75505021229988" lon="10.291396864577125"><ele>33.0</ele><time>2026-04-18T09:34:29.901Z</time></trkpt><trkpt lat="42.75501807607767" lon="10.291268178360937"><ele>33.0</ele><time>2026-04-18T09:34:30.901Z</time></trkpt><trkpt lat="42.754996070311016" lon="10.291136236208702"><ele>33.0</ele><time>2026-04-18T09:34:31.901Z</time></trkpt><trkpt lat="42.75499192339092" lon="10.291002663904866"><ele>33.0</ele><time>2026-04-18T09:34:32.901Z</time></trkpt><trkpt lat="42.75502490945692" lon="10.290894257387249"><ele>33.0</ele><time>2026-04-18T09:34:33.901Z</time></trkpt><trkpt lat="42.755050945459764" lon="10.290769857666264"><ele>33.0</ele><time>2026-04-18T09:34:34.901Z</time></trkpt><trkpt lat="42.755059253807545" lon="10.29066801960194"><ele>33.0</ele><time>2026-04-18T09:34:35.901Z</time></trkpt><trkpt lat="42.75505636549385" lon="10.29058109898678"><ele>33.0</ele><time>2026-04-18T09:34:36.901Z</time></trkpt><trkpt lat="42.75499760714552" lon="10.290402751152335"><ele>33.0</ele><time>2026-04-18T09:34:38.901Z</time></trkpt><trkpt lat="42.75495928645095" lon="10.290307831663263"><ele>33.0</ele><time>2026-04-18T09:34:39.901Z</time></trkpt><trkpt lat="42.75492262525637" lon="10.290209959098002"><ele>33.0</ele><time>2026-04-18T09:34:40.901Z</time></trkpt><trkpt lat="42.75490599181435" lon="10.290125922238202"><ele>34.8</ele><time>2026-04-18T09:34:41.901Z</time></trkpt><trkpt lat="42.75488751778259" lon="10.290040045300136"><ele>36.599999999999994</ele><time>2026-04-18T09:34:42.901Z</time></trkpt><trkpt lat="42.754836266471905" lon="10.289920536471046"><ele>38.400000000000006</ele><time>2026-04-18T09:34:44.901Z</time></trkpt><trkpt lat="42.75477869953417" lon="10.289794265445146"><ele>40.2</ele><time>2026-04-18T09:34:46.901Z</time></trkpt><trkpt lat="42.75475039156491" lon="10.289708376004375"><ele>42.0</ele><time>2026-04-18T09:34:47.901Z</time></trkpt><trkpt lat="42.75464367858007" lon="10.289790967881274"><ele>47.0</ele><time>2026-04-18T09:34:48.901Z</time></trkpt><trkpt lat="42.75455087455777" lon="10.289727105598752"><ele>52.0</ele><time>2026-04-18T09:34:50.901Z</time></trkpt><trkpt lat="42.75448186643565" lon="10.289709168551411"><ele>57.0</ele><time>2026-04-18T09:34:53.901Z</time></trkpt><trkpt lat="42.75459360141388" lon="10.289247590640171"><ele>57.0</ele><time>2026-04-18T09:34:54.901Z</time></trkpt><trkpt lat="42.75456588257985" lon="10.289136846310658"><ele>57.0</ele><time>2026-04-18T09:34:56.901Z</time></trkpt><trkpt lat="42.75453163457468" lon="10.289002044141624"><ele>57.0</ele><time>2026-04-18T09:34:58.9Z</time></trkpt><trkpt lat="42.75452276637753" lon="10.288904095127249"><ele>57.0</ele><time>2026-04-18T09:34:59.9Z</time></trkpt><trkpt lat="42.75452581819913" lon="10.288814683637955"><ele>57.0</ele><time>2026-04-18T09:35:00.9Z</time></trkpt><trkpt lat="42.754521565015864" lon="10.288714233094769"><ele>57.0</ele><time>2026-04-18T09:35:01.9Z</time></trkpt><trkpt lat="42.75443003924805" lon="10.288592054670751"><ele>56.5</ele><time>2026-04-18T09:35:03.9Z</time></trkpt><trkpt lat="42.75435009113925" lon="10.288586918709225"><ele>56.0</ele><time>2026-04-18T09:35:04.9Z</time></trkpt><trkpt lat="42.7533402402316" lon="10.288208810810263"><ele>54.4</ele><time>2026-04-18T09:36:05.899Z</time></trkpt><trkpt lat="42.75335177015622" lon="10.288103394376792"><ele>52.8</ele><time>2026-04-18T09:36:30.898Z</time></trkpt><trkpt lat="42.75335397505557" lon="10.28795152758103"><ele>51.199999999999996</ele><time>2026-04-18T09:36:32.898Z</time></trkpt><trkpt lat="42.753287626284624" lon="10.287829220094963"><ele>49.599999999999994</ele><time>2026-04-18T09:36:34.898Z</time></trkpt><trkpt lat="42.75322510253972" lon="10.287840318718938"><ele>48.0</ele><time>2026-04-18T09:36:35.898Z</time></trkpt><trkpt lat="42.75314382291684" lon="10.287907408840661"><ele>48.0</ele><time>2026-04-18T09:36:36.898Z</time></trkpt><trkpt lat="42.75308869241864" lon="10.28799223346251"><ele>48.0</ele><time>2026-04-18T09:36:37.898Z</time></trkpt><trkpt lat="42.75305923732379" lon="10.288071317230761"><ele>48.0</ele><time>2026-04-18T09:36:38.898Z</time></trkpt><trkpt lat="42.75301774973682" lon="10.28815497209163"><ele>48.0</ele><time>2026-04-18T09:36:39.898Z</time></trkpt><trkpt lat="42.75296288230519" lon="10.28827644705654"><ele>48.0</ele><time>2026-04-18T09:36:41.898Z</time></trkpt><trkpt lat="42.75287898134627" lon="10.288412513678551"><ele>48.0</ele><time>2026-04-18T09:36:43.898Z</time></trkpt><trkpt lat="42.75284392146058" lon="10.288485251583502"><ele>48.0</ele><time>2026-04-18T09:36:44.898Z</time></trkpt><trkpt lat="42.75274417592395" lon="10.288589263584106"><ele>48.0</ele><time>2026-04-18T09:36:46.898Z</time></trkpt><trkpt lat="42.752694559943386" lon="10.288653102371565"><ele>48.0</ele><time>2026-04-18T09:36:47.898Z</time></trkpt><trkpt lat="42.75259405672512" lon="10.28871590442419"><ele>48.0</ele><time>2026-04-18T09:36:49.898Z</time></trkpt><trkpt lat="42.752511581859096" lon="10.288760560866146"><ele>51.8</ele><time>2026-04-18T09:36:51.898Z</time></trkpt><trkpt lat="42.75241531279583" lon="10.288793371855824"><ele>55.599999999999994</ele><time>2026-04-18T09:36:53.898Z</time></trkpt><trkpt lat="42.752325207044905" lon="10.288795452112968"><ele>59.400000000000006</ele><time>2026-04-18T09:36:55.898Z</time></trkpt><trkpt lat="42.75222471880766" lon="10.28880812748405"><ele>63.2</ele><time>2026-04-18T09:36:57.898Z</time></trkpt><trkpt lat="42.752129782045266" lon="10.288810894234116"><ele>67.0</ele><time>2026-04-18T09:36:59.898Z</time></trkpt><trkpt lat="42.752061430097164" lon="10.288771276983736"><ele>67.0</ele><time>2026-04-18T09:37:01.898Z</time></trkpt><trkpt lat="42.75197288035544" lon="10.288723049256035"><ele>67.0</ele><time>2026-04-18T09:37:03.897Z</time></trkpt><trkpt lat="42.75040150768163" lon="10.28763343212839"><ele>72.16666666666666</ele><time>2026-04-18T09:38:05.897Z</time></trkpt><trkpt lat="42.750468126843984" lon="10.287594051979754"><ele>77.33333333333333</ele><time>2026-04-18T09:38:23.897Z</time></trkpt><trkpt lat="42.75057349828399" lon="10.287592448205595"><ele>82.5</ele><time>2026-04-18T09:38:25.897Z</time></trkpt><trkpt lat="42.75063956641449" lon="10.287569008589328"><ele>87.66666666666666</ele><time>2026-04-18T09:38:26.897Z</time></trkpt><trkpt lat="42.750712731359414" lon="10.287560242536292"><ele>92.83333333333333</ele><time>2026-04-18T09:38:27.897Z</time></trkpt><trkpt lat="42.750782684593375" lon="10.287547942284563"><ele>98.0</ele><time>2026-04-18T09:38:28.897Z</time></trkpt><trkpt lat="42.75088925141005" lon="10.287538196497794"><ele>97.99999999999999</ele><time>2026-04-18T09:38:30.897Z</time></trkpt><trkpt lat="42.75101428368644" lon="10.287542887187431"><ele>98.0</ele><time>2026-04-18T09:38:32.896Z</time></trkpt><trkpt lat="42.75108683451585" lon="10.287531521901442"><ele>98.0</ele><time>2026-04-18T09:38:33.896Z</time></trkpt><trkpt lat="42.75115565685607" lon="10.287531306096907"><ele>98.0</ele><time>2026-04-18T09:38:34.896Z</time></trkpt><trkpt lat="42.751218280521485" lon="10.287542871628315"><ele>97.99999999999999</ele><time>2026-04-18T09:38:35.896Z</time></trkpt><trkpt lat="42.75131421833066" lon="10.2875642769766"><ele>98.0</ele><time>2026-04-18T09:38:37.896Z</time></trkpt><trkpt lat="42.75143724065539" lon="10.287598319497029"><ele>99.60000000000001</ele><time>2026-04-18T09:38:39.896Z</time></trkpt><trkpt lat="42.75150118056102" lon="10.28762761200987"><ele>101.2</ele><time>2026-04-18T09:38:40.896Z</time></trkpt><trkpt lat="42.75160720756061" lon="10.287694205786243"><ele>102.8</ele><time>2026-04-18T09:38:42.896Z</time></trkpt><trkpt lat="42.75171365222555" lon="10.287732154039274"><ele>104.4</ele><time>2026-04-18T09:38:44.896Z</time></trkpt><trkpt lat="42.75182479117952" lon="10.287695579359989"><ele>106.0</ele><time>2026-04-18T09:38:46.896Z</time></trkpt><trkpt lat="42.75190577069805" lon="10.287641297639393"><ele>104.16666666666667</ele><time>2026-04-18T09:38:47.896Z</time></trkpt><trkpt lat="42.75198839771" lon="10.28760913887377"><ele>102.33333333333334</ele><time>2026-04-18T09:38:48.896Z</time></trkpt><trkpt lat="42.75204719440642" lon="10.287573637392912"><ele>100.5</ele><time>2026-04-18T09:38:49.896Z</time></trkpt><trkpt lat="42.752109118713875" lon="10.287477650925295"><ele>98.66666666666667</ele><time>2026-04-18T09:38:51.896Z</time></trkpt><trkpt lat="42.752134739710975" lon="10.287391439330088"><ele>96.83333333333334</ele><time>2026-04-18T09:38:52.896Z</time></trkpt><trkpt lat="42.75216375791874" lon="10.287290704908271"><ele>95.0</ele><time>2026-04-18T09:38:53.896Z</time></trkpt><trkpt lat="42.7521689357449" lon="10.287204455807696"><ele>95.0</ele><time>2026-04-18T09:38:54.896Z</time></trkpt><trkpt lat="42.7521841322388" lon="10.287100392550377"><ele>95.0</ele><time>2026-04-18T09:38:55.896Z</time></trkpt><trkpt lat="42.752210080994054" lon="10.286982517096234"><ele>95.0</ele><time>2026-04-18T09:38:56.896Z</time></trkpt><trkpt lat="42.75222848254176" lon="10.286886286821067"><ele>95.0</ele><time>2026-04-18T09:38:57.896Z</time></trkpt><trkpt lat="42.75223928981414" lon="10.286796075499224"><ele>95.0</ele><time>2026-04-18T09:38:58.896Z</time></trkpt><trkpt lat="42.75224300927455" lon="10.286674810693837"><ele>95.0</ele><time>2026-04-18T09:38:59.896Z</time></trkpt><trkpt lat="42.75223193671101" lon="10.286559684176773"><ele>97.0</ele><time>2026-04-18T09:39:00.896Z</time></trkpt><trkpt lat="42.75221573391649" lon="10.286425039503419"><ele>99.0</ele><time>2026-04-18T09:39:01.896Z</time></trkpt><trkpt lat="42.75222496395291" lon="10.28630740147621"><ele>101.0</ele><time>2026-04-18T09:39:02.896Z</time></trkpt><trkpt lat="42.75223978054265" lon="10.28621889492177"><ele>103.0</ele><time>2026-04-18T09:39:03.896Z</time></trkpt><trkpt lat="42.7522682012534" lon="10.286128704162746"><ele>105.0</ele><time>2026-04-18T09:39:04.896Z</time></trkpt><trkpt lat="42.75408054352751" lon="10.286126460028694"><ele>104.33333333333333</ele><time>2026-04-18T09:40:05.894Z</time></trkpt><trkpt lat="42.754137825308156" lon="10.286194961509812"><ele>103.66666666666666</ele><time>2026-04-18T09:40:06.894Z</time></trkpt><trkpt lat="42.7541986691939" lon="10.286287142248485"><ele>103.0</ele><time>2026-04-18T09:40:07.894Z</time></trkpt><trkpt lat="42.754275608813934" lon="10.286358000798607"><ele>102.33333333333333</ele><time>2026-04-18T09:40:08.894Z</time></trkpt><trkpt lat="42.75434117690162" lon="10.286405396843747"><ele>101.66666666666666</ele><time>2026-04-18T09:40:09.894Z</time></trkpt><trkpt lat="42.7544488709969" lon="10.286429145399053"><ele>101.0</ele><time>2026-04-18T09:40:11.894Z</time></trkpt><trkpt lat="42.75455979139686" lon="10.28633316651557"><ele>105.8</ele><time>2026-04-18T09:40:13.894Z</time></trkpt><trkpt lat="42.75462117609905" lon="10.286181034634582"><ele>110.6</ele><time>2026-04-18T09:40:15.894Z</time></trkpt><trkpt lat="42.754664363669356" lon="10.286090639974407"><ele>115.4</ele><time>2026-04-18T09:40:17.894Z</time></trkpt><trkpt lat="42.75470165955417" lon="10.28595616859127"><ele>120.2</ele><time>2026-04-18T09:40:19.894Z</time></trkpt><trkpt lat="42.754736265959" lon="10.285880685825962"><ele>125.0</ele><time>2026-04-18T09:40:20.894Z</time></trkpt><trkpt lat="42.75480050650244" lon="10.285759881092014"><ele>124.99999999999999</ele><time>2026-04-18T09:40:22.894Z</time></trkpt><trkpt lat="42.75483045828688" lon="10.285662105909791"><ele>125.0</ele><time>2026-04-18T09:40:24.894Z</time></trkpt><trkpt lat="42.75486837400852" lon="10.28554429081652"><ele>125.0</ele><time>2026-04-18T09:40:26.894Z</time></trkpt><trkpt lat="42.75489124790601" lon="10.285450695049613"><ele>125.0</ele><time>2026-04-18T09:40:27.894Z</time></trkpt><trkpt lat="42.75491676647496" lon="10.285369540732237"><ele>124.99999999999999</ele><time>2026-04-18T09:40:28.894Z</time></trkpt><trkpt lat="42.75494354906982" lon="10.28528062347379"><ele>125.0</ele><time>2026-04-18T09:40:29.894Z</time></trkpt><trkpt lat="42.7549870830582" lon="10.285180888951055"><ele>129.5</ele><time>2026-04-18T09:40:30.894Z</time></trkpt><trkpt lat="42.75504276648314" lon="10.285074841899842"><ele>134.0</ele><time>2026-04-18T09:40:31.894Z</time></trkpt><trkpt lat="42.75508834871069" lon="10.28499237953982"><ele>138.5</ele><time>2026-04-18T09:40:32.894Z</time></trkpt><trkpt lat="42.75512518407743" lon="10.284921476011473"><ele>143.0</ele><time>2026-04-18T09:40:33.894Z</time></trkpt><trkpt lat="42.755160421264286" lon="10.284839038558621"><ele>147.5</ele><time>2026-04-18T09:40:34.894Z</time></trkpt><trkpt lat="42.75520020612189" lon="10.284749022562616"><ele>152.0</ele><time>2026-04-18T09:40:35.894Z</time></trkpt><trkpt lat="42.755298597436855" lon="10.284644636329405"><ele>157.39999999999998</ele><time>2026-04-18T09:40:37.894Z</time></trkpt><trkpt lat="42.75534719005129" lon="10.284571947597762"><ele>162.79999999999998</ele><time>2026-04-18T09:40:38.894Z</time></trkpt><trkpt lat="42.755409648547804" lon="10.28446780705453"><ele>168.2</ele><time>2026-04-18T09:40:39.894Z</time></trkpt><trkpt lat="42.75546824688475" lon="10.284375369313846"><ele>173.6</ele><time>2026-04-18T09:40:40.894Z</time></trkpt><trkpt lat="42.755514476759906" lon="10.284262881702793"><ele>179.0</ele><time>2026-04-18T09:40:42.893Z</time></trkpt><trkpt lat="42.755593123833215" lon="10.28419186835846"><ele>179.0</ele><time>2026-04-18T09:40:45.893Z</time></trkpt><trkpt lat="42.755684705867665" lon="10.284286582263363"><ele>179.0</ele><time>2026-04-18T09:40:47.893Z</time></trkpt><trkpt lat="42.75574707163342" lon="10.28438519801001"><ele>179.0</ele><time>2026-04-18T09:40:48.893Z</time></trkpt><trkpt lat="42.75581143380021" lon="10.284549116313627"><ele>179.0</ele><time>2026-04-18T09:40:49.893Z</time></trkpt><trkpt lat="42.75586045984244" lon="10.284714419855616"><ele>181.5</ele><time>2026-04-18T09:40:50.893Z</time></trkpt><trkpt lat="42.75591466340108" lon="10.284861365403168"><ele>184.0</ele><time>2026-04-18T09:40:51.893Z</time></trkpt><trkpt lat="42.75599561301328" lon="10.284995272910924"><ele>186.5</ele><time>2026-04-18T09:40:52.893Z</time></trkpt><trkpt lat="42.756081246205945" lon="10.2851245883966"><ele>189.0</ele><time>2026-04-18T09:40:53.893Z</time></trkpt><trkpt lat="42.75614535391507" lon="10.285221984904192"><ele>189.0</ele><time>2026-04-18T09:40:54.893Z</time></trkpt><trkpt lat="42.756194913604375" lon="10.285311355350023"><ele>189.0</ele><time>2026-04-18T09:40:55.893Z</time></trkpt><trkpt lat="42.75625531705907" lon="10.285389520830924"><ele>189.0</ele><time>2026-04-18T09:40:56.893Z</time></trkpt><trkpt lat="42.756335433172985" lon="10.2854926161055"><ele>189.0</ele><time>2026-04-18T09:40:57.893Z</time></trkpt><trkpt lat="42.75641767905597" lon="10.285586272263298"><ele>189.0</ele><time>2026-04-18T09:40:58.893Z</time></trkpt><trkpt lat="42.7564903138874" lon="10.28568088433907"><ele>184.0</ele><time>2026-04-18T09:40:59.893Z</time></trkpt><trkpt lat="42.756561485857524" lon="10.285775511349412"><ele>179.0</ele><time>2026-04-18T09:41:00.893Z</time></trkpt><trkpt lat="42.75664233179044" lon="10.285869816853074"><ele>174.0</ele><time>2026-04-18T09:41:01.893Z</time></trkpt><trkpt lat="42.756699999702846" lon="10.285946736908782"><ele>169.0</ele><time>2026-04-18T09:41:02.893Z</time></trkpt><trkpt lat="42.75676208845007" lon="10.286028894976743"><ele>164.0</ele><time>2026-04-18T09:41:03.893Z</time></trkpt><trkpt lat="42.75682007384067" lon="10.286128474025164"><ele>203.0</ele><time>2026-04-18T09:41:04.893Z</time></trkpt><trkpt lat="42.759281738188115" lon="10.285260241365952"><ele>203.0</ele><time>2026-04-18T09:42:05.892Z</time></trkpt><trkpt lat="42.759200167891976" lon="10.285202359404014"><ele>203.0</ele><time>2026-04-18T09:43:01.891Z</time></trkpt><trkpt lat="42.75909480941044" lon="10.28507263870254"><ele>203.0</ele><time>2026-04-18T09:43:03.891Z</time></trkpt><trkpt lat="42.75903955591867" lon="10.284987602833047"><ele>203.0</ele><time>2026-04-18T09:43:04.891Z</time></trkpt><trkpt lat="42.75898557768087" lon="10.284886310637907"><ele>203.0</ele><time>2026-04-18T09:43:05.891Z</time></trkpt><trkpt lat="42.75890792631781" lon="10.284784435644637"><ele>204.8</ele><time>2026-04-18T09:43:06.891Z</time></trkpt><trkpt lat="42.75882236367073" lon="10.284688607340028"><ele>206.60000000000002</ele><time>2026-04-18T09:43:07.891Z</time></trkpt><trkpt lat="42.758731370410885" lon="10.284619531435503"><ele>208.39999999999998</ele><time>2026-04-18T09:43:08.891Z</time></trkpt><trkpt lat="42.758659363918625" lon="10.28456527052907"><ele>210.2</ele><time>2026-04-18T09:43:09.891Z</time></trkpt><trkpt lat="42.758590330450744" lon="10.28450414307786"><ele>212.0</ele><time>2026-04-18T09:43:10.891Z</time></trkpt><trkpt lat="42.75850142977821" lon="10.28442276056681"><ele>212.66666666666669</ele><time>2026-04-18T09:43:11.891Z</time></trkpt><trkpt lat="42.75843781365791" lon="10.284339397814813"><ele>213.33333333333334</ele><time>2026-04-18T09:43:12.891Z</time></trkpt><trkpt lat="42.75837830930087" lon="10.28425435794515"><ele>214.0</ele><time>2026-04-18T09:43:13.891Z</time></trkpt><trkpt lat="42.7583378305973" lon="10.28416249077029"><ele>214.66666666666669</ele><time>2026-04-18T09:43:14.891Z</time></trkpt><trkpt lat="42.75829816664307" lon="10.284065249013935"><ele>215.33333333333334</ele><time>2026-04-18T09:43:15.891Z</time></trkpt><trkpt lat="42.758248803671776" lon="10.283986341260867"><ele>216.0</ele><time>2026-04-18T09:43:16.891Z</time></trkpt><trkpt lat="42.758207208979826" lon="10.283921351182924"><ele>216.0</ele><time>2026-04-18T09:43:17.891Z</time></trkpt><trkpt lat="42.75815209860466" lon="10.283864358019432"><ele>216.00000000000003</ele><time>2026-04-18T09:43:18.891Z</time></trkpt><trkpt lat="42.75803314725605" lon="10.283845629099194"><ele>216.00000000000003</ele><time>2026-04-18T09:43:20.891Z</time></trkpt><trkpt lat="42.75795580988951" lon="10.283974381389397"><ele>216.0</ele><time>2026-04-18T09:43:22.891Z</time></trkpt><trkpt lat="42.757919916020164" lon="10.284081566276434"><ele>216.0</ele><time>2026-04-18T09:43:23.891Z</time></trkpt><trkpt lat="42.75787122791259" lon="10.28420803940796"><ele>216.0</ele><time>2026-04-18T09:43:24.891Z</time></trkpt><trkpt lat="42.75781774008748" lon="10.284297302580182"><ele>216.0</ele><time>2026-04-18T09:43:25.891Z</time></trkpt><trkpt lat="42.75775961049734" lon="10.284356998441835"><ele>216.0</ele><time>2026-04-18T09:43:26.891Z</time></trkpt><trkpt lat="42.75768261664708" lon="10.284408175985552"><ele>216.0</ele><time>2026-04-18T09:43:27.891Z</time></trkpt><trkpt lat="42.75761426754015" lon="10.284461430734599"><ele>216.0</ele><time>2026-04-18T09:43:28.891Z</time></trkpt><trkpt lat="42.757535174462305" lon="10.284503585787077"><ele>216.0</ele><time>2026-04-18T09:43:29.891Z</time></trkpt><trkpt lat="42.75743704809759" lon="10.284525525459227"><ele>217.66666666666666</ele><time>2026-04-18T09:43:30.891Z</time></trkpt><trkpt lat="42.75735058342599" lon="10.28450367163217"><ele>219.33333333333331</ele><time>2026-04-18T09:43:31.891Z</time></trkpt><trkpt lat="42.75727247182773" lon="10.28445054101102"><ele>221.0</ele><time>2026-04-18T09:43:32.891Z</time></trkpt><trkpt lat="42.75721173887495" lon="10.284382998628415"><ele>222.66666666666666</ele><time>2026-04-18T09:43:33.891Z</time></trkpt><trkpt lat="42.75715449949427" lon="10.284291541211749"><ele>224.33333333333331</ele><time>2026-04-18T09:43:34.891Z</time></trkpt><trkpt lat="42.75709353046551" lon="10.284197430715075"><ele>226.0</ele><time>2026-04-18T09:43:35.891Z</time></trkpt><trkpt lat="42.75702303450227" lon="10.284121090319054"><ele>226.0</ele><time>2026-04-18T09:43:36.891Z</time></trkpt><trkpt lat="42.756947016663524" lon="10.284034743938424"><ele>226.00000000000003</ele><time>2026-04-18T09:43:37.89Z</time></trkpt><trkpt lat="42.75688037102814" lon="10.283929621500192"><ele>226.00000000000003</ele><time>2026-04-18T09:43:38.89Z</time></trkpt><trkpt lat="42.756840677887176" lon="10.283831350099968"><ele>226.0</ele><time>2026-04-18T09:43:39.89Z</time></trkpt><trkpt lat="42.75680396868418" lon="10.283728771143087"><ele>226.0</ele><time>2026-04-18T09:43:40.89Z</time></trkpt><trkpt lat="42.75675723019049" lon="10.283610041360628"><ele>228.60000000000002</ele><time>2026-04-18T09:43:41.89Z</time></trkpt><trkpt lat="42.75669152571546" lon="10.283510307909028"><ele>231.20000000000002</ele><time>2026-04-18T09:43:42.89Z</time></trkpt><trkpt lat="42.75660216694392" lon="10.283425403404108"><ele>233.79999999999998</ele><time>2026-04-18T09:43:43.89Z</time></trkpt><trkpt lat="42.75652779307131" lon="10.283355154416135"><ele>236.39999999999998</ele><time>2026-04-18T09:43:44.89Z</time></trkpt><trkpt lat="42.75645703584411" lon="10.283266216629647"><ele>239.0</ele><time>2026-04-18T09:43:45.89Z</time></trkpt><trkpt lat="42.75638991403174" lon="10.28317731182742"><ele>241.16666666666669</ele><time>2026-04-18T09:43:46.89Z</time></trkpt><trkpt lat="42.75634625454225" lon="10.283096087278325"><ele>243.33333333333334</ele><time>2026-04-18T09:43:47.89Z</time></trkpt><trkpt lat="42.756319826045015" lon="10.282999874647832"><ele>245.5</ele><time>2026-04-18T09:43:48.89Z</time></trkpt><trkpt lat="42.756337172030356" lon="10.282913713972913"><ele>247.66666666666669</ele><time>2026-04-18T09:43:49.89Z</time></trkpt><trkpt lat="42.756349146780764" lon="10.282805559998708"><ele>249.83333333333334</ele><time>2026-04-18T09:43:50.89Z</time></trkpt><trkpt lat="42.75633819767381" lon="10.282691255620827"><ele>252.0</ele><time>2026-04-18T09:43:51.89Z</time></trkpt><trkpt lat="42.75630349073527" lon="10.282606925840987"><ele>252.0</ele><time>2026-04-18T09:43:52.89Z</time></trkpt><trkpt lat="42.75628699987142" lon="10.282506497918257"><ele>252.0</ele><time>2026-04-18T09:43:53.89Z</time></trkpt><trkpt lat="42.75627782014459" lon="10.282391446265732"><ele>252.0</ele><time>2026-04-18T09:43:54.89Z</time></trkpt><trkpt lat="42.756248656449564" lon="10.282254774123793"><ele>252.0</ele><time>2026-04-18T09:43:55.89Z</time></trkpt><trkpt lat="42.756198354834524" lon="10.282147324527797"><ele>252.0</ele><time>2026-04-18T09:43:56.89Z</time></trkpt><trkpt lat="42.756140821447545" lon="10.282066559127708"><ele>252.0</ele><time>2026-04-18T09:43:57.89Z</time></trkpt><trkpt lat="42.75605005266447" lon="10.281988648201489"><ele>253.0</ele><time>2026-04-18T09:43:58.891Z</time></trkpt><trkpt lat="42.7559211375896" lon="10.281899909939545"><ele>254.0</ele><time>2026-04-18T09:43:59.891Z</time></trkpt><trkpt lat="42.755803325174035" lon="10.281817486651688"><ele>255.0</ele><time>2026-04-18T09:44:00.89Z</time></trkpt><trkpt lat="42.755689298568036" lon="10.281758981076692"><ele>256.0</ele><time>2026-04-18T09:44:01.89Z</time></trkpt><trkpt lat="42.75560085157486" lon="10.281692436902777"><ele>256.0</ele><time>2026-04-18T09:44:02.891Z</time></trkpt><trkpt lat="42.75551469722135" lon="10.281627249799202"><ele>256.0</ele><time>2026-04-18T09:44:03.89Z</time></trkpt><trkpt lat="42.755433143326826" lon="10.281558659177552"><ele>256.0</ele><time>2026-04-18T09:44:04.89Z</time></trkpt><trkpt lat="42.752883747453616" lon="10.27887468521338"><ele>260.8</ele><time>2026-04-18T09:45:05.889Z</time></trkpt><trkpt lat="42.752824760662996" lon="10.27876362537453"><ele>265.6</ele><time>2026-04-18T09:45:06.889Z</time></trkpt><trkpt lat="42.75275618094234" lon="10.27866555747456"><ele>270.4</ele><time>2026-04-18T09:45:07.889Z</time></trkpt><trkpt lat="42.75267529825538" lon="10.278590936264326"><ele>275.2</ele><time>2026-04-18T09:45:08.889Z</time></trkpt><trkpt lat="42.75259335025505" lon="10.278524580555166"><ele>280.0</ele><time>2026-04-18T09:45:09.889Z</time></trkpt><trkpt lat="42.752518415324666" lon="10.278492766539014"><ele>280.0</ele><time>2026-04-18T09:45:10.889Z</time></trkpt><trkpt lat="42.75242579829087" lon="10.278557891236085"><ele>280.0</ele><time>2026-04-18T09:45:12.889Z</time></trkpt><trkpt lat="42.75240757570818" lon="10.278767778177366"><ele>280.0</ele><time>2026-04-18T09:45:14.889Z</time></trkpt><trkpt lat="42.75236652903053" lon="10.278952386482308"><ele>280.0</ele><time>2026-04-18T09:45:15.889Z</time></trkpt><trkpt lat="42.75233647407155" lon="10.279138524556092"><ele>275.5</ele><time>2026-04-18T09:45:16.889Z</time></trkpt><trkpt lat="42.75228975436325" lon="10.279315883582344"><ele>271.0</ele><time>2026-04-18T09:45:17.889Z</time></trkpt><trkpt lat="42.75222540336785" lon="10.279479323259038"><ele>266.5</ele><time>2026-04-18T09:45:18.889Z</time></trkpt><trkpt lat="42.752159802285654" lon="10.279638660169338"><ele>262.0</ele><time>2026-04-18T09:45:19.889Z</time></trkpt><trkpt lat="42.75210282073361" lon="10.279770929472432"><ele>262.3333333333333</ele><time>2026-04-18T09:45:20.89Z</time></trkpt><trkpt lat="42.75204438960207" lon="10.279868907249188"><ele>262.66666666666663</ele><time>2026-04-18T09:45:21.891Z</time></trkpt><trkpt lat="42.751980257594944" lon="10.279940040888127"><ele>263.0</ele><time>2026-04-18T09:45:22.892Z</time></trkpt><trkpt lat="42.75191550674306" lon="10.280010381689257"><ele>263.3333333333333</ele><time>2026-04-18T09:45:23.893Z</time></trkpt><trkpt lat="42.75183935424181" lon="10.280061635015862"><ele>263.6666666666667</ele><time>2026-04-18T09:45:24.894Z</time></trkpt><trkpt lat="42.75175162035519" lon="10.280077127368308"><ele>264.0</ele><time>2026-04-18T09:45:25.895Z</time></trkpt><trkpt lat="42.75168980594995" lon="10.280115696050562"><ele>264.0</ele><time>2026-04-18T09:45:26.896Z</time></trkpt><trkpt lat="42.751651300352705" lon="10.280236666543725"><ele>264.0</ele><time>2026-04-18T09:45:27.896Z</time></trkpt><trkpt lat="42.75161982528536" lon="10.28035160975191"><ele>264.0</ele><time>2026-04-18T09:45:28.897Z</time></trkpt><trkpt lat="42.751564192481126" lon="10.28042637000486"><ele>264.0</ele><time>2026-04-18T09:45:29.897Z</time></trkpt><trkpt lat="42.751457600829866" lon="10.280460436572717"><ele>264.0</ele><time>2026-04-18T09:45:30.898Z</time></trkpt><trkpt lat="42.75133073122972" lon="10.280501923221154"><ele>261.5</ele><time>2026-04-18T09:45:31.899Z</time></trkpt><trkpt lat="42.7512243409725" lon="10.280600074468262"><ele>259.0</ele><time>2026-04-18T09:45:32.899Z</time></trkpt><trkpt lat="42.751122416236264" lon="10.280696127806408"><ele>256.5</ele><time>2026-04-18T09:45:33.899Z</time></trkpt><trkpt lat="42.7509929240118" lon="10.280789717709807"><ele>254.0</ele><time>2026-04-18T09:45:34.9Z</time></trkpt><trkpt lat="42.750850143929" lon="10.280865325701528"><ele>254.0</ele><time>2026-04-18T09:45:35.9Z</time></trkpt><trkpt lat="42.750715067832274" lon="10.280910823425481"><ele>254.0</ele><time>2026-04-18T09:45:36.901Z</time></trkpt><trkpt lat="42.7505485512757" lon="10.2809521226198"><ele>254.0</ele><time>2026-04-18T09:45:37.901Z</time></trkpt><trkpt lat="42.750378028973714" lon="10.28099748537419"><ele>254.0</ele><time>2026-04-18T09:45:38.901Z</time></trkpt><trkpt lat="42.75024811136888" lon="10.281038879565685"><ele>253.99999999999997</ele><time>2026-04-18T09:45:39.902Z</time></trkpt><trkpt lat="42.750135921272054" lon="10.281072184405282"><ele>253.99999999999997</ele><time>2026-04-18T09:45:40.902Z</time></trkpt><trkpt lat="42.750050912548595" lon="10.281089637143635"><ele>254.0</ele><time>2026-04-18T09:45:41.902Z</time></trkpt><trkpt lat="42.74997883288865" lon="10.281085824991404"><ele>254.0</ele><time>2026-04-18T09:45:42.902Z</time></trkpt><trkpt lat="42.74989189443008" lon="10.28103657788225"><ele>256.0</ele><time>2026-04-18T09:45:43.903Z</time></trkpt><trkpt lat="42.7497855004261" lon="10.280963987306476"><ele>258.0</ele><time>2026-04-18T09:45:44.903Z</time></trkpt><trkpt lat="42.74967060035754" lon="10.280893313239691"><ele>260.0</ele><time>2026-04-18T09:45:45.903Z</time></trkpt><trkpt lat="42.749585316046726" lon="10.280867425942814"><ele>262.0</ele><time>2026-04-18T09:45:46.903Z</time></trkpt><trkpt lat="42.74951489371823" lon="10.28089979357268"><ele>264.0</ele><time>2026-04-18T09:45:48.904Z</time></trkpt><trkpt lat="42.749518546515915" lon="10.281099004458655"><ele>264.0</ele><time>2026-04-18T09:45:50.904Z</time></trkpt><trkpt lat="42.74951599832465" lon="10.281238409749696"><ele>264.0</ele><time>2026-04-18T09:45:51.904Z</time></trkpt><trkpt lat="42.74950087158673" lon="10.281383007460375"><ele>264.0</ele><time>2026-04-18T09:45:52.904Z</time></trkpt><trkpt lat="42.74944435231149" lon="10.281486085061182"><ele>264.0</ele><time>2026-04-18T09:45:53.904Z</time></trkpt><trkpt lat="42.74937644487598" lon="10.281560484447478"><ele>264.0</ele><time>2026-04-18T09:45:54.904Z</time></trkpt><trkpt lat="42.74929055303442" lon="10.281609623137799"><ele>262.8</ele><time>2026-04-18T09:45:55.904Z</time></trkpt><trkpt lat="42.74921059379852" lon="10.281630498643135"><ele>261.59999999999997</ele><time>2026-04-18T09:45:56.905Z</time></trkpt><trkpt lat="42.74911048156839" lon="10.281626122459716"><ele>260.4</ele><time>2026-04-18T09:45:57.905Z</time></trkpt><trkpt lat="42.74899834710651" lon="10.281611671790806"><ele>259.2</ele><time>2026-04-18T09:45:58.905Z</time></trkpt><trkpt lat="42.748897219595314" lon="10.28158422296295"><ele>258.0</ele><time>2026-04-18T09:45:59.905Z</time></trkpt><trkpt lat="42.748806490601794" lon="10.281558991216357"><ele>258.0</ele><time>2026-04-18T09:46:00.905Z</time></trkpt><trkpt lat="42.74872759561441" lon="10.281552778837648"><ele>258.0</ele><time>2026-04-18T09:46:01.905Z</time></trkpt><trkpt lat="42.748641815936125" lon="10.28154094145717"><ele>258.0</ele><time>2026-04-18T09:46:02.905Z</time></trkpt><trkpt lat="42.748566982827995" lon="10.281520548485128"><ele>258.0</ele><time>2026-04-18T09:46:03.905Z</time></trkpt><trkpt lat="42.748486956792675" lon="10.281501514059519"><ele>258.0</ele><time>2026-04-18T09:46:04.905Z</time></trkpt><trkpt lat="42.748947349133545" lon="10.281018483593238"><ele>264.3333333333333</ele><time>2026-04-18T09:47:05.905Z</time></trkpt><trkpt lat="42.74900214198978" lon="10.280934077298468"><ele>270.66666666666663</ele><time>2026-04-18T09:47:29.905Z</time></trkpt><trkpt lat="42.749015797790044" lon="10.280827800049115"><ele>277.0</ele><time>2026-04-18T09:47:36.905Z</time></trkpt><trkpt lat="42.75099262216113" lon="10.278243508311872"><ele>282.0</ele><time>2026-04-18T09:50:05.903Z</time></trkpt><trkpt lat="42.752317079860504" lon="10.274896655976072"><ele>282.0</ele><time>2026-04-18T09:56:05.898Z</time></trkpt><trkpt lat="42.75243146487627" lon="10.274845468306403"><ele>282.0</ele><time>2026-04-18T09:56:07.898Z</time></trkpt><trkpt lat="42.7524660178403" lon="10.274759167472705"><ele>282.0</ele><time>2026-04-18T09:56:08.898Z</time></trkpt><trkpt lat="42.75251229447335" lon="10.274693459198987"><ele>282.0</ele><time>2026-04-18T09:56:09.898Z</time></trkpt><trkpt lat="42.75257361403404" lon="10.27463294781849"><ele>282.0</ele><time>2026-04-18T09:56:10.898Z</time></trkpt><trkpt lat="42.75262457722965" lon="10.274558646266966"><ele>282.0</ele><time>2026-04-18T09:56:11.898Z</time></trkpt><trkpt lat="42.75271602079014" lon="10.274427874392593"><ele>281.5</ele><time>2026-04-18T09:56:13.898Z</time></trkpt><trkpt lat="42.75277044638299" lon="10.27433865285445"><ele>281.0</ele><time>2026-04-18T09:56:14.898Z</time></trkpt><trkpt lat="42.752826673275266" lon="10.27426064993893"><ele>280.5</ele><time>2026-04-18T09:56:15.898Z</time></trkpt><trkpt lat="42.75288765783933" lon="10.274204278789542"><ele>280.0</ele><time>2026-04-18T09:56:16.898Z</time></trkpt><trkpt lat="42.752941892470716" lon="10.27416018292508"><ele>279.5</ele><time>2026-04-18T09:56:17.898Z</time></trkpt><trkpt lat="42.753041844627376" lon="10.274086158504788"><ele>279.0</ele><time>2026-04-18T09:56:19.898Z</time></trkpt><trkpt lat="42.75313588248187" lon="10.274006759676316"><ele>279.3333333333333</ele><time>2026-04-18T09:56:21.898Z</time></trkpt><trkpt lat="42.75318703547016" lon="10.273898921892865"><ele>279.6666666666667</ele><time>2026-04-18T09:56:23.898Z</time></trkpt><trkpt lat="42.753227849234705" lon="10.27380884705208"><ele>280.0</ele><time>2026-04-18T09:56:25.898Z</time></trkpt><trkpt lat="42.75318658398596" lon="10.27368588348732"><ele>280.33333333333337</ele><time>2026-04-18T09:56:28.898Z</time></trkpt><trkpt lat="42.753131954484054" lon="10.273603590811051"><ele>280.6666666666667</ele><time>2026-04-18T09:56:29.897Z</time></trkpt><trkpt lat="42.75307054521" lon="10.27351797810282"><ele>281.0</ele><time>2026-04-18T09:56:30.897Z</time></trkpt><trkpt lat="42.75301619778472" lon="10.273450146191418"><ele>281.0</ele><time>2026-04-18T09:56:31.897Z</time></trkpt><trkpt lat="42.752939883959534" lon="10.273329835867427"><ele>281.0</ele><time>2026-04-18T09:56:33.897Z</time></trkpt><trkpt lat="42.752887303921796" lon="10.273224448081079"><ele>281.0</ele><time>2026-04-18T09:56:36.897Z</time></trkpt><trkpt lat="42.75283490981189" lon="10.273165393356743"><ele>281.0</ele><time>2026-04-18T09:56:38.898Z</time></trkpt><trkpt lat="42.752779182496795" lon="10.273080194104487"><ele>281.0</ele><time>2026-04-18T09:56:40.898Z</time></trkpt><trkpt lat="42.75272454736824" lon="10.27300109832434"><ele>281.0</ele><time>2026-04-18T09:56:43.898Z</time></trkpt><trkpt lat="42.752686983516156" lon="10.272924731228635"><ele>275.33333333333337</ele><time>2026-04-18T09:56:45.898Z</time></trkpt><trkpt lat="42.75267403823675" lon="10.272831392996231"><ele>269.6666666666667</ele><time>2026-04-18T09:56:47.897Z</time></trkpt><trkpt lat="42.7526451240549" lon="10.272736823733956"><ele>264.0</ele><time>2026-04-18T09:56:49.898Z</time></trkpt><trkpt lat="42.752588421772806" lon="10.272653170230914"><ele>258.3333333333333</ele><time>2026-04-18T09:56:51.897Z</time></trkpt><trkpt lat="42.752549061136584" lon="10.27255525439695"><ele>252.66666666666666</ele><time>2026-04-18T09:56:53.897Z</time></trkpt><trkpt lat="42.75251963159317" lon="10.272440813937276"><ele>247.0</ele><time>2026-04-18T09:56:55.897Z</time></trkpt><trkpt lat="42.75245962941988" lon="10.272293407951103"><ele>247.33333333333331</ele><time>2026-04-18T09:56:57.897Z</time></trkpt><trkpt lat="42.75241847410324" lon="10.27221627817012"><ele>247.66666666666666</ele><time>2026-04-18T09:56:58.897Z</time></trkpt><trkpt lat="42.752377149615896" lon="10.27213498507591"><ele>248.0</ele><time>2026-04-18T09:56:59.897Z</time></trkpt><trkpt lat="42.75232996853812" lon="10.272046276056363"><ele>248.33333333333331</ele><time>2026-04-18T09:57:00.897Z</time></trkpt><trkpt lat="42.752292269017154" lon="10.271976071934779"><ele>248.66666666666666</ele><time>2026-04-18T09:57:01.897Z</time></trkpt><trkpt lat="42.7522418073275" lon="10.271881350959246"><ele>249.0</ele><time>2026-04-18T09:57:03.897Z</time></trkpt><trkpt lat="42.751181383694025" lon="10.270903212249769"><ele>241.5</ele><time>2026-04-18T09:58:05.896Z</time></trkpt><trkpt lat="42.75123642099104" lon="10.270826270426973"><ele>234.0</ele><time>2026-04-18T09:58:08.896Z</time></trkpt><trkpt lat="42.751288932379666" lon="10.270747992583576"><ele>226.5</ele><time>2026-04-18T09:58:11.896Z</time></trkpt><trkpt lat="42.75134673626115" lon="10.270689665276757"><ele>219.0</ele><time>2026-04-18T09:58:13.896Z</time></trkpt><trkpt lat="42.75141439391547" lon="10.270632688683948"><ele>211.5</ele><time>2026-04-18T09:58:16.896Z</time></trkpt><trkpt lat="42.75146447028507" lon="10.270574927146955"><ele>204.0</ele><time>2026-04-18T09:58:18.896Z</time></trkpt><trkpt lat="42.75154133095203" lon="10.270479100421824"><ele>200.83333333333334</ele><time>2026-04-18T09:58:20.896Z</time></trkpt><trkpt lat="42.75159881358724" lon="10.270399981186547"><ele>197.66666666666666</ele><time>2026-04-18T09:58:22.896Z</time></trkpt><trkpt lat="42.751614063631926" lon="10.27028150835948"><ele>194.5</ele><time>2026-04-18T09:58:24.896Z</time></trkpt><trkpt lat="42.75164251759038" lon="10.27017563256426"><ele>191.33333333333331</ele><time>2026-04-18T09:58:26.896Z</time></trkpt><trkpt lat="42.7516679752487" lon="10.270088590182459"><ele>188.16666666666666</ele><time>2026-04-18T09:58:28.896Z</time></trkpt><trkpt lat="42.75174560601895" lon="10.270014299896136"><ele>185.0</ele><time>2026-04-18T09:58:30.895Z</time></trkpt><trkpt lat="42.75182233371126" lon="10.269986470946408"><ele>184.5</ele><time>2026-04-18T09:58:31.895Z</time></trkpt><trkpt lat="42.75188633302604" lon="10.269928678894644"><ele>184.0</ele><time>2026-04-18T09:58:33.895Z</time></trkpt><trkpt lat="42.751886879634384" lon="10.269838442940312"><ele>183.5</ele><time>2026-04-18T09:58:35.895Z</time></trkpt><trkpt lat="42.75184620674102" lon="10.269708150406077"><ele>183.0</ele><time>2026-04-18T09:58:37.895Z</time></trkpt><trkpt lat="42.75177938177069" lon="10.269596442185282"><ele>182.5</ele><time>2026-04-18T09:58:39.895Z</time></trkpt><trkpt lat="42.75176544986446" lon="10.269493825281769"><ele>182.0</ele><time>2026-04-18T09:58:41.896Z</time></trkpt><trkpt lat="42.751730008027515" lon="10.269377534488664"><ele>182.0</ele><time>2026-04-18T09:58:44.896Z</time></trkpt><trkpt lat="42.75171150240136" lon="10.26927852582074"><ele>182.0</ele><time>2026-04-18T09:58:45.896Z</time></trkpt><trkpt lat="42.75170109060727" lon="10.269160949165126"><ele>182.0</ele><time>2026-04-18T09:58:46.896Z</time></trkpt><trkpt lat="42.751711992731686" lon="10.269050849216855"><ele>182.0</ele><time>2026-04-18T09:58:47.896Z</time></trkpt><trkpt lat="42.75171036037466" lon="10.26895404773552"><ele>182.0</ele><time>2026-04-18T09:58:49.896Z</time></trkpt><trkpt lat="42.751637598154694" lon="10.268881532387473"><ele>182.0</ele><time>2026-04-18T09:58:52.896Z</time></trkpt><trkpt lat="42.75155998723602" lon="10.268845860977574"><ele>184.83333333333331</ele><time>2026-04-18T09:58:53.896Z</time></trkpt><trkpt lat="42.751479597801534" lon="10.26883554895147"><ele>187.66666666666666</ele><time>2026-04-18T09:58:54.896Z</time></trkpt><trkpt lat="42.751379915047075" lon="10.268789673928136"><ele>190.5</ele><time>2026-04-18T09:58:56.896Z</time></trkpt><trkpt lat="42.75130972499423" lon="10.26874241600182"><ele>193.33333333333331</ele><time>2026-04-18T09:58:58.895Z</time></trkpt><trkpt lat="42.75126023355966" lon="10.26867526225689"><ele>196.16666666666666</ele><time>2026-04-18T09:59:00.895Z</time></trkpt><trkpt lat="42.75117754603102" lon="10.26859734467006"><ele>199.0</ele><time>2026-04-18T09:59:02.895Z</time></trkpt><trkpt lat="42.75111772882142" lon="10.268496810613465"><ele>175.0</ele><time>2026-04-18T09:59:04.895Z</time></trkpt><trkpt lat="42.75027424645436" lon="10.267912027566986"><ele>167.16666666666669</ele><time>2026-04-18T10:00:05.894Z</time></trkpt><trkpt lat="42.75020495490789" lon="10.267874783073408"><ele>159.33333333333334</ele><time>2026-04-18T10:00:07.894Z</time></trkpt><trkpt lat="42.75014279091499" lon="10.267833409186336"><ele>151.5</ele><time>2026-04-18T10:00:09.894Z</time></trkpt><trkpt lat="42.75007613173294" lon="10.267787587094588"><ele>143.66666666666666</ele><time>2026-04-18T10:00:11.894Z</time></trkpt><trkpt lat="42.750000287504356" lon="10.26771078584671"><ele>135.83333333333331</ele><time>2026-04-18T10:00:13.894Z</time></trkpt><trkpt lat="42.74992348724677" lon="10.267595894342218"><ele>128.0</ele><time>2026-04-18T10:00:15.894Z</time></trkpt><trkpt lat="42.74985801914384" lon="10.267531365735586"><ele>127.99999999999999</ele><time>2026-04-18T10:00:17.894Z</time></trkpt><trkpt lat="42.74981009525581" lon="10.267475672332013"><ele>128.0</ele><time>2026-04-18T10:00:19.894Z</time></trkpt><trkpt lat="42.74978098059221" lon="10.267396793085348"><ele>128.0</ele><time>2026-04-18T10:00:21.894Z</time></trkpt><trkpt lat="42.74970151360137" lon="10.267313513232672"><ele>128.0</ele><time>2026-04-18T10:00:23.894Z</time></trkpt><trkpt lat="42.7495948784285" lon="10.267267760363197"><ele>127.99999999999999</ele><time>2026-04-18T10:00:25.894Z</time></trkpt><trkpt lat="42.749514330723564" lon="10.26716904857405"><ele>128.0</ele><time>2026-04-18T10:00:27.894Z</time></trkpt><trkpt lat="42.74947265379962" lon="10.267101636842762"><ele>130.6</ele><time>2026-04-18T10:00:28.894Z</time></trkpt><trkpt lat="42.74942951147693" lon="10.266982589694056"><ele>133.20000000000002</ele><time>2026-04-18T10:00:30.894Z</time></trkpt><trkpt lat="42.749388896904904" lon="10.266908238813263"><ele>135.8</ele><time>2026-04-18T10:00:32.894Z</time></trkpt><trkpt lat="42.74938921892874" lon="10.266771519538471"><ele>138.4</ele><time>2026-04-18T10:00:34.894Z</time></trkpt><trkpt lat="42.749377514018015" lon="10.26660306868166"><ele>141.0</ele><time>2026-04-18T10:00:36.894Z</time></trkpt><trkpt lat="42.74936447589721" lon="10.266473516775179"><ele>140.2</ele><time>2026-04-18T10:00:37.893Z</time></trkpt><trkpt lat="42.74935625177838" lon="10.266319167165678"><ele>139.39999999999998</ele><time>2026-04-18T10:00:38.893Z</time></trkpt><trkpt lat="42.74937177618005" lon="10.266190784217839"><ele>138.6</ele><time>2026-04-18T10:00:39.893Z</time></trkpt><trkpt lat="42.749391296479914" lon="10.26609110446712"><ele>137.79999999999998</ele><time>2026-04-18T10:00:40.893Z</time></trkpt><trkpt lat="42.74939692040875" lon="10.265992250744198"><ele>137.0</ele><time>2026-04-18T10:00:41.893Z</time></trkpt><trkpt lat="42.74942972609625" lon="10.26585373472376"><ele>137.0</ele><time>2026-04-18T10:00:43.893Z</time></trkpt><trkpt lat="42.749417754299394" lon="10.265736722215715"><ele>137.0</ele><time>2026-04-18T10:00:46.895Z</time></trkpt><trkpt lat="42.749342968277716" lon="10.265715647733858"><ele>137.0</ele><time>2026-04-18T10:00:49.894Z</time></trkpt><trkpt lat="42.7492476562599" lon="10.265733417517337"><ele>137.0</ele><time>2026-04-18T10:00:51.894Z</time></trkpt><trkpt lat="42.749156735998014" lon="10.26573290419362"><ele>137.0</ele><time>2026-04-18T10:00:53.894Z</time></trkpt><trkpt lat="42.74908704954844" lon="10.265696542731453"><ele>137.0</ele><time>2026-04-18T10:00:54.895Z</time></trkpt><trkpt lat="42.749031377799994" lon="10.265604994482327"><ele>132.79999999999998</ele><time>2026-04-18T10:00:56.894Z</time></trkpt><trkpt lat="42.748962189648765" lon="10.265500681328126"><ele>128.6</ele><time>2026-04-18T10:00:58.894Z</time></trkpt><trkpt lat="42.74889641483405" lon="10.265368168760219"><ele>124.39999999999999</ele><time>2026-04-18T10:01:00.894Z</time></trkpt><trkpt lat="42.74884637656073" lon="10.265289920034446"><ele>120.19999999999999</ele><time>2026-04-18T10:01:01.894Z</time></trkpt><trkpt lat="42.74879570185512" lon="10.265223628447906"><ele>116.0</ele><time>2026-04-18T10:01:02.894Z</time></trkpt><trkpt lat="42.748733610388875" lon="10.265148779734632"><ele>93.0</ele><time>2026-04-18T10:01:04.894Z</time></trkpt><trkpt lat="42.74816058315756" lon="10.264083182395444"><ele>101.0</ele><time>2026-04-18T10:02:05.89Z</time></trkpt><trkpt lat="42.7470327181233" lon="10.260281358748777"><ele>101.0</ele><time>2026-04-18T10:05:05.887Z</time></trkpt><trkpt lat="42.74710491781777" lon="10.260162109709288"><ele>101.0</ele><time>2026-04-18T10:05:06.887Z</time></trkpt><trkpt lat="42.747166812534104" lon="10.260038398956862"><ele>101.0</ele><time>2026-04-18T10:05:07.887Z</time></trkpt><trkpt lat="42.74720120721278" lon="10.259918214415984"><ele>101.0</ele><time>2026-04-18T10:05:08.887Z</time></trkpt><trkpt lat="42.74722476055847" lon="10.259787431598705"><ele>101.0</ele><time>2026-04-18T10:05:09.887Z</time></trkpt><trkpt lat="42.747237808333615" lon="10.259678892430468"><ele>101.6</ele><time>2026-04-18T10:05:10.888Z</time></trkpt><trkpt lat="42.74724567744721" lon="10.259567101870504"><ele>102.19999999999999</ele><time>2026-04-18T10:05:11.888Z</time></trkpt><trkpt lat="42.747271361736516" lon="10.259451146671692"><ele>102.80000000000001</ele><time>2026-04-18T10:05:12.887Z</time></trkpt><trkpt lat="42.747295126971046" lon="10.259328323632678"><ele>103.4</ele><time>2026-04-18T10:05:13.887Z</time></trkpt><trkpt lat="42.74733331212178" lon="10.259203548073563"><ele>104.0</ele><time>2026-04-18T10:05:14.887Z</time></trkpt><trkpt lat="42.74736932786838" lon="10.259076661419021"><ele>103.4</ele><time>2026-04-18T10:05:15.887Z</time></trkpt><trkpt lat="42.74741495592741" lon="10.258941122563876"><ele>102.80000000000001</ele><time>2026-04-18T10:05:16.888Z</time></trkpt><trkpt lat="42.74745969215004" lon="10.258811930450195"><ele>102.19999999999999</ele><time>2026-04-18T10:05:17.888Z</time></trkpt><trkpt lat="42.74743044596052" lon="10.258673577158673"><ele>101.6</ele><time>2026-04-18T10:05:18.888Z</time></trkpt><trkpt lat="42.747410665066525" lon="10.258507577494882"><ele>101.0</ele><time>2026-04-18T10:05:19.888Z</time></trkpt><trkpt lat="42.74741293992781" lon="10.258312863601867"><ele>101.0</ele><time>2026-04-18T10:05:20.888Z</time></trkpt><trkpt lat="42.747408027739446" lon="10.258179799806399"><ele>101.0</ele><time>2026-04-18T10:05:21.888Z</time></trkpt><trkpt lat="42.74741517605175" lon="10.2580654761302"><ele>101.0</ele><time>2026-04-18T10:05:22.888Z</time></trkpt><trkpt lat="42.74748326780892" lon="10.258000254030318"><ele>101.0</ele><time>2026-04-18T10:05:23.888Z</time></trkpt><trkpt lat="42.747570497225105" lon="10.25802172099718"><ele>101.0</ele><time>2026-04-18T10:05:24.888Z</time></trkpt><trkpt lat="42.747690262203534" lon="10.257952333225422"><ele>100.33333333333333</ele><time>2026-04-18T10:05:25.888Z</time></trkpt><trkpt lat="42.74782830622306" lon="10.257834876378167"><ele>99.66666666666666</ele><time>2026-04-18T10:05:26.888Z</time></trkpt><trkpt lat="42.74797131538339" lon="10.25771089407055"><ele>99.0</ele><time>2026-04-18T10:05:27.888Z</time></trkpt><trkpt lat="42.748106688304134" lon="10.257593920373688"><ele>99.0</ele><time>2026-04-18T10:05:28.888Z</time></trkpt><trkpt lat="42.74822921884416" lon="10.257572618529732"><ele>99.0</ele><time>2026-04-18T10:05:29.888Z</time></trkpt><trkpt lat="42.74831322671946" lon="10.257579947792758"><ele>99.0</ele><time>2026-04-18T10:05:30.888Z</time></trkpt><trkpt lat="42.748424729663235" lon="10.2576151222107"><ele>99.0</ele><time>2026-04-18T10:05:31.888Z</time></trkpt><trkpt lat="42.74856103148377" lon="10.25754273015967"><ele>101.2</ele><time>2026-04-18T10:05:32.888Z</time></trkpt><trkpt lat="42.74871681460072" lon="10.257544105530332"><ele>103.4</ele><time>2026-04-18T10:05:33.888Z</time></trkpt><trkpt lat="42.748831618248225" lon="10.257480040644115"><ele>105.6</ele><time>2026-04-18T10:05:34.888Z</time></trkpt><trkpt lat="42.74890538374724" lon="10.257435459997993"><ele>107.8</ele><time>2026-04-18T10:05:35.888Z</time></trkpt><trkpt lat="42.74892222991871" lon="10.25732461221193"><ele>110.0</ele><time>2026-04-18T10:05:36.888Z</time></trkpt><trkpt lat="42.74895246994356" lon="10.257213629734007"><ele>110.0</ele><time>2026-04-18T10:05:37.888Z</time></trkpt><trkpt lat="42.74897291053702" lon="10.257063449305509"><ele>110.0</ele><time>2026-04-18T10:05:38.888Z</time></trkpt><trkpt lat="42.748957056158574" lon="10.256863753315063"><ele>110.0</ele><time>2026-04-18T10:05:39.888Z</time></trkpt><trkpt lat="42.74893850624043" lon="10.25662405679449"><ele>110.0</ele><time>2026-04-18T10:05:40.888Z</time></trkpt><trkpt lat="42.7489150361329" lon="10.256370872814784"><ele>109.33333333333333</ele><time>2026-04-18T10:05:41.888Z</time></trkpt><trkpt lat="42.748914458192814" lon="10.256124585550038"><ele>108.66666666666666</ele><time>2026-04-18T10:05:42.887Z</time></trkpt><trkpt lat="42.748944491243115" lon="10.25587023990486"><ele>108.0</ele><time>2026-04-18T10:05:43.887Z</time></trkpt><trkpt lat="42.74894845385573" lon="10.25567719027023"><ele>107.16666666666667</ele><time>2026-04-18T10:05:44.887Z</time></trkpt><trkpt lat="42.74894603758691" lon="10.255525653430356"><ele>106.33333333333334</ele><time>2026-04-18T10:05:45.887Z</time></trkpt><trkpt lat="42.748955005586595" lon="10.255403129825254"><ele>105.5</ele><time>2026-04-18T10:05:46.887Z</time></trkpt><trkpt lat="42.748950606129625" lon="10.255277400778875"><ele>104.66666666666667</ele><time>2026-04-18T10:05:47.887Z</time></trkpt><trkpt lat="42.74900253908019" lon="10.2551898507714"><ele>103.83333333333334</ele><time>2026-04-18T10:05:48.887Z</time></trkpt><trkpt lat="42.74905911808221" lon="10.255130501426947"><ele>103.0</ele><time>2026-04-18T10:05:49.887Z</time></trkpt><trkpt lat="42.74913989085739" lon="10.25508657790336"><ele>103.00000000000001</ele><time>2026-04-18T10:05:50.887Z</time></trkpt><trkpt lat="42.749219089300915" lon="10.255056612511373"><ele>103.0</ele><time>2026-04-18T10:05:51.887Z</time></trkpt><trkpt lat="42.749257930392076" lon="10.25498304133028"><ele>103.0</ele><time>2026-04-18T10:05:52.887Z</time></trkpt><trkpt lat="42.74923849927692" lon="10.25487866141741"><ele>103.0</ele><time>2026-04-18T10:05:53.887Z</time></trkpt><trkpt lat="42.749241056179095" lon="10.254752456956604"><ele>103.00000000000001</ele><time>2026-04-18T10:05:54.887Z</time></trkpt><trkpt lat="42.74923644032522" lon="10.254623157341822"><ele>103.0</ele><time>2026-04-18T10:05:55.887Z</time></trkpt><trkpt lat="42.74920467616024" lon="10.254506163818997"><ele>103.16666666666667</ele><time>2026-04-18T10:05:56.887Z</time></trkpt><trkpt lat="42.74918996115866" lon="10.254375911703312"><ele>103.33333333333334</ele><time>2026-04-18T10:05:57.887Z</time></trkpt><trkpt lat="42.7492173573912" lon="10.254250721682602"><ele>103.5</ele><time>2026-04-18T10:05:58.887Z</time></trkpt><trkpt lat="42.749227220169935" lon="10.254130135429627"><ele>103.66666666666666</ele><time>2026-04-18T10:05:59.887Z</time></trkpt><trkpt lat="42.749237321464136" lon="10.254019279484178"><ele>103.83333333333333</ele><time>2026-04-18T10:06:00.887Z</time></trkpt><trkpt lat="42.74925071169357" lon="10.253911448826507"><ele>104.0</ele><time>2026-04-18T10:06:01.887Z</time></trkpt><trkpt lat="42.749255923420485" lon="10.253824574613452"><ele>104.0</ele><time>2026-04-18T10:06:02.887Z</time></trkpt><trkpt lat="42.749303212894816" lon="10.253674226560957"><ele>104.0</ele><time>2026-04-18T10:06:04.887Z</time></trkpt><trkpt lat="42.750877776040994" lon="10.24986970437204"><ele>85.8</ele><time>2026-04-18T10:07:05.887Z</time></trkpt><trkpt lat="42.75086321558579" lon="10.249755064101638"><ele>67.60000000000001</ele><time>2026-04-18T10:07:07.886Z</time></trkpt><trkpt lat="42.75091590050942" lon="10.249707582000813"><ele>49.400000000000006</ele><time>2026-04-18T10:07:08.886Z</time></trkpt><trkpt lat="42.751032051131254" lon="10.249579247653854"><ele>31.200000000000003</ele><time>2026-04-18T10:07:10.886Z</time></trkpt><trkpt lat="42.751110415888306" lon="10.249506646191536"><ele>13.0</ele><time>2026-04-18T10:07:11.886Z</time></trkpt><trkpt lat="42.75119522677414" lon="10.249425216546475"><ele>11.833333333333332</ele><time>2026-04-18T10:07:12.887Z</time></trkpt><trkpt lat="42.751281546772134" lon="10.249343405598825"><ele>10.666666666666666</ele><time>2026-04-18T10:07:13.887Z</time></trkpt><trkpt lat="42.75135169244745" lon="10.249263794094336"><ele>9.5</ele><time>2026-04-18T10:07:14.887Z</time></trkpt><trkpt lat="42.75141315449239" lon="10.249199617853305"><ele>8.333333333333332</ele><time>2026-04-18T10:07:15.887Z</time></trkpt><trkpt lat="42.75148066399385" lon="10.249140182858783"><ele>7.166666666666666</ele><time>2026-04-18T10:07:16.886Z</time></trkpt><trkpt lat="42.75154753478664" lon="10.249085761870093"><ele>6.0</ele><time>2026-04-18T10:07:17.886Z</time></trkpt><trkpt lat="42.75161463654976" lon="10.24906150743809"><ele>6.0</ele><time>2026-04-18T10:07:18.886Z</time></trkpt><trkpt lat="42.75169636363492" lon="10.249094653434977"><ele>6.0</ele><time>2026-04-18T10:07:19.886Z</time></trkpt><trkpt lat="42.751772428688774" lon="10.24912144686195"><ele>6.0</ele><time>2026-04-18T10:07:20.886Z</time></trkpt><trkpt lat="42.751848275654886" lon="10.249145109723584"><ele>6.0</ele><time>2026-04-18T10:07:21.886Z</time></trkpt><trkpt lat="42.75196056027344" lon="10.249121746124462"><ele>6.0</ele><time>2026-04-18T10:07:23.886Z</time></trkpt><trkpt lat="42.75202841975198" lon="10.248941093502557"><ele>5.571428571428571</ele><time>2026-04-18T10:07:25.886Z</time></trkpt><trkpt lat="42.75205163586406" lon="10.248819210119793"><ele>5.142857142857142</ele><time>2026-04-18T10:07:26.886Z</time></trkpt><trkpt lat="42.75207101030537" lon="10.248714175971223"><ele>4.7142857142857135</ele><time>2026-04-18T10:07:27.886Z</time></trkpt><trkpt lat="42.752086419890134" lon="10.248618896696275"><ele>4.285714285714286</ele><time>2026-04-18T10:07:28.886Z</time></trkpt><trkpt lat="42.75211571387609" lon="10.248537197790055"><ele>3.8571428571428568</ele><time>2026-04-18T10:07:29.886Z</time></trkpt><trkpt lat="42.752132727339585" lon="10.248452933943339"><ele>3.4285714285714284</ele><time>2026-04-18T10:07:30.886Z</time></trkpt><trkpt lat="42.752194699982795" lon="10.24841195269111"><ele>3.0</ele><time>2026-04-18T10:07:31.886Z</time></trkpt><trkpt lat="42.75225710453321" lon="10.248387456176397"><ele>3.0</ele><time>2026-04-18T10:07:32.886Z</time></trkpt><trkpt lat="42.75234851346825" lon="10.248389892297842"><ele>3.0</ele><time>2026-04-18T10:07:33.886Z</time></trkpt><trkpt lat="42.752449931170474" lon="10.248445333209187"><ele>3.0</ele><time>2026-04-18T10:07:34.886Z</time></trkpt><trkpt lat="42.752551862352256" lon="10.248502567472489"><ele>3.0</ele><time>2026-04-18T10:07:35.886Z</time></trkpt><trkpt lat="42.75266519875389" lon="10.248576054062843"><ele>3.0</ele><time>2026-04-18T10:07:36.886Z</time></trkpt><trkpt lat="42.75276700611613" lon="10.248635562768584"><ele>3.666666666666667</ele><time>2026-04-18T10:07:37.886Z</time></trkpt><trkpt lat="42.75284859246467" lon="10.248667418865137"><ele>4.333333333333334</ele><time>2026-04-18T10:07:38.886Z</time></trkpt><trkpt lat="42.75293857085629" lon="10.248690984365275"><ele>5.0</ele><time>2026-04-18T10:07:39.886Z</time></trkpt><trkpt lat="42.75302298132038" lon="10.248708740142352"><ele>5.666666666666667</ele><time>2026-04-18T10:07:40.886Z</time></trkpt><trkpt lat="42.75309421813731" lon="10.24872108667978"><ele>6.333333333333334</ele><time>2026-04-18T10:07:41.886Z</time></trkpt><trkpt lat="42.753174542488544" lon="10.248682831874099"><ele>7.0</ele><time>2026-04-18T10:07:43.886Z</time></trkpt><trkpt lat="42.75324138344433" lon="10.248687002569861"><ele>7.0</ele><time>2026-04-18T10:07:47.886Z</time></trkpt><trkpt lat="42.75324338549627" lon="10.248547701459325"><ele>6.999999999999999</ele><time>2026-04-18T10:07:58.886Z</time></trkpt><trkpt lat="42.75330191207863" lon="10.2483986486504"><ele>6.999999999999999</ele><time>2026-04-18T10:08:00.886Z</time></trkpt><trkpt lat="42.7533479380622" lon="10.248317338507766"><ele>7.0</ele><time>2026-04-18T10:08:01.886Z</time></trkpt><trkpt lat="42.75340505828707" lon="10.248243043192383"><ele>7.0</ele><time>2026-04-18T10:08:02.886Z</time></trkpt><trkpt lat="42.75345746739875" lon="10.248167953859314"><ele>5.5</ele><time>2026-04-18T10:08:03.886Z</time></trkpt><trkpt lat="42.75351046766486" lon="10.248086266191143"><ele>4.0</ele><time>2026-04-18T10:08:04.886Z</time></trkpt><trkpt lat="42.75401760719396" lon="10.244547869764164"><ele>3.0</ele><time>2026-04-18T10:09:05.884Z</time></trkpt><trkpt lat="42.753938562842535" lon="10.244478191506449"><ele>2.0000000000000004</ele><time>2026-04-18T10:09:06.884Z</time></trkpt><trkpt lat="42.75385930686764" lon="10.24440977893553"><ele>1.0</ele><time>2026-04-18T10:09:07.884Z</time></trkpt><trkpt lat="42.753778158293194" lon="10.244345849358846"><ele>0.0</ele><time>2026-04-18T10:09:08.884Z</time></trkpt><trkpt lat="42.7536841593681" lon="10.244283523133046"><ele>-1.0</ele><time>2026-04-18T10:09:09.884Z</time></trkpt><trkpt lat="42.75358876834382" lon="10.244231093110843"><ele>-0.9999999999999999</ele><time>2026-04-18T10:09:10.885Z</time></trkpt><trkpt lat="42.75350981009545" lon="10.24417856724407"><ele>-1.0</ele><time>2026-04-18T10:09:11.885Z</time></trkpt><trkpt lat="42.75345347201145" lon="10.244130926757162"><ele>-1.0</ele><time>2026-04-18T10:09:12.884Z</time></trkpt><trkpt lat="42.753386437478675" lon="10.244103293627276"><ele>-1.0</ele><time>2026-04-18T10:09:14.884Z</time></trkpt><trkpt lat="42.753296533590415" lon="10.244097754285436"><ele>-0.9999999999999999</ele><time>2026-04-18T10:09:17.884Z</time></trkpt><trkpt lat="42.753214615812325" lon="10.244032106460924"><ele>-1.0</ele><time>2026-04-18T10:09:19.884Z</time></trkpt><trkpt lat="42.753132599074476" lon="10.243956538633261"><ele>-0.8</ele><time>2026-04-18T10:09:34.885Z</time></trkpt><trkpt lat="42.75304975173511" lon="10.24391131863293"><ele>-0.6000000000000001</ele><time>2026-04-18T10:09:36.885Z</time></trkpt><trkpt lat="42.75311004463593" lon="10.243832010345427"><ele>-0.4</ele><time>2026-04-18T10:09:43.885Z</time></trkpt><trkpt lat="42.753205288922125" lon="10.243798646576492"><ele>-0.2</ele><time>2026-04-18T10:09:53.884Z</time></trkpt><trkpt lat="42.75331776862217" lon="10.24375438682484"><ele>0.0</ele><time>2026-04-18T10:09:55.884Z</time></trkpt><trkpt lat="42.75345334624084" lon="10.243694839282638"><ele>0.0</ele><time>2026-04-18T10:09:57.884Z</time></trkpt><trkpt lat="42.75353973175425" lon="10.243660211329201"><ele>0.0</ele><time>2026-04-18T10:09:58.884Z</time></trkpt><trkpt lat="42.75362175404219" lon="10.243623648276111"><ele>0.0</ele><time>2026-04-18T10:09:59.884Z</time></trkpt><trkpt lat="42.75369442850783" lon="10.243599772083126"><ele>0.0</ele><time>2026-04-18T10:10:00.884Z</time></trkpt><trkpt lat="42.75375453499866" lon="10.243572773326234"><ele>0.0</ele><time>2026-04-18T10:10:01.884Z</time></trkpt><trkpt lat="42.75381726957162" lon="10.243549287460295"><ele>0.0</ele><time>2026-04-18T10:10:02.884Z</time></trkpt><trkpt lat="42.75388351642999" lon="10.243531016520862"><ele>0.0</ele><time>2026-04-18T10:10:03.884Z</time></trkpt><trkpt lat="42.75395026028621" lon="10.24350296809182"><ele>3.0</ele><time>2026-04-18T10:10:04.884Z</time></trkpt><trkpt lat="42.75830039468004" lon="10.24185965923063"><ele>3.0</ele><time>2026-04-18T10:11:05.883Z</time></trkpt><trkpt lat="42.758383021964455" lon="10.24179816843353"><ele>3.0</ele><time>2026-04-18T10:11:06.883Z</time></trkpt><trkpt lat="42.75845828101241" lon="10.241764408823967"><ele>3.0</ele><time>2026-04-18T10:11:07.883Z</time></trkpt><trkpt lat="42.75853475082023" lon="10.241752621974738"><ele>3.0</ele><time>2026-04-18T10:11:08.883Z</time></trkpt><trkpt lat="42.75860235361909" lon="10.24170035431809"><ele>3.0</ele><time>2026-04-18T10:11:09.883Z</time></trkpt><trkpt lat="42.75867999756641" lon="10.241669695917025"><ele>3.0</ele><time>2026-04-18T10:11:10.883Z</time></trkpt><trkpt lat="42.7587631089684" lon="10.241659632992278"><ele>3.2</ele><time>2026-04-18T10:11:11.883Z</time></trkpt><trkpt lat="42.75884279875068" lon="10.241607321606983"><ele>3.4</ele><time>2026-04-18T10:11:12.883Z</time></trkpt><trkpt lat="42.75893134858086" lon="10.241573116157776"><ele>3.6000000000000005</ele><time>2026-04-18T10:11:13.883Z</time></trkpt><trkpt lat="42.759017266209305" lon="10.24156321791017"><ele>3.8000000000000003</ele><time>2026-04-18T10:11:14.883Z</time></trkpt><trkpt lat="42.759108244632856" lon="10.241526857778751"><ele>4.0</ele><time>2026-04-18T10:11:15.883Z</time></trkpt><trkpt lat="42.75920576549101" lon="10.241486447580865"><ele>3.833333333333333</ele><time>2026-04-18T10:11:16.883Z</time></trkpt><trkpt lat="42.75928591558393" lon="10.241453235382721"><ele>3.6666666666666665</ele><time>2026-04-18T10:11:17.883Z</time></trkpt><trkpt lat="42.75935835265118" lon="10.241423219266377"><ele>3.5</ele><time>2026-04-18T10:11:18.882Z</time></trkpt><trkpt lat="42.75943696253632" lon="10.241390645288485"><ele>3.333333333333333</ele><time>2026-04-18T10:11:19.882Z</time></trkpt><trkpt lat="42.759519850268006" lon="10.241356298494908"><ele>3.1666666666666665</ele><time>2026-04-18T10:11:20.883Z</time></trkpt><trkpt lat="42.75960254086696" lon="10.241322033340472"><ele>3.0</ele><time>2026-04-18T10:11:21.883Z</time></trkpt><trkpt lat="42.75969676015756" lon="10.241282990951705"><ele>3.0</ele><time>2026-04-18T10:11:22.883Z</time></trkpt><trkpt lat="42.759780022606535" lon="10.2412200954782"><ele>3.0</ele><time>2026-04-18T10:11:23.883Z</time></trkpt><trkpt lat="42.759867050747715" lon="10.241180083218035"><ele>3.0</ele><time>2026-04-18T10:11:24.883Z</time></trkpt><trkpt lat="42.75995481000849" lon="10.241141943770119"><ele>3.0</ele><time>2026-04-18T10:11:25.883Z</time></trkpt><trkpt lat="42.76004696382105" lon="10.241098403716501"><ele>3.0</ele><time>2026-04-18T10:11:26.883Z</time></trkpt><trkpt lat="42.76014597386865" lon="10.241053934359755"><ele>3.2</ele><time>2026-04-18T10:11:27.883Z</time></trkpt><trkpt lat="42.76023703921688" lon="10.241010082535814"><ele>3.4</ele><time>2026-04-18T10:11:28.883Z</time></trkpt><trkpt lat="42.76033074931277" lon="10.240974125244566"><ele>3.6000000000000005</ele><time>2026-04-18T10:11:29.883Z</time></trkpt><trkpt lat="42.76041921980169" lon="10.240935601577599"><ele>3.8000000000000003</ele><time>2026-04-18T10:11:30.883Z</time></trkpt><trkpt lat="42.760512784373816" lon="10.240888387959123"><ele>4.0</ele><time>2026-04-18T10:11:31.883Z</time></trkpt><trkpt lat="42.760599315333636" lon="10.240846987731313"><ele>4.0</ele><time>2026-04-18T10:11:32.882Z</time></trkpt><trkpt lat="42.76068718151515" lon="10.240802015247416"><ele>4.0</ele><time>2026-04-18T10:11:33.882Z</time></trkpt><trkpt lat="42.76077757277438" lon="10.240756471830482"><ele>4.0</ele><time>2026-04-18T10:11:34.882Z</time></trkpt><trkpt lat="42.7608659724871" lon="10.24072379128619"><ele>4.0</ele><time>2026-04-18T10:11:35.882Z</time></trkpt><trkpt lat="42.76095961726408" lon="10.240679666906994"><ele>4.0</ele><time>2026-04-18T10:11:36.882Z</time></trkpt><trkpt lat="42.761051047925406" lon="10.24063675280453"><ele>4.0</ele><time>2026-04-18T10:11:37.882Z</time></trkpt><trkpt lat="42.761138686881836" lon="10.240591736821358"><ele>4.0</ele><time>2026-04-18T10:11:38.882Z</time></trkpt><trkpt lat="42.76122363113167" lon="10.240553038121432"><ele>4.0</ele><time>2026-04-18T10:11:39.882Z</time></trkpt><trkpt lat="42.76131604865261" lon="10.240513643481146"><ele>4.0</ele><time>2026-04-18T10:11:40.882Z</time></trkpt><trkpt lat="42.76141073999616" lon="10.240466055508735"><ele>4.0</ele><time>2026-04-18T10:11:41.882Z</time></trkpt><trkpt lat="42.76150159201884" lon="10.240422734398672"><ele>4.0</ele><time>2026-04-18T10:11:42.882Z</time></trkpt><trkpt lat="42.76158855613275" lon="10.240378835718834"><ele>4.0</ele><time>2026-04-18T10:11:43.882Z</time></trkpt><trkpt lat="42.761685060825194" lon="10.240334971116441"><ele>4.0</ele><time>2026-04-18T10:11:44.882Z</time></trkpt><trkpt lat="42.76178133297983" lon="10.240295495386626"><ele>4.0</ele><time>2026-04-18T10:11:45.882Z</time></trkpt><trkpt lat="42.761874856392744" lon="10.240253633240236"><ele>4.0</ele><time>2026-04-18T10:11:46.882Z</time></trkpt><trkpt lat="42.76196764615226" lon="10.24021010691159"><ele>3.9999999999999996</ele><time>2026-04-18T10:11:47.882Z</time></trkpt><trkpt lat="42.762052622832705" lon="10.240177138262766"><ele>4.0</ele><time>2026-04-18T10:11:48.882Z</time></trkpt><trkpt lat="42.76213567715367" lon="10.24014089691684"><ele>4.0</ele><time>2026-04-18T10:11:49.882Z</time></trkpt><trkpt lat="42.76222056903202" lon="10.240103626494438"><ele>4.0</ele><time>2026-04-18T10:11:50.882Z</time></trkpt><trkpt lat="42.76229944758909" lon="10.240071987759627"><ele>3.9999999999999996</ele><time>2026-04-18T10:11:51.882Z</time></trkpt><trkpt lat="42.762377532570035" lon="10.24004023719677"><ele>4.0</ele><time>2026-04-18T10:11:52.882Z</time></trkpt><trkpt lat="42.762451066978834" lon="10.240007738543039"><ele>3.9999999999999996</ele><time>2026-04-18T10:11:53.882Z</time></trkpt><trkpt lat="42.76253226122461" lon="10.239978860338415"><ele>4.0</ele><time>2026-04-18T10:11:54.882Z</time></trkpt><trkpt lat="42.76262115245939" lon="10.239944166857143"><ele>4.0</ele><time>2026-04-18T10:11:55.882Z</time></trkpt><trkpt lat="42.762713996134714" lon="10.239906899978333"><ele>4.0</ele><time>2026-04-18T10:11:56.882Z</time></trkpt><trkpt lat="42.762796903383865" lon="10.239920097726175"><ele>3.9999999999999996</ele><time>2026-04-18T10:11:57.882Z</time></trkpt><trkpt lat="42.76286576055812" lon="10.239847335093389"><ele>4.0</ele><time>2026-04-18T10:11:58.882Z</time></trkpt><trkpt lat="42.762957775897405" lon="10.239826236566199"><ele>4.5</ele><time>2026-04-18T10:12:00.882Z</time></trkpt><trkpt lat="42.76300708573043" lon="10.239884839501537"><ele>5.0</ele><time>2026-04-18T10:12:03.882Z</time></trkpt><trkpt lat="42.768257055236695" lon="10.239098915523932"><ele>6.0</ele><time>2026-04-18T10:13:05.881Z</time></trkpt><trkpt lat="42.768339952084" lon="10.239038295879894"><ele>7.0</ele><time>2026-04-18T10:13:07.881Z</time></trkpt><trkpt lat="42.76831877557943" lon="10.238912462009498"><ele>8.0</ele><time>2026-04-18T10:13:09.881Z</time></trkpt><trkpt lat="42.76834757489205" lon="10.238829044622678"><ele>9.0</ele><time>2026-04-18T10:13:12.88Z</time></trkpt><trkpt lat="42.7684525110847" lon="10.238778609729442"><ele>10.0</ele><time>2026-04-18T10:13:14.88Z</time></trkpt><trkpt lat="42.768525188496334" lon="10.23876335307705"><ele>11.0</ele><time>2026-04-18T10:13:15.88Z</time></trkpt><trkpt lat="42.768597050829186" lon="10.238745279283696"><ele>11.333333333333332</ele><time>2026-04-18T10:13:16.88Z</time></trkpt><trkpt lat="42.768674168726804" lon="10.238726974690758"><ele>11.666666666666666</ele><time>2026-04-18T10:13:17.88Z</time></trkpt><trkpt lat="42.7687503332296" lon="10.238706181860813"><ele>12.0</ele><time>2026-04-18T10:13:18.88Z</time></trkpt><trkpt lat="42.7688349285303" lon="10.23868960829731"><ele>12.333333333333332</ele><time>2026-04-18T10:13:19.88Z</time></trkpt><trkpt lat="42.76892156424356" lon="10.238676335737312"><ele>12.666666666666666</ele><time>2026-04-18T10:13:20.88Z</time></trkpt><trkpt lat="42.769001867587846" lon="10.238666505851375"><ele>13.0</ele><time>2026-04-18T10:13:21.88Z</time></trkpt><trkpt lat="42.76909194200761" lon="10.238667449009379"><ele>12.999999999999998</ele><time>2026-04-18T10:13:22.881Z</time></trkpt><trkpt lat="42.76917682422658" lon="10.238655915197242"><ele>13.0</ele><time>2026-04-18T10:13:23.881Z</time></trkpt><trkpt lat="42.769260803126066" lon="10.238660690741007"><ele>13.0</ele><time>2026-04-18T10:13:24.881Z</time></trkpt><trkpt lat="42.76934504373325" lon="10.238683752832193"><ele>13.0</ele><time>2026-04-18T10:13:25.881Z</time></trkpt><trkpt lat="42.76943260659652" lon="10.238661995495308"><ele>12.999999999999998</ele><time>2026-04-18T10:13:26.881Z</time></trkpt><trkpt lat="42.76951756051742" lon="10.238668463757795"><ele>13.0</ele><time>2026-04-18T10:13:27.881Z</time></trkpt><trkpt lat="42.76960050534059" lon="10.238667321266666"><ele>12.999999999999998</ele><time>2026-04-18T10:13:28.881Z</time></trkpt><trkpt lat="42.76968697324308" lon="10.238657964289045"><ele>13.0</ele><time>2026-04-18T10:13:29.881Z</time></trkpt><trkpt lat="42.76977553564913" lon="10.238647974893412"><ele>13.0</ele><time>2026-04-18T10:13:30.881Z</time></trkpt><trkpt lat="42.76986788233009" lon="10.238639648783217"><ele>13.0</ele><time>2026-04-18T10:13:31.881Z</time></trkpt><trkpt lat="42.769951218945224" lon="10.23863390468982"><ele>12.999999999999998</ele><time>2026-04-18T10:13:32.882Z</time></trkpt><trkpt lat="42.770024641984136" lon="10.238623630557656"><ele>13.0</ele><time>2026-04-18T10:13:33.882Z</time></trkpt><trkpt lat="42.770103377592584" lon="10.238618983377636"><ele>12.999999999999998</ele><time>2026-04-18T10:13:35.881Z</time></trkpt><trkpt lat="42.770144918605766" lon="10.238553183328818"><ele>13.0</ele><time>2026-04-18T10:13:40.881Z</time></trkpt><trkpt lat="42.770204693828816" lon="10.238493702021318"><ele>13.0</ele><time>2026-04-18T10:13:56.881Z</time></trkpt><trkpt lat="42.770305021781624" lon="10.238498401586776"><ele>13.0</ele><time>2026-04-18T10:13:58.881Z</time></trkpt><trkpt lat="42.77037188162142" lon="10.238524455537172"><ele>12.999999999999998</ele><time>2026-04-18T10:13:59.881Z</time></trkpt><trkpt lat="42.77044618918265" lon="10.238536033482182"><ele>13.0</ele><time>2026-04-18T10:14:00.881Z</time></trkpt><trkpt lat="42.77053177253469" lon="10.238549276542896"><ele>13.25</ele><time>2026-04-18T10:14:01.881Z</time></trkpt><trkpt lat="42.77063522768149" lon="10.238560612406653"><ele>13.5</ele><time>2026-04-18T10:14:02.881Z</time></trkpt><trkpt lat="42.77074569791503" lon="10.238541403617814"><ele>13.75</ele><time>2026-04-18T10:14:03.881Z</time></trkpt><trkpt lat="42.77085571680064" lon="10.238514586619427"><ele>14.0</ele><time>2026-04-18T10:14:04.881Z</time></trkpt><trkpt lat="42.77729455017741" lon="10.24620640428532"><ele>26.666666666666664</ele><time>2026-04-18T10:15:05.88Z</time></trkpt><trkpt lat="42.77744373915241" lon="10.246280250490985"><ele>39.33333333333333</ele><time>2026-04-18T10:15:06.88Z</time></trkpt><trkpt lat="42.777589916116064" lon="10.246330351760289"><ele>52.0</ele><time>2026-04-18T10:15:07.88Z</time></trkpt><trkpt lat="42.77773752560482" lon="10.246400388285657"><ele>51.25</ele><time>2026-04-18T10:15:08.88Z</time></trkpt><trkpt lat="42.7778716566716" lon="10.246460181496868"><ele>50.5</ele><time>2026-04-18T10:15:09.88Z</time></trkpt><trkpt lat="42.77800957223981" lon="10.246509423930142"><ele>49.75</ele><time>2026-04-18T10:15:10.88Z</time></trkpt><trkpt lat="42.778145440268005" lon="10.246547717414131"><ele>49.0</ele><time>2026-04-18T10:15:11.88Z</time></trkpt><trkpt lat="42.77829314480277" lon="10.246557365819733"><ele>49.0</ele><time>2026-04-18T10:15:12.88Z</time></trkpt><trkpt lat="42.77843738545216" lon="10.246562650563"><ele>49.0</ele><time>2026-04-18T10:15:13.88Z</time></trkpt><trkpt lat="42.77859258049577" lon="10.246540883828617"><ele>49.0</ele><time>2026-04-18T10:15:14.88Z</time></trkpt><trkpt lat="42.77874396429378" lon="10.246493148772736"><ele>51.0</ele><time>2026-04-18T10:15:15.88Z</time></trkpt><trkpt lat="42.77890201507562" lon="10.246431299550444"><ele>53.0</ele><time>2026-04-18T10:15:16.88Z</time></trkpt><trkpt lat="42.77905916734633" lon="10.24636173663483"><ele>55.0</ele><time>2026-04-18T10:15:17.88Z</time></trkpt><trkpt lat="42.77919189320048" lon="10.246271622091053"><ele>55.0</ele><time>2026-04-18T10:15:18.88Z</time></trkpt><trkpt lat="42.77930207063725" lon="10.246161131538866"><ele>55.0</ele><time>2026-04-18T10:15:19.88Z</time></trkpt><trkpt lat="42.77941616170321" lon="10.24605854876786"><ele>55.0</ele><time>2026-04-18T10:15:20.88Z</time></trkpt><trkpt lat="42.77954426817718" lon="10.245956827471785"><ele>55.0</ele><time>2026-04-18T10:15:21.879Z</time></trkpt><trkpt lat="42.779685792876855" lon="10.245846658568968"><ele>52.666666666666664</ele><time>2026-04-18T10:15:22.879Z</time></trkpt><trkpt lat="42.77982048666196" lon="10.245748736441195"><ele>50.33333333333333</ele><time>2026-04-18T10:15:23.879Z</time></trkpt><trkpt lat="42.77997758004261" lon="10.245675215120707"><ele>48.0</ele><time>2026-04-18T10:15:24.879Z</time></trkpt><trkpt lat="42.78014291619025" lon="10.245602583619837"><ele>44.333333333333336</ele><time>2026-04-18T10:15:25.879Z</time></trkpt><trkpt lat="42.78030716809558" lon="10.245531511998893"><ele>40.66666666666667</ele><time>2026-04-18T10:15:26.879Z</time></trkpt><trkpt lat="42.78046615742277" lon="10.2454648770927"><ele>37.0</ele><time>2026-04-18T10:15:27.879Z</time></trkpt><trkpt lat="42.78062384226202" lon="10.245393890770895"><ele>37.0</ele><time>2026-04-18T10:15:28.88Z</time></trkpt><trkpt lat="42.78078480677201" lon="10.24532788969223"><ele>37.0</ele><time>2026-04-18T10:15:29.88Z</time></trkpt><trkpt lat="42.780936920123445" lon="10.245261727240996"><ele>37.0</ele><time>2026-04-18T10:15:30.88Z</time></trkpt><trkpt lat="42.78108092025965" lon="10.245196834793624"><ele>35.0</ele><time>2026-04-18T10:15:31.88Z</time></trkpt><trkpt lat="42.78122456820235" lon="10.245139500766102"><ele>33.0</ele><time>2026-04-18T10:15:32.88Z</time></trkpt><trkpt lat="42.781369184044706" lon="10.24508637883104"><ele>31.0</ele><time>2026-04-18T10:15:33.88Z</time></trkpt><trkpt lat="42.78151665883643" lon="10.245038629982684"><ele>31.0</ele><time>2026-04-18T10:15:34.88Z</time></trkpt><trkpt lat="42.78166744724161" lon="10.244994432571627"><ele>31.0</ele><time>2026-04-18T10:15:35.88Z</time></trkpt><trkpt lat="42.78182730087763" lon="10.244942608721919"><ele>31.0</ele><time>2026-04-18T10:15:36.88Z</time></trkpt><trkpt lat="42.781989900028044" lon="10.244921011560047"><ele>28.666666666666668</ele><time>2026-04-18T10:15:37.88Z</time></trkpt><trkpt lat="42.78214799189284" lon="10.24489567010425"><ele>26.333333333333336</ele><time>2026-04-18T10:15:38.88Z</time></trkpt><trkpt lat="42.78229671196237" lon="10.24488284715145"><ele>24.0</ele><time>2026-04-18T10:15:39.88Z</time></trkpt><trkpt lat="42.78244379178031" lon="10.244878535422954"><ele>24.0</ele><time>2026-04-18T10:15:40.879Z</time></trkpt><trkpt lat="42.78259351152577" lon="10.244896146066512"><ele>24.0</ele><time>2026-04-18T10:15:41.879Z</time></trkpt><trkpt lat="42.78272226254009" lon="10.244945487682505"><ele>24.0</ele><time>2026-04-18T10:15:42.88Z</time></trkpt><trkpt lat="42.782848926544354" lon="10.245014800562146"><ele>24.0</ele><time>2026-04-18T10:15:43.88Z</time></trkpt><trkpt lat="42.78297764473341" lon="10.245105164608391"><ele>21.5</ele><time>2026-04-18T10:15:44.879Z</time></trkpt><trkpt lat="42.78311838222964" lon="10.245197027301227"><ele>19.0</ele><time>2026-04-18T10:15:45.879Z</time></trkpt><trkpt lat="42.783251235221066" lon="10.245281500006342"><ele>16.5</ele><time>2026-04-18T10:15:46.88Z</time></trkpt><trkpt lat="42.783393067730714" lon="10.245326721442956"><ele>14.0</ele><time>2026-04-18T10:15:47.88Z</time></trkpt><trkpt lat="42.78352652005953" lon="10.245382983523884"><ele>13.0</ele><time>2026-04-18T10:15:48.88Z</time></trkpt><trkpt lat="42.783665238965646" lon="10.245396712063236"><ele>12.0</ele><time>2026-04-18T10:15:49.88Z</time></trkpt><trkpt lat="42.78378990040283" lon="10.245465881133756"><ele>11.0</ele><time>2026-04-18T10:15:50.88Z</time></trkpt><trkpt lat="42.78392158375782" lon="10.245494387167586"><ele>10.0</ele><time>2026-04-18T10:15:51.88Z</time></trkpt><trkpt lat="42.7840487648679" lon="10.245523086307804"><ele>10.0</ele><time>2026-04-18T10:15:52.88Z</time></trkpt><trkpt lat="42.784165428461705" lon="10.245552882627232"><ele>10.0</ele><time>2026-04-18T10:15:53.88Z</time></trkpt><trkpt lat="42.78429623727494" lon="10.245574516554575"><ele>10.0</ele><time>2026-04-18T10:15:54.88Z</time></trkpt><trkpt lat="42.78442419803422" lon="10.24560301156795"><ele>10.0</ele><time>2026-04-18T10:15:55.88Z</time></trkpt><trkpt lat="42.78454615422361" lon="10.245631238186576"><ele>9.5</ele><time>2026-04-18T10:15:56.88Z</time></trkpt><trkpt lat="42.784678391522405" lon="10.245649607503596"><ele>9.0</ele><time>2026-04-18T10:15:57.88Z</time></trkpt><trkpt lat="42.78479558527357" lon="10.245658951249132"><ele>8.5</ele><time>2026-04-18T10:15:58.88Z</time></trkpt><trkpt lat="42.78490615281465" lon="10.245677844324007"><ele>8.0</ele><time>2026-04-18T10:15:59.88Z</time></trkpt><trkpt lat="42.78500046521631" lon="10.245699130852053"><ele>8.0</ele><time>2026-04-18T10:16:00.88Z</time></trkpt><trkpt lat="42.78507559486611" lon="10.245697609485397"><ele>8.0</ele><time>2026-04-18T10:16:01.88Z</time></trkpt><trkpt lat="42.7851486256785" lon="10.245717663250717"><ele>8.0</ele><time>2026-04-18T10:16:02.88Z</time></trkpt><trkpt lat="42.78524458186551" lon="10.245708289810697"><ele>8.0</ele><time>2026-04-18T10:16:04.88Z</time></trkpt><trkpt lat="42.78660510315997" lon="10.241459144789191"><ele>8.5</ele><time>2026-04-18T10:17:05.879Z</time></trkpt><trkpt lat="42.78667509060962" lon="10.24135198837849"><ele>9.0</ele><time>2026-04-18T10:17:06.879Z</time></trkpt><trkpt lat="42.78675364112736" lon="10.241229155529707"><ele>9.5</ele><time>2026-04-18T10:17:07.879Z</time></trkpt><trkpt lat="42.78683935867408" lon="10.241089775227486"><ele>10.0</ele><time>2026-04-18T10:17:08.879Z</time></trkpt><trkpt lat="42.786912821849036" lon="10.24094127495297"><ele>10.0</ele><time>2026-04-18T10:17:09.878Z</time></trkpt><trkpt lat="42.786998759360856" lon="10.240784523066466"><ele>10.0</ele><time>2026-04-18T10:17:10.878Z</time></trkpt><trkpt lat="42.78709639919869" lon="10.240650692073524"><ele>10.0</ele><time>2026-04-18T10:17:11.878Z</time></trkpt><trkpt lat="42.78721093620247" lon="10.240525478556323"><ele>10.0</ele><time>2026-04-18T10:17:12.878Z</time></trkpt><trkpt lat="42.78735117198929" lon="10.240424824936502"><ele>10.0</ele><time>2026-04-18T10:17:13.878Z</time></trkpt><trkpt lat="42.787505885149514" lon="10.240359681926323"><ele>10.0</ele><time>2026-04-18T10:17:14.878Z</time></trkpt><trkpt lat="42.78763760278727" lon="10.240302976654458"><ele>10.0</ele><time>2026-04-18T10:17:15.878Z</time></trkpt><trkpt lat="42.78777150149981" lon="10.24024575422895"><ele>10.0</ele><time>2026-04-18T10:17:16.878Z</time></trkpt><trkpt lat="42.787891988060586" lon="10.240181396617308"><ele>10.0</ele><time>2026-04-18T10:17:17.878Z</time></trkpt><trkpt lat="42.78797639430679" lon="10.240061756558605"><ele>10.0</ele><time>2026-04-18T10:17:18.878Z</time></trkpt><trkpt lat="42.78804659346045" lon="10.239905232967473"><ele>10.0</ele><time>2026-04-18T10:17:19.878Z</time></trkpt><trkpt lat="42.78809283088839" lon="10.239710619679146"><ele>10.0</ele><time>2026-04-18T10:17:20.878Z</time></trkpt><trkpt lat="42.788145801381376" lon="10.239508269815058"><ele>12.0</ele><time>2026-04-18T10:17:21.878Z</time></trkpt><trkpt lat="42.78820547164989" lon="10.23932231407127"><ele>14.0</ele><time>2026-04-18T10:17:22.878Z</time></trkpt><trkpt lat="42.788251963670284" lon="10.239163035560486"><ele>16.0</ele><time>2026-04-18T10:17:23.878Z</time></trkpt><trkpt lat="42.788288307731314" lon="10.239026734091128"><ele>18.0</ele><time>2026-04-18T10:17:24.878Z</time></trkpt><trkpt lat="42.78832386062402" lon="10.238906506038797"><ele>17.833333333333332</ele><time>2026-04-18T10:17:25.876Z</time></trkpt><trkpt lat="42.78837421478761" lon="10.238814043350223"><ele>17.666666666666668</ele><time>2026-04-18T10:17:26.875Z</time></trkpt><trkpt lat="42.78844528341816" lon="10.238720736241596"><ele>17.5</ele><time>2026-04-18T10:17:27.873Z</time></trkpt><trkpt lat="42.78852845330933" lon="10.23864156986906"><ele>17.333333333333336</ele><time>2026-04-18T10:17:28.872Z</time></trkpt><trkpt lat="42.78855780043376" lon="10.23854025710453"><ele>17.166666666666668</ele><time>2026-04-18T10:17:29.87Z</time></trkpt><trkpt lat="42.78854323268945" lon="10.23844103092635"><ele>17.0</ele><time>2026-04-18T10:17:30.869Z</time></trkpt><trkpt lat="42.78854639310439" lon="10.238343562344534"><ele>17.0</ele><time>2026-04-18T10:17:31.868Z</time></trkpt><trkpt lat="42.7885458501789" lon="10.238249836561026"><ele>17.0</ele><time>2026-04-18T10:17:32.867Z</time></trkpt><trkpt lat="42.78854851694205" lon="10.238119007565892"><ele>17.0</ele><time>2026-04-18T10:17:34.865Z</time></trkpt><trkpt lat="42.788393330236524" lon="10.238145804278009"><ele>17.0</ele><time>2026-04-18T10:17:35.864Z</time></trkpt><trkpt lat="42.78828061377487" lon="10.238128617934535"><ele>17.0</ele><time>2026-04-18T10:17:36.864Z</time></trkpt><trkpt lat="42.7881456560274" lon="10.238109392829234"><ele>16.0</ele><time>2026-04-18T10:17:37.863Z</time></trkpt><trkpt lat="42.78801843533111" lon="10.2380703516202"><ele>15.0</ele><time>2026-04-18T10:17:38.862Z</time></trkpt><trkpt lat="42.78790274993689" lon="10.23798952200728"><ele>14.0</ele><time>2026-04-18T10:17:39.861Z</time></trkpt><trkpt lat="42.78780380958454" lon="10.23791157046265"><ele>13.0</ele><time>2026-04-18T10:17:40.861Z</time></trkpt><trkpt lat="42.78771354506582" lon="10.23785251115898"><ele>12.200000000000001</ele><time>2026-04-18T10:17:41.86Z</time></trkpt><trkpt lat="42.78761969147399" lon="10.23781364207667"><ele>11.4</ele><time>2026-04-18T10:17:42.859Z</time></trkpt><trkpt lat="42.787505259566686" lon="10.23780187413564"><ele>10.600000000000001</ele><time>2026-04-18T10:17:43.858Z</time></trkpt><trkpt lat="42.78737181995689" lon="10.237787669896269"><ele>9.8</ele><time>2026-04-18T10:17:44.859Z</time></trkpt><trkpt lat="42.78727567359175" lon="10.237803354429746"><ele>9.0</ele><time>2026-04-18T10:17:45.858Z</time></trkpt><trkpt lat="42.78719983879402" lon="10.237783964461643"><ele>9.0</ele><time>2026-04-18T10:17:46.857Z</time></trkpt><trkpt lat="42.78712194638982" lon="10.237800045902436"><ele>9.0</ele><time>2026-04-18T10:17:47.857Z</time></trkpt><trkpt lat="42.78703962727" lon="10.237740010025318"><ele>9.0</ele><time>2026-04-18T10:17:48.857Z</time></trkpt><trkpt lat="42.786953772957794" lon="10.237644559609807"><ele>9.0</ele><time>2026-04-18T10:17:49.856Z</time></trkpt><trkpt lat="42.78687704745239" lon="10.237537680918264"><ele>9.0</ele><time>2026-04-18T10:17:50.855Z</time></trkpt><trkpt lat="42.786802721465506" lon="10.237431798179117"><ele>9.5</ele><time>2026-04-18T10:17:51.855Z</time></trkpt><trkpt lat="42.786707247943404" lon="10.237308652087737"><ele>10.0</ele><time>2026-04-18T10:17:52.856Z</time></trkpt><trkpt lat="42.78660935239491" lon="10.237179663115619"><ele>10.5</ele><time>2026-04-18T10:17:53.855Z</time></trkpt><trkpt lat="42.786534844749404" lon="10.237050207053995"><ele>11.0</ele><time>2026-04-18T10:17:54.855Z</time></trkpt><trkpt lat="42.78647679213332" lon="10.236910149445364"><ele>10.4</ele><time>2026-04-18T10:17:55.855Z</time></trkpt><trkpt lat="42.78641706348365" lon="10.23678573527496"><ele>9.8</ele><time>2026-04-18T10:17:56.854Z</time></trkpt><trkpt lat="42.786377363502986" lon="10.23665686879115"><ele>9.200000000000001</ele><time>2026-04-18T10:17:57.854Z</time></trkpt><trkpt lat="42.786365980932025" lon="10.23652561447637"><ele>8.600000000000001</ele><time>2026-04-18T10:17:58.854Z</time></trkpt><trkpt lat="42.78637089678127" lon="10.23641367645839"><ele>8.0</ele><time>2026-04-18T10:17:59.854Z</time></trkpt><trkpt lat="42.78642152816073" lon="10.236335884042633"><ele>8.0</ele><time>2026-04-18T10:18:00.854Z</time></trkpt><trkpt lat="42.786475270198075" lon="10.236259797204582"><ele>8.0</ele><time>2026-04-18T10:18:01.853Z</time></trkpt><trkpt lat="42.78653481669757" lon="10.236195146026525"><ele>8.0</ele><time>2026-04-18T10:18:02.853Z</time></trkpt><trkpt lat="42.78656439936442" lon="10.23609470727062"><ele>8.0</ele><time>2026-04-18T10:18:03.853Z</time></trkpt><trkpt lat="42.786646954930184" lon="10.236051263750491"><ele>8.0</ele><time>2026-04-18T10:18:04.853Z</time></trkpt><trkpt lat="42.787682505038454" lon="10.231607983034799"><ele>10.333333333333332</ele><time>2026-04-18T10:19:05.849Z</time></trkpt><trkpt lat="42.78780444250154" lon="10.231511948827057"><ele>12.666666666666666</ele><time>2026-04-18T10:19:06.849Z</time></trkpt><trkpt lat="42.78792388740892" lon="10.23136444247726"><ele>15.0</ele><time>2026-04-18T10:19:07.849Z</time></trkpt><trkpt lat="42.78806781457206" lon="10.231235452151498"><ele>19.0</ele><time>2026-04-18T10:19:08.849Z</time></trkpt><trkpt lat="42.7881812950367" lon="10.231120896016957"><ele>23.0</ele><time>2026-04-18T10:19:09.849Z</time></trkpt><trkpt lat="42.78829048109718" lon="10.23101569819351"><ele>27.0</ele><time>2026-04-18T10:19:10.849Z</time></trkpt><trkpt lat="42.788390688203926" lon="10.230904214873375"><ele>31.0</ele><time>2026-04-18T10:19:11.849Z</time></trkpt><trkpt lat="42.78847410856453" lon="10.230770254434317"><ele>32.75</ele><time>2026-04-18T10:19:12.849Z</time></trkpt><trkpt lat="42.78849836472063" lon="10.230595195851116"><ele>34.5</ele><time>2026-04-18T10:19:13.849Z</time></trkpt><trkpt lat="42.788512948498315" lon="10.2304316478265"><ele>36.25</ele><time>2026-04-18T10:19:14.849Z</time></trkpt><trkpt lat="42.788519598670845" lon="10.230267274422935"><ele>38.0</ele><time>2026-04-18T10:19:15.849Z</time></trkpt><trkpt lat="42.78851754344801" lon="10.230113479576753"><ele>32.0</ele><time>2026-04-18T10:19:16.849Z</time></trkpt><trkpt lat="42.78851898791733" lon="10.229967778867566"><ele>25.999999999999996</ele><time>2026-04-18T10:19:17.849Z</time></trkpt><trkpt lat="42.78851935967629" lon="10.229811175323965"><ele>20.0</ele><time>2026-04-18T10:19:18.849Z</time></trkpt><trkpt lat="42.78851665455021" lon="10.229663449901075"><ele>14.0</ele><time>2026-04-18T10:19:19.849Z</time></trkpt><trkpt lat="42.788515791906164" lon="10.229516514949825"><ele>8.0</ele><time>2026-04-18T10:19:20.849Z</time></trkpt><trkpt lat="42.78851676314834" lon="10.229375861451254"><ele>8.0</ele><time>2026-04-18T10:19:21.849Z</time></trkpt><trkpt lat="42.78850970865217" lon="10.229241590676393"><ele>8.0</ele><time>2026-04-18T10:19:22.849Z</time></trkpt><trkpt lat="42.78848353067241" lon="10.229105232855154"><ele>8.0</ele><time>2026-04-18T10:19:23.849Z</time></trkpt><trkpt lat="42.788445958380116" lon="10.228974336311543"><ele>8.0</ele><time>2026-04-18T10:19:24.849Z</time></trkpt><trkpt lat="42.78838117958325" lon="10.228833701826366"><ele>8.0</ele><time>2026-04-18T10:19:25.849Z</time></trkpt><trkpt lat="42.7883129233807" lon="10.228702670507175"><ele>10.0</ele><time>2026-04-18T10:19:26.849Z</time></trkpt><trkpt lat="42.78824589234216" lon="10.228571123230449"><ele>12.0</ele><time>2026-04-18T10:19:27.849Z</time></trkpt><trkpt lat="42.788184839353" lon="10.228448649934657"><ele>14.0</ele><time>2026-04-18T10:19:28.849Z</time></trkpt><trkpt lat="42.788138306899036" lon="10.228346454602958"><ele>16.0</ele><time>2026-04-18T10:19:29.849Z</time></trkpt><trkpt lat="42.78809001587529" lon="10.228246678194607"><ele>18.0</ele><time>2026-04-18T10:19:30.849Z</time></trkpt><trkpt lat="42.78802645530708" lon="10.228109363724226"><ele>18.0</ele><time>2026-04-18T10:19:31.849Z</time></trkpt><trkpt lat="42.787976738101605" lon="10.228003193435637"><ele>18.0</ele><time>2026-04-18T10:19:32.849Z</time></trkpt><trkpt lat="42.78791985303899" lon="10.22789914338352"><ele>18.0</ele><time>2026-04-18T10:19:33.849Z</time></trkpt><trkpt lat="42.78783706431023" lon="10.227766360056114"><ele>18.0</ele><time>2026-04-18T10:19:34.849Z</time></trkpt><trkpt lat="42.78773698156143" lon="10.22764427308131"><ele>18.75</ele><time>2026-04-18T10:19:35.849Z</time></trkpt><trkpt lat="42.787634421493266" lon="10.227502658222987"><ele>19.5</ele><time>2026-04-18T10:19:36.849Z</time></trkpt><trkpt lat="42.787530945876874" lon="10.227363294600329"><ele>20.25</ele><time>2026-04-18T10:19:37.848Z</time></trkpt><trkpt lat="42.787440546192755" lon="10.22722700823169"><ele>21.0</ele><time>2026-04-18T10:19:38.848Z</time></trkpt><trkpt lat="42.78736067531845" lon="10.22708683901781"><ele>21.0</ele><time>2026-04-18T10:19:39.848Z</time></trkpt><trkpt lat="42.78728921861383" lon="10.22697476765612"><ele>21.0</ele><time>2026-04-18T10:19:40.849Z</time></trkpt><trkpt lat="42.78721821923535" lon="10.226870168123629"><ele>21.0</ele><time>2026-04-18T10:19:41.849Z</time></trkpt><trkpt lat="42.787144017503294" lon="10.226773831707794"><ele>21.0</ele><time>2026-04-18T10:19:42.849Z</time></trkpt><trkpt lat="42.78707270929946" lon="10.226656013655266"><ele>21.0</ele><time>2026-04-18T10:19:43.849Z</time></trkpt><trkpt lat="42.78700694290699" lon="10.2265536664214"><ele>22.833333333333332</ele><time>2026-04-18T10:19:44.849Z</time></trkpt><trkpt lat="42.78696330239611" lon="10.226460612791982"><ele>24.666666666666664</ele><time>2026-04-18T10:19:45.849Z</time></trkpt><trkpt lat="42.78695602901925" lon="10.22634813115727"><ele>26.5</ele><time>2026-04-18T10:19:46.849Z</time></trkpt><trkpt lat="42.786979311887784" lon="10.226241062723316"><ele>28.333333333333332</ele><time>2026-04-18T10:19:47.849Z</time></trkpt><trkpt lat="42.78701169942681" lon="10.226165441957505"><ele>30.166666666666664</ele><time>2026-04-18T10:19:48.849Z</time></trkpt><trkpt lat="42.78708129005631" lon="10.226068696454412"><ele>32.0</ele><time>2026-04-18T10:19:50.849Z</time></trkpt><trkpt lat="42.78713319838306" lon="10.225983226793998"><ele>32.0</ele><time>2026-04-18T10:19:52.848Z</time></trkpt><trkpt lat="42.787075567158645" lon="10.22589546267262"><ele>32.0</ele><time>2026-04-18T10:19:54.849Z</time></trkpt><trkpt lat="42.78695931774827" lon="10.225806681299444"><ele>32.0</ele><time>2026-04-18T10:19:56.849Z</time></trkpt><trkpt lat="42.78688081891955" lon="10.225743837626657"><ele>32.0</ele><time>2026-04-18T10:19:57.849Z</time></trkpt><trkpt lat="42.78678695954458" lon="10.22566436466216"><ele>32.0</ele><time>2026-04-18T10:19:58.849Z</time></trkpt><trkpt lat="42.78667085521839" lon="10.225602670878967"><ele>35.400000000000006</ele><time>2026-04-18T10:19:59.849Z</time></trkpt><trkpt lat="42.786575603312684" lon="10.225528613236753"><ele>38.800000000000004</ele><time>2026-04-18T10:20:00.849Z</time></trkpt><trkpt lat="42.78648778578298" lon="10.225462796976203"><ele>42.2</ele><time>2026-04-18T10:20:01.848Z</time></trkpt><trkpt lat="42.78640766363883" lon="10.225402402979167"><ele>45.6</ele><time>2026-04-18T10:20:02.848Z</time></trkpt><trkpt lat="42.78634638645501" lon="10.225311529221313"><ele>49.0</ele><time>2026-04-18T10:20:03.848Z</time></trkpt><trkpt lat="42.786279124399336" lon="10.225201371182369"><ele>97.0</ele><time>2026-04-18T10:20:04.848Z</time></trkpt><trkpt lat="42.78684814546266" lon="10.223071325942595"><ele>95.8</ele><time>2026-04-18T10:21:05.847Z</time></trkpt><trkpt lat="42.78681344376102" lon="10.222983909431305"><ele>94.6</ele><time>2026-04-18T10:21:06.847Z</time></trkpt><trkpt lat="42.78677989046484" lon="10.222895575697788"><ele>93.39999999999999</ele><time>2026-04-18T10:21:07.847Z</time></trkpt><trkpt lat="42.786694328434436" lon="10.222741961496476"><ele>92.19999999999999</ele><time>2026-04-18T10:21:09.847Z</time></trkpt><trkpt lat="42.786674205503886" lon="10.222636547075458"><ele>91.0</ele><time>2026-04-18T10:21:10.847Z</time></trkpt><trkpt lat="42.78671116271685" lon="10.222534738685185"><ele>91.0</ele><time>2026-04-18T10:21:11.847Z</time></trkpt><trkpt lat="42.786801065223734" lon="10.22252101788937"><ele>91.0</ele><time>2026-04-18T10:21:12.847Z</time></trkpt><trkpt lat="42.78687728187474" lon="10.222555265498418"><ele>91.0</ele><time>2026-04-18T10:21:13.847Z</time></trkpt><trkpt lat="42.7869445474318" lon="10.222543754169282"><ele>91.0</ele><time>2026-04-18T10:21:14.847Z</time></trkpt><trkpt lat="42.7870243921442" lon="10.222487604689947"><ele>91.0</ele><time>2026-04-18T10:21:15.847Z</time></trkpt><trkpt lat="42.78709573469055" lon="10.222414389031854"><ele>91.0</ele><time>2026-04-18T10:21:16.847Z</time></trkpt><trkpt lat="42.78717539213083" lon="10.222322711904074"><ele>94.6</ele><time>2026-04-18T10:21:17.847Z</time></trkpt><trkpt lat="42.78725675300243" lon="10.222230759645594"><ele>98.19999999999999</ele><time>2026-04-18T10:21:18.847Z</time></trkpt><trkpt lat="42.78735395538969" lon="10.222137723736076"><ele>101.80000000000001</ele><time>2026-04-18T10:21:19.847Z</time></trkpt><trkpt lat="42.787446120209985" lon="10.222050661968611"><ele>105.4</ele><time>2026-04-18T10:21:20.847Z</time></trkpt><trkpt lat="42.78752867782674" lon="10.221971428762297"><ele>109.0</ele><time>2026-04-18T10:21:21.847Z</time></trkpt><trkpt lat="42.78761598204648" lon="10.22189019364497"><ele>108.83333333333334</ele><time>2026-04-18T10:21:22.846Z</time></trkpt><trkpt lat="42.787677483403556" lon="10.22180671950305"><ele>108.66666666666667</ele><time>2026-04-18T10:21:23.846Z</time></trkpt><trkpt lat="42.787753419540216" lon="10.221738821946001"><ele>108.5</ele><time>2026-04-18T10:21:24.846Z</time></trkpt><trkpt lat="42.78781064121407" lon="10.221668731945531"><ele>108.33333333333334</ele><time>2026-04-18T10:21:25.846Z</time></trkpt><trkpt lat="42.787863920710315" lon="10.221605806203824"><ele>108.16666666666667</ele><time>2026-04-18T10:21:26.846Z</time></trkpt><trkpt lat="42.78788204289933" lon="10.221486835923047"><ele>108.0</ele><time>2026-04-18T10:21:28.846Z</time></trkpt><trkpt lat="42.7878037434712" lon="10.22136860636365"><ele>110.33333333333333</ele><time>2026-04-18T10:21:30.846Z</time></trkpt><trkpt lat="42.787716916585694" lon="10.221339826169107"><ele>112.66666666666666</ele><time>2026-04-18T10:21:31.846Z</time></trkpt><trkpt lat="42.78762839706589" lon="10.22131495144114"><ele>115.0</ele><time>2026-04-18T10:21:32.846Z</time></trkpt><trkpt lat="42.787525210199625" lon="10.221279205783999"><ele>117.33333333333333</ele><time>2026-04-18T10:21:33.846Z</time></trkpt><trkpt lat="42.78744837355728" lon="10.221234756839824"><ele>119.66666666666666</ele><time>2026-04-18T10:21:34.846Z</time></trkpt><trkpt lat="42.78738007567033" lon="10.221180752717656"><ele>122.0</ele><time>2026-04-18T10:21:35.846Z</time></trkpt><trkpt lat="42.78731017995105" lon="10.221066606048032"><ele>122.0</ele><time>2026-04-18T10:21:37.846Z</time></trkpt><trkpt lat="42.787249753295164" lon="10.22099036942054"><ele>122.0</ele><time>2026-04-18T10:21:39.846Z</time></trkpt><trkpt lat="42.787408342600216" lon="10.220713006897242"><ele>122.0</ele><time>2026-04-18T10:21:41.846Z</time></trkpt><trkpt lat="42.78745708920091" lon="10.220589032843044"><ele>122.0</ele><time>2026-04-18T10:21:43.846Z</time></trkpt><trkpt lat="42.78750065698718" lon="10.220506938043918"><ele>123.6</ele><time>2026-04-18T10:21:44.846Z</time></trkpt><trkpt lat="42.78753881628244" lon="10.220399202585202"><ele>125.19999999999999</ele><time>2026-04-18T10:21:45.846Z</time></trkpt><trkpt lat="42.78758721889844" lon="10.220291971472744"><ele>126.8</ele><time>2026-04-18T10:21:46.846Z</time></trkpt><trkpt lat="42.78765181548168" lon="10.220210136611682"><ele>128.4</ele><time>2026-04-18T10:21:47.846Z</time></trkpt><trkpt lat="42.78772307387217" lon="10.220140340465022"><ele>130.0</ele><time>2026-04-18T10:21:48.847Z</time></trkpt><trkpt lat="42.78781090737675" lon="10.220093311324502"><ele>132.25</ele><time>2026-04-18T10:21:49.846Z</time></trkpt><trkpt lat="42.78793065595812" lon="10.22010195705057"><ele>134.5</ele><time>2026-04-18T10:21:50.847Z</time></trkpt><trkpt lat="42.7880510052649" lon="10.220083017852755"><ele>136.75</ele><time>2026-04-18T10:21:51.847Z</time></trkpt><trkpt lat="42.78816674552393" lon="10.220078812008905"><ele>139.0</ele><time>2026-04-18T10:21:52.847Z</time></trkpt><trkpt lat="42.788278371344646" lon="10.220091529868924"><ele>139.0</ele><time>2026-04-18T10:21:53.847Z</time></trkpt><trkpt lat="42.78836806433627" lon="10.220046688207386"><ele>139.0</ele><time>2026-04-18T10:21:54.846Z</time></trkpt><trkpt lat="42.788358965173806" lon="10.219959421798045"><ele>139.0</ele><time>2026-04-18T10:21:57.846Z</time></trkpt><trkpt lat="42.78826613831416" lon="10.219891187296382"><ele>139.0</ele><time>2026-04-18T10:21:58.847Z</time></trkpt><trkpt lat="42.78819842035009" lon="10.21981600362426"><ele>139.0</ele><time>2026-04-18T10:21:59.847Z</time></trkpt><trkpt lat="42.78813626043228" lon="10.21970869669377"><ele>140.8</ele><time>2026-04-18T10:22:00.846Z</time></trkpt><trkpt lat="42.7881522541264" lon="10.219549669258974"><ele>142.60000000000002</ele><time>2026-04-18T10:22:01.846Z</time></trkpt><trkpt lat="42.78817493505537" lon="10.21942810253968"><ele>144.4</ele><time>2026-04-18T10:22:02.846Z</time></trkpt><trkpt lat="42.78822180068246" lon="10.219314703209527"><ele>146.20000000000002</ele><time>2026-04-18T10:22:03.846Z</time></trkpt><trkpt lat="42.788232516250616" lon="10.21916356782972"><ele>148.0</ele><time>2026-04-18T10:22:04.846Z</time></trkpt><trkpt lat="42.78901440274302" lon="10.216560036407765"><ele>152.33333333333334</ele><time>2026-04-18T10:23:05.845Z</time></trkpt><trkpt lat="42.78895967560113" lon="10.21661408565181"><ele>156.66666666666669</ele><time>2026-04-18T10:23:06.845Z</time></trkpt><trkpt lat="42.78887934468878" lon="10.216648363916365"><ele>161.0</ele><time>2026-04-18T10:23:07.845Z</time></trkpt><trkpt lat="42.78877704726214" lon="10.216649192363304"><ele>165.33333333333334</ele><time>2026-04-18T10:23:09.845Z</time></trkpt><trkpt lat="42.78867497471846" lon="10.216730177789726"><ele>169.66666666666666</ele><time>2026-04-18T10:23:12.844Z</time></trkpt><trkpt lat="42.788619401475806" lon="10.216781141008896"><ele>174.0</ele><time>2026-04-18T10:23:13.844Z</time></trkpt><trkpt lat="42.78852196497797" lon="10.216883891313255"><ele>176.2</ele><time>2026-04-18T10:23:15.844Z</time></trkpt><trkpt lat="42.788436803078916" lon="10.216950669715514"><ele>178.39999999999998</ele><time>2026-04-18T10:23:17.844Z</time></trkpt><trkpt lat="42.788339854360665" lon="10.217025279322305"><ele>180.6</ele><time>2026-04-18T10:23:19.844Z</time></trkpt><trkpt lat="42.78826416840799" lon="10.217066008012697"><ele>182.8</ele><time>2026-04-18T10:23:21.844Z</time></trkpt><trkpt lat="42.78818806218645" lon="10.217148097973329"><ele>185.0</ele><time>2026-04-18T10:23:23.844Z</time></trkpt><trkpt lat="42.78812792015821" lon="10.217203216756168"><ele>185.0</ele><time>2026-04-18T10:23:25.844Z</time></trkpt><trkpt lat="42.788076023384974" lon="10.217285255668232"><ele>185.0</ele><time>2026-04-18T10:23:27.844Z</time></trkpt><trkpt lat="42.7879913742174" lon="10.217401962058009"><ele>185.0</ele><time>2026-04-18T10:23:29.844Z</time></trkpt><trkpt lat="42.78794508542506" lon="10.217466601260977"><ele>185.0</ele><time>2026-04-18T10:23:30.844Z</time></trkpt><trkpt lat="42.78785398360509" lon="10.217525721490746"><ele>185.0</ele><time>2026-04-18T10:23:32.844Z</time></trkpt><trkpt lat="42.78773925339118" lon="10.217568499818272"><ele>183.33333333333331</ele><time>2026-04-18T10:23:34.844Z</time></trkpt><trkpt lat="42.78766724166215" lon="10.217583685740102"><ele>181.66666666666666</ele><time>2026-04-18T10:23:35.844Z</time></trkpt><trkpt lat="42.787603283958774" lon="10.217591258848566"><ele>180.0</ele><time>2026-04-18T10:23:36.844Z</time></trkpt><trkpt lat="42.78750820125272" lon="10.21758547554122"><ele>178.33333333333334</ele><time>2026-04-18T10:23:38.844Z</time></trkpt><trkpt lat="42.78743093383814" lon="10.217546857656023"><ele>176.66666666666669</ele><time>2026-04-18T10:23:40.844Z</time></trkpt><trkpt lat="42.78736278618591" lon="10.217595765371447"><ele>175.0</ele><time>2026-04-18T10:23:42.844Z</time></trkpt><trkpt lat="42.78727123032071" lon="10.217711252300088"><ele>175.0</ele><time>2026-04-18T10:23:44.844Z</time></trkpt><trkpt lat="42.787193373478594" lon="10.217775305101751"><ele>175.0</ele><time>2026-04-18T10:23:46.844Z</time></trkpt><trkpt lat="42.787103981086986" lon="10.217811045717935"><ele>175.0</ele><time>2026-04-18T10:23:48.844Z</time></trkpt><trkpt lat="42.7870078908613" lon="10.217764807291003"><ele>175.0</ele><time>2026-04-18T10:23:50.844Z</time></trkpt><trkpt lat="42.78690175519927" lon="10.217724894834202"><ele>175.0</ele><time>2026-04-18T10:23:52.845Z</time></trkpt><trkpt lat="42.78680335118886" lon="10.217684999104963"><ele>176.2</ele><time>2026-04-18T10:23:55.845Z</time></trkpt><trkpt lat="42.78668481933831" lon="10.217724990742937"><ele>177.4</ele><time>2026-04-18T10:23:57.845Z</time></trkpt><trkpt lat="42.78662079245492" lon="10.217736103966006"><ele>178.60000000000002</ele><time>2026-04-18T10:23:58.844Z</time></trkpt><trkpt lat="42.78655127228338" lon="10.21774100342182"><ele>179.8</ele><time>2026-04-18T10:23:59.844Z</time></trkpt><trkpt lat="42.786443313111384" lon="10.21768804884073"><ele>181.0</ele><time>2026-04-18T10:24:01.845Z</time></trkpt><trkpt lat="42.78634623628035" lon="10.21771789723948"><ele>160.0</ele><time>2026-04-18T10:24:04.845Z</time></trkpt><trkpt lat="42.78471365121101" lon="10.219345071519854"><ele>160.0</ele><time>2026-04-18T10:25:05.843Z</time></trkpt><trkpt lat="42.784605540631105" lon="10.219355606616343"><ele>160.0</ele><time>2026-04-18T10:25:07.843Z</time></trkpt><trkpt lat="42.78452441496447" lon="10.219362696605701"><ele>160.0</ele><time>2026-04-18T10:25:09.843Z</time></trkpt><trkpt lat="42.7844505336657" lon="10.219360097602824"><ele>160.0</ele><time>2026-04-18T10:25:11.843Z</time></trkpt><trkpt lat="42.78437503871181" lon="10.219346547150657"><ele>160.0</ele><time>2026-04-18T10:25:22.843Z</time></trkpt><trkpt lat="42.78297119397114" lon="10.21945704266283"><ele>156.66666666666669</ele><time>2026-04-18T10:33:05.835Z</time></trkpt><trkpt lat="42.782928403701035" lon="10.219569909312533"><ele>153.33333333333334</ele><time>2026-04-18T10:33:06.835Z</time></trkpt><trkpt lat="42.78288863501954" lon="10.219669886876124"><ele>150.0</ele><time>2026-04-18T10:33:07.835Z</time></trkpt><trkpt lat="42.782857408472886" lon="10.219757106267041"><ele>146.66666666666666</ele><time>2026-04-18T10:33:08.835Z</time></trkpt><trkpt lat="42.78283035350645" lon="10.21983644281186"><ele>143.33333333333331</ele><time>2026-04-18T10:33:09.835Z</time></trkpt><trkpt lat="42.7827886983428" lon="10.21996800539388"><ele>140.0</ele><time>2026-04-18T10:33:11.835Z</time></trkpt><trkpt lat="42.78274786084984" lon="10.220086876998177"><ele>138.83333333333331</ele><time>2026-04-18T10:33:13.835Z</time></trkpt><trkpt lat="42.78271486003691" lon="10.22017747551822"><ele>137.66666666666666</ele><time>2026-04-18T10:33:15.834Z</time></trkpt><trkpt lat="42.7826760717376" lon="10.22027360945866"><ele>136.5</ele><time>2026-04-18T10:33:18.834Z</time></trkpt><trkpt lat="42.78258421023259" lon="10.220289934781466"><ele>135.33333333333334</ele><time>2026-04-18T10:33:21.834Z</time></trkpt><trkpt lat="42.78250797414455" lon="10.220294647878475"><ele>134.16666666666669</ele><time>2026-04-18T10:33:23.834Z</time></trkpt><trkpt lat="42.78242705806433" lon="10.22031769275177"><ele>133.0</ele><time>2026-04-18T10:33:25.834Z</time></trkpt><trkpt lat="42.78233966181135" lon="10.220314589799475"><ele>138.0</ele><time>2026-04-18T10:33:27.834Z</time></trkpt><trkpt lat="42.78222910218279" lon="10.22031187642147"><ele>143.0</ele><time>2026-04-18T10:33:29.834Z</time></trkpt><trkpt lat="42.782110984221546" lon="10.220306106748067"><ele>148.0</ele><time>2026-04-18T10:33:31.834Z</time></trkpt><trkpt lat="42.78203173578878" lon="10.220262597692036"><ele>153.0</ele><time>2026-04-18T10:33:33.834Z</time></trkpt><trkpt lat="42.78206742378292" lon="10.220166542177779"><ele>158.0</ele><time>2026-04-18T10:33:34.834Z</time></trkpt><trkpt lat="42.78198196733588" lon="10.220087000374798"><ele>158.0</ele><time>2026-04-18T10:33:36.832Z</time></trkpt><trkpt lat="42.78186475749519" lon="10.220094351975709"><ele>158.0</ele><time>2026-04-18T10:33:38.83Z</time></trkpt><trkpt lat="42.781803421325385" lon="10.220058848800921"><ele>158.0</ele><time>2026-04-18T10:33:39.829Z</time></trkpt><trkpt lat="42.781719056778854" lon="10.220017028674391"><ele>158.0</ele><time>2026-04-18T10:33:41.828Z</time></trkpt><trkpt lat="42.78165545334958" lon="10.21996853121128"><ele>158.0</ele><time>2026-04-18T10:33:43.826Z</time></trkpt><trkpt lat="42.781563482015954" lon="10.219924402274058"><ele>158.0</ele><time>2026-04-18T10:33:45.825Z</time></trkpt><trkpt lat="42.78150282621158" lon="10.219895221343002"><ele>158.8</ele><time>2026-04-18T10:33:47.824Z</time></trkpt><trkpt lat="42.781410350987976" lon="10.219964688740905"><ele>159.60000000000002</ele><time>2026-04-18T10:33:48.824Z</time></trkpt><trkpt lat="42.781344842033526" lon="10.220023579718754"><ele>160.39999999999998</ele><time>2026-04-18T10:33:49.824Z</time></trkpt><trkpt lat="42.78124278838228" lon="10.220075606215534"><ele>161.2</ele><time>2026-04-18T10:33:51.823Z</time></trkpt><trkpt lat="42.781149337920745" lon="10.220085760841204"><ele>162.0</ele><time>2026-04-18T10:33:53.822Z</time></trkpt><trkpt lat="42.78108714007916" lon="10.220067015868224"><ele>162.0</ele><time>2026-04-18T10:33:54.822Z</time></trkpt><trkpt lat="42.78101814903648" lon="10.220085287204617"><ele>162.0</ele><time>2026-04-18T10:33:55.821Z</time></trkpt><trkpt lat="42.7809459447371" lon="10.220051471547904"><ele>162.0</ele><time>2026-04-18T10:33:56.821Z</time></trkpt><trkpt lat="42.780881378934794" lon="10.219997751862575"><ele>162.0</ele><time>2026-04-18T10:33:57.821Z</time></trkpt><trkpt lat="42.780815404494646" lon="10.219929433954107"><ele>162.0</ele><time>2026-04-18T10:33:59.82Z</time></trkpt><trkpt lat="42.78069080257228" lon="10.219890254001113"><ele>162.0</ele><time>2026-04-18T10:34:01.82Z</time></trkpt><trkpt lat="42.78061372076027" lon="10.219945223257135"><ele>161.66666666666666</ele><time>2026-04-18T10:34:02.82Z</time></trkpt><trkpt lat="42.78052732579528" lon="10.220077912406069"><ele>161.33333333333331</ele><time>2026-04-18T10:34:03.82Z</time></trkpt><trkpt lat="42.78046755419592" lon="10.220174294117024"><ele>161.0</ele><time>2026-04-18T10:34:04.819Z</time></trkpt><trkpt lat="42.779280588028975" lon="10.221163276149872"><ele>161.66666666666666</ele><time>2026-04-18T10:35:05.817Z</time></trkpt><trkpt lat="42.779309338815416" lon="10.221031641330233"><ele>162.33333333333331</ele><time>2026-04-18T10:35:38.816Z</time></trkpt><trkpt lat="42.77932760446143" lon="10.220944349955005"><ele>163.0</ele><time>2026-04-18T10:35:39.816Z</time></trkpt><trkpt lat="42.779359797328055" lon="10.220776040673467"><ele>163.66666666666666</ele><time>2026-04-18T10:35:41.816Z</time></trkpt><trkpt lat="42.77935393709236" lon="10.220683537482456"><ele>164.33333333333334</ele><time>2026-04-18T10:35:42.815Z</time></trkpt><trkpt lat="42.77930906338223" lon="10.220605542827046"><ele>165.0</ele><time>2026-04-18T10:35:43.815Z</time></trkpt><trkpt lat="42.77924536270714" lon="10.220535229691649"><ele>169.8</ele><time>2026-04-18T10:35:44.815Z</time></trkpt><trkpt lat="42.77921965080828" lon="10.220422436819984"><ele>174.6</ele><time>2026-04-18T10:35:45.815Z</time></trkpt><trkpt lat="42.77919102386438" lon="10.220329809218024"><ele>179.39999999999998</ele><time>2026-04-18T10:35:46.815Z</time></trkpt><trkpt lat="42.77904352516504" lon="10.220286584699869"><ele>184.2</ele><time>2026-04-18T10:35:47.815Z</time></trkpt><trkpt lat="42.778971533077346" lon="10.220184857417454"><ele>189.0</ele><time>2026-04-18T10:35:48.815Z</time></trkpt><trkpt lat="42.77891075666828" lon="10.220090577466273"><ele>189.0</ele><time>2026-04-18T10:35:49.815Z</time></trkpt><trkpt lat="42.77885118962576" lon="10.220011669112935"><ele>189.0</ele><time>2026-04-18T10:35:50.815Z</time></trkpt><trkpt lat="42.77878885305175" lon="10.219975459687905"><ele>189.0</ele><time>2026-04-18T10:35:51.815Z</time></trkpt><trkpt lat="42.77868152191609" lon="10.219904823471817"><ele>189.0</ele><time>2026-04-18T10:35:53.815Z</time></trkpt><trkpt lat="42.778587025541945" lon="10.220056628760778"><ele>189.0</ele><time>2026-04-18T10:35:54.815Z</time></trkpt><trkpt lat="42.77846157877113" lon="10.220123161636247"><ele>191.16666666666666</ele><time>2026-04-18T10:35:56.815Z</time></trkpt><trkpt lat="42.778388538594385" lon="10.220171987770641"><ele>193.33333333333331</ele><time>2026-04-18T10:35:57.815Z</time></trkpt><trkpt lat="42.77831521242498" lon="10.220224567190455"><ele>195.5</ele><time>2026-04-18T10:35:58.815Z</time></trkpt><trkpt lat="42.77824222268257" lon="10.220261772810362"><ele>197.66666666666666</ele><time>2026-04-18T10:35:59.815Z</time></trkpt><trkpt lat="42.778174821647355" lon="10.220281524529875"><ele>199.83333333333331</ele><time>2026-04-18T10:36:00.815Z</time></trkpt><trkpt lat="42.77810985306565" lon="10.220296831840328"><ele>202.0</ele><time>2026-04-18T10:36:01.815Z</time></trkpt><trkpt lat="42.77802678408406" lon="10.220313004770562"><ele>202.0</ele><time>2026-04-18T10:36:02.815Z</time></trkpt><trkpt lat="42.77794734915965" lon="10.220315654760498"><ele>202.0</ele><time>2026-04-18T10:36:03.815Z</time></trkpt><trkpt lat="42.773842550807814" lon="10.216879388637592"><ele>206.16666666666666</ele><time>2026-04-18T10:37:05.814Z</time></trkpt><trkpt lat="42.7738005441119" lon="10.21680509564086"><ele>210.33333333333331</ele><time>2026-04-18T10:37:06.814Z</time></trkpt><trkpt lat="42.773727679843525" lon="10.216759124111269"><ele>214.5</ele><time>2026-04-18T10:37:08.814Z</time></trkpt><trkpt lat="42.77366491888746" lon="10.216788950898183"><ele>218.66666666666669</ele><time>2026-04-18T10:37:09.814Z</time></trkpt><trkpt lat="42.773586007282944" lon="10.216831316619333"><ele>222.83333333333334</ele><time>2026-04-18T10:37:10.814Z</time></trkpt><trkpt lat="42.77350712589388" lon="10.216952174821099"><ele>227.0</ele><time>2026-04-18T10:37:11.814Z</time></trkpt><trkpt lat="42.7734883673275" lon="10.217136269836722"><ele>227.0</ele><time>2026-04-18T10:37:12.814Z</time></trkpt><trkpt lat="42.77346020012713" lon="10.217286335499498"><ele>227.0</ele><time>2026-04-18T10:37:13.814Z</time></trkpt><trkpt lat="42.77342304191935" lon="10.21736705581601"><ele>227.0</ele><time>2026-04-18T10:37:14.814Z</time></trkpt><trkpt lat="42.77336511901372" lon="10.217481877381479"><ele>227.0</ele><time>2026-04-18T10:37:15.814Z</time></trkpt><trkpt lat="42.7733223045003" lon="10.21759082510403"><ele>227.0</ele><time>2026-04-18T10:37:16.814Z</time></trkpt><trkpt lat="42.77312811490252" lon="10.217547527693633"><ele>227.0</ele><time>2026-04-18T10:37:17.814Z</time></trkpt><trkpt lat="42.773033772233525" lon="10.217508769300744"><ele>227.0</ele><time>2026-04-18T10:37:18.814Z</time></trkpt><trkpt lat="42.77295988235007" lon="10.217446269421176"><ele>227.0</ele><time>2026-04-18T10:37:19.814Z</time></trkpt><trkpt lat="42.77286821194056" lon="10.217328500380647"><ele>227.0</ele><time>2026-04-18T10:37:20.814Z</time></trkpt><trkpt lat="42.77278411009532" lon="10.217177338275835"><ele>227.0</ele><time>2026-04-18T10:37:21.814Z</time></trkpt><trkpt lat="42.77271622043796" lon="10.217028974501096"><ele>227.0</ele><time>2026-04-18T10:37:22.814Z</time></trkpt><trkpt lat="42.77265576988687" lon="10.216906768980007"><ele>227.0</ele><time>2026-04-18T10:37:23.814Z</time></trkpt><trkpt lat="42.7726014317328" lon="10.216796920148774"><ele>227.0</ele><time>2026-04-18T10:37:24.814Z</time></trkpt><trkpt lat="42.77244294186252" lon="10.216786053496437"><ele>225.8</ele><time>2026-04-18T10:37:25.814Z</time></trkpt><trkpt lat="42.77240254621722" lon="10.216700484475913"><ele>224.6</ele><time>2026-04-18T10:37:26.814Z</time></trkpt><trkpt lat="42.772348174193404" lon="10.216592207126475"><ele>223.40000000000003</ele><time>2026-04-18T10:37:28.814Z</time></trkpt><trkpt lat="42.77230796047647" lon="10.216515224963755"><ele>222.20000000000002</ele><time>2026-04-18T10:37:31.813Z</time></trkpt><trkpt lat="42.77231773922486" lon="10.21641329395311"><ele>221.0</ele><time>2026-04-18T10:37:39.813Z</time></trkpt><trkpt lat="42.772272601940244" lon="10.21621712184666"><ele>220.75</ele><time>2026-04-18T10:37:41.813Z</time></trkpt><trkpt lat="42.77226732248595" lon="10.21605173389776"><ele>220.5</ele><time>2026-04-18T10:37:42.813Z</time></trkpt><trkpt lat="42.77225675907223" lon="10.215884179112562"><ele>220.25</ele><time>2026-04-18T10:37:43.813Z</time></trkpt><trkpt lat="42.77233117195581" lon="10.21573527471181"><ele>220.0</ele><time>2026-04-18T10:37:44.813Z</time></trkpt><trkpt lat="42.77240232298415" lon="10.21559376346821"><ele>219.99999999999997</ele><time>2026-04-18T10:37:45.813Z</time></trkpt><trkpt lat="42.7724753968816" lon="10.215519309141065"><ele>220.0</ele><time>2026-04-18T10:37:46.813Z</time></trkpt><trkpt lat="42.77254153660402" lon="10.215460653161815"><ele>220.0</ele><time>2026-04-18T10:37:47.813Z</time></trkpt><trkpt lat="42.772582056743886" lon="10.215329183153449"><ele>220.0</ele><time>2026-04-18T10:37:49.813Z</time></trkpt><trkpt lat="42.772569238954574" lon="10.215236924564131"><ele>219.99999999999997</ele><time>2026-04-18T10:37:50.813Z</time></trkpt><trkpt lat="42.77251056222639" lon="10.215142643475769"><ele>220.0</ele><time>2026-04-18T10:37:51.813Z</time></trkpt><trkpt lat="42.772423513920835" lon="10.215062469378097"><ele>220.0</ele><time>2026-04-18T10:37:52.813Z</time></trkpt><trkpt lat="42.772397704179845" lon="10.214934308189667"><ele>220.0</ele><time>2026-04-18T10:37:53.813Z</time></trkpt><trkpt lat="42.772467877592554" lon="10.21477494264436"><ele>220.0</ele><time>2026-04-18T10:37:54.813Z</time></trkpt><trkpt lat="42.77249792875818" lon="10.214668686140906"><ele>220.0</ele><time>2026-04-18T10:37:55.813Z</time></trkpt><trkpt lat="42.772453087550346" lon="10.214517961977936"><ele>220.0</ele><time>2026-04-18T10:37:58.813Z</time></trkpt><trkpt lat="42.77238773981309" lon="10.214456319327331"><ele>221.4</ele><time>2026-04-18T10:37:59.813Z</time></trkpt><trkpt lat="42.772276652207914" lon="10.214355798805617"><ele>222.8</ele><time>2026-04-18T10:38:00.813Z</time></trkpt><trkpt lat="42.77218643024988" lon="10.214290139484005"><ele>224.2</ele><time>2026-04-18T10:38:01.813Z</time></trkpt><trkpt lat="42.772129692632035" lon="10.214235120913479"><ele>225.6</ele><time>2026-04-18T10:38:02.813Z</time></trkpt><trkpt lat="42.77205243704778" lon="10.21424919589722"><ele>227.0</ele><time>2026-04-18T10:38:03.813Z</time></trkpt><trkpt lat="42.771946934510545" lon="10.214322452429094"><ele>210.0</ele><time>2026-04-18T10:38:04.813Z</time></trkpt><trkpt lat="42.76716053151054" lon="10.21239541628581"><ele>210.16666666666666</ele><time>2026-04-18T10:39:05.812Z</time></trkpt><trkpt lat="42.76711240529667" lon="10.212315437258288"><ele>210.33333333333331</ele><time>2026-04-18T10:39:06.812Z</time></trkpt><trkpt lat="42.76705959586215" lon="10.212225595020566"><ele>210.5</ele><time>2026-04-18T10:39:07.812Z</time></trkpt><trkpt lat="42.767016957282735" lon="10.21213967354854"><ele>210.66666666666666</ele><time>2026-04-18T10:39:08.812Z</time></trkpt><trkpt lat="42.76696833921842" lon="10.212060672055275"><ele>210.83333333333331</ele><time>2026-04-18T10:39:09.812Z</time></trkpt><trkpt lat="42.76687360683316" lon="10.21196425887628"><ele>211.0</ele><time>2026-04-18T10:39:11.812Z</time></trkpt><trkpt lat="42.7668091133716" lon="10.211948656207985"><ele>210.99999999999997</ele><time>2026-04-18T10:39:12.812Z</time></trkpt><trkpt lat="42.766727430367965" lon="10.211938291990158"><ele>211.0</ele><time>2026-04-18T10:39:13.812Z</time></trkpt><trkpt lat="42.76664535552647" lon="10.211956028693002"><ele>211.0</ele><time>2026-04-18T10:39:14.812Z</time></trkpt><trkpt lat="42.76656582120846" lon="10.211962380617239"><ele>211.0</ele><time>2026-04-18T10:39:15.812Z</time></trkpt><trkpt lat="42.76650082976682" lon="10.212012914469177"><ele>210.99999999999997</ele><time>2026-04-18T10:39:16.812Z</time></trkpt><trkpt lat="42.76645486988969" lon="10.212126773941483"><ele>211.0</ele><time>2026-04-18T10:39:17.812Z</time></trkpt><trkpt lat="42.76636425871626" lon="10.212136845361533"><ele>211.0</ele><time>2026-04-18T10:39:18.812Z</time></trkpt><trkpt lat="42.76627936959367" lon="10.21217794386745"><ele>211.0</ele><time>2026-04-18T10:39:19.811Z</time></trkpt><trkpt lat="42.76619867049336" lon="10.212211546721452"><ele>211.0</ele><time>2026-04-18T10:39:20.811Z</time></trkpt><trkpt lat="42.76611277868681" lon="10.21225027912216"><ele>211.0</ele><time>2026-04-18T10:39:21.811Z</time></trkpt><trkpt lat="42.766022845808926" lon="10.212323368932472"><ele>211.0</ele><time>2026-04-18T10:39:22.811Z</time></trkpt><trkpt lat="42.76594290744693" lon="10.212416029858577"><ele>209.49999999999997</ele><time>2026-04-18T10:39:23.811Z</time></trkpt><trkpt lat="42.76588314083503" lon="10.21250133060427"><ele>208.0</ele><time>2026-04-18T10:39:24.811Z</time></trkpt><trkpt lat="42.76582732182949" lon="10.21255675221057"><ele>206.5</ele><time>2026-04-18T10:39:25.811Z</time></trkpt><trkpt lat="42.765711523178766" lon="10.212603943330809"><ele>205.0</ele><time>2026-04-18T10:39:27.811Z</time></trkpt><trkpt lat="42.76563837441512" lon="10.212635932242792"><ele>203.49999999999997</ele><time>2026-04-18T10:39:28.811Z</time></trkpt><trkpt lat="42.76557510512007" lon="10.212672939171664"><ele>202.0</ele><time>2026-04-18T10:39:29.811Z</time></trkpt><trkpt lat="42.76550712227084" lon="10.212755364483112"><ele>202.0</ele><time>2026-04-18T10:39:30.811Z</time></trkpt><trkpt lat="42.765433088248145" lon="10.212836052722425"><ele>202.0</ele><time>2026-04-18T10:39:31.811Z</time></trkpt><trkpt lat="42.76535407856041" lon="10.212914634313384"><ele>202.0</ele><time>2026-04-18T10:39:32.811Z</time></trkpt><trkpt lat="42.765276413381926" lon="10.212985874731528"><ele>202.0</ele><time>2026-04-18T10:39:33.811Z</time></trkpt><trkpt lat="42.76519691438925" lon="10.213060818037194"><ele>202.0</ele><time>2026-04-18T10:39:34.811Z</time></trkpt><trkpt lat="42.76512148456037" lon="10.213131925390444"><ele>201.16666666666666</ele><time>2026-04-18T10:39:35.811Z</time></trkpt><trkpt lat="42.76504369207458" lon="10.213205259495169"><ele>200.33333333333331</ele><time>2026-04-18T10:39:36.811Z</time></trkpt><trkpt lat="42.76496250774751" lon="10.213285891149969"><ele>199.5</ele><time>2026-04-18T10:39:37.811Z</time></trkpt><trkpt lat="42.764888961128996" lon="10.213358048212443"><ele>198.66666666666669</ele><time>2026-04-18T10:39:38.811Z</time></trkpt><trkpt lat="42.76481932517876" lon="10.213425992775502"><ele>197.83333333333334</ele><time>2026-04-18T10:39:39.811Z</time></trkpt><trkpt lat="42.76475824744883" lon="10.213485705816218"><ele>197.0</ele><time>2026-04-18T10:39:40.811Z</time></trkpt><trkpt lat="42.76470522735877" lon="10.213537541269263"><ele>197.00000000000003</ele><time>2026-04-18T10:39:41.811Z</time></trkpt><trkpt lat="42.76465146513673" lon="10.213588489435145"><ele>197.0</ele><time>2026-04-18T10:39:42.811Z</time></trkpt><trkpt lat="42.7645586982418" lon="10.213674620154189"><ele>197.0</ele><time>2026-04-18T10:39:44.811Z</time></trkpt><trkpt lat="42.7644884528762" lon="10.213739840437867"><ele>197.0</ele><time>2026-04-18T10:39:46.811Z</time></trkpt><trkpt lat="42.76443726986627" lon="10.213792083326572"><ele>197.00000000000003</ele><time>2026-04-18T10:39:48.811Z</time></trkpt><trkpt lat="42.7643682325623" lon="10.213803679521504"><ele>197.0</ele><time>2026-04-18T10:39:50.811Z</time></trkpt><trkpt lat="42.764305697390334" lon="10.213774910081863"><ele>197.2</ele><time>2026-04-18T10:39:51.811Z</time></trkpt><trkpt lat="42.76421846808841" lon="10.213734338769527"><ele>197.39999999999998</ele><time>2026-04-18T10:39:53.811Z</time></trkpt><trkpt lat="42.764121511618164" lon="10.213713030910805"><ele>197.60000000000002</ele><time>2026-04-18T10:39:55.81Z</time></trkpt><trkpt lat="42.76401566599661" lon="10.213660431732563"><ele>197.8</ele><time>2026-04-18T10:39:57.81Z</time></trkpt><trkpt lat="42.763922560161916" lon="10.213580354765476"><ele>198.0</ele><time>2026-04-18T10:39:59.81Z</time></trkpt><trkpt lat="42.76383350798101" lon="10.213447211378679"><ele>198.0</ele><time>2026-04-18T10:40:01.81Z</time></trkpt><trkpt lat="42.763795787739554" lon="10.213324758714126"><ele>198.0</ele><time>2026-04-18T10:40:02.81Z</time></trkpt><trkpt lat="42.763747955678944" lon="10.21317245754758"><ele>198.0</ele><time>2026-04-18T10:40:03.81Z</time></trkpt><trkpt lat="42.763697998270416" lon="10.21301759232116"><ele>198.0</ele><time>2026-04-18T10:40:04.81Z</time></trkpt><trkpt lat="42.760978562059954" lon="10.210918658613288"><ele>199.75</ele><time>2026-04-18T10:41:05.81Z</time></trkpt><trkpt lat="42.76084874458683" lon="10.210936371847312"><ele>201.5</ele><time>2026-04-18T10:41:06.81Z</time></trkpt><trkpt lat="42.76071868911099" lon="10.2109961839659"><ele>203.25</ele><time>2026-04-18T10:41:07.81Z</time></trkpt><trkpt lat="42.760619008301866" lon="10.21112921075082"><ele>205.0</ele><time>2026-04-18T10:41:08.81Z</time></trkpt><trkpt lat="42.76053581996911" lon="10.211273656426366"><ele>205.0</ele><time>2026-04-18T10:41:09.81Z</time></trkpt><trkpt lat="42.76045846292367" lon="10.211420241191885"><ele>205.0</ele><time>2026-04-18T10:41:10.81Z</time></trkpt><trkpt lat="42.76036478712531" lon="10.211527212668113"><ele>205.0</ele><time>2026-04-18T10:41:11.81Z</time></trkpt><trkpt lat="42.760251145887445" lon="10.211611674434266"><ele>205.0</ele><time>2026-04-18T10:41:12.81Z</time></trkpt><trkpt lat="42.76014344695196" lon="10.211700327193284"><ele>204.2</ele><time>2026-04-18T10:41:13.81Z</time></trkpt><trkpt lat="42.760049811567335" lon="10.211795840846518"><ele>203.4</ele><time>2026-04-18T10:41:14.81Z</time></trkpt><trkpt lat="42.759958993029215" lon="10.211867520853684"><ele>202.60000000000002</ele><time>2026-04-18T10:41:15.81Z</time></trkpt><trkpt lat="42.75986595875921" lon="10.211888137346595"><ele>201.8</ele><time>2026-04-18T10:41:16.81Z</time></trkpt><trkpt lat="42.759784802461276" lon="10.211862733999185"><ele>201.0</ele><time>2026-04-18T10:41:17.81Z</time></trkpt><trkpt lat="42.759703264307696" lon="10.211805040865624"><ele>201.0</ele><time>2026-04-18T10:41:18.81Z</time></trkpt><trkpt lat="42.75964143096393" lon="10.211718831771162"><ele>201.0</ele><time>2026-04-18T10:41:19.809Z</time></trkpt><trkpt lat="42.75963919674153" lon="10.211565068342896"><ele>201.0</ele><time>2026-04-18T10:41:20.809Z</time></trkpt><trkpt lat="42.75962698960512" lon="10.211427953750658"><ele>201.0</ele><time>2026-04-18T10:41:21.809Z</time></trkpt><trkpt lat="42.75963993842339" lon="10.211272788725573"><ele>201.0</ele><time>2026-04-18T10:41:22.809Z</time></trkpt><trkpt lat="42.7596286353222" lon="10.211116434958454"><ele>203.25</ele><time>2026-04-18T10:41:23.809Z</time></trkpt><trkpt lat="42.75959724549186" lon="10.210956900521191"><ele>205.5</ele><time>2026-04-18T10:41:24.809Z</time></trkpt><trkpt lat="42.759516537752916" lon="10.21078935807664"><ele>207.75</ele><time>2026-04-18T10:41:25.809Z</time></trkpt><trkpt lat="42.75946320528996" lon="10.210601330211393"><ele>210.0</ele><time>2026-04-18T10:41:26.809Z</time></trkpt><trkpt lat="42.759420413193155" lon="10.210411771473163"><ele>211.5</ele><time>2026-04-18T10:41:27.809Z</time></trkpt><trkpt lat="42.759409298140014" lon="10.210216543058989"><ele>213.0</ele><time>2026-04-18T10:41:28.809Z</time></trkpt><trkpt lat="42.7594292443179" lon="10.210026337593703"><ele>214.5</ele><time>2026-04-18T10:41:29.809Z</time></trkpt><trkpt lat="42.75947426056493" lon="10.209857537053164"><ele>216.0</ele><time>2026-04-18T10:41:30.809Z</time></trkpt><trkpt lat="42.7595160897912" lon="10.20969483206732"><ele>216.5</ele><time>2026-04-18T10:41:31.809Z</time></trkpt><trkpt lat="42.75954104676606" lon="10.209521424710859"><ele>217.0</ele><time>2026-04-18T10:41:32.809Z</time></trkpt><trkpt lat="42.75954341435345" lon="10.209343815778434"><ele>217.5</ele><time>2026-04-18T10:41:33.809Z</time></trkpt><trkpt lat="42.759536752947604" lon="10.209169930171788"><ele>218.0</ele><time>2026-04-18T10:41:34.809Z</time></trkpt><trkpt lat="42.759539324944" lon="10.209002957285671"><ele>217.0</ele><time>2026-04-18T10:41:35.809Z</time></trkpt><trkpt lat="42.759548751015444" lon="10.208839534994247"><ele>216.0</ele><time>2026-04-18T10:41:36.809Z</time></trkpt><trkpt lat="42.759590554889385" lon="10.20867888118483"><ele>215.0</ele><time>2026-04-18T10:41:37.809Z</time></trkpt><trkpt lat="42.759639256953356" lon="10.208537818929639"><ele>214.0</ele><time>2026-04-18T10:41:38.809Z</time></trkpt><trkpt lat="42.75969819689141" lon="10.208409936632078"><ele>214.0</ele><time>2026-04-18T10:41:39.809Z</time></trkpt><trkpt lat="42.759772179778686" lon="10.20830810655766"><ele>214.0</ele><time>2026-04-18T10:41:40.809Z</time></trkpt><trkpt lat="42.759879666910436" lon="10.208249444226057"><ele>214.0</ele><time>2026-04-18T10:41:41.809Z</time></trkpt><trkpt lat="42.75997895680079" lon="10.208141348201424"><ele>214.0</ele><time>2026-04-18T10:41:42.809Z</time></trkpt><trkpt lat="42.76005331033626" lon="10.208036237458991"><ele>215.0</ele><time>2026-04-18T10:41:43.809Z</time></trkpt><trkpt lat="42.76004917501616" lon="10.207912765297232"><ele>215.99999999999997</ele><time>2026-04-18T10:41:44.809Z</time></trkpt><trkpt lat="42.76001909647775" lon="10.20781752643007"><ele>216.99999999999997</ele><time>2026-04-18T10:41:45.809Z</time></trkpt><trkpt lat="42.75995304130798" lon="10.20773930489556"><ele>218.0</ele><time>2026-04-18T10:41:46.809Z</time></trkpt><trkpt lat="42.75986475569301" lon="10.207679947176015"><ele>219.0</ele><time>2026-04-18T10:41:47.809Z</time></trkpt><trkpt lat="42.75976572604367" lon="10.207598058731595"><ele>219.0</ele><time>2026-04-18T10:41:48.809Z</time></trkpt><trkpt lat="42.7596460888825" lon="10.207561729071468"><ele>218.99999999999997</ele><time>2026-04-18T10:41:49.809Z</time></trkpt><trkpt lat="42.75954011954635" lon="10.20747563929873"><ele>218.99999999999997</ele><time>2026-04-18T10:41:50.809Z</time></trkpt><trkpt lat="42.75947933210547" lon="10.207369594004106"><ele>219.0</ele><time>2026-04-18T10:41:51.809Z</time></trkpt><trkpt lat="42.75946125883766" lon="10.207236825381495"><ele>219.0</ele><time>2026-04-18T10:41:52.809Z</time></trkpt><trkpt lat="42.759446813997776" lon="10.207094514372564"><ele>219.79999999999998</ele><time>2026-04-18T10:41:53.809Z</time></trkpt><trkpt lat="42.75945132401221" lon="10.206952730885794"><ele>220.59999999999997</ele><time>2026-04-18T10:41:54.809Z</time></trkpt><trkpt lat="42.75943711430474" lon="10.206835720831975"><ele>221.4</ele><time>2026-04-18T10:41:55.809Z</time></trkpt><trkpt lat="42.75936532589183" lon="10.206761540466367"><ele>222.2</ele><time>2026-04-18T10:41:56.808Z</time></trkpt><trkpt lat="42.759287524986426" lon="10.206757803508179"><ele>223.0</ele><time>2026-04-18T10:41:57.808Z</time></trkpt><trkpt lat="42.75919480335126" lon="10.206784067424337"><ele>223.0</ele><time>2026-04-18T10:41:58.808Z</time></trkpt><trkpt lat="42.75909950250579" lon="10.206825845888867"><ele>223.0</ele><time>2026-04-18T10:41:59.808Z</time></trkpt><trkpt lat="42.75901194817578" lon="10.20693002490167"><ele>223.0</ele><time>2026-04-18T10:42:00.808Z</time></trkpt><trkpt lat="42.758945608150086" lon="10.207070763463342"><ele>223.0</ele><time>2026-04-18T10:42:01.808Z</time></trkpt><trkpt lat="42.758899301411184" lon="10.207241538842968"><ele>218.66666666666666</ele><time>2026-04-18T10:42:02.808Z</time></trkpt><trkpt lat="42.758828313810234" lon="10.207367351427251"><ele>214.33333333333331</ele><time>2026-04-18T10:42:03.808Z</time></trkpt><trkpt lat="42.758741404810344" lon="10.207463631503353"><ele>210.0</ele><time>2026-04-18T10:42:04.808Z</time></trkpt><trkpt lat="42.75391913991204" lon="10.208119770246045"><ele>216.16666666666666</ele><time>2026-04-18T10:43:05.807Z</time></trkpt><trkpt lat="42.75385354097255" lon="10.20806638233752"><ele>222.33333333333331</ele><time>2026-04-18T10:43:06.807Z</time></trkpt><trkpt lat="42.75377783524336" lon="10.208012317667317"><ele>228.5</ele><time>2026-04-18T10:43:07.807Z</time></trkpt><trkpt lat="42.753695008909624" lon="10.20796516595042"><ele>234.66666666666666</ele><time>2026-04-18T10:43:08.807Z</time></trkpt><trkpt lat="42.75360729192225" lon="10.207904267510532"><ele>240.83333333333331</ele><time>2026-04-18T10:43:09.807Z</time></trkpt><trkpt lat="42.75352428311717" lon="10.207844329098405"><ele>247.0</ele><time>2026-04-18T10:43:10.807Z</time></trkpt><trkpt lat="42.753427518446834" lon="10.207787076571421"><ele>247.8</ele><time>2026-04-18T10:43:11.807Z</time></trkpt><trkpt lat="42.753335882151475" lon="10.207770546478374"><ele>248.6</ele><time>2026-04-18T10:43:12.807Z</time></trkpt><trkpt lat="42.753232359687864" lon="10.20777484090894"><ele>249.40000000000003</ele><time>2026-04-18T10:43:13.807Z</time></trkpt><trkpt lat="42.75312515344849" lon="10.207796023170438"><ele>250.20000000000002</ele><time>2026-04-18T10:43:14.807Z</time></trkpt><trkpt lat="42.75303171848112" lon="10.207811141538444"><ele>251.0</ele><time>2026-04-18T10:43:15.807Z</time></trkpt><trkpt lat="42.752935998398975" lon="10.207836149977979"><ele>251.00000000000003</ele><time>2026-04-18T10:43:16.807Z</time></trkpt><trkpt lat="42.752848259503914" lon="10.207853084173221"><ele>251.0</ele><time>2026-04-18T10:43:17.807Z</time></trkpt><trkpt lat="42.75276703710154" lon="10.207889486917486"><ele>251.0</ele><time>2026-04-18T10:43:18.807Z</time></trkpt><trkpt lat="42.75269895352864" lon="10.207944575603664"><ele>251.0</ele><time>2026-04-18T10:43:19.807Z</time></trkpt><trkpt lat="42.752622030722215" lon="10.208019832613004"><ele>251.00000000000003</ele><time>2026-04-18T10:43:20.807Z</time></trkpt><trkpt lat="42.75255494765018" lon="10.208110493544435"><ele>251.0</ele><time>2026-04-18T10:43:21.807Z</time></trkpt><trkpt lat="42.75249261459539" lon="10.20818878204451"><ele>250.33333333333334</ele><time>2026-04-18T10:43:22.807Z</time></trkpt><trkpt lat="42.75243545862276" lon="10.208255997698238"><ele>249.66666666666669</ele><time>2026-04-18T10:43:23.807Z</time></trkpt><trkpt lat="42.75236610699558" lon="10.208321039244755"><ele>249.0</ele><time>2026-04-18T10:43:24.807Z</time></trkpt><trkpt lat="42.75229765043381" lon="10.208359894444365"><ele>248.33333333333331</ele><time>2026-04-18T10:43:25.807Z</time></trkpt><trkpt lat="42.7522282331467" lon="10.208397984273253"><ele>247.66666666666666</ele><time>2026-04-18T10:43:26.807Z</time></trkpt><trkpt lat="42.75215105886405" lon="10.20845201220354"><ele>247.0</ele><time>2026-04-18T10:43:27.807Z</time></trkpt><trkpt lat="42.75209661339854" lon="10.208540992057072"><ele>246.99999999999997</ele><time>2026-04-18T10:43:28.807Z</time></trkpt><trkpt lat="42.75205367188665" lon="10.208653670227676"><ele>247.0</ele><time>2026-04-18T10:43:29.807Z</time></trkpt><trkpt lat="42.75200629159558" lon="10.208775342302099"><ele>247.0</ele><time>2026-04-18T10:43:30.807Z</time></trkpt><trkpt lat="42.75195694129071" lon="10.208869317099428"><ele>247.0</ele><time>2026-04-18T10:43:31.807Z</time></trkpt><trkpt lat="42.75190325866758" lon="10.20894670360681"><ele>246.99999999999997</ele><time>2026-04-18T10:43:32.806Z</time></trkpt><trkpt lat="42.75186632199453" lon="10.20901752340194"><ele>247.0</ele><time>2026-04-18T10:43:33.806Z</time></trkpt><trkpt lat="42.75179640329068" lon="10.209140594078587"><ele>248.0</ele><time>2026-04-18T10:43:35.806Z</time></trkpt><trkpt lat="42.75169001373959" lon="10.209170400446473"><ele>249.0</ele><time>2026-04-18T10:43:37.806Z</time></trkpt><trkpt lat="42.75158761869884" lon="10.2091134773958"><ele>250.0</ele><time>2026-04-18T10:43:39.806Z</time></trkpt><trkpt lat="42.751578359822034" lon="10.208910287259638"><ele>251.0</ele><time>2026-04-18T10:43:41.806Z</time></trkpt><trkpt lat="42.751593536444204" lon="10.208787140834751"><ele>251.8</ele><time>2026-04-18T10:43:42.806Z</time></trkpt><trkpt lat="42.751590380908844" lon="10.20866980612269"><ele>252.60000000000002</ele><time>2026-04-18T10:43:43.806Z</time></trkpt><trkpt lat="42.751519435154044" lon="10.208491915451312"><ele>253.4</ele><time>2026-04-18T10:43:45.806Z</time></trkpt><trkpt lat="42.75145109958201" lon="10.208415571939305"><ele>254.2</ele><time>2026-04-18T10:43:46.806Z</time></trkpt><trkpt lat="42.751383559459214" lon="10.208336279308677"><ele>255.0</ele><time>2026-04-18T10:43:47.806Z</time></trkpt><trkpt lat="42.751331678245805" lon="10.208232347033157"><ele>256.6666666666667</ele><time>2026-04-18T10:43:48.806Z</time></trkpt><trkpt lat="42.75129696755738" lon="10.208126858674387"><ele>258.3333333333333</ele><time>2026-04-18T10:43:49.806Z</time></trkpt><trkpt lat="42.75127170038833" lon="10.208019593643831"><ele>260.0</ele><time>2026-04-18T10:43:50.806Z</time></trkpt><trkpt lat="42.75124050649701" lon="10.207922720551764"><ele>261.66666666666663</ele><time>2026-04-18T10:43:51.806Z</time></trkpt><trkpt lat="42.75121001526812" lon="10.207834249619248"><ele>263.3333333333333</ele><time>2026-04-18T10:43:52.806Z</time></trkpt><trkpt lat="42.7511640993208" lon="10.20772201800402"><ele>265.0</ele><time>2026-04-18T10:43:54.806Z</time></trkpt><trkpt lat="42.750948564334905" lon="10.20461857231217"><ele>265.6</ele><time>2026-04-18T10:45:05.805Z</time></trkpt><trkpt lat="42.75085823213657" lon="10.20456100822396"><ele>266.2</ele><time>2026-04-18T10:45:07.804Z</time></trkpt><trkpt lat="42.750788864250886" lon="10.204391058605431"><ele>266.8</ele><time>2026-04-18T10:45:09.805Z</time></trkpt><trkpt lat="42.75073100608658" lon="10.204273415336676"><ele>267.4</ele><time>2026-04-18T10:45:10.805Z</time></trkpt><trkpt lat="42.75066597383487" lon="10.204170813979283"><ele>268.0</ele><time>2026-04-18T10:45:11.805Z</time></trkpt><trkpt lat="42.750623518582564" lon="10.20405977151215"><ele>269.0</ele><time>2026-04-18T10:45:12.805Z</time></trkpt><trkpt lat="42.75059118475057" lon="10.203943159382826"><ele>270.0</ele><time>2026-04-18T10:45:13.805Z</time></trkpt><trkpt lat="42.750613066509345" lon="10.20382349451337"><ele>271.0</ele><time>2026-04-18T10:45:14.805Z</time></trkpt><trkpt lat="42.75063731891396" lon="10.203682042367745"><ele>272.0</ele><time>2026-04-18T10:45:15.805Z</time></trkpt><trkpt lat="42.75066517719145" lon="10.203537701222862"><ele>273.0</ele><time>2026-04-18T10:45:16.805Z</time></trkpt><trkpt lat="42.75066383166241" lon="10.203410034293137"><ele>273.0</ele><time>2026-04-18T10:45:17.804Z</time></trkpt><trkpt lat="42.750595390062166" lon="10.203309706292462"><ele>273.0</ele><time>2026-04-18T10:45:18.804Z</time></trkpt><trkpt lat="42.75051304212897" lon="10.20318830246289"><ele>273.0</ele><time>2026-04-18T10:45:19.804Z</time></trkpt><trkpt lat="42.75043790618212" lon="10.203035460181837"><ele>273.0</ele><time>2026-04-18T10:45:20.804Z</time></trkpt><trkpt lat="42.750388761970854" lon="10.202906537990613"><ele>276.25</ele><time>2026-04-18T10:45:21.804Z</time></trkpt><trkpt lat="42.75034324796587" lon="10.202763060438471"><ele>279.5</ele><time>2026-04-18T10:45:22.804Z</time></trkpt><trkpt lat="42.75029562122838" lon="10.202630693280542"><ele>282.75</ele><time>2026-04-18T10:45:23.804Z</time></trkpt><trkpt lat="42.75019063163272" lon="10.202518948766354"><ele>286.0</ele><time>2026-04-18T10:45:24.804Z</time></trkpt><trkpt lat="42.750115234943216" lon="10.202387994430273"><ele>281.40000000000003</ele><time>2026-04-18T10:45:25.804Z</time></trkpt><trkpt lat="42.750029158753605" lon="10.202280108844025"><ele>276.8</ele><time>2026-04-18T10:45:26.804Z</time></trkpt><trkpt lat="42.74997009451234" lon="10.202170891825903"><ele>272.20000000000005</ele><time>2026-04-18T10:45:27.804Z</time></trkpt><trkpt lat="42.74991962120665" lon="10.202054593842385"><ele>267.6</ele><time>2026-04-18T10:45:28.804Z</time></trkpt><trkpt lat="42.7498902176411" lon="10.2019240740646"><ele>263.0</ele><time>2026-04-18T10:45:29.804Z</time></trkpt><trkpt lat="42.749893865397084" lon="10.201796896903062"><ele>263.0</ele><time>2026-04-18T10:45:30.804Z</time></trkpt><trkpt lat="42.74994373533984" lon="10.201659406753977"><ele>263.0</ele><time>2026-04-18T10:45:31.804Z</time></trkpt><trkpt lat="42.74998292900117" lon="10.201520064335158"><ele>263.0</ele><time>2026-04-18T10:45:32.804Z</time></trkpt><trkpt lat="42.75002108692878" lon="10.201388070896765"><ele>263.0</ele><time>2026-04-18T10:45:33.804Z</time></trkpt><trkpt lat="42.75003458915932" lon="10.201255898205266"><ele>263.0</ele><time>2026-04-18T10:45:34.804Z</time></trkpt><trkpt lat="42.75003537836496" lon="10.201147759897466"><ele>263.8</ele><time>2026-04-18T10:45:35.804Z</time></trkpt><trkpt lat="42.75000254345662" lon="10.201065822032803"><ele>264.6</ele><time>2026-04-18T10:45:36.804Z</time></trkpt><trkpt lat="42.74990806165885" lon="10.20105648193733"><ele>265.4</ele><time>2026-04-18T10:45:37.804Z</time></trkpt><trkpt lat="42.749795874137966" lon="10.20097535099886"><ele>266.2</ele><time>2026-04-18T10:45:38.804Z</time></trkpt><trkpt lat="42.74970318738479" lon="10.200879956735221"><ele>267.0</ele><time>2026-04-18T10:45:39.804Z</time></trkpt><trkpt lat="42.74963978261714" lon="10.2007883904171"><ele>267.0</ele><time>2026-04-18T10:45:40.804Z</time></trkpt><trkpt lat="42.74959048927455" lon="10.200681687538196"><ele>267.0</ele><time>2026-04-18T10:45:41.804Z</time></trkpt><trkpt lat="42.74955892128657" lon="10.200527815678933"><ele>267.0</ele><time>2026-04-18T10:45:42.804Z</time></trkpt><trkpt lat="42.74952871207063" lon="10.200370335240397"><ele>267.0</ele><time>2026-04-18T10:45:43.804Z</time></trkpt><trkpt lat="42.749479379402594" lon="10.200225015559138"><ele>267.0</ele><time>2026-04-18T10:45:44.804Z</time></trkpt><trkpt lat="42.74944214039408" lon="10.200102528266026"><ele>268.3333333333333</ele><time>2026-04-18T10:45:45.804Z</time></trkpt><trkpt lat="42.74942243711189" lon="10.199979331304903"><ele>269.6666666666667</ele><time>2026-04-18T10:45:46.804Z</time></trkpt><trkpt lat="42.74941964808015" lon="10.199852249739562"><ele>271.0</ele><time>2026-04-18T10:45:47.804Z</time></trkpt><trkpt lat="42.74939598410011" lon="10.199771637568084"><ele>272.33333333333337</ele><time>2026-04-18T10:45:48.804Z</time></trkpt><trkpt lat="42.749289838803485" lon="10.19973366166772"><ele>273.6666666666667</ele><time>2026-04-18T10:45:50.804Z</time></trkpt><trkpt lat="42.74920959529237" lon="10.199763144494842"><ele>275.0</ele><time>2026-04-18T10:45:51.804Z</time></trkpt><trkpt lat="42.74908593035089" lon="10.199851019126527"><ele>270.25</ele><time>2026-04-18T10:45:52.804Z</time></trkpt><trkpt lat="42.74895299276775" lon="10.199961234900021"><ele>265.5</ele><time>2026-04-18T10:45:53.804Z</time></trkpt><trkpt lat="42.748830140883314" lon="10.200073007091111"><ele>260.75</ele><time>2026-04-18T10:45:54.803Z</time></trkpt><trkpt lat="42.748722899816194" lon="10.200155468771225"><ele>256.0</ele><time>2026-04-18T10:45:55.803Z</time></trkpt><trkpt lat="42.7486251681227" lon="10.200211811114352"><ele>257.5</ele><time>2026-04-18T10:45:56.803Z</time></trkpt><trkpt lat="42.74854277781754" lon="10.200245454317047"><ele>259.0</ele><time>2026-04-18T10:45:57.803Z</time></trkpt><trkpt lat="42.748476792646436" lon="10.20028692659489"><ele>260.5</ele><time>2026-04-18T10:45:58.803Z</time></trkpt><trkpt lat="42.748406289636335" lon="10.200325686872764"><ele>262.0</ele><time>2026-04-18T10:45:59.803Z</time></trkpt><trkpt lat="42.74832848637008" lon="10.200354839004545"><ele>263.5</ele><time>2026-04-18T10:46:00.803Z</time></trkpt><trkpt lat="42.74823830174271" lon="10.20035992938626"><ele>265.0</ele><time>2026-04-18T10:46:01.803Z</time></trkpt><trkpt lat="42.74813429736042" lon="10.200355682826507"><ele>265.0</ele><time>2026-04-18T10:46:02.803Z</time></trkpt><trkpt lat="42.74803211459334" lon="10.200358358462971"><ele>265.0</ele><time>2026-04-18T10:46:03.803Z</time></trkpt><trkpt lat="42.74793692840861" lon="10.200411830470799"><ele>265.0</ele><time>2026-04-18T10:46:04.803Z</time></trkpt><trkpt lat="42.74325167038165" lon="10.199308231975841"><ele>263.8333333333333</ele><time>2026-04-18T10:47:05.803Z</time></trkpt><trkpt lat="42.74317224803805" lon="10.19931086650161"><ele>262.66666666666663</ele><time>2026-04-18T10:47:06.803Z</time></trkpt><trkpt lat="42.743109031463995" lon="10.199321773218376"><ele>261.5</ele><time>2026-04-18T10:47:07.803Z</time></trkpt><trkpt lat="42.74304149607437" lon="10.199334899891321"><ele>260.3333333333333</ele><time>2026-04-18T10:47:09.803Z</time></trkpt><trkpt lat="42.74300162140877" lon="10.199234466597684"><ele>259.1666666666667</ele><time>2026-04-18T10:47:35.802Z</time></trkpt><trkpt lat="42.74297650640951" lon="10.199149239241493"><ele>258.0</ele><time>2026-04-18T10:47:36.802Z</time></trkpt><trkpt lat="42.74290580780628" lon="10.199064336442362"><ele>258.0</ele><time>2026-04-18T10:47:37.802Z</time></trkpt><trkpt lat="42.74279796519577" lon="10.199007416149348"><ele>258.0</ele><time>2026-04-18T10:47:38.802Z</time></trkpt><trkpt lat="42.74267264795117" lon="10.198969891583612"><ele>258.0</ele><time>2026-04-18T10:47:39.802Z</time></trkpt><trkpt lat="42.74255664063428" lon="10.19892002275887"><ele>258.0</ele><time>2026-04-18T10:47:40.802Z</time></trkpt><trkpt lat="42.74248316081659" lon="10.19887109009798"><ele>258.0</ele><time>2026-04-18T10:47:41.802Z</time></trkpt><trkpt lat="42.742434004153225" lon="10.198814696603165"><ele>258.0</ele><time>2026-04-18T10:47:42.802Z</time></trkpt><trkpt lat="42.742396266685475" lon="10.198716357525928"><ele>258.0</ele><time>2026-04-18T10:47:44.802Z</time></trkpt><trkpt lat="42.74243523808377" lon="10.198586786861531"><ele>258.0</ele><time>2026-04-18T10:47:45.802Z</time></trkpt><trkpt lat="42.74243038561825" lon="10.198480153164715"><ele>258.0</ele><time>2026-04-18T10:47:46.802Z</time></trkpt><trkpt lat="42.7424274491599" lon="10.198342432776311"><ele>258.0</ele><time>2026-04-18T10:47:47.802Z</time></trkpt><trkpt lat="42.742420259951444" lon="10.1982188426741"><ele>257.6666666666667</ele><time>2026-04-18T10:47:48.802Z</time></trkpt><trkpt lat="42.74240565372491" lon="10.198126900403558"><ele>257.3333333333333</ele><time>2026-04-18T10:47:49.802Z</time></trkpt><trkpt lat="42.74240498791112" lon="10.198026251809566"><ele>257.0</ele><time>2026-04-18T10:47:51.801Z</time></trkpt><trkpt lat="42.74245965785425" lon="10.197898375830226"><ele>256.66666666666663</ele><time>2026-04-18T10:47:53.801Z</time></trkpt><trkpt lat="42.74252246913704" lon="10.197853763327036"><ele>256.3333333333333</ele><time>2026-04-18T10:47:54.801Z</time></trkpt><trkpt lat="42.7425927738538" lon="10.19781157944811"><ele>256.0</ele><time>2026-04-18T10:47:55.801Z</time></trkpt><trkpt lat="42.74266457028658" lon="10.197770984349116"><ele>259.0</ele><time>2026-04-18T10:47:56.801Z</time></trkpt><trkpt lat="42.742732379652" lon="10.19772209587548"><ele>262.0</ele><time>2026-04-18T10:47:57.801Z</time></trkpt><trkpt lat="42.74281220916625" lon="10.197673398866618"><ele>265.0</ele><time>2026-04-18T10:47:58.801Z</time></trkpt><trkpt lat="42.742878246658115" lon="10.197613982079181"><ele>268.0</ele><time>2026-04-18T10:47:59.801Z</time></trkpt><trkpt lat="42.7429244574375" lon="10.19747611993955"><ele>271.0</ele><time>2026-04-18T10:48:01.801Z</time></trkpt><trkpt lat="42.74295518933337" lon="10.19734918774166"><ele>269.0</ele><time>2026-04-18T10:48:02.801Z</time></trkpt><trkpt lat="42.74298597202943" lon="10.197227840612598"><ele>267.0</ele><time>2026-04-18T10:48:03.801Z</time></trkpt><trkpt lat="42.74303414541767" lon="10.197142876521653"><ele>265.0</ele><time>2026-04-18T10:48:04.801Z</time></trkpt><trkpt lat="42.74381003230271" lon="10.195440342075269"><ele>262.0</ele><time>2026-04-18T10:49:05.8Z</time></trkpt><trkpt lat="42.743798523138686" lon="10.195348383354"><ele>259.0</ele><time>2026-04-18T10:49:34.8Z</time></trkpt><trkpt lat="42.74242518081107" lon="10.198881909530574"><ele>258.8</ele><time>2026-04-18T11:00:05.805Z</time></trkpt><trkpt lat="42.74252670220594" lon="10.198967988890685"><ele>258.59999999999997</ele><time>2026-04-18T11:00:07.805Z</time></trkpt><trkpt lat="42.74260980585243" lon="10.1990112892641"><ele>258.4</ele><time>2026-04-18T11:00:08.805Z</time></trkpt><trkpt lat="42.7427074297299" lon="10.199045049325486"><ele>258.2</ele><time>2026-04-18T11:00:09.804Z</time></trkpt><trkpt lat="42.74279762130576" lon="10.199088506534652"><ele>258.0</ele><time>2026-04-18T11:00:10.804Z</time></trkpt><trkpt lat="42.74288925029812" lon="10.199121656207279"><ele>258.0</ele><time>2026-04-18T11:00:11.804Z</time></trkpt><trkpt lat="42.74296055774945" lon="10.199166937542344"><ele>258.0</ele><time>2026-04-18T11:00:12.804Z</time></trkpt><trkpt lat="42.74298208023396" lon="10.199279691970894"><ele>258.0</ele><time>2026-04-18T11:00:13.804Z</time></trkpt><trkpt lat="42.74307759891901" lon="10.199368311634474"><ele>258.0</ele><time>2026-04-18T11:00:16.804Z</time></trkpt><trkpt lat="42.74317949044556" lon="10.199364946640664"><ele>258.0</ele><time>2026-04-18T11:00:18.804Z</time></trkpt><trkpt lat="42.74324700938546" lon="10.199360778373308"><ele>258.0</ele><time>2026-04-18T11:00:19.804Z</time></trkpt><trkpt lat="42.74333143361606" lon="10.19935836428284"><ele>258.0</ele><time>2026-04-18T11:00:20.804Z</time></trkpt><trkpt lat="42.743416907633076" lon="10.199362313558584"><ele>258.0</ele><time>2026-04-18T11:00:21.804Z</time></trkpt><trkpt lat="42.74350596794234" lon="10.199370611797626"><ele>258.0</ele><time>2026-04-18T11:00:22.804Z</time></trkpt><trkpt lat="42.74359654257903" lon="10.19939134761395"><ele>258.0</ele><time>2026-04-18T11:00:23.804Z</time></trkpt><trkpt lat="42.74369390318437" lon="10.199396352531503"><ele>258.0</ele><time>2026-04-18T11:00:24.804Z</time></trkpt><trkpt lat="42.74379317400654" lon="10.199365462518482"><ele>258.4</ele><time>2026-04-18T11:00:25.804Z</time></trkpt><trkpt lat="42.74389928769276" lon="10.199334322460622"><ele>258.8</ele><time>2026-04-18T11:00:26.804Z</time></trkpt><trkpt lat="42.744005673190365" lon="10.199326111366409"><ele>259.2</ele><time>2026-04-18T11:00:27.804Z</time></trkpt><trkpt lat="42.74411382932434" lon="10.199317171690796"><ele>259.6</ele><time>2026-04-18T11:00:28.804Z</time></trkpt><trkpt lat="42.74421013011664" lon="10.199280798960567"><ele>260.0</ele><time>2026-04-18T11:00:29.804Z</time></trkpt><trkpt lat="42.74430246495716" lon="10.199240830536208"><ele>263.2</ele><time>2026-04-18T11:00:30.804Z</time></trkpt><trkpt lat="42.744385699866136" lon="10.199245567611218"><ele>266.4</ele><time>2026-04-18T11:00:31.804Z</time></trkpt><trkpt lat="42.744429396829005" lon="10.199366799461808"><ele>269.6</ele><time>2026-04-18T11:00:33.804Z</time></trkpt><trkpt lat="42.74443890216189" lon="10.199459430509904"><ele>272.8</ele><time>2026-04-18T11:00:34.804Z</time></trkpt><trkpt lat="42.74444744081513" lon="10.199589943894225"><ele>276.0</ele><time>2026-04-18T11:00:35.804Z</time></trkpt><trkpt lat="42.744463883460234" lon="10.199731542874702"><ele>272.40000000000003</ele><time>2026-04-18T11:00:36.804Z</time></trkpt><trkpt lat="42.744479126043316" lon="10.199840007224443"><ele>268.8</ele><time>2026-04-18T11:00:37.804Z</time></trkpt><trkpt lat="42.7445026847324" lon="10.199954133528985"><ele>265.20000000000005</ele><time>2026-04-18T11:00:38.804Z</time></trkpt><trkpt lat="42.744548860914534" lon="10.200058428301855"><ele>261.6</ele><time>2026-04-18T11:00:39.804Z</time></trkpt><trkpt lat="42.74462524990768" lon="10.200136233226758"><ele>258.0</ele><time>2026-04-18T11:00:40.804Z</time></trkpt><trkpt lat="42.74472721893808" lon="10.200174098912976"><ele>258.0</ele><time>2026-04-18T11:00:41.804Z</time></trkpt><trkpt lat="42.744810102498704" lon="10.200212529972923"><ele>258.0</ele><time>2026-04-18T11:00:42.804Z</time></trkpt><trkpt lat="42.744890384545215" lon="10.200249754924306"><ele>258.0</ele><time>2026-04-18T11:00:43.804Z</time></trkpt><trkpt lat="42.744982635877385" lon="10.200294978127967"><ele>258.0</ele><time>2026-04-18T11:00:44.804Z</time></trkpt><trkpt lat="42.74507327640112" lon="10.200340357803162"><ele>258.0</ele><time>2026-04-18T11:00:45.804Z</time></trkpt><trkpt lat="42.74516200601604" lon="10.200388384958005"><ele>260.4</ele><time>2026-04-18T11:00:46.804Z</time></trkpt><trkpt lat="42.74524722642319" lon="10.200446294113414"><ele>262.8</ele><time>2026-04-18T11:00:47.804Z</time></trkpt><trkpt lat="42.74532827543239" lon="10.200528783637713"><ele>265.2</ele><time>2026-04-18T11:00:48.804Z</time></trkpt><trkpt lat="42.74542826123092" lon="10.200568915440423"><ele>267.6</ele><time>2026-04-18T11:00:49.804Z</time></trkpt><trkpt lat="42.74553117222527" lon="10.200625183484714"><ele>270.0</ele><time>2026-04-18T11:00:50.803Z</time></trkpt><trkpt lat="42.74561978350741" lon="10.200658711843683"><ele>265.2</ele><time>2026-04-18T11:00:51.803Z</time></trkpt><trkpt lat="42.74568947105042" lon="10.20068676871443"><ele>260.4</ele><time>2026-04-18T11:00:52.803Z</time></trkpt><trkpt lat="42.745765848271915" lon="10.200753816298686"><ele>255.60000000000002</ele><time>2026-04-18T11:00:53.803Z</time></trkpt><trkpt lat="42.74583084748267" lon="10.200881032812662"><ele>250.8</ele><time>2026-04-18T11:00:54.803Z</time></trkpt><trkpt lat="42.745910511467294" lon="10.200924705271838"><ele>246.0</ele><time>2026-04-18T11:00:55.803Z</time></trkpt><trkpt lat="42.74598879114461" lon="10.200987874897374"><ele>246.0</ele><time>2026-04-18T11:00:56.803Z</time></trkpt><trkpt lat="42.74611867728079" lon="10.200975665753509"><ele>246.00000000000003</ele><time>2026-04-18T11:00:57.803Z</time></trkpt><trkpt lat="42.746242295971065" lon="10.200994442749062"><ele>246.00000000000003</ele><time>2026-04-18T11:00:58.803Z</time></trkpt><trkpt lat="42.74633178439024" lon="10.200969854501643"><ele>246.0</ele><time>2026-04-18T11:00:59.803Z</time></trkpt><trkpt lat="42.74641251573604" lon="10.20096206425604"><ele>246.0</ele><time>2026-04-18T11:01:00.803Z</time></trkpt><trkpt lat="42.74647304274713" lon="10.200917302807264"><ele>246.0</ele><time>2026-04-18T11:01:01.803Z</time></trkpt><trkpt lat="42.746471506876155" lon="10.200799265256128"><ele>246.0</ele><time>2026-04-18T11:01:02.803Z</time></trkpt><trkpt lat="42.746525577795836" lon="10.20070381653694"><ele>246.0</ele><time>2026-04-18T11:01:03.803Z</time></trkpt><trkpt lat="42.746569692357966" lon="10.200613523728343"><ele>246.0</ele><time>2026-04-18T11:01:04.803Z</time></trkpt><trkpt lat="42.750344725946846" lon="10.202915097600345"><ele>251.4</ele><time>2026-04-18T11:02:05.803Z</time></trkpt><trkpt lat="42.750386474914734" lon="10.203048450410153"><ele>256.8</ele><time>2026-04-18T11:02:06.803Z</time></trkpt><trkpt lat="42.75043274395404" lon="10.203150292087983"><ele>262.20000000000005</ele><time>2026-04-18T11:02:07.803Z</time></trkpt><trkpt lat="42.750479852238186" lon="10.203239311412153"><ele>267.6</ele><time>2026-04-18T11:02:08.803Z</time></trkpt><trkpt lat="42.75055295880554" lon="10.203363567997592"><ele>273.0</ele><time>2026-04-18T11:02:09.803Z</time></trkpt><trkpt lat="42.75062831176445" lon="10.203479791233615"><ele>273.0</ele><time>2026-04-18T11:02:10.803Z</time></trkpt><trkpt lat="42.75064489531904" lon="10.20359773620088"><ele>273.0</ele><time>2026-04-18T11:02:11.803Z</time></trkpt><trkpt lat="42.7506520794928" lon="10.203696233565818"><ele>273.0</ele><time>2026-04-18T11:02:12.803Z</time></trkpt><trkpt lat="42.75058468212123" lon="10.203785530294603"><ele>273.0</ele><time>2026-04-18T11:02:13.803Z</time></trkpt><trkpt lat="42.750566096717115" lon="10.20391207626602"><ele>273.0</ele><time>2026-04-18T11:02:14.803Z</time></trkpt><trkpt lat="42.75055675917425" lon="10.204032009983983"><ele>273.0</ele><time>2026-04-18T11:02:15.802Z</time></trkpt><trkpt lat="42.75059594151085" lon="10.204163912565901"><ele>272.0</ele><time>2026-04-18T11:02:16.802Z</time></trkpt><trkpt lat="42.75067272964963" lon="10.204280839489291"><ele>271.0</ele><time>2026-04-18T11:02:17.802Z</time></trkpt><trkpt lat="42.750732534604595" lon="10.204416055985865"><ele>270.0</ele><time>2026-04-18T11:02:18.802Z</time></trkpt><trkpt lat="42.750800272833736" lon="10.204556969031522"><ele>269.0</ele><time>2026-04-18T11:02:19.802Z</time></trkpt><trkpt lat="42.75085360830875" lon="10.204646367253149"><ele>268.0</ele><time>2026-04-18T11:02:20.802Z</time></trkpt><trkpt lat="42.750919306200934" lon="10.204702045003774"><ele>268.0</ele><time>2026-04-18T11:02:21.802Z</time></trkpt><trkpt lat="42.75099686278228" lon="10.204741511594433"><ele>268.0</ele><time>2026-04-18T11:02:22.802Z</time></trkpt><trkpt lat="42.751094103367514" lon="10.204680777801347"><ele>268.0</ele><time>2026-04-18T11:02:23.802Z</time></trkpt><trkpt lat="42.75120832964392" lon="10.204703805118731"><ele>268.0</ele><time>2026-04-18T11:02:24.802Z</time></trkpt><trkpt lat="42.751272385348216" lon="10.204758272450482"><ele>268.0</ele><time>2026-04-18T11:02:25.802Z</time></trkpt><trkpt lat="42.75132135288974" lon="10.204836207743327"><ele>270.2</ele><time>2026-04-18T11:02:26.802Z</time></trkpt><trkpt lat="42.7513105989101" lon="10.204956100963484"><ele>272.4</ele><time>2026-04-18T11:02:27.802Z</time></trkpt><trkpt lat="42.75130358549258" lon="10.20509591318801"><ele>274.59999999999997</ele><time>2026-04-18T11:02:28.802Z</time></trkpt><trkpt lat="42.751291792837165" lon="10.205260917550051"><ele>276.8</ele><time>2026-04-18T11:02:29.802Z</time></trkpt><trkpt lat="42.751274772120574" lon="10.205394553305057"><ele>279.0</ele><time>2026-04-18T11:02:30.802Z</time></trkpt><trkpt lat="42.75128063272812" lon="10.205524875386795"><ele>279.0</ele><time>2026-04-18T11:02:31.802Z</time></trkpt><trkpt lat="42.75135404108544" lon="10.205640791675526"><ele>279.0</ele><time>2026-04-18T11:02:32.802Z</time></trkpt><trkpt lat="42.751460672575554" lon="10.205736877090134"><ele>279.0</ele><time>2026-04-18T11:02:33.802Z</time></trkpt><trkpt lat="42.75156650530258" lon="10.205837159607828"><ele>279.0</ele><time>2026-04-18T11:02:34.802Z</time></trkpt><trkpt lat="42.75161832848706" lon="10.205966708055758"><ele>277.0</ele><time>2026-04-18T11:02:35.802Z</time></trkpt><trkpt lat="42.751657425648155" lon="10.206070600684896"><ele>275.0</ele><time>2026-04-18T11:02:36.802Z</time></trkpt><trkpt lat="42.75163133197227" lon="10.206174655397898"><ele>273.0</ele><time>2026-04-18T11:02:37.802Z</time></trkpt><trkpt lat="42.75160123895584" lon="10.206269678302059"><ele>271.0</ele><time>2026-04-18T11:02:38.802Z</time></trkpt><trkpt lat="42.75155550118793" lon="10.206398740880134"><ele>269.0</ele><time>2026-04-18T11:02:39.802Z</time></trkpt><trkpt lat="42.751499015653536" lon="10.206584271959313"><ele>268.59999999999997</ele><time>2026-04-18T11:02:40.802Z</time></trkpt><trkpt lat="42.75144519664961" lon="10.206761044618663"><ele>268.2</ele><time>2026-04-18T11:02:41.802Z</time></trkpt><trkpt lat="42.75141559092594" lon="10.206897367053102"><ele>267.79999999999995</ele><time>2026-04-18T11:02:42.802Z</time></trkpt><trkpt lat="42.751380074709004" lon="10.207008008668204"><ele>267.4</ele><time>2026-04-18T11:02:43.802Z</time></trkpt><trkpt lat="42.751323108445106" lon="10.207118747584783"><ele>267.0</ele><time>2026-04-18T11:02:44.802Z</time></trkpt><trkpt lat="42.75121804017791" lon="10.207163082559855"><ele>267.0</ele><time>2026-04-18T11:02:45.802Z</time></trkpt><trkpt lat="42.75117008529201" lon="10.207258259582247"><ele>267.0</ele><time>2026-04-18T11:02:46.802Z</time></trkpt><trkpt lat="42.75113102424943" lon="10.207363206582768"><ele>267.0</ele><time>2026-04-18T11:02:47.802Z</time></trkpt><trkpt lat="42.751105584830555" lon="10.207462416532746"><ele>267.0</ele><time>2026-04-18T11:02:48.802Z</time></trkpt><trkpt lat="42.75109113904808" lon="10.207556061359314"><ele>267.0</ele><time>2026-04-18T11:02:49.802Z</time></trkpt><trkpt lat="42.75110684655479" lon="10.207688017037864"><ele>267.0</ele><time>2026-04-18T11:02:51.802Z</time></trkpt><trkpt lat="42.751062153852104" lon="10.207822870640577"><ele>266.5</ele><time>2026-04-18T11:02:54.802Z</time></trkpt><trkpt lat="42.75107768363391" lon="10.207932814850707"><ele>266.0</ele><time>2026-04-18T11:02:56.801Z</time></trkpt><trkpt lat="42.75107477002418" lon="10.20804190328078"><ele>265.5</ele><time>2026-04-18T11:03:00.801Z</time></trkpt><trkpt lat="42.751067614442796" lon="10.208129423004559"><ele>265.0</ele><time>2026-04-18T11:03:03.801Z</time></trkpt><trkpt lat="42.749519506239416" lon="10.210309605531123"><ele>260.66666666666663</ele><time>2026-04-18T11:04:05.801Z</time></trkpt><trkpt lat="42.749624509850506" lon="10.21033453392257"><ele>256.3333333333333</ele><time>2026-04-18T11:04:07.8Z</time></trkpt><trkpt lat="42.74969393127642" lon="10.21037203662544"><ele>252.0</ele><time>2026-04-18T11:04:08.8Z</time></trkpt><trkpt lat="42.74976311911343" lon="10.210387232558878"><ele>247.66666666666669</ele><time>2026-04-18T11:04:09.8Z</time></trkpt><trkpt lat="42.74985113535043" lon="10.210403696920217"><ele>243.33333333333334</ele><time>2026-04-18T11:04:10.8Z</time></trkpt><trkpt lat="42.74993633353255" lon="10.21040323090977"><ele>239.0</ele><time>2026-04-18T11:04:11.8Z</time></trkpt><trkpt lat="42.75001424705398" lon="10.21042363481481"><ele>239.0</ele><time>2026-04-18T11:04:12.8Z</time></trkpt><trkpt lat="42.75009879345557" lon="10.21044738000961"><ele>238.99999999999997</ele><time>2026-04-18T11:04:13.8Z</time></trkpt><trkpt lat="42.75018277301871" lon="10.21047873047555"><ele>238.99999999999997</ele><time>2026-04-18T11:04:14.8Z</time></trkpt><trkpt lat="42.75026541437174" lon="10.210515328022211"><ele>239.0</ele><time>2026-04-18T11:04:15.8Z</time></trkpt><trkpt lat="42.75036321300786" lon="10.21054074621868"><ele>239.0</ele><time>2026-04-18T11:04:16.8Z</time></trkpt><trkpt lat="42.750451843613185" lon="10.21057218146242"><ele>239.16666666666669</ele><time>2026-04-18T11:04:17.8Z</time></trkpt><trkpt lat="42.7505294965316" lon="10.210629527123823"><ele>239.33333333333334</ele><time>2026-04-18T11:04:18.8Z</time></trkpt><trkpt lat="42.75060321223045" lon="10.210675518413641"><ele>239.5</ele><time>2026-04-18T11:04:19.8Z</time></trkpt><trkpt lat="42.75066406822316" lon="10.210713066928287"><ele>239.66666666666669</ele><time>2026-04-18T11:04:20.8Z</time></trkpt><trkpt lat="42.750730692159465" lon="10.21076704836652"><ele>239.83333333333334</ele><time>2026-04-18T11:04:21.8Z</time></trkpt><trkpt lat="42.750796306184164" lon="10.210820441939005"><ele>240.0</ele><time>2026-04-18T11:04:22.8Z</time></trkpt><trkpt lat="42.7508615244159" lon="10.210873003776289"><ele>238.66666666666666</ele><time>2026-04-18T11:04:23.8Z</time></trkpt><trkpt lat="42.750956230270376" lon="10.210974251695315"><ele>237.33333333333331</ele><time>2026-04-18T11:04:25.8Z</time></trkpt><trkpt lat="42.75102805958377" lon="10.21110943779002"><ele>236.0</ele><time>2026-04-18T11:04:27.8Z</time></trkpt><trkpt lat="42.751065958273436" lon="10.211178386167015"><ele>234.66666666666666</ele><time>2026-04-18T11:04:28.8Z</time></trkpt><trkpt lat="42.75111145543244" lon="10.211245436508355"><ele>233.33333333333331</ele><time>2026-04-18T11:04:29.8Z</time></trkpt><trkpt lat="42.75115753677685" lon="10.211314019496697"><ele>232.0</ele><time>2026-04-18T11:04:30.8Z</time></trkpt><trkpt lat="42.751191495168634" lon="10.211392340358136"><ele>231.16666666666666</ele><time>2026-04-18T11:04:31.8Z</time></trkpt><trkpt lat="42.7512896901701" lon="10.211503089698038"><ele>230.33333333333331</ele><time>2026-04-18T11:04:33.8Z</time></trkpt><trkpt lat="42.751323009619774" lon="10.211578271090591"><ele>229.5</ele><time>2026-04-18T11:04:34.8Z</time></trkpt><trkpt lat="42.75134404612129" lon="10.21166375988575"><ele>228.66666666666669</ele><time>2026-04-18T11:04:36.8Z</time></trkpt><trkpt lat="42.751399027190566" lon="10.211716375689146"><ele>227.83333333333334</ele><time>2026-04-18T11:04:38.8Z</time></trkpt><trkpt lat="42.751473867614145" lon="10.211783549272377"><ele>227.0</ele><time>2026-04-18T11:04:40.8Z</time></trkpt><trkpt lat="42.75156338221292" lon="10.211750589969208"><ele>227.00000000000003</ele><time>2026-04-18T11:04:42.8Z</time></trkpt><trkpt lat="42.75164801294579" lon="10.211712391815283"><ele>227.0</ele><time>2026-04-18T11:04:44.8Z</time></trkpt><trkpt lat="42.751711703883146" lon="10.211714465759"><ele>227.0</ele><time>2026-04-18T11:04:46.8Z</time></trkpt><trkpt lat="42.75176198491884" lon="10.211637909315007"><ele>227.0</ele><time>2026-04-18T11:04:49.799Z</time></trkpt><trkpt lat="42.75181651217443" lon="10.211705574328539"><ele>227.00000000000003</ele><time>2026-04-18T11:04:51.799Z</time></trkpt><trkpt lat="42.75187503498117" lon="10.211758176387312"><ele>227.0</ele><time>2026-04-18T11:04:53.799Z</time></trkpt><trkpt lat="42.75195112317983" lon="10.21179242697987"><ele>225.50000000000003</ele><time>2026-04-18T11:04:55.799Z</time></trkpt><trkpt lat="42.75207203869699" lon="10.211829508811098"><ele>224.0</ele><time>2026-04-18T11:04:57.799Z</time></trkpt><trkpt lat="42.752152863818495" lon="10.211875821017468"><ele>222.5</ele><time>2026-04-18T11:04:58.799Z</time></trkpt><trkpt lat="42.75223017781482" lon="10.211899251428717"><ele>221.0</ele><time>2026-04-18T11:04:59.799Z</time></trkpt><trkpt lat="42.75229989234207" lon="10.211920796730737"><ele>219.50000000000003</ele><time>2026-04-18T11:05:00.799Z</time></trkpt><trkpt lat="42.75237001163663" lon="10.211954021589271"><ele>218.0</ele><time>2026-04-18T11:05:01.799Z</time></trkpt><trkpt lat="42.75244670395475" lon="10.211976380524831"><ele>218.0</ele><time>2026-04-18T11:05:02.799Z</time></trkpt><trkpt lat="42.75251638337811" lon="10.212011078097941"><ele>218.0</ele><time>2026-04-18T11:05:03.799Z</time></trkpt><trkpt lat="42.75258382052325" lon="10.21203688691516"><ele>218.0</ele><time>2026-04-18T11:05:04.799Z</time></trkpt><trkpt lat="42.75071231389611" lon="10.216144431303015"><ele>206.0</ele><time>2026-04-18T11:06:05.798Z</time></trkpt><trkpt lat="42.75073232872364" lon="10.216268757034722"><ele>194.0</ele><time>2026-04-18T11:06:15.813Z</time></trkpt><trkpt lat="42.75072414995736" lon="10.216401091479419"><ele>182.0</ele><time>2026-04-18T11:06:17.816Z</time></trkpt><trkpt lat="42.75069584114107" lon="10.216563108452563"><ele>170.0</ele><time>2026-04-18T11:06:19.819Z</time></trkpt><trkpt lat="42.750666685587035" lon="10.216656847621106"><ele>158.0</ele><time>2026-04-18T11:06:20.82Z</time></trkpt><trkpt lat="42.75065468736865" lon="10.216775703588867"><ele>158.0</ele><time>2026-04-18T11:06:22.822Z</time></trkpt><trkpt lat="42.750500945848465" lon="10.216631089794372"><ele>158.0</ele><time>2026-04-18T11:06:26.826Z</time></trkpt><trkpt lat="42.75045262732304" lon="10.216546312472557"><ele>158.0</ele><time>2026-04-18T11:06:27.827Z</time></trkpt><trkpt lat="42.750406206988345" lon="10.216469412191989"><ele>158.0</ele><time>2026-04-18T11:06:28.828Z</time></trkpt><trkpt lat="42.75034263760097" lon="10.21642453766756"><ele>158.0</ele><time>2026-04-18T11:06:29.828Z</time></trkpt><trkpt lat="42.750271519024324" lon="10.216403627670747"><ele>158.0</ele><time>2026-04-18T11:06:30.829Z</time></trkpt><trkpt lat="42.75021983952253" lon="10.216348751285018"><ele>158.0</ele><time>2026-04-18T11:06:31.83Z</time></trkpt><trkpt lat="42.75011118720752" lon="10.2162844724954"><ele>158.0</ele><time>2026-04-18T11:06:33.831Z</time></trkpt><trkpt lat="42.75000799175442" lon="10.216236954371508"><ele>158.0</ele><time>2026-04-18T11:06:35.832Z</time></trkpt><trkpt lat="42.749880962722" lon="10.216181468811662"><ele>158.0</ele><time>2026-04-18T11:06:37.833Z</time></trkpt><trkpt lat="42.74980966352125" lon="10.216151489133924"><ele>154.66666666666666</ele><time>2026-04-18T11:06:38.833Z</time></trkpt><trkpt lat="42.74974751634812" lon="10.216126718845588"><ele>151.33333333333331</ele><time>2026-04-18T11:06:39.833Z</time></trkpt><trkpt lat="42.74967547496782" lon="10.216099556695783"><ele>148.0</ele><time>2026-04-18T11:06:40.834Z</time></trkpt><trkpt lat="42.749606688614726" lon="10.2160817576341"><ele>144.66666666666666</ele><time>2026-04-18T11:06:41.834Z</time></trkpt><trkpt lat="42.74950180638109" lon="10.21606614079902"><ele>141.33333333333334</ele><time>2026-04-18T11:06:43.835Z</time></trkpt><trkpt lat="42.74943584782082" lon="10.216036917959755"><ele>138.0</ele><time>2026-04-18T11:06:45.835Z</time></trkpt><trkpt lat="42.74940517367302" lon="10.215956921065132"><ele>138.0</ele><time>2026-04-18T11:06:47.836Z</time></trkpt><trkpt lat="42.74936124526172" lon="10.2160351205731"><ele>138.0</ele><time>2026-04-18T11:06:49.836Z</time></trkpt><trkpt lat="42.749375845901284" lon="10.216176465626786"><ele>138.0</ele><time>2026-04-18T11:06:51.836Z</time></trkpt><trkpt lat="42.74938487578395" lon="10.216318026957483"><ele>138.0</ele><time>2026-04-18T11:06:53.836Z</time></trkpt><trkpt lat="42.749317937701406" lon="10.216379367806304"><ele>138.0</ele><time>2026-04-18T11:06:54.837Z</time></trkpt><trkpt lat="42.74923156417305" lon="10.216407360115154"><ele>123.66666666666667</ele><time>2026-04-18T11:06:59.837Z</time></trkpt><trkpt lat="42.74922554227886" lon="10.216605417480586"><ele>109.33333333333334</ele><time>2026-04-18T11:07:02.837Z</time></trkpt><trkpt lat="42.749270215848604" lon="10.21667527722743"><ele>95.0</ele><time>2026-04-18T11:07:03.837Z</time></trkpt><trkpt lat="42.74815765105019" lon="10.217947700541707"><ele>88.66666666666667</ele><time>2026-04-18T11:08:05.838Z</time></trkpt><trkpt lat="42.74809748303947" lon="10.218002585061665"><ele>82.33333333333334</ele><time>2026-04-18T11:08:08.838Z</time></trkpt><trkpt lat="42.74799266768768" lon="10.217965372681933"><ele>76.0</ele><time>2026-04-18T11:08:10.838Z</time></trkpt><trkpt lat="42.74793322704197" lon="10.217934558879167"><ele>69.66666666666667</ele><time>2026-04-18T11:08:11.838Z</time></trkpt><trkpt lat="42.747852282599645" lon="10.217824889681777"><ele>63.333333333333336</ele><time>2026-04-18T11:08:13.837Z</time></trkpt><trkpt lat="42.74780629078939" lon="10.217753812385373"><ele>57.0</ele><time>2026-04-18T11:08:14.838Z</time></trkpt><trkpt lat="42.74776286977476" lon="10.21768870138139"><ele>52.0</ele><time>2026-04-18T11:08:15.838Z</time></trkpt><trkpt lat="42.74769339012802" lon="10.217618207063254"><ele>47.0</ele><time>2026-04-18T11:08:17.838Z</time></trkpt><trkpt lat="42.747557350053796" lon="10.217742830200583"><ele>42.0</ele><time>2026-04-18T11:08:19.838Z</time></trkpt><trkpt lat="42.74751069842879" lon="10.2178938828889"><ele>37.0</ele><time>2026-04-18T11:08:21.838Z</time></trkpt><trkpt lat="42.74747990438499" lon="10.218006041347806"><ele>37.0</ele><time>2026-04-18T11:08:22.838Z</time></trkpt><trkpt lat="42.74745630831558" lon="10.218095296016882"><ele>37.0</ele><time>2026-04-18T11:08:23.838Z</time></trkpt><trkpt lat="42.74742901026223" lon="10.218175855186871"><ele>37.0</ele><time>2026-04-18T11:08:26.838Z</time></trkpt><trkpt lat="42.74740476449108" lon="10.2182666237445"><ele>37.0</ele><time>2026-04-18T11:08:31.837Z</time></trkpt><trkpt lat="42.74747583133328" lon="10.218400894906377"><ele>37.0</ele><time>2026-04-18T11:08:32.837Z</time></trkpt><trkpt lat="42.74755675946252" lon="10.21850884852834"><ele>37.0</ele><time>2026-04-18T11:08:34.837Z</time></trkpt><trkpt lat="42.74760962610601" lon="10.218574305109362"><ele>35.75</ele><time>2026-04-18T11:08:35.837Z</time></trkpt><trkpt lat="42.74769418868428" lon="10.218667341259787"><ele>34.5</ele><time>2026-04-18T11:08:37.837Z</time></trkpt><trkpt lat="42.747802889264165" lon="10.21864418221923"><ele>33.25</ele><time>2026-04-18T11:08:38.837Z</time></trkpt><trkpt lat="42.747907925091674" lon="10.218596296283524"><ele>32.0</ele><time>2026-04-18T11:08:40.837Z</time></trkpt><trkpt lat="42.74800866484973" lon="10.218712624398345"><ele>32.83333333333333</ele><time>2026-04-18T11:08:42.837Z</time></trkpt><trkpt lat="42.7480657177186" lon="10.21875040632636"><ele>33.666666666666664</ele><time>2026-04-18T11:08:43.837Z</time></trkpt><trkpt lat="42.74813725449718" lon="10.218808402549989"><ele>34.5</ele><time>2026-04-18T11:08:44.837Z</time></trkpt><trkpt lat="42.748223462198396" lon="10.218861927791"><ele>35.333333333333336</ele><time>2026-04-18T11:08:45.837Z</time></trkpt><trkpt lat="42.74829898928499" lon="10.218919317620804"><ele>36.16666666666667</ele><time>2026-04-18T11:08:46.837Z</time></trkpt><trkpt lat="42.748370637316725" lon="10.218975114321667"><ele>37.0</ele><time>2026-04-18T11:08:47.837Z</time></trkpt><trkpt lat="42.748437917229225" lon="10.21900621338619"><ele>37.0</ele><time>2026-04-18T11:08:48.837Z</time></trkpt><trkpt lat="42.74849148571376" lon="10.219055111832722"><ele>37.0</ele><time>2026-04-18T11:08:49.837Z</time></trkpt><trkpt lat="42.74854592275864" lon="10.21912364115097"><ele>37.0</ele><time>2026-04-18T11:08:50.837Z</time></trkpt><trkpt lat="42.74860711342923" lon="10.219186880319944"><ele>37.0</ele><time>2026-04-18T11:08:51.837Z</time></trkpt><trkpt lat="42.748690494169765" lon="10.219238862191792"><ele>37.0</ele><time>2026-04-18T11:08:52.837Z</time></trkpt><trkpt lat="42.748771850645234" lon="10.219298827296356"><ele>37.0</ele><time>2026-04-18T11:08:53.837Z</time></trkpt><trkpt lat="42.74881947201195" lon="10.219358375448719"><ele>39.2</ele><time>2026-04-18T11:08:54.837Z</time></trkpt><trkpt lat="42.74887832655888" lon="10.219512302111816"><ele>41.400000000000006</ele><time>2026-04-18T11:08:56.837Z</time></trkpt><trkpt lat="42.748975697214156" lon="10.219673643308408"><ele>43.599999999999994</ele><time>2026-04-18T11:08:58.837Z</time></trkpt><trkpt lat="42.74904150448645" lon="10.219741312349305"><ele>45.8</ele><time>2026-04-18T11:08:59.837Z</time></trkpt><trkpt lat="42.74910302460376" lon="10.21979626893814"><ele>48.0</ele><time>2026-04-18T11:09:00.837Z</time></trkpt><trkpt lat="42.74919036977993" lon="10.219818590186495"><ele>48.75</ele><time>2026-04-18T11:09:01.837Z</time></trkpt><trkpt lat="42.74926102772062" lon="10.219808882402182"><ele>49.5</ele><time>2026-04-18T11:09:02.837Z</time></trkpt><trkpt lat="42.74932152874413" lon="10.219759295114047"><ele>50.25</ele><time>2026-04-18T11:09:03.837Z</time></trkpt><trkpt lat="42.74937494519764" lon="10.219678458220772"><ele>51.0</ele><time>2026-04-18T11:09:04.837Z</time></trkpt><trkpt lat="42.75166055535262" lon="10.222094574367654"><ele>48.5</ele><time>2026-04-18T11:10:05.836Z</time></trkpt><trkpt lat="42.7516421173454" lon="10.22221308704086"><ele>46.0</ele><time>2026-04-18T11:10:06.836Z</time></trkpt><trkpt lat="42.751657510811" lon="10.22234419473352"><ele>43.5</ele><time>2026-04-18T11:10:07.836Z</time></trkpt><trkpt lat="42.75166689864201" lon="10.222451035998805"><ele>41.0</ele><time>2026-04-18T11:10:08.837Z</time></trkpt><trkpt lat="42.75166898507215" lon="10.222547742226316"><ele>38.5</ele><time>2026-04-18T11:10:09.837Z</time></trkpt><trkpt lat="42.75166653112765" lon="10.222636853823992"><ele>36.0</ele><time>2026-04-18T11:10:10.836Z</time></trkpt><trkpt lat="42.75166022015666" lon="10.222741410090388"><ele>35.0</ele><time>2026-04-18T11:10:11.836Z</time></trkpt><trkpt lat="42.751652433775675" lon="10.222844824748117"><ele>34.0</ele><time>2026-04-18T11:10:12.837Z</time></trkpt><trkpt lat="42.751647712289376" lon="10.222956965968358"><ele>33.0</ele><time>2026-04-18T11:10:13.837Z</time></trkpt><trkpt lat="42.75167108795769" lon="10.223054879035663"><ele>32.0</ele><time>2026-04-18T11:10:14.837Z</time></trkpt><trkpt lat="42.75166402626819" lon="10.223168759542176"><ele>31.0</ele><time>2026-04-18T11:10:15.837Z</time></trkpt><trkpt lat="42.75167412488631" lon="10.22330983675384"><ele>30.0</ele><time>2026-04-18T11:10:16.837Z</time></trkpt><trkpt lat="42.75168343125196" lon="10.223450292896498"><ele>29.333333333333332</ele><time>2026-04-18T11:10:17.837Z</time></trkpt><trkpt lat="42.75169100402119" lon="10.223587454310149"><ele>28.666666666666664</ele><time>2026-04-18T11:10:18.837Z</time></trkpt><trkpt lat="42.75170423866032" lon="10.223719828024567"><ele>28.0</ele><time>2026-04-18T11:10:19.837Z</time></trkpt><trkpt lat="42.751710020685984" lon="10.223828876832028"><ele>27.333333333333332</ele><time>2026-04-18T11:10:20.837Z</time></trkpt><trkpt lat="42.75171787312619" lon="10.223930679138169"><ele>26.666666666666664</ele><time>2026-04-18T11:10:21.837Z</time></trkpt><trkpt lat="42.751731369562265" lon="10.22402289768354"><ele>26.0</ele><time>2026-04-18T11:10:22.836Z</time></trkpt><trkpt lat="42.75173715807348" lon="10.22419676078708"><ele>25.333333333333332</ele><time>2026-04-18T11:10:24.836Z</time></trkpt><trkpt lat="42.75177828093375" lon="10.224277801243796"><ele>24.666666666666664</ele><time>2026-04-18T11:10:25.836Z</time></trkpt><trkpt lat="42.751832944261146" lon="10.224367446364257"><ele>24.0</ele><time>2026-04-18T11:10:26.836Z</time></trkpt><trkpt lat="42.751868613451954" lon="10.224488281702921"><ele>23.333333333333332</ele><time>2026-04-18T11:10:27.836Z</time></trkpt><trkpt lat="42.75188316371141" lon="10.224614041716993"><ele>22.666666666666664</ele><time>2026-04-18T11:10:28.836Z</time></trkpt><trkpt lat="42.751901645435645" lon="10.224729233062385"><ele>22.0</ele><time>2026-04-18T11:10:29.836Z</time></trkpt><trkpt lat="42.75192965052461" lon="10.22482876372963"><ele>21.0</ele><time>2026-04-18T11:10:30.836Z</time></trkpt><trkpt lat="42.751946943595094" lon="10.22494267685895"><ele>20.0</ele><time>2026-04-18T11:10:31.836Z</time></trkpt><trkpt lat="42.751965185124746" lon="10.225046163274962"><ele>19.0</ele><time>2026-04-18T11:10:32.836Z</time></trkpt><trkpt lat="42.75198298675481" lon="10.225145258356209"><ele>18.0</ele><time>2026-04-18T11:10:33.836Z</time></trkpt><trkpt lat="42.75199751543051" lon="10.225241144801501"><ele>17.0</ele><time>2026-04-18T11:10:34.836Z</time></trkpt><trkpt lat="42.752007871091614" lon="10.225342428757425"><ele>16.0</ele><time>2026-04-18T11:10:35.836Z</time></trkpt><trkpt lat="42.75200845029626" lon="10.225438793054385"><ele>16.0</ele><time>2026-04-18T11:10:36.836Z</time></trkpt><trkpt lat="42.752004879643295" lon="10.225608157806713"><ele>16.0</ele><time>2026-04-18T11:10:38.836Z</time></trkpt><trkpt lat="42.75201327295496" lon="10.225704096837292"><ele>16.0</ele><time>2026-04-18T11:10:39.836Z</time></trkpt><trkpt lat="42.75201059485225" lon="10.225824641299166"><ele>16.0</ele><time>2026-04-18T11:10:40.836Z</time></trkpt><trkpt lat="42.752020976973455" lon="10.225965239992115"><ele>16.0</ele><time>2026-04-18T11:10:41.836Z</time></trkpt><trkpt lat="42.75203483866082" lon="10.226133191825252"><ele>15.666666666666666</ele><time>2026-04-18T11:10:43.836Z</time></trkpt><trkpt lat="42.75205351651725" lon="10.226262940248144"><ele>15.333333333333332</ele><time>2026-04-18T11:10:45.836Z</time></trkpt><trkpt lat="42.75207009523636" lon="10.226352629263145"><ele>15.0</ele><time>2026-04-18T11:10:46.836Z</time></trkpt><trkpt lat="42.75211629306815" lon="10.226416022673513"><ele>14.666666666666668</ele><time>2026-04-18T11:10:47.836Z</time></trkpt><trkpt lat="42.752216997906736" lon="10.226425662536702"><ele>14.333333333333334</ele><time>2026-04-18T11:10:48.836Z</time></trkpt><trkpt lat="42.75231490625155" lon="10.22644098561959"><ele>14.0</ele><time>2026-04-18T11:10:49.836Z</time></trkpt><trkpt lat="42.75242961410079" lon="10.226459908165321"><ele>13.666666666666668</ele><time>2026-04-18T11:10:50.836Z</time></trkpt><trkpt lat="42.7525372321342" lon="10.22649032199001"><ele>13.333333333333334</ele><time>2026-04-18T11:10:51.836Z</time></trkpt><trkpt lat="42.75262249258882" lon="10.226518481352857"><ele>13.0</ele><time>2026-04-18T11:10:52.836Z</time></trkpt><trkpt lat="42.75269260825956" lon="10.226551446526104"><ele>12.666666666666668</ele><time>2026-04-18T11:10:53.836Z</time></trkpt><trkpt lat="42.752759493573365" lon="10.226577686788902"><ele>12.333333333333334</ele><time>2026-04-18T11:10:54.836Z</time></trkpt><trkpt lat="42.7528482073261" lon="10.226647631193362"><ele>12.0</ele><time>2026-04-18T11:10:56.836Z</time></trkpt><trkpt lat="42.75285093145381" lon="10.226789388744624"><ele>13.5</ele><time>2026-04-18T11:10:58.835Z</time></trkpt><trkpt lat="42.752839296533054" lon="10.226920715368712"><ele>15.0</ele><time>2026-04-18T11:11:00.835Z</time></trkpt><trkpt lat="42.75283701243735" lon="10.227048667659263"><ele>16.5</ele><time>2026-04-18T11:11:02.835Z</time></trkpt><trkpt lat="42.752844747246684" lon="10.227231900485984"><ele>18.0</ele><time>2026-04-18T11:11:04.835Z</time></trkpt><trkpt lat="42.75069132472726" lon="10.233794745439425"><ele>15.833333333333334</ele><time>2026-04-18T11:12:05.834Z</time></trkpt><trkpt lat="42.75066206837236" lon="10.233917362065196"><ele>13.666666666666666</ele><time>2026-04-18T11:12:06.834Z</time></trkpt><trkpt lat="42.750633696721195" lon="10.234040523247284"><ele>11.5</ele><time>2026-04-18T11:12:07.834Z</time></trkpt><trkpt lat="42.75058075963605" lon="10.234144952053311"><ele>9.333333333333334</ele><time>2026-04-18T11:12:08.834Z</time></trkpt><trkpt lat="42.75054752231596" lon="10.234252349897023"><ele>7.166666666666667</ele><time>2026-04-18T11:12:09.834Z</time></trkpt><trkpt lat="42.75052376063451" lon="10.234343397399586"><ele>5.0</ele><time>2026-04-18T11:12:10.835Z</time></trkpt><trkpt lat="42.75050165635726" lon="10.234455590215632"><ele>5.0</ele><time>2026-04-18T11:12:12.836Z</time></trkpt><trkpt lat="42.75045010932442" lon="10.2345360955184"><ele>5.0</ele><time>2026-04-18T11:12:16.835Z</time></trkpt><trkpt lat="42.75037531514211" lon="10.234542760256264"><ele>5.0</ele><time>2026-04-18T11:12:17.835Z</time></trkpt><trkpt lat="42.75028429622052" lon="10.23456731308995"><ele>5.0</ele><time>2026-04-18T11:12:18.835Z</time></trkpt><trkpt lat="42.75018969436306" lon="10.234602161783027"><ele>5.0</ele><time>2026-04-18T11:12:19.835Z</time></trkpt><trkpt lat="42.75007632492009" lon="10.234631598321558"><ele>6.0</ele><time>2026-04-18T11:12:20.835Z</time></trkpt><trkpt lat="42.74995596708101" lon="10.234657904721008"><ele>7.0</ele><time>2026-04-18T11:12:21.835Z</time></trkpt><trkpt lat="42.7498311702651" lon="10.23468665024573"><ele>8.0</ele><time>2026-04-18T11:12:22.836Z</time></trkpt><trkpt lat="42.7496939925062" lon="10.23471568398446"><ele>9.0</ele><time>2026-04-18T11:12:23.836Z</time></trkpt><trkpt lat="42.74955197346813" lon="10.234729468414054"><ele>9.0</ele><time>2026-04-18T11:12:24.835Z</time></trkpt><trkpt lat="42.74941939742275" lon="10.234763174592999"><ele>9.0</ele><time>2026-04-18T11:12:25.835Z</time></trkpt><trkpt lat="42.749300439174014" lon="10.23479341787391"><ele>9.0</ele><time>2026-04-18T11:12:26.835Z</time></trkpt><trkpt lat="42.74920055781533" lon="10.234819817243368"><ele>9.0</ele><time>2026-04-18T11:12:27.835Z</time></trkpt><trkpt lat="42.749101316109595" lon="10.234845658264767"><ele>8.166666666666666</ele><time>2026-04-18T11:12:28.835Z</time></trkpt><trkpt lat="42.74899977137576" lon="10.234872098982844"><ele>7.333333333333333</ele><time>2026-04-18T11:12:29.835Z</time></trkpt><trkpt lat="42.748904935080084" lon="10.234896599379729"><ele>6.5</ele><time>2026-04-18T11:12:30.835Z</time></trkpt><trkpt lat="42.74881634826873" lon="10.234918118012652"><ele>5.666666666666666</ele><time>2026-04-18T11:12:31.835Z</time></trkpt><trkpt lat="42.748736732757486" lon="10.23493745743884"><ele>4.833333333333333</ele><time>2026-04-18T11:12:32.835Z</time></trkpt><trkpt lat="42.74866140755754" lon="10.234954508896324"><ele>4.0</ele><time>2026-04-18T11:12:33.835Z</time></trkpt><trkpt lat="42.74859786105602" lon="10.234968854458634"><ele>4.0</ele><time>2026-04-18T11:12:34.835Z</time></trkpt><trkpt lat="42.74851493802532" lon="10.234985613479648"><ele>4.0</ele><time>2026-04-18T11:12:36.835Z</time></trkpt><trkpt lat="42.7485650551335" lon="10.235155569072662"><ele>4.0</ele><time>2026-04-18T11:12:39.835Z</time></trkpt><trkpt lat="42.74869043144984" lon="10.235238722903938"><ele>4.0</ele><time>2026-04-18T11:12:41.835Z</time></trkpt><trkpt lat="42.74875481873567" lon="10.23527653586289"><ele>4.0</ele><time>2026-04-18T11:12:42.835Z</time></trkpt><trkpt lat="42.748809931673435" lon="10.23532523462402"><ele>4.0</ele><time>2026-04-18T11:12:43.835Z</time></trkpt><trkpt lat="42.74886343043168" lon="10.235388133166984"><ele>4.0</ele><time>2026-04-18T11:12:44.835Z</time></trkpt><trkpt lat="42.748926988857846" lon="10.235463874862226"><ele>4.0</ele><time>2026-04-18T11:12:45.835Z</time></trkpt><trkpt lat="42.74899170335796" lon="10.23556228137161"><ele>4.0</ele><time>2026-04-18T11:12:46.835Z</time></trkpt><trkpt lat="42.74906291938789" lon="10.23565945051957"><ele>4.0</ele><time>2026-04-18T11:12:47.835Z</time></trkpt><trkpt lat="42.74912985918639" lon="10.235756359326336"><ele>4.0</ele><time>2026-04-18T11:12:48.835Z</time></trkpt><trkpt lat="42.74919470545108" lon="10.235850462974595"><ele>4.0</ele><time>2026-04-18T11:12:49.835Z</time></trkpt><trkpt lat="42.74926038567435" lon="10.235941248137875"><ele>4.0</ele><time>2026-04-18T11:12:50.835Z</time></trkpt><trkpt lat="42.74932309295763" lon="10.23603105375345"><ele>4.0</ele><time>2026-04-18T11:12:51.834Z</time></trkpt><trkpt lat="42.749385015884144" lon="10.236128524232074"><ele>4.0</ele><time>2026-04-18T11:12:52.834Z</time></trkpt><trkpt lat="42.74944747061475" lon="10.23622101200626"><ele>4.0</ele><time>2026-04-18T11:12:53.834Z</time></trkpt><trkpt lat="42.74952329760031" lon="10.236306352718659"><ele>4.0</ele><time>2026-04-18T11:12:54.834Z</time></trkpt><trkpt lat="42.74959137050256" lon="10.236402618790837"><ele>4.0</ele><time>2026-04-18T11:12:55.834Z</time></trkpt><trkpt lat="42.749672506659635" lon="10.236525881788987"><ele>4.0</ele><time>2026-04-18T11:12:56.834Z</time></trkpt><trkpt lat="42.74975586398097" lon="10.236656126953632"><ele>4.0</ele><time>2026-04-18T11:12:57.834Z</time></trkpt><trkpt lat="42.74980859757034" lon="10.236767281718489"><ele>3.9999999999999996</ele><time>2026-04-18T11:12:58.834Z</time></trkpt><trkpt lat="42.74987186871985" lon="10.236867512797083"><ele>4.0</ele><time>2026-04-18T11:12:59.834Z</time></trkpt><trkpt lat="42.74992471899921" lon="10.236932013632435"><ele>4.0</ele><time>2026-04-18T11:13:00.834Z</time></trkpt><trkpt lat="42.749972797637646" lon="10.237000131276972"><ele>4.0</ele><time>2026-04-18T11:13:01.834Z</time></trkpt><trkpt lat="42.75001726112198" lon="10.23707486790532"><ele>3.9999999999999996</ele><time>2026-04-18T11:13:02.834Z</time></trkpt><trkpt lat="42.750062937827614" lon="10.237136872346644"><ele>4.0</ele><time>2026-04-18T11:13:04.834Z</time></trkpt><trkpt lat="42.746249703892175" lon="10.235366893758508"><ele>3.9999999999999996</ele><time>2026-04-18T11:14:05.833Z</time></trkpt><trkpt lat="42.74618169841358" lon="10.23531103879619"><ele>4.0</ele><time>2026-04-18T11:14:06.833Z</time></trkpt><trkpt lat="42.74611880873204" lon="10.235271042179713"><ele>4.0</ele><time>2026-04-18T11:14:07.833Z</time></trkpt><trkpt lat="42.74605597548769" lon="10.235235718581233"><ele>4.0</ele><time>2026-04-18T11:14:08.833Z</time></trkpt><trkpt lat="42.7459586943664" lon="10.235186289553273"><ele>3.9999999999999996</ele><time>2026-04-18T11:14:10.833Z</time></trkpt><trkpt lat="42.745886085775744" lon="10.235121027659128"><ele>4.0</ele><time>2026-04-18T11:14:13.833Z</time></trkpt><trkpt lat="42.745841230993896" lon="10.235057300782243"><ele>4.0</ele><time>2026-04-18T11:14:15.833Z</time></trkpt><trkpt lat="42.74576904566817" lon="10.235040513533084"><ele>4.0</ele><time>2026-04-18T11:14:17.835Z</time></trkpt><trkpt lat="42.74567473358018" lon="10.23501644390655"><ele>4.0</ele><time>2026-04-18T11:14:19.834Z</time></trkpt><trkpt lat="42.74553699248524" lon="10.234926470468888"><ele>4.0</ele><time>2026-04-18T11:14:21.834Z</time></trkpt><trkpt lat="42.74544177603271" lon="10.234897676088064"><ele>4.0</ele><time>2026-04-18T11:14:22.834Z</time></trkpt><trkpt lat="42.745364140445105" lon="10.234870068388348"><ele>3.9999999999999996</ele><time>2026-04-18T11:14:23.834Z</time></trkpt><trkpt lat="42.74528837249615" lon="10.234852534944471"><ele>4.0</ele><time>2026-04-18T11:14:24.834Z</time></trkpt><trkpt lat="42.74521890949234" lon="10.234818293929195"><ele>4.0</ele><time>2026-04-18T11:14:25.834Z</time></trkpt><trkpt lat="42.74512970356756" lon="10.234803351400465"><ele>4.0</ele><time>2026-04-18T11:14:26.834Z</time></trkpt><trkpt lat="42.745043564851905" lon="10.23479636925263"><ele>3.9999999999999996</ele><time>2026-04-18T11:14:27.834Z</time></trkpt><trkpt lat="42.74496019320563" lon="10.234793655680757"><ele>4.0</ele><time>2026-04-18T11:14:28.834Z</time></trkpt><trkpt lat="42.74486212332841" lon="10.2347994643748"><ele>4.166666666666666</ele><time>2026-04-18T11:14:29.834Z</time></trkpt><trkpt lat="42.74478038447618" lon="10.234794830463127"><ele>4.333333333333333</ele><time>2026-04-18T11:14:30.834Z</time></trkpt><trkpt lat="42.74469822726566" lon="10.234794555043925"><ele>4.5</ele><time>2026-04-18T11:14:31.834Z</time></trkpt><trkpt lat="42.74462298227947" lon="10.234797181211535"><ele>4.666666666666667</ele><time>2026-04-18T11:14:32.834Z</time></trkpt><trkpt lat="42.744546624788114" lon="10.234798939783497"><ele>4.833333333333334</ele><time>2026-04-18T11:14:33.834Z</time></trkpt><trkpt lat="42.74447056504068" lon="10.234797328080727"><ele>5.0</ele><time>2026-04-18T11:14:34.834Z</time></trkpt><trkpt lat="42.74440240049658" lon="10.234798891049046"><ele>4.833333333333334</ele><time>2026-04-18T11:14:35.834Z</time></trkpt><trkpt lat="42.744333621182875" lon="10.234800324468475"><ele>4.666666666666667</ele><time>2026-04-18T11:14:36.834Z</time></trkpt><trkpt lat="42.74426730185768" lon="10.2348034925117"><ele>4.5</ele><time>2026-04-18T11:14:37.834Z</time></trkpt><trkpt lat="42.744190079336356" lon="10.234807901431692"><ele>4.333333333333333</ele><time>2026-04-18T11:14:38.834Z</time></trkpt><trkpt lat="42.744102356892384" lon="10.234824258968931"><ele>4.166666666666666</ele><time>2026-04-18T11:14:39.834Z</time></trkpt><trkpt lat="42.744025150674716" lon="10.234844230490584"><ele>4.0</ele><time>2026-04-18T11:14:40.834Z</time></trkpt><trkpt lat="42.743941859112496" lon="10.234836303718549"><ele>3.6666666666666665</ele><time>2026-04-18T11:14:41.834Z</time></trkpt><trkpt lat="42.743870805745445" lon="10.234851370462064"><ele>3.333333333333333</ele><time>2026-04-18T11:14:42.834Z</time></trkpt><trkpt lat="42.74379607439292" lon="10.234872127548"><ele>3.0</ele><time>2026-04-18T11:14:43.834Z</time></trkpt><trkpt lat="42.743723187159254" lon="10.234898213718106"><ele>2.6666666666666665</ele><time>2026-04-18T11:14:44.834Z</time></trkpt><trkpt lat="42.743627798661954" lon="10.23494129324533"><ele>2.333333333333333</ele><time>2026-04-18T11:14:46.834Z</time></trkpt><trkpt lat="42.74356675687506" lon="10.234974779346516"><ele>2.0</ele><time>2026-04-18T11:14:47.834Z</time></trkpt><trkpt lat="42.743491914970384" lon="10.235021778279556"><ele>1.9999999999999998</ele><time>2026-04-18T11:14:48.834Z</time></trkpt><trkpt lat="42.74343060814171" lon="10.235068152155218"><ele>2.0</ele><time>2026-04-18T11:14:49.834Z</time></trkpt><trkpt lat="42.743343856522046" lon="10.235154163464566"><ele>2.0</ele><time>2026-04-18T11:14:51.834Z</time></trkpt><trkpt lat="42.743256902568405" lon="10.23526564544975"><ele>2.0</ele><time>2026-04-18T11:14:53.834Z</time></trkpt><trkpt lat="42.74320889312883" lon="10.235333313434484"><ele>1.9999999999999998</ele><time>2026-04-18T11:14:54.834Z</time></trkpt><trkpt lat="42.74316313104306" lon="10.235404171138661"><ele>2.0</ele><time>2026-04-18T11:14:55.834Z</time></trkpt><trkpt lat="42.743102851359964" lon="10.235534224056911"><ele>2.0</ele><time>2026-04-18T11:14:57.833Z</time></trkpt><trkpt lat="42.74304258868464" lon="10.235602794327653"><ele>2.0</ele><time>2026-04-18T11:15:00.833Z</time></trkpt></trkseg><trkseg><trkpt lat="42.74304974871505" lon="10.23575643665363"><ele>0.9999999999999999</ele><time>2026-04-18T12:30:08.005Z</time></trkpt><trkpt lat="42.7430918005947" lon="10.235684807732268"><ele>1.0</ele><time>2026-04-18T12:30:09.005Z</time></trkpt><trkpt lat="42.74315582182748" lon="10.23555981895829"><ele>1.0</ele><time>2026-04-18T12:30:11.005Z</time></trkpt><trkpt lat="42.743199301031126" lon="10.235497137154423"><ele>1.0</ele><time>2026-04-18T12:30:12.005Z</time></trkpt><trkpt lat="42.743269805900276" lon="10.235367167080964"><ele>0.9999999999999999</ele><time>2026-04-18T12:30:14.005Z</time></trkpt><trkpt lat="42.74332249810227" lon="10.23528738615314"><ele>1.0</ele><time>2026-04-18T12:30:15.005Z</time></trkpt><trkpt lat="42.74337946397457" lon="10.235207628610986"><ele>1.1666666666666665</ele><time>2026-04-18T12:30:16.005Z</time></trkpt><trkpt lat="42.74344142568686" lon="10.235147736050102"><ele>1.3333333333333333</ele><time>2026-04-18T12:30:17.005Z</time></trkpt><trkpt lat="42.74350814713682" lon="10.235100484851081"><ele>1.5</ele><time>2026-04-18T12:30:18.005Z</time></trkpt><trkpt lat="42.743575514807304" lon="10.235059646522311"><ele>1.6666666666666665</ele><time>2026-04-18T12:30:19.005Z</time></trkpt><trkpt lat="42.74364668409845" lon="10.235024020808506"><ele>1.8333333333333333</ele><time>2026-04-18T12:30:20.005Z</time></trkpt><trkpt lat="42.743720710603355" lon="10.23498242849389"><ele>2.0</ele><time>2026-04-18T12:30:21.005Z</time></trkpt><trkpt lat="42.74380309740447" lon="10.234945583345281"><ele>1.9999999999999998</ele><time>2026-04-18T12:30:22.005Z</time></trkpt><trkpt lat="42.743875250930984" lon="10.234928346214543"><ele>2.0</ele><time>2026-04-18T12:30:23.005Z</time></trkpt><trkpt lat="42.74394408878828" lon="10.234910376577378"><ele>2.0</ele><time>2026-04-18T12:30:24.005Z</time></trkpt><trkpt lat="42.744028440348785" lon="10.234887631921561"><ele>2.0</ele><time>2026-04-18T12:30:25.005Z</time></trkpt><trkpt lat="42.74412345114234" lon="10.234879899654732"><ele>1.9999999999999998</ele><time>2026-04-18T12:30:26.005Z</time></trkpt><trkpt lat="42.74420335853602" lon="10.23487616653479"><ele>2.0</ele><time>2026-04-18T12:30:27.005Z</time></trkpt><trkpt lat="42.74426869998986" lon="10.234876869496697"><ele>1.9999999999999998</ele><time>2026-04-18T12:30:28.005Z</time></trkpt><trkpt lat="42.74433542799234" lon="10.234880199640939"><ele>2.0</ele><time>2026-04-18T12:30:29.005Z</time></trkpt><trkpt lat="42.74445305036014" lon="10.234876338678646"><ele>2.0</ele><time>2026-04-18T12:30:31.005Z</time></trkpt><trkpt lat="42.74452715433351" lon="10.234863815493815"><ele>2.0</ele><time>2026-04-18T12:30:32.005Z</time></trkpt><trkpt lat="42.74460400261751" lon="10.234856397616213"><ele>1.9999999999999998</ele><time>2026-04-18T12:30:33.005Z</time></trkpt><trkpt lat="42.74467820857868" lon="10.234868322853323"><ele>2.0</ele><time>2026-04-18T12:30:34.005Z</time></trkpt><trkpt lat="42.74480846287227" lon="10.234878460805419"><ele>2.333333333333333</ele><time>2026-04-18T12:30:36.005Z</time></trkpt><trkpt lat="42.74488758602099" lon="10.234872312901741"><ele>2.6666666666666665</ele><time>2026-04-18T12:30:37.005Z</time></trkpt><trkpt lat="42.74497284889826" lon="10.234873337432443"><ele>3.0</ele><time>2026-04-18T12:30:38.005Z</time></trkpt><trkpt lat="42.74506856339142" lon="10.234877337715966"><ele>3.333333333333333</ele><time>2026-04-18T12:30:39.005Z</time></trkpt><trkpt lat="42.74516020599169" lon="10.234878750963157"><ele>3.6666666666666665</ele><time>2026-04-18T12:30:40.005Z</time></trkpt><trkpt lat="42.74524673187075" lon="10.234881957893585"><ele>4.0</ele><time>2026-04-18T12:30:41.005Z</time></trkpt><trkpt lat="42.745323026750846" lon="10.234902054098615"><ele>3.9999999999999996</ele><time>2026-04-18T12:30:42.005Z</time></trkpt><trkpt lat="42.74539353753938" lon="10.234928150018732"><ele>4.0</ele><time>2026-04-18T12:30:43.005Z</time></trkpt><trkpt lat="42.74545843537607" lon="10.23496003939846"><ele>4.0</ele><time>2026-04-18T12:30:44.005Z</time></trkpt><trkpt lat="42.745537727427504" lon="10.234988070503753"><ele>4.0</ele><time>2026-04-18T12:30:45.005Z</time></trkpt><trkpt lat="42.745605274978516" lon="10.235017334809134"><ele>3.9999999999999996</ele><time>2026-04-18T12:30:46.005Z</time></trkpt><trkpt lat="42.74570502914219" lon="10.235072510865765"><ele>4.0</ele><time>2026-04-18T12:30:48.005Z</time></trkpt><trkpt lat="42.7457972929096" lon="10.235128353712309"><ele>3.9999999999999996</ele><time>2026-04-18T12:30:50.005Z</time></trkpt><trkpt lat="42.74583453857495" lon="10.235029509297833"><ele>4.0</ele><time>2026-04-18T12:30:52.005Z</time></trkpt><trkpt lat="42.74586226903193" lon="10.234936431718605"><ele>4.0</ele><time>2026-04-18T12:30:54.005Z</time></trkpt><trkpt lat="42.7458693654855" lon="10.23477821162205"><ele>4.0</ele><time>2026-04-18T12:30:56.005Z</time></trkpt><trkpt lat="42.74588687587648" lon="10.234676133029918"><ele>3.9999999999999996</ele><time>2026-04-18T12:30:57.005Z</time></trkpt><trkpt lat="42.74587307737939" lon="10.234571011460595"><ele>4.0</ele><time>2026-04-18T12:30:58.005Z</time></trkpt><trkpt lat="42.745875128276076" lon="10.234475709860973"><ele>4.0</ele><time>2026-04-18T12:30:59.005Z</time></trkpt><trkpt lat="42.745878513165565" lon="10.234318419906401"><ele>4.0</ele><time>2026-04-18T12:31:01.005Z</time></trkpt><trkpt lat="42.74589614715933" lon="10.234184855814108"><ele>4.0</ele><time>2026-04-18T12:31:03.005Z</time></trkpt><trkpt lat="42.74589879413781" lon="10.234090375291979"><ele>4.0</ele><time>2026-04-18T12:31:08.005Z</time></trkpt><trkpt lat="42.74600360886531" lon="10.234047461387311"><ele>4.0</ele><time>2026-04-18T12:31:12.006Z</time></trkpt><trkpt lat="42.746117165734645" lon="10.233988622852344"><ele>4.0</ele><time>2026-04-18T12:31:14.006Z</time></trkpt><trkpt lat="42.746243332782484" lon="10.23399241961175"><ele>4.0</ele><time>2026-04-18T12:31:16.006Z</time></trkpt><trkpt lat="42.74631348422437" lon="10.23399911629229"><ele>4.0</ele><time>2026-04-18T12:31:17.006Z</time></trkpt><trkpt lat="42.74639292953999" lon="10.234004424495168"><ele>4.0</ele><time>2026-04-18T12:31:18.006Z</time></trkpt><trkpt lat="42.74647908481065" lon="10.23402553799845"><ele>4.0</ele><time>2026-04-18T12:31:19.006Z</time></trkpt><trkpt lat="42.74656460523867" lon="10.23410571608677"><ele>4.0</ele><time>2026-04-18T12:31:20.006Z</time></trkpt><trkpt lat="42.74664437860877" lon="10.234154887281143"><ele>4.0</ele><time>2026-04-18T12:31:21.006Z</time></trkpt><trkpt lat="42.74673564476283" lon="10.234202581491823"><ele>4.0</ele><time>2026-04-18T12:31:22.006Z</time></trkpt><trkpt lat="42.74682300032662" lon="10.234241364767074"><ele>4.0</ele><time>2026-04-18T12:31:23.006Z</time></trkpt><trkpt lat="42.746912446053024" lon="10.234287591331482"><ele>4.0</ele><time>2026-04-18T12:31:24.006Z</time></trkpt><trkpt lat="42.74700556462743" lon="10.23433232694703"><ele>3.8000000000000003</ele><time>2026-04-18T12:31:25.006Z</time></trkpt><trkpt lat="42.74709858997434" lon="10.234373200476451"><ele>3.6000000000000005</ele><time>2026-04-18T12:31:26.006Z</time></trkpt><trkpt lat="42.74718129895022" lon="10.234416413174328"><ele>3.4</ele><time>2026-04-18T12:31:27.006Z</time></trkpt><trkpt lat="42.74726351114546" lon="10.234461319577692"><ele>3.2</ele><time>2026-04-18T12:31:28.006Z</time></trkpt><trkpt lat="42.747342338232244" lon="10.234499858335356"><ele>3.0</ele><time>2026-04-18T12:31:29.006Z</time></trkpt><trkpt lat="42.747428445417505" lon="10.234544016651911"><ele>3.0</ele><time>2026-04-18T12:31:30.006Z</time></trkpt><trkpt lat="42.747518638388236" lon="10.234587491835086"><ele>3.0</ele><time>2026-04-18T12:31:31.006Z</time></trkpt><trkpt lat="42.74761248880073" lon="10.234635612628544"><ele>3.0</ele><time>2026-04-18T12:31:32.006Z</time></trkpt><trkpt lat="42.747706932574516" lon="10.234686844611296"><ele>3.0</ele><time>2026-04-18T12:31:33.006Z</time></trkpt><trkpt lat="42.74779673630695" lon="10.234741066242943"><ele>3.0</ele><time>2026-04-18T12:31:34.006Z</time></trkpt><trkpt lat="42.74788096559159" lon="10.23478959170448"><ele>3.2</ele><time>2026-04-18T12:31:35.006Z</time></trkpt><trkpt lat="42.74796457326515" lon="10.234837469835304"><ele>3.4</ele><time>2026-04-18T12:31:36.006Z</time></trkpt><trkpt lat="42.74805894406442" lon="10.234889461041114"><ele>3.6000000000000005</ele><time>2026-04-18T12:31:37.006Z</time></trkpt><trkpt lat="42.748154682563474" lon="10.234943334957476"><ele>3.8000000000000003</ele><time>2026-04-18T12:31:38.006Z</time></trkpt><trkpt lat="42.748253665116536" lon="10.234987893106162"><ele>4.0</ele><time>2026-04-18T12:31:39.006Z</time></trkpt><trkpt lat="42.74835132696069" lon="10.235034001510186"><ele>4.0</ele><time>2026-04-18T12:31:40.006Z</time></trkpt><trkpt lat="42.74845309957208" lon="10.23507966873723"><ele>4.0</ele><time>2026-04-18T12:31:41.006Z</time></trkpt><trkpt lat="42.748569270994196" lon="10.235083541778183"><ele>4.0</ele><time>2026-04-18T12:31:42.006Z</time></trkpt><trkpt lat="42.74869974795343" lon="10.235051949384875"><ele>4.0</ele><time>2026-04-18T12:31:43.006Z</time></trkpt><trkpt lat="42.74882352582497" lon="10.23500378523828"><ele>4.0</ele><time>2026-04-18T12:31:44.006Z</time></trkpt><trkpt lat="42.74894989044725" lon="10.234957880522998"><ele>4.0</ele><time>2026-04-18T12:31:45.006Z</time></trkpt><trkpt lat="42.749089252435596" lon="10.234917491672723"><ele>4.0</ele><time>2026-04-18T12:31:46.006Z</time></trkpt><trkpt lat="42.749227884580264" lon="10.234880584164488"><ele>4.0</ele><time>2026-04-18T12:31:47.006Z</time></trkpt><trkpt lat="42.749360691632525" lon="10.234848695728674"><ele>4.0</ele><time>2026-04-18T12:31:48.006Z</time></trkpt><trkpt lat="42.74948893966264" lon="10.234824358328254"><ele>4.0</ele><time>2026-04-18T12:31:49.006Z</time></trkpt><trkpt lat="42.74961808034069" lon="10.234782290578469"><ele>4.0</ele><time>2026-04-18T12:31:50.006Z</time></trkpt><trkpt lat="42.749748469176566" lon="10.234749691778957"><ele>4.0</ele><time>2026-04-18T12:31:51.006Z</time></trkpt><trkpt lat="42.749879787062525" lon="10.23470968586209"><ele>4.25</ele><time>2026-04-18T12:31:52.006Z</time></trkpt><trkpt lat="42.7500102418932" lon="10.23467203592966"><ele>4.5</ele><time>2026-04-18T12:31:53.006Z</time></trkpt><trkpt lat="42.750138379663355" lon="10.234647529687367"><ele>4.75</ele><time>2026-04-18T12:31:54.006Z</time></trkpt><trkpt lat="42.750267014665106" lon="10.234617250192185"><ele>5.0</ele><time>2026-04-18T12:31:55.006Z</time></trkpt><trkpt lat="42.75038621841271" lon="10.234580037287992"><ele>5.0</ele><time>2026-04-18T12:31:56.006Z</time></trkpt><trkpt lat="42.75050731951084" lon="10.23454186144896"><ele>5.0</ele><time>2026-04-18T12:31:57.006Z</time></trkpt><trkpt lat="42.7506240086874" lon="10.23452046373279"><ele>5.0</ele><time>2026-04-18T12:31:58.006Z</time></trkpt><trkpt lat="42.75074681437418" lon="10.23450742712537"><ele>5.0</ele><time>2026-04-18T12:31:59.006Z</time></trkpt><trkpt lat="42.750858085888936" lon="10.23450401306958"><ele>5.0</ele><time>2026-04-18T12:32:00.006Z</time></trkpt><trkpt lat="42.7509589312466" lon="10.23451436987763"><ele>5.0</ele><time>2026-04-18T12:32:01.006Z</time></trkpt><trkpt lat="42.751074032067066" lon="10.23452984644695"><ele>5.0</ele><time>2026-04-18T12:32:02.006Z</time></trkpt><trkpt lat="42.7511833554996" lon="10.234559930022872"><ele>5.0</ele><time>2026-04-18T12:32:03.006Z</time></trkpt><trkpt lat="42.75127509843402" lon="10.234583485951664"><ele>5.0</ele><time>2026-04-18T12:32:04.006Z</time></trkpt><trkpt lat="42.75136298739708" lon="10.234594983796093"><ele>4.6</ele><time>2026-04-18T12:32:05.006Z</time></trkpt><trkpt lat="42.75146638405473" lon="10.234615845801873"><ele>4.2</ele><time>2026-04-18T12:32:06.006Z</time></trkpt><trkpt lat="42.75158003734082" lon="10.234626491549289"><ele>3.8</ele><time>2026-04-18T12:32:07.006Z</time></trkpt><trkpt lat="42.75169145345591" lon="10.234642762341172"><ele>3.4</ele><time>2026-04-18T12:32:08.006Z</time></trkpt><trkpt lat="42.75178518753514" lon="10.234653586826006"><ele>3.0</ele><time>2026-04-18T12:32:09.006Z</time></trkpt><trkpt lat="42.75186036896947" lon="10.234665688883611"><ele>3.0</ele><time>2026-04-18T12:32:10.006Z</time></trkpt><trkpt lat="42.75192942439381" lon="10.234674393076086"><ele>3.0</ele><time>2026-04-18T12:32:11.005Z</time></trkpt><trkpt lat="42.75199379198005" lon="10.234691092562828"><ele>3.0</ele><time>2026-04-18T12:32:12.005Z</time></trkpt><trkpt lat="42.75209794624954" lon="10.234713777701822"><ele>3.0</ele><time>2026-04-18T12:32:14.005Z</time></trkpt><trkpt lat="42.752151281249844" lon="10.234783336642892"><ele>3.0</ele><time>2026-04-18T12:32:16.005Z</time></trkpt><trkpt lat="42.75214637324955" lon="10.234874720387937"><ele>3.0</ele><time>2026-04-18T12:32:18.005Z</time></trkpt><trkpt lat="42.75210574580028" lon="10.234975254683764"><ele>3.0</ele><time>2026-04-18T12:32:21.005Z</time></trkpt><trkpt lat="42.752227049503595" lon="10.234948616492504"><ele>3.0</ele><time>2026-04-18T12:32:22.005Z</time></trkpt><trkpt lat="42.75221153925636" lon="10.234857779653733"><ele>3.0</ele><time>2026-04-18T12:32:32.005Z</time></trkpt><trkpt lat="42.75221261316798" lon="10.234761843997845"><ele>3.0</ele><time>2026-04-18T12:36:30.005Z</time></trkpt><trkpt lat="42.75227707480327" lon="10.234768813585415"><ele>3.0</ele><time>2026-04-18T12:36:33.005Z</time></trkpt><trkpt lat="42.75235358158559" lon="10.23471357867565"><ele>3.0</ele><time>2026-04-18T12:36:37.005Z</time></trkpt><trkpt lat="42.75241776780207" lon="10.234724971695723"><ele>3.1666666666666665</ele><time>2026-04-18T12:36:39.005Z</time></trkpt><trkpt lat="42.7524945038148" lon="10.234742968097812"><ele>3.333333333333333</ele><time>2026-04-18T12:36:41.005Z</time></trkpt><trkpt lat="42.75258003040401" lon="10.23476832590597"><ele>3.5</ele><time>2026-04-18T12:36:43.005Z</time></trkpt><trkpt lat="42.75268954798129" lon="10.23479226087445"><ele>3.6666666666666665</ele><time>2026-04-18T12:36:45.005Z</time></trkpt><trkpt lat="42.75278560593742" lon="10.234805435529116"><ele>3.833333333333333</ele><time>2026-04-18T12:36:47.005Z</time></trkpt><trkpt lat="42.75284846270675" lon="10.234819330514515"><ele>4.0</ele><time>2026-04-18T12:36:48.005Z</time></trkpt><trkpt lat="42.75292146725218" lon="10.234834588337733"><ele>3.6666666666666665</ele><time>2026-04-18T12:36:49.005Z</time></trkpt><trkpt lat="42.75299716678684" lon="10.234857593166778"><ele>3.333333333333333</ele><time>2026-04-18T12:36:50.005Z</time></trkpt><trkpt lat="42.75308062501369" lon="10.23487744595706"><ele>3.0</ele><time>2026-04-18T12:36:51.005Z</time></trkpt><trkpt lat="42.753166317947965" lon="10.23489027536158"><ele>2.6666666666666665</ele><time>2026-04-18T12:36:52.005Z</time></trkpt><trkpt lat="42.75325990187212" lon="10.234910336968293"><ele>2.333333333333333</ele><time>2026-04-18T12:36:53.005Z</time></trkpt><trkpt lat="42.753358953343195" lon="10.234947244906019"><ele>2.0</ele><time>2026-04-18T12:36:54.005Z</time></trkpt><trkpt lat="42.753469795213725" lon="10.234992687359764"><ele>2.25</ele><time>2026-04-18T12:36:55.005Z</time></trkpt><trkpt lat="42.753576438013425" lon="10.235054584295842"><ele>2.5</ele><time>2026-04-18T12:36:56.005Z</time></trkpt><trkpt lat="42.7536850306704" lon="10.235133040741209"><ele>2.75</ele><time>2026-04-18T12:36:57.005Z</time></trkpt><trkpt lat="42.753793886877354" lon="10.235233506373834"><ele>3.0</ele><time>2026-04-18T12:36:58.005Z</time></trkpt><trkpt lat="42.753890140224314" lon="10.235348732375984"><ele>3.0</ele><time>2026-04-18T12:36:59.005Z</time></trkpt><trkpt lat="42.75395946409333" lon="10.23548724359783"><ele>3.0</ele><time>2026-04-18T12:37:00.005Z</time></trkpt><trkpt lat="42.75404195238911" lon="10.235597514914181"><ele>3.0</ele><time>2026-04-18T12:37:01.005Z</time></trkpt><trkpt lat="42.75408232831777" lon="10.235755709423534"><ele>3.0</ele><time>2026-04-18T12:37:02.005Z</time></trkpt><trkpt lat="42.754140672736305" lon="10.235913541709767"><ele>2.75</ele><time>2026-04-18T12:37:03.005Z</time></trkpt><trkpt lat="42.75420309853497" lon="10.236056589031055"><ele>2.5</ele><time>2026-04-18T12:37:04.005Z</time></trkpt><trkpt lat="42.75424499388485" lon="10.236197977255962"><ele>2.25</ele><time>2026-04-18T12:37:05.005Z</time></trkpt><trkpt lat="42.7542902215446" lon="10.236350781795785"><ele>2.0</ele><time>2026-04-18T12:37:06.005Z</time></trkpt><trkpt lat="42.7543385419987" lon="10.236492943919805"><ele>2.6</ele><time>2026-04-18T12:37:07.005Z</time></trkpt><trkpt lat="42.75438759632671" lon="10.236632367651257"><ele>3.2</ele><time>2026-04-18T12:37:08.005Z</time></trkpt><trkpt lat="42.75443332217693" lon="10.236764482557659"><ele>3.8</ele><time>2026-04-18T12:37:09.005Z</time></trkpt><trkpt lat="42.7544742581506" lon="10.236893432825118"><ele>4.4</ele><time>2026-04-18T12:37:10.005Z</time></trkpt><trkpt lat="42.754520653835385" lon="10.23701245779566"><ele>5.0</ele><time>2026-04-18T12:37:11.005Z</time></trkpt><trkpt lat="42.75456695779548" lon="10.237143199811307"><ele>5.0</ele><time>2026-04-18T12:37:12.005Z</time></trkpt><trkpt lat="42.754614001544184" lon="10.237267622541612"><ele>5.0</ele><time>2026-04-18T12:37:13.005Z</time></trkpt><trkpt lat="42.75465301445981" lon="10.237403248886665"><ele>5.0</ele><time>2026-04-18T12:37:14.005Z</time></trkpt><trkpt lat="42.75468937602117" lon="10.2375306210461"><ele>5.0</ele><time>2026-04-18T12:37:15.005Z</time></trkpt><trkpt lat="42.754726260991106" lon="10.237658556806839"><ele>5.0</ele><time>2026-04-18T12:37:16.005Z</time></trkpt><trkpt lat="42.75476006726051" lon="10.237787678763757"><ele>5.0</ele><time>2026-04-18T12:37:17.005Z</time></trkpt><trkpt lat="42.75478777909462" lon="10.237911014577847"><ele>5.0</ele><time>2026-04-18T12:37:18.005Z</time></trkpt><trkpt lat="42.754812220672285" lon="10.238025446266022"><ele>5.0</ele><time>2026-04-18T12:37:19.005Z</time></trkpt><trkpt lat="42.75480978104942" lon="10.238139290545075"><ele>5.0</ele><time>2026-04-18T12:37:20.005Z</time></trkpt><trkpt lat="42.7547874010617" lon="10.23825599581628"><ele>5.0</ele><time>2026-04-18T12:37:21.005Z</time></trkpt><trkpt lat="42.75474613909262" lon="10.238364089420438"><ele>5.0</ele><time>2026-04-18T12:37:22.005Z</time></trkpt><trkpt lat="42.75472102938205" lon="10.238467930366221"><ele>4.6</ele><time>2026-04-18T12:37:23.005Z</time></trkpt><trkpt lat="42.7547002902466" lon="10.238564590606654"><ele>4.2</ele><time>2026-04-18T12:37:24.005Z</time></trkpt><trkpt lat="42.75482725817972" lon="10.238706463563352"><ele>3.8</ele><time>2026-04-18T12:37:26.005Z</time></trkpt><trkpt lat="42.75491439500405" lon="10.238722093652015"><ele>3.4</ele><time>2026-04-18T12:37:27.005Z</time></trkpt><trkpt lat="42.75500740993084" lon="10.238741548944649"><ele>3.0</ele><time>2026-04-18T12:37:28.006Z</time></trkpt><trkpt lat="42.75509488544742" lon="10.238798386884264"><ele>3.0</ele><time>2026-04-18T12:37:29.006Z</time></trkpt><trkpt lat="42.755167946478466" lon="10.238906554087963"><ele>3.0</ele><time>2026-04-18T12:37:30.006Z</time></trkpt><trkpt lat="42.75524097233654" lon="10.239025533139346"><ele>3.0</ele><time>2026-04-18T12:37:31.006Z</time></trkpt><trkpt lat="42.75532846783015" lon="10.23915132586291"><ele>3.0</ele><time>2026-04-18T12:37:32.005Z</time></trkpt><trkpt lat="42.755419700095125" lon="10.23926723594805"><ele>2.0</ele><time>2026-04-18T12:37:33.005Z</time></trkpt><trkpt lat="42.75550946927275" lon="10.239378623402494"><ele>1.0</ele><time>2026-04-18T12:37:34.005Z</time></trkpt><trkpt lat="42.75560348290201" lon="10.239495610363617"><ele>0.0</ele><time>2026-04-18T12:37:35.005Z</time></trkpt><trkpt lat="42.75569417858007" lon="10.239616934520678"><ele>-1.0</ele><time>2026-04-18T12:37:36.006Z</time></trkpt><trkpt lat="42.75578475117339" lon="10.239729273219709"><ele>-0.5</ele><time>2026-04-18T12:37:37.006Z</time></trkpt><trkpt lat="42.755879418641015" lon="10.23981811810731"><ele>0.0</ele><time>2026-04-18T12:37:38.006Z</time></trkpt><trkpt lat="42.755970986385876" lon="10.239913852053792"><ele>0.5</ele><time>2026-04-18T12:37:39.006Z</time></trkpt><trkpt lat="42.75606938845302" lon="10.240003735454007"><ele>1.0</ele><time>2026-04-18T12:37:40.006Z</time></trkpt><trkpt lat="42.756150061266126" lon="10.240091233141708"><ele>1.0</ele><time>2026-04-18T12:37:41.006Z</time></trkpt><trkpt lat="42.7562169627465" lon="10.240191555825357"><ele>1.0</ele><time>2026-04-18T12:37:42.005Z</time></trkpt><trkpt lat="42.75624574977477" lon="10.240333861751706"><ele>1.0</ele><time>2026-04-18T12:37:43.005Z</time></trkpt><trkpt lat="42.756307802287" lon="10.240472111064227"><ele>1.0</ele><time>2026-04-18T12:37:44.005Z</time></trkpt><trkpt lat="42.75637891071695" lon="10.240599136868692"><ele>1.0</ele><time>2026-04-18T12:37:45.005Z</time></trkpt><trkpt lat="42.75643540412268" lon="10.240719801050135"><ele>0.9999999999999999</ele><time>2026-04-18T12:37:46.006Z</time></trkpt><trkpt lat="42.756502364865085" lon="10.240797286130743"><ele>1.0</ele><time>2026-04-18T12:37:47.006Z</time></trkpt><trkpt lat="42.75656842820635" lon="10.240836021731502"><ele>1.0</ele><time>2026-04-18T12:37:48.006Z</time></trkpt><trkpt lat="42.7566464239626" lon="10.24083224186195"><ele>1.0</ele><time>2026-04-18T12:37:49.006Z</time></trkpt><trkpt lat="42.75673493232817" lon="10.24080808647503"><ele>0.9999999999999999</ele><time>2026-04-18T12:37:50.006Z</time></trkpt><trkpt lat="42.75681668159875" lon="10.240745563311624"><ele>1.0</ele><time>2026-04-18T12:37:51.006Z</time></trkpt><trkpt lat="42.75690411593938" lon="10.240657467463812"><ele>1.5</ele><time>2026-04-18T12:37:52.006Z</time></trkpt><trkpt lat="42.7569992578566" lon="10.24058232880354"><ele>2.0</ele><time>2026-04-18T12:37:53.006Z</time></trkpt><trkpt lat="42.75710204812521" lon="10.240499657238821"><ele>2.5</ele><time>2026-04-18T12:37:54.006Z</time></trkpt><trkpt lat="42.757204317951" lon="10.240411696898054"><ele>3.0</ele><time>2026-04-18T12:37:55.006Z</time></trkpt><trkpt lat="42.75730989022942" lon="10.240325812563496"><ele>3.0</ele><time>2026-04-18T12:37:56.006Z</time></trkpt><trkpt lat="42.75742073040285" lon="10.240234752659255"><ele>3.0</ele><time>2026-04-18T12:37:57.006Z</time></trkpt><trkpt lat="42.757540854204976" lon="10.240139692298651"><ele>3.0</ele><time>2026-04-18T12:37:58.006Z</time></trkpt><trkpt lat="42.75766257856757" lon="10.240041071897817"><ele>3.0</ele><time>2026-04-18T12:37:59.006Z</time></trkpt><trkpt lat="42.757784975710116" lon="10.239944270567939"><ele>3.0</ele><time>2026-04-18T12:38:00.006Z</time></trkpt><trkpt lat="42.75789999555723" lon="10.23985003157978"><ele>3.0</ele><time>2026-04-18T12:38:01.006Z</time></trkpt><trkpt lat="42.758005070213336" lon="10.23974018646466"><ele>3.0</ele><time>2026-04-18T12:38:02.006Z</time></trkpt><trkpt lat="42.75811186463268" lon="10.239625556855609"><ele>3.0</ele><time>2026-04-18T12:38:03.006Z</time></trkpt><trkpt lat="42.758219126974204" lon="10.239501388371817"><ele>3.25</ele><time>2026-04-18T12:38:04.006Z</time></trkpt><trkpt lat="42.758330016319945" lon="10.239374395815759"><ele>3.5</ele><time>2026-04-18T12:38:05.006Z</time></trkpt><trkpt lat="42.7584325404041" lon="10.239249307394797"><ele>3.75</ele><time>2026-04-18T12:38:06.006Z</time></trkpt><trkpt lat="42.758524630421455" lon="10.239135265071502"><ele>4.0</ele><time>2026-04-18T12:38:07.006Z</time></trkpt><trkpt lat="42.7586102720479" lon="10.239032310925392"><ele>4.25</ele><time>2026-04-18T12:38:08.006Z</time></trkpt><trkpt lat="42.75870092122582" lon="10.238929351253912"><ele>4.5</ele><time>2026-04-18T12:38:09.006Z</time></trkpt><trkpt lat="42.758799995852044" lon="10.238834124505768"><ele>4.75</ele><time>2026-04-18T12:38:10.006Z</time></trkpt><trkpt lat="42.758908131138774" lon="10.238744020887614"><ele>5.0</ele><time>2026-04-18T12:38:11.006Z</time></trkpt><trkpt lat="42.759023915150706" lon="10.23866366026547"><ele>5.0</ele><time>2026-04-18T12:38:12.006Z</time></trkpt><trkpt lat="42.759151369544455" lon="10.238591292102104"><ele>5.0</ele><time>2026-04-18T12:38:13.006Z</time></trkpt><trkpt lat="42.75927822984584" lon="10.23852399035256"><ele>5.0</ele><time>2026-04-18T12:38:14.006Z</time></trkpt><trkpt lat="42.759385406078486" lon="10.238468029779145"><ele>5.0</ele><time>2026-04-18T12:38:15.006Z</time></trkpt><trkpt lat="42.759488670929535" lon="10.23842031476312"><ele>5.0</ele><time>2026-04-18T12:38:16.006Z</time></trkpt><trkpt lat="42.75958653936749" lon="10.238358643706343"><ele>5.0</ele><time>2026-04-18T12:38:17.006Z</time></trkpt><trkpt lat="42.75968622665433" lon="10.238301885109848"><ele>5.0</ele><time>2026-04-18T12:38:18.006Z</time></trkpt><trkpt lat="42.75978551672823" lon="10.238242045917751"><ele>5.0</ele><time>2026-04-18T12:38:19.006Z</time></trkpt><trkpt lat="42.759886153542155" lon="10.238179344063193"><ele>5.0</ele><time>2026-04-18T12:38:20.006Z</time></trkpt><trkpt lat="42.75999112160368" lon="10.23811315540523"><ele>4.75</ele><time>2026-04-18T12:38:21.006Z</time></trkpt><trkpt lat="42.76009822198609" lon="10.238056951568522"><ele>4.5</ele><time>2026-04-18T12:38:22.006Z</time></trkpt><trkpt lat="42.7602159204916" lon="10.238025954709585"><ele>4.25</ele><time>2026-04-18T12:38:23.006Z</time></trkpt><trkpt lat="42.76034181130856" lon="10.238021397440805"><ele>4.0</ele><time>2026-04-18T12:38:24.006Z</time></trkpt><trkpt lat="42.760459865860824" lon="10.238047331459297"><ele>4.25</ele><time>2026-04-18T12:38:25.006Z</time></trkpt><trkpt lat="42.760585780074216" lon="10.23808364727059"><ele>4.5</ele><time>2026-04-18T12:38:26.006Z</time></trkpt><trkpt lat="42.76071655170701" lon="10.238118097214462"><ele>4.75</ele><time>2026-04-18T12:38:27.006Z</time></trkpt><trkpt lat="42.76084185496174" lon="10.238150373666251"><ele>5.0</ele><time>2026-04-18T12:38:28.006Z</time></trkpt><trkpt lat="42.760972841385026" lon="10.238153751370039"><ele>5.25</ele><time>2026-04-18T12:38:29.006Z</time></trkpt><trkpt lat="42.76110212267344" lon="10.238134737905652"><ele>5.5</ele><time>2026-04-18T12:38:30.006Z</time></trkpt><trkpt lat="42.761227522702114" lon="10.238075906519066"><ele>5.75</ele><time>2026-04-18T12:38:31.006Z</time></trkpt><trkpt lat="42.76135269988583" lon="10.23798878304411"><ele>6.0</ele><time>2026-04-18T12:38:32.006Z</time></trkpt><trkpt lat="42.76147220399821" lon="10.237882080599595"><ele>6.0</ele><time>2026-04-18T12:38:33.006Z</time></trkpt><trkpt lat="42.76159507111264" lon="10.237781613253757"><ele>6.0</ele><time>2026-04-18T12:38:34.006Z</time></trkpt><trkpt lat="42.761711752870994" lon="10.237682657259631"><ele>6.0</ele><time>2026-04-18T12:38:35.006Z</time></trkpt><trkpt lat="42.7618276343832" lon="10.237585973778689"><ele>6.0</ele><time>2026-04-18T12:38:36.006Z</time></trkpt><trkpt lat="42.76194129290902" lon="10.237490629743634"><ele>6.5</ele><time>2026-04-18T12:38:37.006Z</time></trkpt><trkpt lat="42.76205172259835" lon="10.23739660976131"><ele>7.0</ele><time>2026-04-18T12:38:38.006Z</time></trkpt><trkpt lat="42.76216018336394" lon="10.23731081890275"><ele>7.5</ele><time>2026-04-18T12:38:39.006Z</time></trkpt><trkpt lat="42.76226433849774" lon="10.237221490078602"><ele>8.0</ele><time>2026-04-18T12:38:40.006Z</time></trkpt><trkpt lat="42.762363364960166" lon="10.237138023623974"><ele>8.0</ele><time>2026-04-18T12:38:41.006Z</time></trkpt><trkpt lat="42.76246340146122" lon="10.23704393939275"><ele>8.0</ele><time>2026-04-18T12:38:42.006Z</time></trkpt><trkpt lat="42.76255866784752" lon="10.236950087199443"><ele>8.0</ele><time>2026-04-18T12:38:43.006Z</time></trkpt><trkpt lat="42.76266461811549" lon="10.236854913803503"><ele>8.0</ele><time>2026-04-18T12:38:44.006Z</time></trkpt><trkpt lat="42.76277205297507" lon="10.236760708065832"><ele>8.0</ele><time>2026-04-18T12:38:45.006Z</time></trkpt><trkpt lat="42.76288861051896" lon="10.23666449939471"><ele>8.0</ele><time>2026-04-18T12:38:46.006Z</time></trkpt><trkpt lat="42.763005910849145" lon="10.236564383845446"><ele>8.0</ele><time>2026-04-18T12:38:47.006Z</time></trkpt><trkpt lat="42.763117296911936" lon="10.23646083508392"><ele>8.0</ele><time>2026-04-18T12:38:48.006Z</time></trkpt><trkpt lat="42.76323144836089" lon="10.236361572140295"><ele>8.0</ele><time>2026-04-18T12:38:49.006Z</time></trkpt><trkpt lat="42.76335024793136" lon="10.236259999007288"><ele>8.0</ele><time>2026-04-18T12:38:50.006Z</time></trkpt><trkpt lat="42.76346901713838" lon="10.236155650441441"><ele>8.0</ele><time>2026-04-18T12:38:51.006Z</time></trkpt><trkpt lat="42.76358030471204" lon="10.236056560126228"><ele>8.0</ele><time>2026-04-18T12:38:52.006Z</time></trkpt><trkpt lat="42.76368318758775" lon="10.235973687408524"><ele>8.0</ele><time>2026-04-18T12:38:53.006Z</time></trkpt><trkpt lat="42.76377739041179" lon="10.235896065265294"><ele>8.0</ele><time>2026-04-18T12:38:54.006Z</time></trkpt><trkpt lat="42.76386615166011" lon="10.235820731561908"><ele>8.0</ele><time>2026-04-18T12:38:55.006Z</time></trkpt><trkpt lat="42.76394201117032" lon="10.235752638022495"><ele>8.0</ele><time>2026-04-18T12:38:56.006Z</time></trkpt><trkpt lat="42.764007676815034" lon="10.2356888011661"><ele>8.0</ele><time>2026-04-18T12:38:57.006Z</time></trkpt><trkpt lat="42.764062555533606" lon="10.235627744862464"><ele>8.5</ele><time>2026-04-18T12:38:58.006Z</time></trkpt><trkpt lat="42.764139988107864" lon="10.2355196985893"><ele>9.0</ele><time>2026-04-18T12:39:00.006Z</time></trkpt><trkpt lat="42.7641652186844" lon="10.23543808568397"><ele>9.5</ele><time>2026-04-18T12:39:03.005Z</time></trkpt><trkpt lat="42.7641636644806" lon="10.2353485354525"><ele>10.0</ele><time>2026-04-18T12:39:05.005Z</time></trkpt><trkpt lat="42.764121539406354" lon="10.235236017328605"><ele>10.5</ele><time>2026-04-18T12:39:07.005Z</time></trkpt><trkpt lat="42.76405942233691" lon="10.235133169209288"><ele>11.0</ele><time>2026-04-18T12:39:08.005Z</time></trkpt><trkpt lat="42.76399333625182" lon="10.235040289698954"><ele>11.0</ele><time>2026-04-18T12:39:09.005Z</time></trkpt><trkpt lat="42.76395012510999" lon="10.234913205684528"><ele>11.0</ele><time>2026-04-18T12:39:10.005Z</time></trkpt><trkpt lat="42.763906423928496" lon="10.234768797794597"><ele>11.0</ele><time>2026-04-18T12:39:11.005Z</time></trkpt><trkpt lat="42.76385857129498" lon="10.234622744116182"><ele>11.0</ele><time>2026-04-18T12:39:12.005Z</time></trkpt><trkpt lat="42.76380132330424" lon="10.234506413358469"><ele>11.0</ele><time>2026-04-18T12:39:13.005Z</time></trkpt><trkpt lat="42.76375118969978" lon="10.234384330550599"><ele>11.0</ele><time>2026-04-18T12:39:14.005Z</time></trkpt><trkpt lat="42.763709031293025" lon="10.234275298222451"><ele>11.0</ele><time>2026-04-18T12:39:15.005Z</time></trkpt><trkpt lat="42.76363596358243" lon="10.234155582127084"><ele>11.0</ele><time>2026-04-18T12:39:16.005Z</time></trkpt><trkpt lat="42.763581997984275" lon="10.234016532302887"><ele>11.0</ele><time>2026-04-18T12:39:17.005Z</time></trkpt><trkpt lat="42.76353299472548" lon="10.233894141729166"><ele>11.0</ele><time>2026-04-18T12:39:18.005Z</time></trkpt><trkpt lat="42.76349131218519" lon="10.233781275174124"><ele>11.8</ele><time>2026-04-18T12:39:19.005Z</time></trkpt><trkpt lat="42.76343451122032" lon="10.233717789874008"><ele>12.600000000000001</ele><time>2026-04-18T12:39:20.005Z</time></trkpt><trkpt lat="42.76338198839234" lon="10.233668177064473"><ele>13.4</ele><time>2026-04-18T12:39:23.005Z</time></trkpt><trkpt lat="42.76335095376685" lon="10.233539531117108"><ele>14.2</ele><time>2026-04-18T12:39:26.005Z</time></trkpt><trkpt lat="42.76349350586451" lon="10.233409197304901"><ele>15.0</ele><time>2026-04-18T12:39:28.005Z</time></trkpt><trkpt lat="42.76349529620819" lon="10.233292037264144"><ele>15.0</ele><time>2026-04-18T12:39:29.005Z</time></trkpt><trkpt lat="42.7635089953786" lon="10.233175818089855"><ele>15.0</ele><time>2026-04-18T12:39:30.005Z</time></trkpt><trkpt lat="42.76354132467071" lon="10.233051363301767"><ele>15.0</ele><time>2026-04-18T12:39:31.005Z</time></trkpt><trkpt lat="42.76356213118729" lon="10.232906250943739"><ele>15.0</ele><time>2026-04-18T12:39:32.005Z</time></trkpt><trkpt lat="42.763575729965794" lon="10.23276289965729"><ele>15.0</ele><time>2026-04-18T12:39:33.005Z</time></trkpt><trkpt lat="42.76357813606983" lon="10.232619125434663"><ele>14.8</ele><time>2026-04-18T12:39:34.006Z</time></trkpt><trkpt lat="42.763599798983215" lon="10.232481946216183"><ele>14.6</ele><time>2026-04-18T12:39:35.006Z</time></trkpt><trkpt lat="42.76361696790755" lon="10.232345095082245"><ele>14.399999999999999</ele><time>2026-04-18T12:39:36.006Z</time></trkpt><trkpt lat="42.76362304025955" lon="10.232214566010123"><ele>14.2</ele><time>2026-04-18T12:39:37.006Z</time></trkpt><trkpt lat="42.763601834645875" lon="10.232067298416741"><ele>14.0</ele><time>2026-04-18T12:39:38.006Z</time></trkpt><trkpt lat="42.76356685523448" lon="10.231911764686886"><ele>17.5</ele><time>2026-04-18T12:39:39.006Z</time></trkpt><trkpt lat="42.76352392262917" lon="10.231758604687423"><ele>21.0</ele><time>2026-04-18T12:39:40.006Z</time></trkpt><trkpt lat="42.76347865845716" lon="10.231598601847093"><ele>24.5</ele><time>2026-04-18T12:39:41.006Z</time></trkpt><trkpt lat="42.76343619277281" lon="10.23143688486264"><ele>28.0</ele><time>2026-04-18T12:39:42.006Z</time></trkpt><trkpt lat="42.763405624439706" lon="10.231275627304392"><ele>29.2</ele><time>2026-04-18T12:39:43.006Z</time></trkpt><trkpt lat="42.76339987724266" lon="10.231126163730584"><ele>30.4</ele><time>2026-04-18T12:39:44.006Z</time></trkpt><trkpt lat="42.76345386928069" lon="10.231001562391443"><ele>31.599999999999998</ele><time>2026-04-18T12:39:45.006Z</time></trkpt><trkpt lat="42.763504714291216" lon="10.230878721226444"><ele>32.8</ele><time>2026-04-18T12:39:46.006Z</time></trkpt><trkpt lat="42.76354381974498" lon="10.230739233688782"><ele>34.0</ele><time>2026-04-18T12:39:47.006Z</time></trkpt><trkpt lat="42.76356605849276" lon="10.230583720320666"><ele>35.25</ele><time>2026-04-18T12:39:48.005Z</time></trkpt><trkpt lat="42.76356429137405" lon="10.230404660631065"><ele>36.5</ele><time>2026-04-18T12:39:49.005Z</time></trkpt><trkpt lat="42.763548702309066" lon="10.230224941325295"><ele>37.75</ele><time>2026-04-18T12:39:50.006Z</time></trkpt><trkpt lat="42.763527057464714" lon="10.230042594686921"><ele>39.0</ele><time>2026-04-18T12:39:51.006Z</time></trkpt><trkpt lat="42.763473946103986" lon="10.229865044211897"><ele>38.75</ele><time>2026-04-18T12:39:52.006Z</time></trkpt><trkpt lat="42.76343331065691" lon="10.229700418151738"><ele>38.5</ele><time>2026-04-18T12:39:53.006Z</time></trkpt><trkpt lat="42.76340278882049" lon="10.229517790238958"><ele>38.25</ele><time>2026-04-18T12:39:54.006Z</time></trkpt><trkpt lat="42.76335807778406" lon="10.229348424348412"><ele>38.0</ele><time>2026-04-18T12:39:55.006Z</time></trkpt><trkpt lat="42.763283882197655" lon="10.2291948541391"><ele>38.0</ele><time>2026-04-18T12:39:56.006Z</time></trkpt><trkpt lat="42.763184784267416" lon="10.229047350768168"><ele>38.0</ele><time>2026-04-18T12:39:57.006Z</time></trkpt><trkpt lat="42.76308428404628" lon="10.228903603409067"><ele>38.0</ele><time>2026-04-18T12:39:58.006Z</time></trkpt><trkpt lat="42.76298535786059" lon="10.228752533391145"><ele>38.0</ele><time>2026-04-18T12:39:59.006Z</time></trkpt><trkpt lat="42.76288469764292" lon="10.228617315995162"><ele>35.75</ele><time>2026-04-18T12:40:00.006Z</time></trkpt><trkpt lat="42.762771309170844" lon="10.2285070152115"><ele>33.5</ele><time>2026-04-18T12:40:01.006Z</time></trkpt><trkpt lat="42.76264729412799" lon="10.22839617971567"><ele>31.25</ele><time>2026-04-18T12:40:02.006Z</time></trkpt><trkpt lat="42.762520089937546" lon="10.228284454703331"><ele>29.0</ele><time>2026-04-18T12:40:03.006Z</time></trkpt><trkpt lat="42.762397683545764" lon="10.228153361748571"><ele>32.0</ele><time>2026-04-18T12:40:04.006Z</time></trkpt><trkpt lat="42.762282174951665" lon="10.228020953398557"><ele>35.0</ele><time>2026-04-18T12:40:05.006Z</time></trkpt><trkpt lat="42.76216212563188" lon="10.227895650146412"><ele>38.0</ele><time>2026-04-18T12:40:06.006Z</time></trkpt><trkpt lat="42.76203731567754" lon="10.22777494326934"><ele>38.0</ele><time>2026-04-18T12:40:07.006Z</time></trkpt><trkpt lat="42.761914208916544" lon="10.227654474320023"><ele>38.0</ele><time>2026-04-18T12:40:08.006Z</time></trkpt><trkpt lat="42.76179026602243" lon="10.22753624408596"><ele>38.0</ele><time>2026-04-18T12:40:09.006Z</time></trkpt><trkpt lat="42.761685177284576" lon="10.227400281015502"><ele>38.0</ele><time>2026-04-18T12:40:10.006Z</time></trkpt><trkpt lat="42.7615862466587" lon="10.227252132179938"><ele>42.666666666666664</ele><time>2026-04-18T12:40:11.006Z</time></trkpt><trkpt lat="42.7614948666487" lon="10.227087694616571"><ele>47.33333333333333</ele><time>2026-04-18T12:40:12.006Z</time></trkpt><trkpt lat="42.761400860918485" lon="10.22693602464767"><ele>52.0</ele><time>2026-04-18T12:40:13.006Z</time></trkpt><trkpt lat="42.76130937809903" lon="10.226765921090628"><ele>52.0</ele><time>2026-04-18T12:40:14.006Z</time></trkpt><trkpt lat="42.76121899403077" lon="10.226604902913746"><ele>52.0</ele><time>2026-04-18T12:40:15.006Z</time></trkpt><trkpt lat="42.76113798540984" lon="10.226435766645293"><ele>52.0</ele><time>2026-04-18T12:40:16.006Z</time></trkpt><trkpt lat="42.76105979758892" lon="10.22628458056133"><ele>52.0</ele><time>2026-04-18T12:40:17.006Z</time></trkpt><trkpt lat="42.76098365288324" lon="10.226126357435685"><ele>56.0</ele><time>2026-04-18T12:40:18.006Z</time></trkpt><trkpt lat="42.76091359991786" lon="10.225979552891046"><ele>60.0</ele><time>2026-04-18T12:40:19.006Z</time></trkpt><trkpt lat="42.760838699260304" lon="10.225827967760132"><ele>64.0</ele><time>2026-04-18T12:40:20.006Z</time></trkpt><trkpt lat="42.760762110444134" lon="10.225668077708669"><ele>68.0</ele><time>2026-04-18T12:40:21.006Z</time></trkpt><trkpt lat="42.760687245194504" lon="10.225514011162634"><ele>68.75</ele><time>2026-04-18T12:40:22.006Z</time></trkpt><trkpt lat="42.76061863065106" lon="10.22536082919099"><ele>69.5</ele><time>2026-04-18T12:40:23.006Z</time></trkpt><trkpt lat="42.76055526022153" lon="10.225214909529114"><ele>70.25</ele><time>2026-04-18T12:40:24.006Z</time></trkpt><trkpt lat="42.76050503839191" lon="10.22508553048606"><ele>71.0</ele><time>2026-04-18T12:40:25.005Z</time></trkpt><trkpt lat="42.76047964334132" lon="10.224954560751721"><ele>71.0</ele><time>2026-04-18T12:40:26.005Z</time></trkpt><trkpt lat="42.76047992556216" lon="10.224828986086314"><ele>71.0</ele><time>2026-04-18T12:40:27.005Z</time></trkpt><trkpt lat="42.760518404771524" lon="10.224730454369023"><ele>71.0</ele><time>2026-04-18T12:40:28.005Z</time></trkpt><trkpt lat="42.76060027926231" lon="10.224710206590172"><ele>71.0</ele><time>2026-04-18T12:40:29.005Z</time></trkpt><trkpt lat="42.76067866406203" lon="10.224740011307285"><ele>71.0</ele><time>2026-04-18T12:40:30.005Z</time></trkpt><trkpt lat="42.76077977496565" lon="10.224761219647954"><ele>71.0</ele><time>2026-04-18T12:40:31.005Z</time></trkpt><trkpt lat="42.760904371135894" lon="10.22475699209981"><ele>77.0</ele><time>2026-04-18T12:40:32.005Z</time></trkpt><trkpt lat="42.761040091123384" lon="10.22477518230509"><ele>83.0</ele><time>2026-04-18T12:40:33.005Z</time></trkpt><trkpt lat="42.761166652810935" lon="10.22476540945953"><ele>89.0</ele><time>2026-04-18T12:40:34.005Z</time></trkpt><trkpt lat="42.76129647616065" lon="10.224738904262502"><ele>95.0</ele><time>2026-04-18T12:40:35.005Z</time></trkpt><trkpt lat="42.76143405569535" lon="10.224730656222848"><ele>95.0</ele><time>2026-04-18T12:40:36.005Z</time></trkpt><trkpt lat="42.76157251171476" lon="10.22473266710597"><ele>95.0</ele><time>2026-04-18T12:40:37.005Z</time></trkpt><trkpt lat="42.761696696872924" lon="10.22475467714132"><ele>95.0</ele><time>2026-04-18T12:40:38.005Z</time></trkpt><trkpt lat="42.76182185188677" lon="10.22474574704452"><ele>95.0</ele><time>2026-04-18T12:40:39.005Z</time></trkpt><trkpt lat="42.761918698651534" lon="10.224626420633516"><ele>95.4</ele><time>2026-04-18T12:40:40.005Z</time></trkpt><trkpt lat="42.76203144451331" lon="10.224577061550352"><ele>95.8</ele><time>2026-04-18T12:40:41.005Z</time></trkpt><trkpt lat="42.76214322147635" lon="10.224546289231386"><ele>96.19999999999999</ele><time>2026-04-18T12:40:42.005Z</time></trkpt><trkpt lat="42.76220612480555" lon="10.224636205734718"><ele>96.6</ele><time>2026-04-18T12:40:43.005Z</time></trkpt><trkpt lat="42.762311921738515" lon="10.224713650253374"><ele>97.0</ele><time>2026-04-18T12:40:44.005Z</time></trkpt><trkpt lat="42.762435649935824" lon="10.224782569720713"><ele>95.0</ele><time>2026-04-18T12:40:45.005Z</time></trkpt><trkpt lat="42.762569881126545" lon="10.224814698445673"><ele>93.0</ele><time>2026-04-18T12:40:46.005Z</time></trkpt><trkpt lat="42.76271011723478" lon="10.224809459045774"><ele>91.0</ele><time>2026-04-18T12:40:47.005Z</time></trkpt><trkpt lat="42.76285084918319" lon="10.22482079905953"><ele>89.0</ele><time>2026-04-18T12:40:48.005Z</time></trkpt><trkpt lat="42.76298991600572" lon="10.224808989137447"><ele>89.0</ele><time>2026-04-18T12:40:49.005Z</time></trkpt><trkpt lat="42.76309966438006" lon="10.22480729514148"><ele>89.0</ele><time>2026-04-18T12:40:50.005Z</time></trkpt><trkpt lat="42.763176123417146" lon="10.224783412024761"><ele>89.0</ele><time>2026-04-18T12:40:51.005Z</time></trkpt><trkpt lat="42.76323017455254" lon="10.224731663998"><ele>89.0</ele><time>2026-04-18T12:40:52.005Z</time></trkpt><trkpt lat="42.76322240553231" lon="10.224632017529512"><ele>89.0</ele><time>2026-04-18T12:40:53.005Z</time></trkpt><trkpt lat="42.763093623074" lon="10.224565538554602"><ele>89.0</ele><time>2026-04-18T12:40:55.005Z</time></trkpt><trkpt lat="42.76301022566476" lon="10.224579251336962"><ele>89.0</ele><time>2026-04-18T12:40:56.005Z</time></trkpt><trkpt lat="42.762899640722104" lon="10.224602574509355"><ele>89.0</ele><time>2026-04-18T12:40:57.005Z</time></trkpt><trkpt lat="42.7627886160958" lon="10.224583413123957"><ele>89.0</ele><time>2026-04-18T12:40:58.005Z</time></trkpt><trkpt lat="42.762668608126354" lon="10.224538406491535"><ele>89.0</ele><time>2026-04-18T12:40:59.005Z</time></trkpt><trkpt lat="42.76254894976739" lon="10.224474710582708"><ele>91.0</ele><time>2026-04-18T12:41:00.005Z</time></trkpt><trkpt lat="42.762437067545434" lon="10.224385163026827"><ele>93.0</ele><time>2026-04-18T12:41:01.005Z</time></trkpt><trkpt lat="42.76232866383459" lon="10.224272776575225"><ele>95.0</ele><time>2026-04-18T12:41:02.005Z</time></trkpt><trkpt lat="42.76220831890334" lon="10.22416396106059"><ele>97.0</ele><time>2026-04-18T12:41:03.005Z</time></trkpt><trkpt lat="42.76206632694734" lon="10.224103454517932"><ele>97.0</ele><time>2026-04-18T12:41:04.005Z</time></trkpt><trkpt lat="42.76191641734456" lon="10.2240932706727"><ele>97.0</ele><time>2026-04-18T12:41:05.005Z</time></trkpt><trkpt lat="42.76177281658586" lon="10.224122638715428"><ele>97.0</ele><time>2026-04-18T12:41:06.005Z</time></trkpt><trkpt lat="42.76164732460051" lon="10.224141763683717"><ele>97.0</ele><time>2026-04-18T12:41:07.005Z</time></trkpt><trkpt lat="42.761545918258015" lon="10.224064285017077"><ele>96.5</ele><time>2026-04-18T12:41:08.005Z</time></trkpt><trkpt lat="42.76142830967204" lon="10.224028971473304"><ele>96.0</ele><time>2026-04-18T12:41:09.005Z</time></trkpt><trkpt lat="42.7613055766556" lon="10.22397587762708"><ele>95.5</ele><time>2026-04-18T12:41:10.005Z</time></trkpt><trkpt lat="42.76117672337877" lon="10.223922031314002"><ele>95.0</ele><time>2026-04-18T12:41:11.005Z</time></trkpt><trkpt lat="42.7610680841055" lon="10.223872475174936"><ele>97.0</ele><time>2026-04-18T12:41:12.005Z</time></trkpt><trkpt lat="42.76098870426553" lon="10.223825923466205"><ele>99.0</ele><time>2026-04-18T12:41:13.005Z</time></trkpt><trkpt lat="42.76094242045546" lon="10.223706428270646"><ele>101.0</ele><time>2026-04-18T12:41:15.005Z</time></trkpt><trkpt lat="42.76113871153114" lon="10.223786057531687"><ele>103.0</ele><time>2026-04-18T12:41:18.005Z</time></trkpt><trkpt lat="42.76123591221675" lon="10.223836012214147"><ele>106.5</ele><time>2026-04-18T12:41:19.005Z</time></trkpt><trkpt lat="42.76135500443601" lon="10.22384897692288"><ele>110.0</ele><time>2026-04-18T12:41:20.005Z</time></trkpt><trkpt lat="42.76149659005317" lon="10.22384515455209"><ele>113.5</ele><time>2026-04-18T12:41:21.005Z</time></trkpt><trkpt lat="42.761634838468645" lon="10.223832045547525"><ele>117.0</ele><time>2026-04-18T12:41:22.005Z</time></trkpt><trkpt lat="42.76178585889262" lon="10.223818658695754"><ele>118.33333333333334</ele><time>2026-04-18T12:41:23.005Z</time></trkpt><trkpt lat="42.76195196148556" lon="10.223803607611227"><ele>119.66666666666667</ele><time>2026-04-18T12:41:24.005Z</time></trkpt><trkpt lat="42.762126947232964" lon="10.223798540242353"><ele>121.0</ele><time>2026-04-18T12:41:25.005Z</time></trkpt><trkpt lat="42.76229432791506" lon="10.223808408188711"><ele>121.0</ele><time>2026-04-18T12:41:26.005Z</time></trkpt><trkpt lat="42.762464803914234" lon="10.223821143109676"><ele>121.0</ele><time>2026-04-18T12:41:27.005Z</time></trkpt><trkpt lat="42.76262265570175" lon="10.223828402365223"><ele>121.0</ele><time>2026-04-18T12:41:28.005Z</time></trkpt><trkpt lat="42.762760200115125" lon="10.223826480738698"><ele>117.5</ele><time>2026-04-18T12:41:29.005Z</time></trkpt><trkpt lat="42.76288385398062" lon="10.223797112510262"><ele>114.0</ele><time>2026-04-18T12:41:30.005Z</time></trkpt><trkpt lat="42.762973744952575" lon="10.223661169298904"><ele>110.5</ele><time>2026-04-18T12:41:31.005Z</time></trkpt><trkpt lat="42.763072796350464" lon="10.22356392294569"><ele>107.0</ele><time>2026-04-18T12:41:32.005Z</time></trkpt><trkpt lat="42.763141608530184" lon="10.2234814414079"><ele>107.0</ele><time>2026-04-18T12:41:33.005Z</time></trkpt><trkpt lat="42.76313978459651" lon="10.223348681609544"><ele>106.99999999999999</ele><time>2026-04-18T12:41:35.005Z</time></trkpt><trkpt lat="42.763070823071054" lon="10.22334176632464"><ele>106.99999999999999</ele><time>2026-04-18T12:41:37.005Z</time></trkpt><trkpt lat="42.76298174925526" lon="10.22335366279325"><ele>107.0</ele><time>2026-04-18T12:41:38.005Z</time></trkpt><trkpt lat="42.76289865962423" lon="10.22345015565896"><ele>107.0</ele><time>2026-04-18T12:41:39.005Z</time></trkpt><trkpt lat="42.76277827790626" lon="10.223468681152944"><ele>110.5</ele><time>2026-04-18T12:41:40.006Z</time></trkpt><trkpt lat="42.762643461282494" lon="10.223429673135277"><ele>114.0</ele><time>2026-04-18T12:41:41.006Z</time></trkpt><trkpt lat="42.76250750884311" lon="10.223378662870886"><ele>117.5</ele><time>2026-04-18T12:41:42.006Z</time></trkpt><trkpt lat="42.76237436296302" lon="10.223330712469357"><ele>121.0</ele><time>2026-04-18T12:41:43.006Z</time></trkpt><trkpt lat="42.7622239961233" lon="10.223257835756698"><ele>121.0</ele><time>2026-04-18T12:41:44.005Z</time></trkpt><trkpt lat="42.762061659276824" lon="10.223186760879235"><ele>121.0</ele><time>2026-04-18T12:41:45.005Z</time></trkpt><trkpt lat="42.76190419493515" lon="10.223132750190853"><ele>121.0</ele><time>2026-04-18T12:41:46.006Z</time></trkpt><trkpt lat="42.76177456390442" lon="10.22308765529812"><ele>122.0</ele><time>2026-04-18T12:41:47.006Z</time></trkpt><trkpt lat="42.76166577826237" lon="10.223042510905508"><ele>123.0</ele><time>2026-04-18T12:41:48.006Z</time></trkpt><trkpt lat="42.76160163578316" lon="10.222963248801884"><ele>124.0</ele><time>2026-04-18T12:41:49.006Z</time></trkpt><trkpt lat="42.76158528954932" lon="10.222873554596408"><ele>125.0</ele><time>2026-04-18T12:41:50.006Z</time></trkpt><trkpt lat="42.76167848934428" lon="10.22273668280791"><ele>126.0</ele><time>2026-04-18T12:41:52.006Z</time></trkpt><trkpt lat="42.76177532826083" lon="10.22269956166468"><ele>130.25</ele><time>2026-04-18T12:41:53.006Z</time></trkpt><trkpt lat="42.76187586406985" lon="10.222707306172303"><ele>134.5</ele><time>2026-04-18T12:41:54.006Z</time></trkpt><trkpt lat="42.76197408096022" lon="10.222736608304054"><ele>138.75</ele><time>2026-04-18T12:41:55.006Z</time></trkpt><trkpt lat="42.762098736409534" lon="10.222774182466804"><ele>143.0</ele><time>2026-04-18T12:41:56.006Z</time></trkpt><trkpt lat="42.76223422241189" lon="10.22281194942577"><ele>143.0</ele><time>2026-04-18T12:41:57.006Z</time></trkpt><trkpt lat="42.762359444416646" lon="10.222846588326334"><ele>143.0</ele><time>2026-04-18T12:41:58.005Z</time></trkpt><trkpt lat="42.7624915208441" lon="10.222888766965424"><ele>143.0</ele><time>2026-04-18T12:41:59.005Z</time></trkpt><trkpt lat="42.76261410872639" lon="10.222917892073394"><ele>143.0</ele><time>2026-04-18T12:42:00.005Z</time></trkpt><trkpt lat="42.76273111672598" lon="10.222908458279619"><ele>139.6</ele><time>2026-04-18T12:42:01.005Z</time></trkpt><trkpt lat="42.762824087282624" lon="10.222804011672938"><ele>136.20000000000002</ele><time>2026-04-18T12:42:02.005Z</time></trkpt><trkpt lat="42.76290213454616" lon="10.222710302566906"><ele>132.8</ele><time>2026-04-18T12:42:03.005Z</time></trkpt><trkpt lat="42.76293081952251" lon="10.222614729778826"><ele>129.4</ele><time>2026-04-18T12:42:04.005Z</time></trkpt><trkpt lat="42.76287268266544" lon="10.22254319663416"><ele>126.0</ele><time>2026-04-18T12:42:06.005Z</time></trkpt><trkpt lat="42.762792177258184" lon="10.222527891911382"><ele>129.4</ele><time>2026-04-18T12:42:07.005Z</time></trkpt><trkpt lat="42.76268977729826" lon="10.2225886782414"><ele>132.8</ele><time>2026-04-18T12:42:08.005Z</time></trkpt><trkpt lat="42.76261407113892" lon="10.22262525864873"><ele>136.20000000000002</ele><time>2026-04-18T12:42:09.005Z</time></trkpt><trkpt lat="42.76253014586196" lon="10.222557647482422"><ele>139.6</ele><time>2026-04-18T12:42:10.005Z</time></trkpt><trkpt lat="42.76243622075101" lon="10.22248355587702"><ele>143.0</ele><time>2026-04-18T12:42:11.005Z</time></trkpt><trkpt lat="42.76233600478992" lon="10.222398298847656"><ele>143.0</ele><time>2026-04-18T12:42:12.005Z</time></trkpt><trkpt lat="42.76224983351323" lon="10.222335912007175"><ele>143.0</ele><time>2026-04-18T12:42:13.005Z</time></trkpt><trkpt lat="42.76219208207429" lon="10.222279364085576"><ele>143.0</ele><time>2026-04-18T12:42:14.005Z</time></trkpt><trkpt lat="42.76224767199633" lon="10.222162888181751"><ele>143.0</ele><time>2026-04-18T12:42:16.005Z</time></trkpt><trkpt lat="42.76231897794731" lon="10.222201836833152"><ele>143.0</ele><time>2026-04-18T12:42:17.005Z</time></trkpt><trkpt lat="42.76240995374697" lon="10.222220679872681"><ele>143.0</ele><time>2026-04-18T12:42:18.005Z</time></trkpt><trkpt lat="42.76251207144584" lon="10.222269640905086"><ele>142.5</ele><time>2026-04-18T12:42:19.005Z</time></trkpt><trkpt lat="42.76263732371692" lon="10.222306314825754"><ele>142.0</ele><time>2026-04-18T12:42:20.005Z</time></trkpt><trkpt lat="42.76277293730612" lon="10.222311258358372"><ele>141.5</ele><time>2026-04-18T12:42:21.005Z</time></trkpt><trkpt lat="42.762883796330364" lon="10.222238133807165"><ele>141.0</ele><time>2026-04-18T12:42:22.005Z</time></trkpt><trkpt lat="42.76298099551964" lon="10.222155349888082"><ele>142.25</ele><time>2026-04-18T12:42:23.005Z</time></trkpt><trkpt lat="42.763047874431116" lon="10.222031013783202"><ele>143.5</ele><time>2026-04-18T12:42:24.005Z</time></trkpt><trkpt lat="42.76310371306532" lon="10.221885098358726"><ele>144.75</ele><time>2026-04-18T12:42:25.005Z</time></trkpt><trkpt lat="42.763145653950474" lon="10.221720844308393"><ele>146.0</ele><time>2026-04-18T12:42:26.005Z</time></trkpt><trkpt lat="42.763180197561205" lon="10.22154872612413"><ele>147.0</ele><time>2026-04-18T12:42:27.005Z</time></trkpt><trkpt lat="42.763216972176515" lon="10.221366809190176"><ele>148.0</ele><time>2026-04-18T12:42:28.005Z</time></trkpt><trkpt lat="42.763259307158286" lon="10.221174422139883"><ele>149.0</ele><time>2026-04-18T12:42:29.005Z</time></trkpt><trkpt lat="42.763301726890965" lon="10.22097536768466"><ele>150.0</ele><time>2026-04-18T12:42:30.005Z</time></trkpt><trkpt lat="42.76334973590498" lon="10.220761018593278"><ele>152.66666666666666</ele><time>2026-04-18T12:42:31.005Z</time></trkpt><trkpt lat="42.76339070188075" lon="10.220547943654859"><ele>155.33333333333331</ele><time>2026-04-18T12:42:32.005Z</time></trkpt><trkpt lat="42.76342923905278" lon="10.22033141145776"><ele>158.0</ele><time>2026-04-18T12:42:33.005Z</time></trkpt><trkpt lat="42.763473624819106" lon="10.220108762149946"><ele>158.0</ele><time>2026-04-18T12:42:34.005Z</time></trkpt><trkpt lat="42.76351378765025" lon="10.219889026753204"><ele>158.0</ele><time>2026-04-18T12:42:35.005Z</time></trkpt><trkpt lat="42.76355212698794" lon="10.21969533813311"><ele>158.0</ele><time>2026-04-18T12:42:36.005Z</time></trkpt><trkpt lat="42.76358685773553" lon="10.219517587156826"><ele>158.0</ele><time>2026-04-18T12:42:37.005Z</time></trkpt><trkpt lat="42.76362525491581" lon="10.219360320521599"><ele>157.5</ele><time>2026-04-18T12:42:38.005Z</time></trkpt><trkpt lat="42.7636593579319" lon="10.219205598100595"><ele>157.0</ele><time>2026-04-18T12:42:39.005Z</time></trkpt><trkpt lat="42.76369044177873" lon="10.219057388043735"><ele>156.5</ele><time>2026-04-18T12:42:40.005Z</time></trkpt><trkpt lat="42.763700003645674" lon="10.218896180134093"><ele>156.0</ele><time>2026-04-18T12:42:41.005Z</time></trkpt><trkpt lat="42.763685127580864" lon="10.218730302674148"><ele>157.25</ele><time>2026-04-18T12:42:42.005Z</time></trkpt><trkpt lat="42.763657163937125" lon="10.21856140102709"><ele>158.5</ele><time>2026-04-18T12:42:43.005Z</time></trkpt><trkpt lat="42.763611492824566" lon="10.218381042755624"><ele>159.75</ele><time>2026-04-18T12:42:44.005Z</time></trkpt><trkpt lat="42.763565382152116" lon="10.218196963505301"><ele>161.0</ele><time>2026-04-18T12:42:45.005Z</time></trkpt><trkpt lat="42.76352101830972" lon="10.2179962568022"><ele>163.25</ele><time>2026-04-18T12:42:46.005Z</time></trkpt><trkpt lat="42.76350277072167" lon="10.217805383677234"><ele>165.5</ele><time>2026-04-18T12:42:47.005Z</time></trkpt><trkpt lat="42.76350638446318" lon="10.217619382968039"><ele>167.75</ele><time>2026-04-18T12:42:48.005Z</time></trkpt><trkpt lat="42.76349563660644" lon="10.217434486116566"><ele>170.0</ele><time>2026-04-18T12:42:49.005Z</time></trkpt><trkpt lat="42.76348746826926" lon="10.217268788703233"><ele>172.0</ele><time>2026-04-18T12:42:50.005Z</time></trkpt><trkpt lat="42.76347677800172" lon="10.217103021921952"><ele>174.0</ele><time>2026-04-18T12:42:51.005Z</time></trkpt><trkpt lat="42.76348451804201" lon="10.216940237938376"><ele>176.0</ele><time>2026-04-18T12:42:52.005Z</time></trkpt><trkpt lat="42.76346143773935" lon="10.216800954078474"><ele>178.0</ele><time>2026-04-18T12:42:53.005Z</time></trkpt><trkpt lat="42.763547835602715" lon="10.216659496729864"><ele>180.0</ele><time>2026-04-18T12:42:54.005Z</time></trkpt><trkpt lat="42.763549657634336" lon="10.21650612655656"><ele>182.0</ele><time>2026-04-18T12:42:55.005Z</time></trkpt><trkpt lat="42.76353219249609" lon="10.21635296301881"><ele>184.0</ele><time>2026-04-18T12:42:56.005Z</time></trkpt><trkpt lat="42.76347303383538" lon="10.216201061169318"><ele>186.0</ele><time>2026-04-18T12:42:57.005Z</time></trkpt><trkpt lat="42.76347986576011" lon="10.216023601700886"><ele>186.0</ele><time>2026-04-18T12:42:58.005Z</time></trkpt><trkpt lat="42.76348455984322" lon="10.21584782756982"><ele>186.0</ele><time>2026-04-18T12:42:59.005Z</time></trkpt><trkpt lat="42.76349506269946" lon="10.21567471787176"><ele>186.0</ele><time>2026-04-18T12:43:00.005Z</time></trkpt><trkpt lat="42.76350983912014" lon="10.21550184080566"><ele>186.0</ele><time>2026-04-18T12:43:01.005Z</time></trkpt><trkpt lat="42.76352202590452" lon="10.21533925373906"><ele>186.66666666666666</ele><time>2026-04-18T12:43:02.005Z</time></trkpt><trkpt lat="42.76352771323364" lon="10.21518344610657"><ele>187.33333333333334</ele><time>2026-04-18T12:43:03.005Z</time></trkpt><trkpt lat="42.76352946421265" lon="10.215045979517312"><ele>188.0</ele><time>2026-04-18T12:43:04.005Z</time></trkpt><trkpt lat="42.76352788063267" lon="10.214926816554762"><ele>188.66666666666669</ele><time>2026-04-18T12:43:05.005Z</time></trkpt><trkpt lat="42.76353146649424" lon="10.214826415363058"><ele>189.33333333333334</ele><time>2026-04-18T12:43:06.005Z</time></trkpt><trkpt lat="42.76353962728387" lon="10.2147382093103"><ele>190.0</ele><time>2026-04-18T12:43:07.005Z</time></trkpt><trkpt lat="42.7635564180019" lon="10.214633437697078"><ele>191.33333333333334</ele><time>2026-04-18T12:43:08.005Z</time></trkpt><trkpt lat="42.76358613293415" lon="10.21452655792573"><ele>192.66666666666669</ele><time>2026-04-18T12:43:09.005Z</time></trkpt><trkpt lat="42.76362565266527" lon="10.214425375336457"><ele>194.0</ele><time>2026-04-18T12:43:10.005Z</time></trkpt><trkpt lat="42.763679239434644" lon="10.214315443242151"><ele>195.33333333333334</ele><time>2026-04-18T12:43:11.005Z</time></trkpt><trkpt lat="42.76369933219522" lon="10.21420668804804"><ele>196.66666666666666</ele><time>2026-04-18T12:43:12.005Z</time></trkpt><trkpt lat="42.763703681613066" lon="10.214114206035006"><ele>198.0</ele><time>2026-04-18T12:43:13.005Z</time></trkpt><trkpt lat="42.76373701432224" lon="10.213936725299263"><ele>198.0</ele><time>2026-04-18T12:43:15.005Z</time></trkpt><trkpt lat="42.763781803499924" lon="10.213850799266107"><ele>198.0</ele><time>2026-04-18T12:43:16.005Z</time></trkpt><trkpt lat="42.76381076784925" lon="10.213763254605256"><ele>198.0</ele><time>2026-04-18T12:43:17.005Z</time></trkpt><trkpt lat="42.7638454014385" lon="10.213652944049478"><ele>198.0</ele><time>2026-04-18T12:43:19.005Z</time></trkpt><trkpt lat="42.76393131026117" lon="10.213641305601314"><ele>198.0</ele><time>2026-04-18T12:43:25.005Z</time></trkpt><trkpt lat="42.76400042749178" lon="10.213672698355392"><ele>198.0</ele><time>2026-04-18T12:43:26.005Z</time></trkpt><trkpt lat="42.76407130276173" lon="10.213701446754982"><ele>198.0</ele><time>2026-04-18T12:43:27.005Z</time></trkpt><trkpt lat="42.764151312989455" lon="10.213726115396062"><ele>198.0</ele><time>2026-04-18T12:43:28.005Z</time></trkpt><trkpt lat="42.764227000234584" lon="10.213755128728506"><ele>198.0</ele><time>2026-04-18T12:43:29.005Z</time></trkpt><trkpt lat="42.76433503823223" lon="10.213809774898156"><ele>198.0</ele><time>2026-04-18T12:43:31.005Z</time></trkpt><trkpt lat="42.76440172886215" lon="10.213799559634321"><ele>198.0</ele><time>2026-04-18T12:43:32.005Z</time></trkpt><trkpt lat="42.76446914091057" lon="10.213747021049274"><ele>198.0</ele><time>2026-04-18T12:43:33.005Z</time></trkpt><trkpt lat="42.764536976512005" lon="10.213692605544333"><ele>197.75</ele><time>2026-04-18T12:43:34.005Z</time></trkpt><trkpt lat="42.764606471150714" lon="10.213610826940771"><ele>197.5</ele><time>2026-04-18T12:43:35.005Z</time></trkpt><trkpt lat="42.764702015526396" lon="10.213516216897624"><ele>197.25</ele><time>2026-04-18T12:43:36.005Z</time></trkpt><trkpt lat="42.764791642940715" lon="10.213427181111786"><ele>197.0</ele><time>2026-04-18T12:43:37.005Z</time></trkpt><trkpt lat="42.76490087502815" lon="10.213332234956713"><ele>197.0</ele><time>2026-04-18T12:43:38.005Z</time></trkpt><trkpt lat="42.76501585268367" lon="10.213238139441682"><ele>197.0</ele><time>2026-04-18T12:43:39.005Z</time></trkpt><trkpt lat="42.76512920251505" lon="10.21314085527364"><ele>197.0</ele><time>2026-04-18T12:43:40.005Z</time></trkpt><trkpt lat="42.76524196176642" lon="10.213045649745753"><ele>197.0</ele><time>2026-04-18T12:43:41.005Z</time></trkpt><trkpt lat="42.76535676988886" lon="10.212939112681072"><ele>198.0</ele><time>2026-04-18T12:43:42.005Z</time></trkpt><trkpt lat="42.765461000966944" lon="10.212835326704216"><ele>199.0</ele><time>2026-04-18T12:43:43.005Z</time></trkpt><trkpt lat="42.76554297416117" lon="10.212744853642521"><ele>200.0</ele><time>2026-04-18T12:43:44.005Z</time></trkpt><trkpt lat="42.7656313335214" lon="10.212685733574027"><ele>201.0</ele><time>2026-04-18T12:43:45.005Z</time></trkpt><trkpt lat="42.76570295176152" lon="10.212653140089637"><ele>202.0</ele><time>2026-04-18T12:43:46.006Z</time></trkpt><trkpt lat="42.76579072396843" lon="10.212619343307132"><ele>202.0</ele><time>2026-04-18T12:43:47.006Z</time></trkpt><trkpt lat="42.76587439839463" lon="10.212559279541628"><ele>202.0</ele><time>2026-04-18T12:43:48.006Z</time></trkpt><trkpt lat="42.76594292163521" lon="10.21250013135909"><ele>202.0</ele><time>2026-04-18T12:43:49.006Z</time></trkpt><trkpt lat="42.766016154095766" lon="10.21239695778353"><ele>202.0</ele><time>2026-04-18T12:43:50.006Z</time></trkpt><trkpt lat="42.76610850082257" lon="10.212305399612687"><ele>202.0</ele><time>2026-04-18T12:43:51.006Z</time></trkpt><trkpt lat="42.766198395388706" lon="10.212245883174733"><ele>203.8</ele><time>2026-04-18T12:43:52.006Z</time></trkpt><trkpt lat="42.76630585776977" lon="10.21221311333343"><ele>205.6</ele><time>2026-04-18T12:43:53.006Z</time></trkpt><trkpt lat="42.76641110512898" lon="10.212162158863382"><ele>207.4</ele><time>2026-04-18T12:43:54.006Z</time></trkpt><trkpt lat="42.7664989618288" lon="10.212107638155368"><ele>209.20000000000002</ele><time>2026-04-18T12:43:55.006Z</time></trkpt><trkpt lat="42.76655826174504" lon="10.212048713963922"><ele>211.0</ele><time>2026-04-18T12:43:56.006Z</time></trkpt><trkpt lat="42.766608082249896" lon="10.211976694275053"><ele>210.99999999999997</ele><time>2026-04-18T12:43:57.006Z</time></trkpt><trkpt lat="42.766668356480785" lon="10.211944773177619"><ele>211.0</ele><time>2026-04-18T12:43:58.006Z</time></trkpt><trkpt lat="42.76675025565567" lon="10.211979677663434"><ele>211.0</ele><time>2026-04-18T12:43:59.006Z</time></trkpt><trkpt lat="42.76684164509104" lon="10.212003251158666"><ele>211.0</ele><time>2026-04-18T12:44:00.005Z</time></trkpt><trkpt lat="42.76691015134313" lon="10.212035044292003"><ele>210.99999999999997</ele><time>2026-04-18T12:44:01.005Z</time></trkpt><trkpt lat="42.76698556213889" lon="10.212177028610816"><ele>211.0</ele><time>2026-04-18T12:44:03.006Z</time></trkpt><trkpt lat="42.767049490285025" lon="10.212283502236541"><ele>210.75</ele><time>2026-04-18T12:44:04.006Z</time></trkpt><trkpt lat="42.767129306748565" lon="10.212411043946231"><ele>210.5</ele><time>2026-04-18T12:44:05.006Z</time></trkpt><trkpt lat="42.76720764657852" lon="10.212547754717342"><ele>210.25</ele><time>2026-04-18T12:44:06.006Z</time></trkpt><trkpt lat="42.76729053422569" lon="10.212707399085119"><ele>210.0</ele><time>2026-04-18T12:44:07.006Z</time></trkpt><trkpt lat="42.76736314047834" lon="10.212851371960863"><ele>210.0</ele><time>2026-04-18T12:44:08.006Z</time></trkpt><trkpt lat="42.7674422328483" lon="10.212968208361334"><ele>210.0</ele><time>2026-04-18T12:44:09.006Z</time></trkpt><trkpt lat="42.76750537890508" lon="10.213122471345693"><ele>210.0</ele><time>2026-04-18T12:44:10.006Z</time></trkpt><trkpt lat="42.76756312813685" lon="10.21326036032578"><ele>210.0</ele><time>2026-04-18T12:44:11.006Z</time></trkpt><trkpt lat="42.76762033839887" lon="10.213389501965487"><ele>208.0</ele><time>2026-04-18T12:44:12.006Z</time></trkpt><trkpt lat="42.767671782464575" lon="10.21350420055637"><ele>206.0</ele><time>2026-04-18T12:44:13.006Z</time></trkpt><trkpt lat="42.76774621503441" lon="10.213599273066079"><ele>204.0</ele><time>2026-04-18T12:44:14.006Z</time></trkpt><trkpt lat="42.76783594525492" lon="10.213586814219138"><ele>202.0</ele><time>2026-04-18T12:44:15.006Z</time></trkpt><trkpt lat="42.76791792789086" lon="10.21358017497098"><ele>200.0</ele><time>2026-04-18T12:44:16.006Z</time></trkpt><trkpt lat="42.7679863867266" lon="10.213521535085151"><ele>200.0</ele><time>2026-04-18T12:44:17.006Z</time></trkpt><trkpt lat="42.76808973962613" lon="10.213444141314636"><ele>200.0</ele><time>2026-04-18T12:44:18.006Z</time></trkpt><trkpt lat="42.76821879851063" lon="10.213388533421343"><ele>200.0</ele><time>2026-04-18T12:44:19.006Z</time></trkpt><trkpt lat="42.768341424704424" lon="10.213314643563178"><ele>200.0</ele><time>2026-04-18T12:44:20.006Z</time></trkpt><trkpt lat="42.768472655633104" lon="10.213250121364283"><ele>201.0</ele><time>2026-04-18T12:44:21.006Z</time></trkpt><trkpt lat="42.768580596789064" lon="10.213191674062239"><ele>202.0</ele><time>2026-04-18T12:44:22.006Z</time></trkpt><trkpt lat="42.768671223791735" lon="10.213113794191468"><ele>203.0</ele><time>2026-04-18T12:44:23.006Z</time></trkpt><trkpt lat="42.76878396508418" lon="10.213055554908824"><ele>204.0</ele><time>2026-04-18T12:44:24.006Z</time></trkpt><trkpt lat="42.7689235127318" lon="10.213068111955504"><ele>204.0</ele><time>2026-04-18T12:44:25.006Z</time></trkpt><trkpt lat="42.76900985374517" lon="10.213109523869782"><ele>204.0</ele><time>2026-04-18T12:44:26.006Z</time></trkpt><trkpt lat="42.76906446980874" lon="10.213229063192438"><ele>204.0</ele><time>2026-04-18T12:44:27.006Z</time></trkpt><trkpt lat="42.76913509539116" lon="10.213341380937392"><ele>204.0</ele><time>2026-04-18T12:44:28.006Z</time></trkpt><trkpt lat="42.7692222146235" lon="10.213412155218617"><ele>204.0</ele><time>2026-04-18T12:44:29.006Z</time></trkpt><trkpt lat="42.76929113715217" lon="10.213456238023332"><ele>205.5</ele><time>2026-04-18T12:44:30.006Z</time></trkpt><trkpt lat="42.76936682828423" lon="10.21346446790667"><ele>207.0</ele><time>2026-04-18T12:44:31.006Z</time></trkpt><trkpt lat="42.769432769817" lon="10.213379666722597"><ele>208.5</ele><time>2026-04-18T12:44:32.006Z</time></trkpt><trkpt lat="42.76952320774872" lon="10.213324107521334"><ele>210.0</ele><time>2026-04-18T12:44:33.006Z</time></trkpt><trkpt lat="42.769624449309205" lon="10.213296458790525"><ele>211.5</ele><time>2026-04-18T12:44:34.006Z</time></trkpt><trkpt lat="42.76969804276752" lon="10.213279784284556"><ele>213.0</ele><time>2026-04-18T12:44:35.006Z</time></trkpt><trkpt lat="42.769755663446716" lon="10.213358132158547"><ele>213.0</ele><time>2026-04-18T12:44:37.006Z</time></trkpt><trkpt lat="42.769724393464045" lon="10.213450119085245"><ele>213.0</ele><time>2026-04-18T12:44:38.006Z</time></trkpt><trkpt lat="42.769689921465485" lon="10.21354720961333"><ele>213.0</ele><time>2026-04-18T12:44:39.006Z</time></trkpt><trkpt lat="42.76967765610094" lon="10.21368298533109"><ele>213.0</ele><time>2026-04-18T12:44:40.006Z</time></trkpt><trkpt lat="42.76968164998291" lon="10.213807411802197"><ele>213.0</ele><time>2026-04-18T12:44:41.006Z</time></trkpt><trkpt lat="42.7696974120789" lon="10.213919870156412"><ele>213.0</ele><time>2026-04-18T12:44:42.006Z</time></trkpt><trkpt lat="42.76976799568626" lon="10.214032158411634"><ele>213.0</ele><time>2026-04-18T12:44:43.006Z</time></trkpt><trkpt lat="42.76986744566102" lon="10.214106377482421"><ele>213.0</ele><time>2026-04-18T12:44:44.006Z</time></trkpt><trkpt lat="42.76999143704966" lon="10.214204453155487"><ele>213.0</ele><time>2026-04-18T12:44:45.006Z</time></trkpt><trkpt lat="42.770107476805805" lon="10.214291030450365"><ele>213.0</ele><time>2026-04-18T12:44:46.006Z</time></trkpt><trkpt lat="42.77021141125184" lon="10.214316878453488"><ele>213.0</ele><time>2026-04-18T12:44:47.006Z</time></trkpt><trkpt lat="42.7703250970746" lon="10.214251336806932"><ele>213.0</ele><time>2026-04-18T12:44:48.006Z</time></trkpt><trkpt lat="42.77047350413111" lon="10.214210060725232"><ele>213.0</ele><time>2026-04-18T12:44:49.006Z</time></trkpt><trkpt lat="42.770599448541184" lon="10.214184255080403"><ele>213.0</ele><time>2026-04-18T12:44:50.006Z</time></trkpt><trkpt lat="42.77069956982431" lon="10.214152074703884"><ele>213.0</ele><time>2026-04-18T12:44:51.006Z</time></trkpt><trkpt lat="42.77078608314243" lon="10.214156447032954"><ele>213.0</ele><time>2026-04-18T12:44:52.006Z</time></trkpt><trkpt lat="42.77085634210458" lon="10.21414956223746"><ele>213.0</ele><time>2026-04-18T12:44:53.006Z</time></trkpt><trkpt lat="42.77092940088145" lon="10.214330882598436"><ele>213.0</ele><time>2026-04-18T12:44:55.006Z</time></trkpt><trkpt lat="42.77101271437516" lon="10.214450272331602"><ele>213.0</ele><time>2026-04-18T12:44:56.006Z</time></trkpt><trkpt lat="42.77107555441743" lon="10.214533286514557"><ele>214.16666666666666</ele><time>2026-04-18T12:44:57.006Z</time></trkpt><trkpt lat="42.771169066037764" lon="10.214568352956826"><ele>215.33333333333331</ele><time>2026-04-18T12:44:58.006Z</time></trkpt><trkpt lat="42.771254724128205" lon="10.214574815841223"><ele>216.5</ele><time>2026-04-18T12:44:59.006Z</time></trkpt><trkpt lat="42.7713311936434" lon="10.214544357945757"><ele>217.66666666666666</ele><time>2026-04-18T12:45:00.006Z</time></trkpt><trkpt lat="42.771406621156665" lon="10.214552097079773"><ele>218.83333333333331</ele><time>2026-04-18T12:45:01.006Z</time></trkpt><trkpt lat="42.77150087127088" lon="10.214554564132026"><ele>220.0</ele><time>2026-04-18T12:45:02.006Z</time></trkpt><trkpt lat="42.77159718521018" lon="10.214303302963977"><ele>219.99999999999997</ele><time>2026-04-18T12:45:03.006Z</time></trkpt><trkpt lat="42.771683655290175" lon="10.21428976936699"><ele>220.0</ele><time>2026-04-18T12:45:04.006Z</time></trkpt><trkpt lat="42.771751034081746" lon="10.214323895052205"><ele>220.0</ele><time>2026-04-18T12:45:05.006Z</time></trkpt><trkpt lat="42.77182981042776" lon="10.214391566709862"><ele>220.0</ele><time>2026-04-18T12:45:06.006Z</time></trkpt><trkpt lat="42.77189102367608" lon="10.214435507946972"><ele>219.99999999999997</ele><time>2026-04-18T12:45:07.006Z</time></trkpt><trkpt lat="42.77198643608628" lon="10.214381033377435"><ele>220.0</ele><time>2026-04-18T12:45:08.006Z</time></trkpt><trkpt lat="42.772082645724076" lon="10.21431782733829"><ele>221.16666666666666</ele><time>2026-04-18T12:45:09.006Z</time></trkpt><trkpt lat="42.77216404264787" lon="10.214310067141446"><ele>222.33333333333331</ele><time>2026-04-18T12:45:10.006Z</time></trkpt><trkpt lat="42.77222649906674" lon="10.214323766110667"><ele>223.5</ele><time>2026-04-18T12:45:11.006Z</time></trkpt><trkpt lat="42.77228717515632" lon="10.21444924477426"><ele>224.66666666666669</ele><time>2026-04-18T12:45:12.006Z</time></trkpt><trkpt lat="42.772371388023146" lon="10.214529540724735"><ele>225.83333333333334</ele><time>2026-04-18T12:45:13.006Z</time></trkpt><trkpt lat="42.77243447371295" lon="10.214597425794246"><ele>227.0</ele><time>2026-04-18T12:45:14.006Z</time></trkpt><trkpt lat="42.772456814979456" lon="10.214716376823878"><ele>225.25</ele><time>2026-04-18T12:45:16.006Z</time></trkpt><trkpt lat="42.77237385091237" lon="10.214898143953768"><ele>223.5</ele><time>2026-04-18T12:45:18.006Z</time></trkpt><trkpt lat="42.772351615020554" lon="10.21503326886629"><ele>221.75</ele><time>2026-04-18T12:45:19.006Z</time></trkpt><trkpt lat="42.772365874336096" lon="10.215135956980742"><ele>220.0</ele><time>2026-04-18T12:45:20.006Z</time></trkpt><trkpt lat="42.77246012958004" lon="10.215247213643453"><ele>219.99999999999997</ele><time>2026-04-18T12:45:21.006Z</time></trkpt><trkpt lat="42.772530339368856" lon="10.21533918024131"><ele>220.0</ele><time>2026-04-18T12:45:22.006Z</time></trkpt><trkpt lat="42.77254526568289" lon="10.215428751353686"><ele>220.0</ele><time>2026-04-18T12:45:23.006Z</time></trkpt><trkpt lat="42.77250143619556" lon="10.215506028814238"><ele>220.0</ele><time>2026-04-18T12:45:24.006Z</time></trkpt><trkpt lat="42.77244098365951" lon="10.215539871712386"><ele>219.99999999999997</ele><time>2026-04-18T12:45:25.006Z</time></trkpt><trkpt lat="42.77234596079904" lon="10.21559318073849"><ele>220.0</ele><time>2026-04-18T12:45:26.006Z</time></trkpt><trkpt lat="42.77227047450176" lon="10.21571847781326"><ele>220.0</ele><time>2026-04-18T12:45:27.006Z</time></trkpt><trkpt lat="42.77221447606646" lon="10.21586757197419"><ele>220.0</ele><time>2026-04-18T12:45:28.006Z</time></trkpt><trkpt lat="42.77220438240037" lon="10.216050437042133"><ele>220.0</ele><time>2026-04-18T12:45:29.006Z</time></trkpt><trkpt lat="42.77220666804336" lon="10.21621183452295"><ele>220.0</ele><time>2026-04-18T12:45:30.006Z</time></trkpt><trkpt lat="42.77225333604357" lon="10.216369186209707"><ele>219.99999999999997</ele><time>2026-04-18T12:45:31.006Z</time></trkpt><trkpt lat="42.77228957633897" lon="10.216479882623792"><ele>220.0</ele><time>2026-04-18T12:45:32.006Z</time></trkpt><trkpt lat="42.77229871956814" lon="10.21660039457719"><ele>220.0</ele><time>2026-04-18T12:45:34.006Z</time></trkpt><trkpt lat="42.77234223852067" lon="10.216694401118723"><ele>220.0</ele><time>2026-04-18T12:45:37.005Z</time></trkpt><trkpt lat="42.772390034567756" lon="10.216771045528702"><ele>219.99999999999997</ele><time>2026-04-18T12:45:40.005Z</time></trkpt><trkpt lat="42.77243339521413" lon="10.216837934680917"><ele>220.0</ele><time>2026-04-18T12:45:44.005Z</time></trkpt><trkpt lat="42.77248494172446" lon="10.216907783159979"><ele>220.16666666666666</ele><time>2026-04-18T12:45:55.006Z</time></trkpt><trkpt lat="42.77257585277892" lon="10.217008000408285"><ele>220.33333333333331</ele><time>2026-04-18T12:45:57.006Z</time></trkpt><trkpt lat="42.77263806095878" lon="10.217082720404367"><ele>220.5</ele><time>2026-04-18T12:45:58.006Z</time></trkpt><trkpt lat="42.77270543378961" lon="10.217152281580415"><ele>220.66666666666669</ele><time>2026-04-18T12:45:59.006Z</time></trkpt><trkpt lat="42.77275762623314" lon="10.217211124156083"><ele>220.83333333333334</ele><time>2026-04-18T12:46:00.006Z</time></trkpt><trkpt lat="42.77281609619958" lon="10.217299641023997"><ele>221.0</ele><time>2026-04-18T12:46:01.006Z</time></trkpt><trkpt lat="42.772886788721756" lon="10.217414620537443"><ele>219.8</ele><time>2026-04-18T12:46:02.006Z</time></trkpt><trkpt lat="42.77294620029081" lon="10.217530291698829"><ele>218.60000000000002</ele><time>2026-04-18T12:46:03.006Z</time></trkpt><trkpt lat="42.773050874901756" lon="10.217571392795113"><ele>217.4</ele><time>2026-04-18T12:46:04.006Z</time></trkpt><trkpt lat="42.7731525461868" lon="10.217591045633267"><ele>216.2</ele><time>2026-04-18T12:46:05.006Z</time></trkpt><trkpt lat="42.77326502556581" lon="10.21755491414387"><ele>215.0</ele><time>2026-04-18T12:46:06.006Z</time></trkpt><trkpt lat="42.773382689485" lon="10.217492306172506"><ele>215.0</ele><time>2026-04-18T12:46:07.006Z</time></trkpt><trkpt lat="42.77345458690503" lon="10.21738485652309"><ele>215.0</ele><time>2026-04-18T12:46:08.006Z</time></trkpt><trkpt lat="42.773510516691125" lon="10.217305727158797"><ele>215.0</ele><time>2026-04-18T12:46:09.006Z</time></trkpt><trkpt lat="42.77355084550665" lon="10.217178779040074"><ele>215.0</ele><time>2026-04-18T12:46:10.006Z</time></trkpt><trkpt lat="42.77360305018294" lon="10.217037645858698"><ele>215.0</ele><time>2026-04-18T12:46:11.006Z</time></trkpt><trkpt lat="42.773642521253166" lon="10.216950268801561"><ele>217.6</ele><time>2026-04-18T12:46:12.006Z</time></trkpt><trkpt lat="42.7736758764162" lon="10.216860785204203"><ele>220.2</ele><time>2026-04-18T12:46:13.006Z</time></trkpt><trkpt lat="42.77374204984671" lon="10.216846191359865"><ele>222.8</ele><time>2026-04-18T12:46:14.006Z</time></trkpt><trkpt lat="42.77382745430975" lon="10.216874596356584"><ele>225.4</ele><time>2026-04-18T12:46:16.006Z</time></trkpt><trkpt lat="42.77389568358145" lon="10.217101677023628"><ele>228.0</ele><time>2026-04-18T12:46:18.006Z</time></trkpt><trkpt lat="42.77397555941638" lon="10.217258856039631"><ele>224.5</ele><time>2026-04-18T12:46:19.006Z</time></trkpt><trkpt lat="42.774065575164904" lon="10.217370542713104"><ele>221.0</ele><time>2026-04-18T12:46:20.006Z</time></trkpt><trkpt lat="42.77412441812462" lon="10.217499269213636"><ele>217.5</ele><time>2026-04-18T12:46:21.006Z</time></trkpt><trkpt lat="42.77420230858744" lon="10.217624670820644"><ele>214.0</ele><time>2026-04-18T12:46:22.006Z</time></trkpt><trkpt lat="42.77429278567299" lon="10.217770336560221"><ele>215.25</ele><time>2026-04-18T12:46:23.006Z</time></trkpt><trkpt lat="42.77452358256764" lon="10.217766486676243"><ele>216.5</ele><time>2026-04-18T12:46:24.006Z</time></trkpt><trkpt lat="42.774602748567546" lon="10.217869537421132"><ele>217.75</ele><time>2026-04-18T12:46:25.006Z</time></trkpt><trkpt lat="42.77467705767863" lon="10.217930485624859"><ele>219.0</ele><time>2026-04-18T12:46:26.006Z</time></trkpt><trkpt lat="42.774744880950244" lon="10.21791382827583"><ele>219.0</ele><time>2026-04-18T12:46:27.006Z</time></trkpt><trkpt lat="42.77482481291792" lon="10.217810290596761"><ele>218.99999999999997</ele><time>2026-04-18T12:46:28.006Z</time></trkpt><trkpt lat="42.7749290259032" lon="10.217771481790985"><ele>218.99999999999997</ele><time>2026-04-18T12:46:29.006Z</time></trkpt><trkpt lat="42.77504248877894" lon="10.217681157293697"><ele>219.0</ele><time>2026-04-18T12:46:30.006Z</time></trkpt><trkpt lat="42.77513539045727" lon="10.217642153151019"><ele>219.0</ele><time>2026-04-18T12:46:31.006Z</time></trkpt><trkpt lat="42.77521019286695" lon="10.217625329378896"><ele>218.75</ele><time>2026-04-18T12:46:32.006Z</time></trkpt><trkpt lat="42.77528844353241" lon="10.21774271751612"><ele>218.5</ele><time>2026-04-18T12:46:33.006Z</time></trkpt><trkpt lat="42.77527376941856" lon="10.217877923188407"><ele>218.25</ele><time>2026-04-18T12:46:34.006Z</time></trkpt><trkpt lat="42.77527521067126" lon="10.218007175458638"><ele>218.0</ele><time>2026-04-18T12:46:35.006Z</time></trkpt><trkpt lat="42.77529324618151" lon="10.218218674127057"><ele>218.0</ele><time>2026-04-18T12:46:36.005Z</time></trkpt><trkpt lat="42.77533357573026" lon="10.218389617387547"><ele>218.0</ele><time>2026-04-18T12:46:37.005Z</time></trkpt><trkpt lat="42.77540709934022" lon="10.218476506663169"><ele>218.0</ele><time>2026-04-18T12:46:38.005Z</time></trkpt><trkpt lat="42.7754694331282" lon="10.21857693055383"><ele>218.0</ele><time>2026-04-18T12:46:39.005Z</time></trkpt><trkpt lat="42.775552691379666" lon="10.218607561431481"><ele>218.0</ele><time>2026-04-18T12:46:40.005Z</time></trkpt><trkpt lat="42.77563796410671" lon="10.218555717537889"><ele>218.0</ele><time>2026-04-18T12:46:41.005Z</time></trkpt><trkpt lat="42.77573763321624" lon="10.21848176041977"><ele>218.0</ele><time>2026-04-18T12:46:42.005Z</time></trkpt><trkpt lat="42.775853275827146" lon="10.21843377424215"><ele>218.0</ele><time>2026-04-18T12:46:43.005Z</time></trkpt><trkpt lat="42.7759431310967" lon="10.218419920945184"><ele>218.0</ele><time>2026-04-18T12:46:44.005Z</time></trkpt><trkpt lat="42.7760195494981" lon="10.21854491358441"><ele>218.0</ele><time>2026-04-18T12:46:45.005Z</time></trkpt><trkpt lat="42.77611417324479" lon="10.218617760541377"><ele>220.2</ele><time>2026-04-18T12:46:46.005Z</time></trkpt><trkpt lat="42.77623051995155" lon="10.218610407774499"><ele>222.4</ele><time>2026-04-18T12:46:47.005Z</time></trkpt><trkpt lat="42.77633181319976" lon="10.218661517291345"><ele>224.59999999999997</ele><time>2026-04-18T12:46:48.005Z</time></trkpt><trkpt lat="42.776400550831504" lon="10.218696200130601"><ele>226.79999999999998</ele><time>2026-04-18T12:46:49.005Z</time></trkpt><trkpt lat="42.77643147548444" lon="10.218822298158921"><ele>229.0</ele><time>2026-04-18T12:46:50.005Z</time></trkpt><trkpt lat="42.77651808651408" lon="10.218930796064999"><ele>225.25</ele><time>2026-04-18T12:46:51.005Z</time></trkpt><trkpt lat="42.77658674007087" lon="10.219031256894255"><ele>221.5</ele><time>2026-04-18T12:46:52.005Z</time></trkpt><trkpt lat="42.77666490872827" lon="10.21904535460408"><ele>217.75</ele><time>2026-04-18T12:46:53.005Z</time></trkpt><trkpt lat="42.77678333811699" lon="10.21901429952211"><ele>214.0</ele><time>2026-04-18T12:46:54.005Z</time></trkpt><trkpt lat="42.776935649015904" lon="10.218993734329235"><ele>219.5</ele><time>2026-04-18T12:46:55.005Z</time></trkpt><trkpt lat="42.777089409189585" lon="10.21895931933366"><ele>225.0</ele><time>2026-04-18T12:46:56.005Z</time></trkpt><trkpt lat="42.777197407864655" lon="10.218914804524559"><ele>230.5</ele><time>2026-04-18T12:46:57.005Z</time></trkpt><trkpt lat="42.77729890991106" lon="10.21889249921803"><ele>236.0</ele><time>2026-04-18T12:46:58.005Z</time></trkpt><trkpt lat="42.77737834948957" lon="10.21890370779369"><ele>236.0</ele><time>2026-04-18T12:46:59.005Z</time></trkpt><trkpt lat="42.77743872763196" lon="10.21893836291324"><ele>236.00000000000003</ele><time>2026-04-18T12:47:00.005Z</time></trkpt><trkpt lat="42.777513835315474" lon="10.219024387971261"><ele>236.00000000000003</ele><time>2026-04-18T12:47:01.005Z</time></trkpt><trkpt lat="42.77758662057007" lon="10.21910822053904"><ele>236.0</ele><time>2026-04-18T12:47:02.005Z</time></trkpt><trkpt lat="42.77761347406026" lon="10.219232917249668"><ele>236.0</ele><time>2026-04-18T12:47:03.005Z</time></trkpt><trkpt lat="42.777668358662" lon="10.219373509446362"><ele>233.0</ele><time>2026-04-18T12:47:04.005Z</time></trkpt><trkpt lat="42.777737783083" lon="10.219529049856947"><ele>230.00000000000003</ele><time>2026-04-18T12:47:05.005Z</time></trkpt><trkpt lat="42.77775880438091" lon="10.219686775076752"><ele>227.00000000000003</ele><time>2026-04-18T12:47:06.005Z</time></trkpt><trkpt lat="42.77777056223804" lon="10.219818241265866"><ele>224.0</ele><time>2026-04-18T12:47:07.005Z</time></trkpt><trkpt lat="42.77776871970665" lon="10.219941846250368"><ele>221.0</ele><time>2026-04-18T12:47:08.005Z</time></trkpt><trkpt lat="42.77775969562083" lon="10.220088700047997"><ele>217.20000000000002</ele><time>2026-04-18T12:47:09.005Z</time></trkpt><trkpt lat="42.77776371980341" lon="10.220214788624096"><ele>213.40000000000003</ele><time>2026-04-18T12:47:10.005Z</time></trkpt><trkpt lat="42.77778396951021" lon="10.220326328237043"><ele>209.6</ele><time>2026-04-18T12:47:11.005Z</time></trkpt><trkpt lat="42.77787282787346" lon="10.220393597080502"><ele>205.8</ele><time>2026-04-18T12:47:12.005Z</time></trkpt><trkpt lat="42.77793562597571" lon="10.220439733688853"><ele>202.0</ele><time>2026-04-18T12:47:13.005Z</time></trkpt><trkpt lat="42.77803533539814" lon="10.220378582881038"><ele>202.0</ele><time>2026-04-18T12:47:14.005Z</time></trkpt><trkpt lat="42.77814433620755" lon="10.22035719553587"><ele>202.0</ele><time>2026-04-18T12:47:15.005Z</time></trkpt><trkpt lat="42.7782467562446" lon="10.220328060917454"><ele>202.0</ele><time>2026-04-18T12:47:16.005Z</time></trkpt><trkpt lat="42.77833316317351" lon="10.220290151298133"><ele>202.0</ele><time>2026-04-18T12:47:17.005Z</time></trkpt><trkpt lat="42.778410516404236" lon="10.22023232889861"><ele>202.0</ele><time>2026-04-18T12:47:18.005Z</time></trkpt><trkpt lat="42.778502624524236" lon="10.220171465799092"><ele>199.39999999999998</ele><time>2026-04-18T12:47:19.005Z</time></trkpt><trkpt lat="42.778579219908906" lon="10.220123649438413"><ele>196.79999999999998</ele><time>2026-04-18T12:47:20.005Z</time></trkpt><trkpt lat="42.778635778938344" lon="10.220069204180788"><ele>194.2</ele><time>2026-04-18T12:47:21.005Z</time></trkpt><trkpt lat="42.778738188595156" lon="10.22002697641313"><ele>191.6</ele><time>2026-04-18T12:47:23.005Z</time></trkpt><trkpt lat="42.77886256948068" lon="10.220075413811134"><ele>189.0</ele><time>2026-04-18T12:47:25.005Z</time></trkpt><trkpt lat="42.77889742762948" lon="10.220216739890201"><ele>189.0</ele><time>2026-04-18T12:47:26.005Z</time></trkpt><trkpt lat="42.77895267344389" lon="10.220298056634778"><ele>189.0</ele><time>2026-04-18T12:47:27.005Z</time></trkpt><trkpt lat="42.7790164676148" lon="10.220373065980251"><ele>189.0</ele><time>2026-04-18T12:47:28.005Z</time></trkpt><trkpt lat="42.77906687377151" lon="10.22043146322543"><ele>189.0</ele><time>2026-04-18T12:47:29.005Z</time></trkpt><trkpt lat="42.77912388483186" lon="10.220503084640718"><ele>189.0</ele><time>2026-04-18T12:47:30.005Z</time></trkpt><trkpt lat="42.779170601144635" lon="10.220564419977707"><ele>189.0</ele><time>2026-04-18T12:47:31.005Z</time></trkpt><trkpt lat="42.77921556319252" lon="10.220626002765048"><ele>189.0</ele><time>2026-04-18T12:47:32.005Z</time></trkpt><trkpt lat="42.77925735401902" lon="10.220697061893603"><ele>186.39999999999998</ele><time>2026-04-18T12:47:33.005Z</time></trkpt><trkpt lat="42.77929137889295" lon="10.220782523687832"><ele>183.8</ele><time>2026-04-18T12:47:34.005Z</time></trkpt><trkpt lat="42.779358532801616" lon="10.220922271952281"><ele>181.2</ele><time>2026-04-18T12:47:36.005Z</time></trkpt><trkpt lat="42.779259361325245" lon="10.221087986937738"><ele>178.60000000000002</ele><time>2026-04-18T12:47:37.005Z</time></trkpt><trkpt lat="42.77926297254935" lon="10.221178506935344"><ele>176.0</ele><time>2026-04-18T12:47:38.005Z</time></trkpt><trkpt lat="42.77928823173273" lon="10.22131381078528"><ele>176.0</ele><time>2026-04-18T12:47:40.005Z</time></trkpt><trkpt lat="42.77932011827925" lon="10.221401834981188"><ele>176.0</ele><time>2026-04-18T12:47:42.005Z</time></trkpt><trkpt lat="42.77937173466795" lon="10.221494351455261"><ele>176.0</ele><time>2026-04-18T12:48:10.005Z</time></trkpt><trkpt lat="42.779341247262934" lon="10.221642478562481"><ele>176.0</ele><time>2026-04-18T12:48:12.004Z</time></trkpt><trkpt lat="42.77932718939479" lon="10.2217597883801"><ele>176.0</ele><time>2026-04-18T12:48:13.004Z</time></trkpt><trkpt lat="42.77929414778558" lon="10.221898925654182"><ele>175.16666666666666</ele><time>2026-04-18T12:48:14.004Z</time></trkpt><trkpt lat="42.77929527454866" lon="10.222019184397938"><ele>174.33333333333331</ele><time>2026-04-18T12:48:15.004Z</time></trkpt><trkpt lat="42.779297880786366" lon="10.222142234244554"><ele>173.5</ele><time>2026-04-18T12:48:16.004Z</time></trkpt><trkpt lat="42.77930849080304" lon="10.222271285574324"><ele>172.66666666666666</ele><time>2026-04-18T12:48:17.003Z</time></trkpt><trkpt lat="42.77931603678425" lon="10.22237776608973"><ele>171.83333333333334</ele><time>2026-04-18T12:48:18.003Z</time></trkpt><trkpt lat="42.77933129121213" lon="10.222461482175706"><ele>171.0</ele><time>2026-04-18T12:48:19.003Z</time></trkpt><trkpt lat="42.7793183017258" lon="10.222582373649596"><ele>170.60000000000002</ele><time>2026-04-18T12:48:21.003Z</time></trkpt><trkpt lat="42.77931750583285" lon="10.222714459571183"><ele>170.2</ele><time>2026-04-18T12:48:23.002Z</time></trkpt><trkpt lat="42.77932165586024" lon="10.222841560023767"><ele>169.8</ele><time>2026-04-18T12:48:24.002Z</time></trkpt><trkpt lat="42.77929020548763" lon="10.222945208996503"><ele>169.39999999999998</ele><time>2026-04-18T12:48:25.002Z</time></trkpt><trkpt lat="42.77925978982857" lon="10.223071382752552"><ele>169.0</ele><time>2026-04-18T12:48:26.002Z</time></trkpt><trkpt lat="42.779225694721895" lon="10.223206090602904"><ele>169.79999999999998</ele><time>2026-04-18T12:48:27.002Z</time></trkpt><trkpt lat="42.77918781161839" lon="10.223355764585333"><ele>170.6</ele><time>2026-04-18T12:48:28.002Z</time></trkpt><trkpt lat="42.77918432767932" lon="10.223493899010121"><ele>171.4</ele><time>2026-04-18T12:48:29.002Z</time></trkpt><trkpt lat="42.77917497706431" lon="10.223610063207412"><ele>172.2</ele><time>2026-04-18T12:48:30.002Z</time></trkpt><trkpt lat="42.77913768847406" lon="10.223723173074056"><ele>173.0</ele><time>2026-04-18T12:48:31.001Z</time></trkpt><trkpt lat="42.779060714127745" lon="10.223767806685537"><ele>173.0</ele><time>2026-04-18T12:48:32.001Z</time></trkpt><trkpt lat="42.7789833034674" lon="10.223839399542229"><ele>173.0</ele><time>2026-04-18T12:48:33.001Z</time></trkpt><trkpt lat="42.778889057754306" lon="10.223915301141735"><ele>173.0</ele><time>2026-04-18T12:48:34.001Z</time></trkpt><trkpt lat="42.77880097847511" lon="10.223982465436146"><ele>173.0</ele><time>2026-04-18T12:48:35.001Z</time></trkpt><trkpt lat="42.7787389071402" lon="10.224070757928837"><ele>173.0</ele><time>2026-04-18T12:48:36.001Z</time></trkpt><trkpt lat="42.77872170958488" lon="10.22419716085704"><ele>175.5</ele><time>2026-04-18T12:48:37.001Z</time></trkpt><trkpt lat="42.778708474085505" lon="10.224351313787313"><ele>178.0</ele><time>2026-04-18T12:48:38.001Z</time></trkpt><trkpt lat="42.77866709300186" lon="10.224496591387775"><ele>180.5</ele><time>2026-04-18T12:48:39.001Z</time></trkpt><trkpt lat="42.778621215852226" lon="10.224656742457887"><ele>183.0</ele><time>2026-04-18T12:48:40.001Z</time></trkpt><trkpt lat="42.7785805907709" lon="10.224782706692448"><ele>184.2</ele><time>2026-04-18T12:48:41.001Z</time></trkpt><trkpt lat="42.778546966388284" lon="10.224922777308347"><ele>185.4</ele><time>2026-04-18T12:48:42.001Z</time></trkpt><trkpt lat="42.778525714103104" lon="10.225104121141252"><ele>186.6</ele><time>2026-04-18T12:48:43.001Z</time></trkpt><trkpt lat="42.77852009551105" lon="10.225264885570589"><ele>187.79999999999998</ele><time>2026-04-18T12:48:44.001Z</time></trkpt><trkpt lat="42.778521384558076" lon="10.225378581507803"><ele>189.0</ele><time>2026-04-18T12:48:45.001Z</time></trkpt><trkpt lat="42.778488745810115" lon="10.225470495050146"><ele>183.5</ele><time>2026-04-18T12:48:46Z</time></trkpt><trkpt lat="42.778425761620134" lon="10.22558211139725"><ele>178.0</ele><time>2026-04-18T12:48:47Z</time></trkpt><trkpt lat="42.7784094389511" lon="10.225718307831388"><ele>172.5</ele><time>2026-04-18T12:48:48Z</time></trkpt><trkpt lat="42.77837876660079" lon="10.225863487938815"><ele>167.0</ele><time>2026-04-18T12:48:49Z</time></trkpt><trkpt lat="42.77835002414608" lon="10.226044684315037"><ele>167.0</ele><time>2026-04-18T12:48:50Z</time></trkpt><trkpt lat="42.77832217732389" lon="10.226190923136652"><ele>167.0</ele><time>2026-04-18T12:48:51Z</time></trkpt><trkpt lat="42.77830213061616" lon="10.226320221113587"><ele>167.0</ele><time>2026-04-18T12:48:52Z</time></trkpt><trkpt lat="42.778249088474965" lon="10.226421214005015"><ele>167.0</ele><time>2026-04-18T12:48:53Z</time></trkpt><trkpt lat="42.77820880794131" lon="10.226487765466661"><ele>167.0</ele><time>2026-04-18T12:48:54Z</time></trkpt><trkpt lat="42.77813532980799" lon="10.226453374869552"><ele>167.0</ele><time>2026-04-18T12:48:55Z</time></trkpt><trkpt lat="42.778038143449315" lon="10.226513766959714"><ele>168.39999999999998</ele><time>2026-04-18T12:48:56Z</time></trkpt><trkpt lat="42.777940884014846" lon="10.22658465825122"><ele>169.79999999999998</ele><time>2026-04-18T12:48:57Z</time></trkpt><trkpt lat="42.77784133727267" lon="10.226660337712683"><ele>171.2</ele><time>2026-04-18T12:48:58Z</time></trkpt><trkpt lat="42.77774490005194" lon="10.226725389847305"><ele>172.6</ele><time>2026-04-18T12:48:59Z</time></trkpt><trkpt lat="42.7776627700273" lon="10.226819397510713"><ele>174.0</ele><time>2026-04-18T12:49:00Z</time></trkpt><trkpt lat="42.777581862515525" lon="10.226879666079535"><ele>170.79999999999998</ele><time>2026-04-18T12:49:01Z</time></trkpt><trkpt lat="42.77751943140468" lon="10.22696351326512"><ele>167.6</ele><time>2026-04-18T12:49:02Z</time></trkpt><trkpt lat="42.77749688670632" lon="10.227144349167054"><ele>164.4</ele><time>2026-04-18T12:49:03Z</time></trkpt><trkpt lat="42.777448213164355" lon="10.227268781316223"><ele>161.2</ele><time>2026-04-18T12:49:04Z</time></trkpt><trkpt lat="42.77743796997839" lon="10.227390724495685"><ele>158.0</ele><time>2026-04-18T12:49:05Z</time></trkpt><trkpt lat="42.77742828933753" lon="10.227540702968561"><ele>158.0</ele><time>2026-04-18T12:49:06Z</time></trkpt><trkpt lat="42.77742725286148" lon="10.227734677983538"><ele>158.0</ele><time>2026-04-18T12:49:07Z</time></trkpt><trkpt lat="42.777442074641385" lon="10.227902296313934"><ele>158.0</ele><time>2026-04-18T12:49:08Z</time></trkpt><trkpt lat="42.77747189223702" lon="10.228064512950297"><ele>158.0</ele><time>2026-04-18T12:49:09Z</time></trkpt><trkpt lat="42.77749028857906" lon="10.228194272737426"><ele>158.20000000000002</ele><time>2026-04-18T12:49:10Z</time></trkpt><trkpt lat="42.77745793745654" lon="10.228358324536806"><ele>158.4</ele><time>2026-04-18T12:49:12Z</time></trkpt><trkpt lat="42.77744867282682" lon="10.228461810418121"><ele>158.60000000000002</ele><time>2026-04-18T12:49:13Z</time></trkpt><trkpt lat="42.77740209143922" lon="10.228542043085366"><ele>158.8</ele><time>2026-04-18T12:49:14Z</time></trkpt><trkpt lat="42.777241619366315" lon="10.228611250327962"><ele>159.0</ele><time>2026-04-18T12:49:15Z</time></trkpt><trkpt lat="42.77712874924633" lon="10.228742499350801"><ele>159.0</ele><time>2026-04-18T12:49:16Z</time></trkpt><trkpt lat="42.77703216122567" lon="10.22889530139421"><ele>159.0</ele><time>2026-04-18T12:49:17Z</time></trkpt><trkpt lat="42.7768890483545" lon="10.228987593992164"><ele>159.0</ele><time>2026-04-18T12:49:18Z</time></trkpt><trkpt lat="42.776798208879114" lon="10.229118267145887"><ele>159.0</ele><time>2026-04-18T12:49:19Z</time></trkpt><trkpt lat="42.77670572400921" lon="10.229225648687438"><ele>155.6</ele><time>2026-04-18T12:49:20Z</time></trkpt><trkpt lat="42.776610889290566" lon="10.229308929782317"><ele>152.2</ele><time>2026-04-18T12:49:21Z</time></trkpt><trkpt lat="42.776527552703975" lon="10.229385077764164"><ele>148.79999999999998</ele><time>2026-04-18T12:49:22Z</time></trkpt><trkpt lat="42.776448759205415" lon="10.22949243888361"><ele>145.4</ele><time>2026-04-18T12:49:23Z</time></trkpt><trkpt lat="42.776377522862525" lon="10.229584912927386"><ele>142.0</ele><time>2026-04-18T12:49:24Z</time></trkpt><trkpt lat="42.77631723815575" lon="10.229690765976256"><ele>142.0</ele><time>2026-04-18T12:49:25Z</time></trkpt><trkpt lat="42.77629190241691" lon="10.229804350916444"><ele>142.0</ele><time>2026-04-18T12:49:26Z</time></trkpt><trkpt lat="42.77628763575592" lon="10.229957048761733"><ele>142.0</ele><time>2026-04-18T12:49:27Z</time></trkpt><trkpt lat="42.77629716482287" lon="10.230127372702787"><ele>142.0</ele><time>2026-04-18T12:49:28Z</time></trkpt><trkpt lat="42.77628587651776" lon="10.23026938882747"><ele>142.0</ele><time>2026-04-18T12:49:29Z</time></trkpt><trkpt lat="42.776286999016044" lon="10.230414974153868"><ele>144.0</ele><time>2026-04-18T12:49:30Z</time></trkpt><trkpt lat="42.77627967677359" lon="10.230542016522485"><ele>146.0</ele><time>2026-04-18T12:49:31Z</time></trkpt><trkpt lat="42.7762801190562" lon="10.23063943070354"><ele>148.0</ele><time>2026-04-18T12:49:32Z</time></trkpt><trkpt lat="42.77628030594803" lon="10.230732138703965"><ele>150.0</ele><time>2026-04-18T12:49:33Z</time></trkpt><trkpt lat="42.776274670416775" lon="10.230818263853088"><ele>152.0</ele><time>2026-04-18T12:49:34Z</time></trkpt><trkpt lat="42.776268993707326" lon="10.230913017950746"><ele>154.0</ele><time>2026-04-18T12:49:35Z</time></trkpt><trkpt lat="42.77626959479938" lon="10.231003717994211"><ele>156.0</ele><time>2026-04-18T12:49:36Z</time></trkpt><trkpt lat="42.77625435580401" lon="10.231102869745408"><ele>156.16666666666666</ele><time>2026-04-18T12:49:37Z</time></trkpt><trkpt lat="42.776254613542775" lon="10.231209902523853"><ele>156.33333333333334</ele><time>2026-04-18T12:49:38Z</time></trkpt><trkpt lat="42.77625733131231" lon="10.231322355910185"><ele>156.5</ele><time>2026-04-18T12:49:39Z</time></trkpt><trkpt lat="42.77625895058395" lon="10.231436733330787"><ele>156.66666666666669</ele><time>2026-04-18T12:49:40Z</time></trkpt><trkpt lat="42.77626272771145" lon="10.231562343083954"><ele>156.83333333333334</ele><time>2026-04-18T12:49:41Z</time></trkpt><trkpt lat="42.776251261959494" lon="10.231695017608839"><ele>157.0</ele><time>2026-04-18T12:49:42Z</time></trkpt><trkpt lat="42.7762288072913" lon="10.2318079053701"><ele>156.4</ele><time>2026-04-18T12:49:43Z</time></trkpt><trkpt lat="42.77620018333227" lon="10.231933329393001"><ele>155.79999999999998</ele><time>2026-04-18T12:49:44Z</time></trkpt><trkpt lat="42.77616852015011" lon="10.232051046883493"><ele>155.2</ele><time>2026-04-18T12:49:45Z</time></trkpt><trkpt lat="42.776135738823584" lon="10.232158417295636"><ele>154.6</ele><time>2026-04-18T12:49:45.999Z</time></trkpt><trkpt lat="42.77609515991155" lon="10.232272842627532"><ele>154.0</ele><time>2026-04-18T12:49:46.999Z</time></trkpt><trkpt lat="42.7760520620079" lon="10.232372283520707"><ele>152.33333333333334</ele><time>2026-04-18T12:49:47.999Z</time></trkpt><trkpt lat="42.776016802976145" lon="10.232488293159959"><ele>150.66666666666669</ele><time>2026-04-18T12:49:48.999Z</time></trkpt><trkpt lat="42.77600217765196" lon="10.232620784382007"><ele>149.0</ele><time>2026-04-18T12:49:49.999Z</time></trkpt><trkpt lat="42.775993191808666" lon="10.232714744199647"><ele>147.33333333333334</ele><time>2026-04-18T12:49:50.999Z</time></trkpt><trkpt lat="42.77601949048711" lon="10.232808585207236"><ele>145.66666666666666</ele><time>2026-04-18T12:49:51.999Z</time></trkpt><trkpt lat="42.77608736891984" lon="10.232898328585973"><ele>144.0</ele><time>2026-04-18T12:49:52.999Z</time></trkpt><trkpt lat="42.77615070460187" lon="10.232990955907168"><ele>144.0</ele><time>2026-04-18T12:49:53.999Z</time></trkpt><trkpt lat="42.776223943777595" lon="10.233061580349041"><ele>144.0</ele><time>2026-04-18T12:49:54.999Z</time></trkpt><trkpt lat="42.77630228233215" lon="10.233088631833096"><ele>144.0</ele><time>2026-04-18T12:49:55.999Z</time></trkpt><trkpt lat="42.77638855548186" lon="10.233156365040564"><ele>144.0</ele><time>2026-04-18T12:49:56.999Z</time></trkpt><trkpt lat="42.7765016228772" lon="10.233197409149952"><ele>144.0</ele><time>2026-04-18T12:49:57.999Z</time></trkpt><trkpt lat="42.776595186452" lon="10.2332458112125"><ele>143.33333333333334</ele><time>2026-04-18T12:49:58.999Z</time></trkpt><trkpt lat="42.776675748947625" lon="10.233293948775959"><ele>142.66666666666666</ele><time>2026-04-18T12:49:59.999Z</time></trkpt><trkpt lat="42.77674413861003" lon="10.233353400032028"><ele>142.0</ele><time>2026-04-18T12:50:00.999Z</time></trkpt><trkpt lat="42.7767710463226" lon="10.233438494099554"><ele>141.33333333333331</ele><time>2026-04-18T12:50:01.999Z</time></trkpt><trkpt lat="42.776825245115965" lon="10.23351187712434"><ele>140.66666666666666</ele><time>2026-04-18T12:50:02.999Z</time></trkpt><trkpt lat="42.77685366184301" lon="10.233608153172508"><ele>140.0</ele><time>2026-04-18T12:50:04Z</time></trkpt><trkpt lat="42.77689544725958" lon="10.233706827337622"><ele>140.0</ele><time>2026-04-18T12:50:05Z</time></trkpt><trkpt lat="42.77691624232168" lon="10.233794706918355"><ele>140.0</ele><time>2026-04-18T12:50:05.999Z</time></trkpt><trkpt lat="42.77684946861608" lon="10.233938344796815"><ele>140.0</ele><time>2026-04-18T12:50:08Z</time></trkpt><trkpt lat="42.77680808666464" lon="10.234057092982711"><ele>140.0</ele><time>2026-04-18T12:50:09Z</time></trkpt><trkpt lat="42.77676326413824" lon="10.234175224575544"><ele>140.0</ele><time>2026-04-18T12:50:09.999Z</time></trkpt><trkpt lat="42.776714758009035" lon="10.23429250020902"><ele>136.5</ele><time>2026-04-18T12:50:10.999Z</time></trkpt><trkpt lat="42.776675576064854" lon="10.234399144240918"><ele>133.0</ele><time>2026-04-18T12:50:12Z</time></trkpt><trkpt lat="42.776629967072395" lon="10.234503569748254"><ele>129.5</ele><time>2026-04-18T12:50:13Z</time></trkpt><trkpt lat="42.77657918154469" lon="10.234591018507205"><ele>126.0</ele><time>2026-04-18T12:50:14Z</time></trkpt><trkpt lat="42.77653515591613" lon="10.234682261621813"><ele>122.49999999999999</ele><time>2026-04-18T12:50:15Z</time></trkpt><trkpt lat="42.77649793716434" lon="10.234766034206354"><ele>119.0</ele><time>2026-04-18T12:50:16Z</time></trkpt><trkpt lat="42.77648108393045" lon="10.234874593479663"><ele>117.49999999999999</ele><time>2026-04-18T12:50:17Z</time></trkpt><trkpt lat="42.77651190058073" lon="10.234985045232161"><ele>116.0</ele><time>2026-04-18T12:50:18Z</time></trkpt><trkpt lat="42.776528353867675" lon="10.235084674463932"><ele>114.5</ele><time>2026-04-18T12:50:19Z</time></trkpt><trkpt lat="42.77654137537274" lon="10.235233915228148"><ele>113.0</ele><time>2026-04-18T12:50:21Z</time></trkpt><trkpt lat="42.776475465657725" lon="10.23527578309848"><ele>111.49999999999999</ele><time>2026-04-18T12:50:22Z</time></trkpt><trkpt lat="42.77641399697093" lon="10.2352483376269"><ele>110.0</ele><time>2026-04-18T12:50:23Z</time></trkpt><trkpt lat="42.77635953362489" lon="10.235170161216598"><ele>110.0</ele><time>2026-04-18T12:50:24Z</time></trkpt><trkpt lat="42.77627050069981" lon="10.23512679672771"><ele>110.0</ele><time>2026-04-18T12:50:25Z</time></trkpt><trkpt lat="42.77618691689681" lon="10.235083257612297"><ele>110.0</ele><time>2026-04-18T12:50:26Z</time></trkpt><trkpt lat="42.77610984333081" lon="10.235040165186449"><ele>110.0</ele><time>2026-04-18T12:50:27Z</time></trkpt><trkpt lat="42.77604741258467" lon="10.23498705718035"><ele>110.0</ele><time>2026-04-18T12:50:28Z</time></trkpt><trkpt lat="42.77595831661132" lon="10.234859797285521"><ele>108.4</ele><time>2026-04-18T12:50:30Z</time></trkpt><trkpt lat="42.77589886516781" lon="10.234802007694626"><ele>106.8</ele><time>2026-04-18T12:50:31Z</time></trkpt><trkpt lat="42.7757960167787" lon="10.23481072480789"><ele>105.19999999999999</ele><time>2026-04-18T12:50:32Z</time></trkpt><trkpt lat="42.77573733087315" lon="10.234929429822651"><ele>103.6</ele><time>2026-04-18T12:50:33Z</time></trkpt><trkpt lat="42.77565192676956" lon="10.234978632049833"><ele>102.0</ele><time>2026-04-18T12:50:34Z</time></trkpt><trkpt lat="42.77555990290862" lon="10.235004590404191"><ele>100.66666666666667</ele><time>2026-04-18T12:50:35Z</time></trkpt><trkpt lat="42.775471087378875" lon="10.235020109570195"><ele>99.33333333333333</ele><time>2026-04-18T12:50:36Z</time></trkpt><trkpt lat="42.77538806263804" lon="10.235035634337306"><ele>98.0</ele><time>2026-04-18T12:50:37Z</time></trkpt><trkpt lat="42.77531676527806" lon="10.23505082534495"><ele>96.66666666666666</ele><time>2026-04-18T12:50:38Z</time></trkpt><trkpt lat="42.77524905358385" lon="10.235083867987822"><ele>95.33333333333333</ele><time>2026-04-18T12:50:39Z</time></trkpt><trkpt lat="42.77515729896969" lon="10.235118078496345"><ele>94.0</ele><time>2026-04-18T12:50:41Z</time></trkpt><trkpt lat="42.775138430768465" lon="10.23500390878521"><ele>94.0</ele><time>2026-04-18T12:50:44Z</time></trkpt><trkpt lat="42.77518996977839" lon="10.234931214258244"><ele>94.0</ele><time>2026-04-18T12:50:45Z</time></trkpt><trkpt lat="42.775265298508465" lon="10.234843997288074"><ele>94.0</ele><time>2026-04-18T12:50:46Z</time></trkpt><trkpt lat="42.775327780572255" lon="10.234749846436817"><ele>94.0</ele><time>2026-04-18T12:50:47Z</time></trkpt><trkpt lat="42.77537058307072" lon="10.234657221960324"><ele>94.0</ele><time>2026-04-18T12:50:48Z</time></trkpt><trkpt lat="42.77539073986476" lon="10.234561987894454"><ele>94.0</ele><time>2026-04-18T12:50:49Z</time></trkpt><trkpt lat="42.77538771567902" lon="10.234471534322948"><ele>95.6</ele><time>2026-04-18T12:50:50Z</time></trkpt><trkpt lat="42.77534489044249" lon="10.23439783524354"><ele>97.2</ele><time>2026-04-18T12:50:51Z</time></trkpt><trkpt lat="42.775276672971344" lon="10.234293391446066"><ele>98.8</ele><time>2026-04-18T12:50:52Z</time></trkpt><trkpt lat="42.775149792439194" lon="10.234222571662206"><ele>100.39999999999999</ele><time>2026-04-18T12:50:53Z</time></trkpt><trkpt lat="42.7750277332415" lon="10.234140865623564"><ele>102.0</ele><time>2026-04-18T12:50:54Z</time></trkpt><trkpt lat="42.774921814073636" lon="10.234086595605937"><ele>100.25</ele><time>2026-04-18T12:50:55Z</time></trkpt><trkpt lat="42.77483698697969" lon="10.234002736129371"><ele>98.5</ele><time>2026-04-18T12:50:56Z</time></trkpt><trkpt lat="42.77473352240802" lon="10.233922988956468"><ele>96.75</ele><time>2026-04-18T12:50:57Z</time></trkpt><trkpt lat="42.774623851870096" lon="10.233840811774593"><ele>95.0</ele><time>2026-04-18T12:50:58Z</time></trkpt><trkpt lat="42.7745248690695" lon="10.233741762626073"><ele>95.0</ele><time>2026-04-18T12:50:59Z</time></trkpt><trkpt lat="42.77443637736288" lon="10.233655722773888"><ele>95.0</ele><time>2026-04-18T12:51:00Z</time></trkpt><trkpt lat="42.77435900695073" lon="10.233584225154246"><ele>95.0</ele><time>2026-04-18T12:51:01Z</time></trkpt><trkpt lat="42.774287092518556" lon="10.23351657400696"><ele>95.0</ele><time>2026-04-18T12:51:02Z</time></trkpt><trkpt lat="42.77422073261788" lon="10.233450470265486"><ele>95.0</ele><time>2026-04-18T12:51:03Z</time></trkpt><trkpt lat="42.774158663321714" lon="10.233363235241788"><ele>90.75</ele><time>2026-04-18T12:51:04Z</time></trkpt><trkpt lat="42.77408551737254" lon="10.23325763721135"><ele>86.5</ele><time>2026-04-18T12:51:05Z</time></trkpt><trkpt lat="42.774011305758094" lon="10.23312979751967"><ele>82.25</ele><time>2026-04-18T12:51:06Z</time></trkpt><trkpt lat="42.77391452516386" lon="10.23302732388692"><ele>78.0</ele><time>2026-04-18T12:51:07Z</time></trkpt><trkpt lat="42.77383308129365" lon="10.232935765323408"><ele>78.0</ele><time>2026-04-18T12:51:08Z</time></trkpt><trkpt lat="42.77376053644043" lon="10.232841623664564"><ele>78.0</ele><time>2026-04-18T12:51:09Z</time></trkpt><trkpt lat="42.77369572251539" lon="10.232732496610778"><ele>78.0</ele><time>2026-04-18T12:51:10Z</time></trkpt><trkpt lat="42.77361911533367" lon="10.232624596072588"><ele>78.0</ele><time>2026-04-18T12:51:11Z</time></trkpt><trkpt lat="42.77355733543248" lon="10.232536731821016"><ele>78.0</ele><time>2026-04-18T12:51:12Z</time></trkpt><trkpt lat="42.773512287291" lon="10.232452909231075"><ele>77.16666666666667</ele><time>2026-04-18T12:51:13Z</time></trkpt><trkpt lat="42.77350702967404" lon="10.232287405208844"><ele>76.33333333333333</ele><time>2026-04-18T12:51:15Z</time></trkpt><trkpt lat="42.77349622675242" lon="10.2321977579525"><ele>75.5</ele><time>2026-04-18T12:51:16Z</time></trkpt><trkpt lat="42.773550547354176" lon="10.232086277760336"><ele>74.66666666666666</ele><time>2026-04-18T12:51:18Z</time></trkpt><trkpt lat="42.77358730101524" lon="10.231970335518465"><ele>73.83333333333333</ele><time>2026-04-18T12:51:20Z</time></trkpt><trkpt lat="42.773539705145474" lon="10.23191149584975"><ele>73.0</ele><time>2026-04-18T12:51:21Z</time></trkpt><trkpt lat="42.773442866422926" lon="10.231953607693214"><ele>70.0</ele><time>2026-04-18T12:51:23Z</time></trkpt><trkpt lat="42.773381744580604" lon="10.232014502794344"><ele>67.0</ele><time>2026-04-18T12:51:24Z</time></trkpt><trkpt lat="42.7733263791567" lon="10.232094680760015"><ele>64.0</ele><time>2026-04-18T12:51:25Z</time></trkpt><trkpt lat="42.773263249563975" lon="10.232200172416556"><ele>61.0</ele><time>2026-04-18T12:51:26Z</time></trkpt><trkpt lat="42.7731786681096" lon="10.232300231398948"><ele>58.0</ele><time>2026-04-18T12:51:27Z</time></trkpt><trkpt lat="42.773110872010186" lon="10.232401359494185"><ele>58.0</ele><time>2026-04-18T12:51:28Z</time></trkpt><trkpt lat="42.77305430870995" lon="10.23251517359157"><ele>58.0</ele><time>2026-04-18T12:51:29Z</time></trkpt><trkpt lat="42.77300575606759" lon="10.232614346658453"><ele>58.0</ele><time>2026-04-18T12:51:30Z</time></trkpt><trkpt lat="42.7729609238009" lon="10.232734061226239"><ele>58.0</ele><time>2026-04-18T12:51:31Z</time></trkpt><trkpt lat="42.77291967587653" lon="10.23284590584778"><ele>58.0</ele><time>2026-04-18T12:51:32Z</time></trkpt><trkpt lat="42.77286974419132" lon="10.232954940870014"><ele>58.0</ele><time>2026-04-18T12:51:33Z</time></trkpt><trkpt lat="42.77281859413269" lon="10.233062947561907"><ele>58.0</ele><time>2026-04-18T12:51:34Z</time></trkpt><trkpt lat="42.772771975405576" lon="10.233176219426232"><ele>58.0</ele><time>2026-04-18T12:51:35Z</time></trkpt><trkpt lat="42.772741680318866" lon="10.233285282173266"><ele>58.0</ele><time>2026-04-18T12:51:36Z</time></trkpt><trkpt lat="42.772670599709826" lon="10.233413976750315"><ele>58.0</ele><time>2026-04-18T12:51:38Z</time></trkpt><trkpt lat="42.77260738039866" lon="10.233434903520434"><ele>54.599999999999994</ele><time>2026-04-18T12:51:39Z</time></trkpt><trkpt lat="42.772530942275964" lon="10.233478979190945"><ele>51.199999999999996</ele><time>2026-04-18T12:51:40Z</time></trkpt><trkpt lat="42.772444429635364" lon="10.23353234055839"><ele>47.8</ele><time>2026-04-18T12:51:41Z</time></trkpt><trkpt lat="42.77235476278123" lon="10.233587647326004"><ele>44.4</ele><time>2026-04-18T12:51:42Z</time></trkpt><trkpt lat="42.77225258619958" lon="10.233665009224303"><ele>41.0</ele><time>2026-04-18T12:51:43Z</time></trkpt><trkpt lat="42.772141618597566" lon="10.233724725385462"><ele>41.0</ele><time>2026-04-18T12:51:44Z</time></trkpt><trkpt lat="42.77204289072484" lon="10.233809572774078"><ele>41.0</ele><time>2026-04-18T12:51:45Z</time></trkpt><trkpt lat="42.771950263948284" lon="10.233913622662545"><ele>41.0</ele><time>2026-04-18T12:51:46Z</time></trkpt><trkpt lat="42.77185389594126" lon="10.234029926593573"><ele>41.0</ele><time>2026-04-18T12:51:47Z</time></trkpt><trkpt lat="42.77174615470283" lon="10.234139211494213"><ele>39.4</ele><time>2026-04-18T12:51:47.999Z</time></trkpt><trkpt lat="42.77163635628891" lon="10.234218086109152"><ele>37.8</ele><time>2026-04-18T12:51:48.999Z</time></trkpt><trkpt lat="42.77156147961121" lon="10.234323044661135"><ele>36.199999999999996</ele><time>2026-04-18T12:51:49.999Z</time></trkpt><trkpt lat="42.77148373491511" lon="10.234422113510702"><ele>34.599999999999994</ele><time>2026-04-18T12:51:50.999Z</time></trkpt><trkpt lat="42.77142251904693" lon="10.234535664751165"><ele>33.0</ele><time>2026-04-18T12:51:51.999Z</time></trkpt><trkpt lat="42.77134367683854" lon="10.23464810742454"><ele>33.0</ele><time>2026-04-18T12:51:52.999Z</time></trkpt><trkpt lat="42.771259717679065" lon="10.234753494474575"><ele>33.0</ele><time>2026-04-18T12:51:53.999Z</time></trkpt><trkpt lat="42.77116816514811" lon="10.234855009173558"><ele>33.0</ele><time>2026-04-18T12:51:54.999Z</time></trkpt><trkpt lat="42.771082433932634" lon="10.234948894916306"><ele>33.0</ele><time>2026-04-18T12:51:55.999Z</time></trkpt><trkpt lat="42.77100007974407" lon="10.2350625557374"><ele>31.25</ele><time>2026-04-18T12:51:56.999Z</time></trkpt><trkpt lat="42.77090624871997" lon="10.23516494469625"><ele>29.5</ele><time>2026-04-18T12:51:57.999Z</time></trkpt><trkpt lat="42.77081835793573" lon="10.235262424982606"><ele>27.75</ele><time>2026-04-18T12:51:58.999Z</time></trkpt><trkpt lat="42.77072579847917" lon="10.235361751724843"><ele>26.0</ele><time>2026-04-18T12:51:59.999Z</time></trkpt><trkpt lat="42.77064300542623" lon="10.235460282899865"><ele>26.0</ele><time>2026-04-18T12:52:00.999Z</time></trkpt><trkpt lat="42.77053906070408" lon="10.235524848487051"><ele>26.0</ele><time>2026-04-18T12:52:01.999Z</time></trkpt><trkpt lat="42.77046413163434" lon="10.235616439182476"><ele>26.0</ele><time>2026-04-18T12:52:02.999Z</time></trkpt><trkpt lat="42.77038765263044" lon="10.235701680166274"><ele>26.0</ele><time>2026-04-18T12:52:03.999Z</time></trkpt><trkpt lat="42.77031334405655" lon="10.235788256100546"><ele>26.0</ele><time>2026-04-18T12:52:04.999Z</time></trkpt><trkpt lat="42.77025475784496" lon="10.235855901539878"><ele>25.200000000000003</ele><time>2026-04-18T12:52:05.999Z</time></trkpt><trkpt lat="42.770192965992386" lon="10.235909774108112"><ele>24.400000000000002</ele><time>2026-04-18T12:52:06.999Z</time></trkpt><trkpt lat="42.77009934859805" lon="10.23596139786697"><ele>23.6</ele><time>2026-04-18T12:52:08.999Z</time></trkpt><trkpt lat="42.77011497520238" lon="10.236205730642205"><ele>22.8</ele><time>2026-04-18T12:52:14Z</time></trkpt><trkpt lat="42.770158558453446" lon="10.236305873028385"><ele>22.0</ele><time>2026-04-18T12:52:15Z</time></trkpt><trkpt lat="42.770202331657984" lon="10.236448141796236"><ele>21.25</ele><time>2026-04-18T12:52:15.999Z</time></trkpt><trkpt lat="42.770260908121976" lon="10.23659853408852"><ele>20.5</ele><time>2026-04-18T12:52:16.999Z</time></trkpt><trkpt lat="42.7703142469517" lon="10.236752975321298"><ele>19.75</ele><time>2026-04-18T12:52:17.999Z</time></trkpt><trkpt lat="42.77035040054244" lon="10.236919451994622"><ele>19.0</ele><time>2026-04-18T12:52:18.999Z</time></trkpt><trkpt lat="42.77041287437599" lon="10.237057810599884"><ele>19.0</ele><time>2026-04-18T12:52:20Z</time></trkpt><trkpt lat="42.77047707650886" lon="10.237196320311238"><ele>19.0</ele><time>2026-04-18T12:52:21Z</time></trkpt><trkpt lat="42.770524501955165" lon="10.237306684523926"><ele>19.0</ele><time>2026-04-18T12:52:22Z</time></trkpt><trkpt lat="42.770564566379676" lon="10.237399701256683"><ele>19.0</ele><time>2026-04-18T12:52:23Z</time></trkpt><trkpt lat="42.77062626420495" lon="10.23747051043734"><ele>19.0</ele><time>2026-04-18T12:52:23.999Z</time></trkpt><trkpt lat="42.77068383401677" lon="10.237560008871077"><ele>18.5</ele><time>2026-04-18T12:52:24.999Z</time></trkpt><trkpt lat="42.770733855337575" lon="10.237616715360671"><ele>18.0</ele><time>2026-04-18T12:52:25.999Z</time></trkpt><trkpt lat="42.7708074356142" lon="10.23772180789641"><ele>17.5</ele><time>2026-04-18T12:52:28Z</time></trkpt><trkpt lat="42.770874222845464" lon="10.237803423583783"><ele>17.0</ele><time>2026-04-18T12:52:30Z</time></trkpt><trkpt lat="42.7708559408221" lon="10.23789217040182"><ele>16.5</ele><time>2026-04-18T12:52:31Z</time></trkpt><trkpt lat="42.77087810336031" lon="10.237986624211345"><ele>16.0</ele><time>2026-04-18T12:52:32Z</time></trkpt><trkpt lat="42.77091127911536" lon="10.238125683123785"><ele>16.2</ele><time>2026-04-18T12:52:34Z</time></trkpt><trkpt lat="42.77095105194931" lon="10.238272549493201"><ele>16.400000000000002</ele><time>2026-04-18T12:52:36Z</time></trkpt><trkpt lat="42.77097154546121" lon="10.238386305972323"><ele>16.6</ele><time>2026-04-18T12:52:38Z</time></trkpt><trkpt lat="42.77096932777566" lon="10.238472177660896"><ele>16.8</ele><time>2026-04-18T12:52:41.999Z</time></trkpt><trkpt lat="42.770985611287394" lon="10.23856853674604"><ele>17.0</ele><time>2026-04-18T12:52:43.999Z</time></trkpt><trkpt lat="42.7711181691011" lon="10.238551401382875"><ele>17.0</ele><time>2026-04-18T12:52:44.999Z</time></trkpt><trkpt lat="42.77125372742968" lon="10.238552438427227"><ele>17.0</ele><time>2026-04-18T12:52:46.999Z</time></trkpt><trkpt lat="42.77134924844749" lon="10.238575305039026"><ele>17.0</ele><time>2026-04-18T12:52:47.999Z</time></trkpt><trkpt lat="42.7714609049688" lon="10.23861478405612"><ele>17.0</ele><time>2026-04-18T12:52:48.999Z</time></trkpt><trkpt lat="42.771576170929634" lon="10.238675420894438"><ele>17.0</ele><time>2026-04-18T12:52:49.999Z</time></trkpt><trkpt lat="42.771686363688055" lon="10.238748192790572"><ele>17.0</ele><time>2026-04-18T12:52:50.999Z</time></trkpt><trkpt lat="42.77180938934324" lon="10.238853001310611"><ele>17.0</ele><time>2026-04-18T12:52:51.999Z</time></trkpt><trkpt lat="42.771928305826684" lon="10.238968495420934"><ele>17.0</ele><time>2026-04-18T12:52:52.999Z</time></trkpt><trkpt lat="42.772038595188995" lon="10.239075831063815"><ele>17.5</ele><time>2026-04-18T12:52:53.999Z</time></trkpt><trkpt lat="42.7721324335573" lon="10.239201676350284"><ele>18.0</ele><time>2026-04-18T12:52:54.999Z</time></trkpt><trkpt lat="42.77222891221261" lon="10.239322816627414"><ele>18.5</ele><time>2026-04-18T12:52:55.999Z</time></trkpt><trkpt lat="42.77232921797362" lon="10.23947256144603"><ele>19.0</ele><time>2026-04-18T12:52:56.999Z</time></trkpt><trkpt lat="42.77242332254037" lon="10.239624137379163"><ele>19.0</ele><time>2026-04-18T12:52:57.999Z</time></trkpt><trkpt lat="42.772516080918486" lon="10.239772873251031"><ele>19.0</ele><time>2026-04-18T12:52:58.999Z</time></trkpt><trkpt lat="42.7726057263864" lon="10.23991509139949"><ele>19.0</ele><time>2026-04-18T12:52:59.999Z</time></trkpt><trkpt lat="42.772693550064425" lon="10.240056150830643"><ele>19.0</ele><time>2026-04-18T12:53:00.999Z</time></trkpt><trkpt lat="42.77277480708838" lon="10.240200542741897"><ele>19.0</ele><time>2026-04-18T12:53:01.999Z</time></trkpt><trkpt lat="42.77283609646917" lon="10.240368307769163"><ele>19.0</ele><time>2026-04-18T12:53:02.999Z</time></trkpt><trkpt lat="42.77291715682998" lon="10.240512056023281"><ele>19.0</ele><time>2026-04-18T12:53:03.999Z</time></trkpt><trkpt lat="42.77299967326524" lon="10.240658652099105"><ele>19.0</ele><time>2026-04-18T12:53:04.999Z</time></trkpt><trkpt lat="42.77307500890432" lon="10.24080600858023"><ele>19.0</ele><time>2026-04-18T12:53:05.999Z</time></trkpt><trkpt lat="42.77314188400575" lon="10.240966422611152"><ele>19.0</ele><time>2026-04-18T12:53:06.999Z</time></trkpt><trkpt lat="42.7731931767273" lon="10.241143747170486"><ele>19.0</ele><time>2026-04-18T12:53:07.999Z</time></trkpt><trkpt lat="42.77324047160567" lon="10.241336272835031"><ele>19.0</ele><time>2026-04-18T12:53:08.999Z</time></trkpt><trkpt lat="42.773281146269056" lon="10.241524796592024"><ele>19.0</ele><time>2026-04-18T12:53:09.999Z</time></trkpt><trkpt lat="42.773320737641455" lon="10.241712015941433"><ele>19.0</ele><time>2026-04-18T12:53:10.999Z</time></trkpt><trkpt lat="42.77335824190085" lon="10.241889364834279"><ele>19.0</ele><time>2026-04-18T12:53:11.999Z</time></trkpt><trkpt lat="42.77340885526887" lon="10.24206022810487"><ele>19.0</ele><time>2026-04-18T12:53:12.999Z</time></trkpt><trkpt lat="42.773481559535156" lon="10.242229755379858"><ele>20.0</ele><time>2026-04-18T12:53:13.999Z</time></trkpt><trkpt lat="42.77355082217062" lon="10.24240993693883"><ele>21.0</ele><time>2026-04-18T12:53:14.999Z</time></trkpt><trkpt lat="42.77363832956178" lon="10.242574796915378"><ele>22.0</ele><time>2026-04-18T12:53:15.999Z</time></trkpt><trkpt lat="42.77374324344848" lon="10.242729510578231"><ele>22.0</ele><time>2026-04-18T12:53:16.999Z</time></trkpt><trkpt lat="42.77386128555132" lon="10.242863163270941"><ele>22.0</ele><time>2026-04-18T12:53:17.999Z</time></trkpt><trkpt lat="42.77398190113972" lon="10.2429923683718"><ele>22.0</ele><time>2026-04-18T12:53:18.999Z</time></trkpt><trkpt lat="42.77409555285661" lon="10.243126309102562"><ele>22.25</ele><time>2026-04-18T12:53:19.999Z</time></trkpt><trkpt lat="42.77421857969728" lon="10.243249869661842"><ele>22.5</ele><time>2026-04-18T12:53:20.999Z</time></trkpt><trkpt lat="42.77434085765237" lon="10.243377533444425"><ele>22.75</ele><time>2026-04-18T12:53:21.999Z</time></trkpt><trkpt lat="42.77445591093844" lon="10.243491441784796"><ele>23.0</ele><time>2026-04-18T12:53:22.999Z</time></trkpt><trkpt lat="42.77456700092165" lon="10.24359016544092"><ele>24.5</ele><time>2026-04-18T12:53:23.999Z</time></trkpt><trkpt lat="42.77467915080148" lon="10.2436849263779"><ele>26.0</ele><time>2026-04-18T12:53:24.999Z</time></trkpt><trkpt lat="42.77479118770007" lon="10.243773485832305"><ele>27.5</ele><time>2026-04-18T12:53:25.999Z</time></trkpt><trkpt lat="42.77488418400608" lon="10.24384984455762"><ele>29.0</ele><time>2026-04-18T12:53:26.999Z</time></trkpt><trkpt lat="42.77498316978004" lon="10.243928628067518"><ele>28.833333333333332</ele><time>2026-04-18T12:53:27.999Z</time></trkpt><trkpt lat="42.775070335404486" lon="10.244005484076418"><ele>28.666666666666664</ele><time>2026-04-18T12:53:28.999Z</time></trkpt><trkpt lat="42.775150095802566" lon="10.24407215987371"><ele>28.5</ele><time>2026-04-18T12:53:29.999Z</time></trkpt><trkpt lat="42.77522287468826" lon="10.244130908802916"><ele>28.333333333333336</ele><time>2026-04-18T12:53:30.999Z</time></trkpt><trkpt lat="42.775285958314775" lon="10.244179186203773"><ele>28.166666666666668</ele><time>2026-04-18T12:53:31.999Z</time></trkpt><trkpt lat="42.775338275412466" lon="10.244235373735496"><ele>28.0</ele><time>2026-04-18T12:53:32.999Z</time></trkpt><trkpt lat="42.775362334839784" lon="10.244354329614719"><ele>28.0</ele><time>2026-04-18T12:53:34.999Z</time></trkpt><trkpt lat="42.775266932017004" lon="10.244367375583911"><ele>27.999999999999996</ele><time>2026-04-18T12:53:35.999Z</time></trkpt><trkpt lat="42.77519069571865" lon="10.244505563833442"><ele>27.999999999999996</ele><time>2026-04-18T12:53:37.999Z</time></trkpt><trkpt lat="42.77514357329062" lon="10.244591160449007"><ele>28.0</ele><time>2026-04-18T12:53:38.999Z</time></trkpt><trkpt lat="42.77509490209693" lon="10.244675503517637"><ele>28.0</ele><time>2026-04-18T12:53:39.999Z</time></trkpt><trkpt lat="42.77504381738298" lon="10.244760177828798"><ele>28.000000000000004</ele><time>2026-04-18T12:53:40.999Z</time></trkpt><trkpt lat="42.77499306087103" lon="10.244846250621505"><ele>28.0</ele><time>2026-04-18T12:53:41.999Z</time></trkpt><trkpt lat="42.774937633165706" lon="10.24494347559334"><ele>28.0</ele><time>2026-04-18T12:53:42.999Z</time></trkpt><trkpt lat="42.774872180559484" lon="10.24502142804965"><ele>28.0</ele><time>2026-04-18T12:53:43.999Z</time></trkpt><trkpt lat="42.774803752347225" lon="10.24510041848246"><ele>28.000000000000004</ele><time>2026-04-18T12:53:44.999Z</time></trkpt><trkpt lat="42.774742166520596" lon="10.245175823188594"><ele>28.0</ele><time>2026-04-18T12:53:45.999Z</time></trkpt><trkpt lat="42.7746922783618" lon="10.245237420917178"><ele>28.000000000000004</ele><time>2026-04-18T12:53:46.999Z</time></trkpt><trkpt lat="42.77463376945572" lon="10.245279233001966"><ele>28.0</ele><time>2026-04-18T12:53:47.999Z</time></trkpt><trkpt lat="42.7745617719861" lon="10.24525549088033"><ele>28.0</ele><time>2026-04-18T12:53:48.999Z</time></trkpt><trkpt lat="42.774478597731715" lon="10.245243876934303"><ele>28.0</ele><time>2026-04-18T12:53:49.999Z</time></trkpt><trkpt lat="42.77438708519872" lon="10.245249179905818"><ele>28.000000000000004</ele><time>2026-04-18T12:53:50.999Z</time></trkpt><trkpt lat="42.774279113925" lon="10.245286450419519"><ele>28.0</ele><time>2026-04-18T12:53:51.999Z</time></trkpt><trkpt lat="42.77418078358406" lon="10.24537750567253"><ele>27.833333333333336</ele><time>2026-04-18T12:53:52.999Z</time></trkpt><trkpt lat="42.77411825682683" lon="10.245458794869887"><ele>27.666666666666668</ele><time>2026-04-18T12:53:53.999Z</time></trkpt><trkpt lat="42.77406632793962" lon="10.245539072803588"><ele>27.5</ele><time>2026-04-18T12:53:54.999Z</time></trkpt><trkpt lat="42.7740586201299" lon="10.245648513409483"><ele>27.333333333333336</ele><time>2026-04-18T12:53:55.999Z</time></trkpt><trkpt lat="42.77409425417351" lon="10.245768507569009"><ele>27.166666666666668</ele><time>2026-04-18T12:53:56.999Z</time></trkpt><trkpt lat="42.77413451148626" lon="10.245891479614613"><ele>27.0</ele><time>2026-04-18T12:53:57.999Z</time></trkpt><trkpt lat="42.774188235859015" lon="10.246019115906027"><ele>27.0</ele><time>2026-04-18T12:53:58.999Z</time></trkpt><trkpt lat="42.774194713455465" lon="10.246170766859843"><ele>27.000000000000004</ele><time>2026-04-18T12:53:59.999Z</time></trkpt><trkpt lat="42.77420353257902" lon="10.246324269948639"><ele>27.000000000000004</ele><time>2026-04-18T12:54:00.999Z</time></trkpt><trkpt lat="42.77420527682095" lon="10.246475412568095"><ele>27.0</ele><time>2026-04-18T12:54:01.999Z</time></trkpt><trkpt lat="42.7741989500039" lon="10.246627027326129"><ele>27.0</ele><time>2026-04-18T12:54:02.999Z</time></trkpt><trkpt lat="42.774190134354775" lon="10.246766518237028"><ele>27.0</ele><time>2026-04-18T12:54:03.999Z</time></trkpt><trkpt lat="42.774180538065536" lon="10.246907873218387"><ele>27.000000000000004</ele><time>2026-04-18T12:54:04.999Z</time></trkpt><trkpt lat="42.774169063116126" lon="10.247057054647646"><ele>27.000000000000004</ele><time>2026-04-18T12:54:05.999Z</time></trkpt><trkpt lat="42.77415738279076" lon="10.247212753431675"><ele>27.0</ele><time>2026-04-18T12:54:06.999Z</time></trkpt><trkpt lat="42.77414914152925" lon="10.247361205750792"><ele>27.0</ele><time>2026-04-18T12:54:07.999Z</time></trkpt><trkpt lat="42.774157893061506" lon="10.247506769087336"><ele>27.200000000000003</ele><time>2026-04-18T12:54:08.999Z</time></trkpt><trkpt lat="42.7741329915692" lon="10.247629083823405"><ele>27.400000000000002</ele><time>2026-04-18T12:54:09.999Z</time></trkpt><trkpt lat="42.77402804300726" lon="10.247675309658353"><ele>27.599999999999998</ele><time>2026-04-18T12:54:10.999Z</time></trkpt><trkpt lat="42.77396409334684" lon="10.247756023111807"><ele>27.799999999999997</ele><time>2026-04-18T12:54:11.999Z</time></trkpt><trkpt lat="42.773885619026835" lon="10.247850169883188"><ele>28.0</ele><time>2026-04-18T12:54:12.999Z</time></trkpt><trkpt lat="42.77380529580735" lon="10.247952936045504"><ele>28.000000000000004</ele><time>2026-04-18T12:54:13.999Z</time></trkpt><trkpt lat="42.773732952893134" lon="10.248045179733465"><ele>28.0</ele><time>2026-04-18T12:54:14.999Z</time></trkpt><trkpt lat="42.77367290040742" lon="10.248111903552363"><ele>28.0</ele><time>2026-04-18T12:54:15.999Z</time></trkpt><trkpt lat="42.77358871936891" lon="10.248127366456163"><ele>28.0</ele><time>2026-04-18T12:54:18Z</time></trkpt><trkpt lat="42.77355166328799" lon="10.248035782979327"><ele>28.000000000000004</ele><time>2026-04-18T12:54:19.999Z</time></trkpt><trkpt lat="42.77349438810765" lon="10.247956507092825"><ele>28.0</ele><time>2026-04-18T12:54:20.999Z</time></trkpt><trkpt lat="42.77346518282072" lon="10.247831021280719"><ele>29.599999999999998</ele><time>2026-04-18T12:54:22Z</time></trkpt><trkpt lat="42.773434337583296" lon="10.247703381859415"><ele>31.199999999999996</ele><time>2026-04-18T12:54:23Z</time></trkpt><trkpt lat="42.77341201321442" lon="10.2475857334857"><ele>32.8</ele><time>2026-04-18T12:54:24Z</time></trkpt><trkpt lat="42.77336019463293" lon="10.247511096368136"><ele>34.4</ele><time>2026-04-18T12:54:25Z</time></trkpt><trkpt lat="42.77329024285299" lon="10.247390480950859"><ele>36.0</ele><time>2026-04-18T12:54:26Z</time></trkpt><trkpt lat="42.773198220046005" lon="10.247294742605854"><ele>34.0</ele><time>2026-04-18T12:54:27Z</time></trkpt><trkpt lat="42.77309902572933" lon="10.247227354669914"><ele>32.0</ele><time>2026-04-18T12:54:28Z</time></trkpt><trkpt lat="42.7729648749401" lon="10.247214780801578"><ele>30.0</ele><time>2026-04-18T12:54:29Z</time></trkpt><trkpt lat="42.77284437746618" lon="10.247207528774604"><ele>28.0</ele><time>2026-04-18T12:54:30Z</time></trkpt><trkpt lat="42.77273886334013" lon="10.247218086726154"><ele>28.5</ele><time>2026-04-18T12:54:31Z</time></trkpt><trkpt lat="42.772643592554616" lon="10.247241826362712"><ele>29.0</ele><time>2026-04-18T12:54:32Z</time></trkpt><trkpt lat="42.7725419727469" lon="10.247297313932082"><ele>29.5</ele><time>2026-04-18T12:54:33Z</time></trkpt><trkpt lat="42.77242284143577" lon="10.247378404830226"><ele>30.0</ele><time>2026-04-18T12:54:34Z</time></trkpt><trkpt lat="42.77232932337337" lon="10.247461726585867"><ele>33.0</ele><time>2026-04-18T12:54:35Z</time></trkpt><trkpt lat="42.77223612648679" lon="10.247556861458692"><ele>36.0</ele><time>2026-04-18T12:54:36Z</time></trkpt><trkpt lat="42.77215177737742" lon="10.247649120854067"><ele>39.0</ele><time>2026-04-18T12:54:37Z</time></trkpt><trkpt lat="42.77207095565827" lon="10.247740055410741"><ele>42.0</ele><time>2026-04-18T12:54:38Z</time></trkpt><trkpt lat="42.77198942987387" lon="10.247850066376865"><ele>45.0</ele><time>2026-04-18T12:54:39Z</time></trkpt><trkpt lat="42.77191950851588" lon="10.247978015000616"><ele>45.0</ele><time>2026-04-18T12:54:40Z</time></trkpt><trkpt lat="42.77185821429917" lon="10.248112254298151"><ele>45.0</ele><time>2026-04-18T12:54:41Z</time></trkpt><trkpt lat="42.771802753312436" lon="10.24823169317583"><ele>45.0</ele><time>2026-04-18T12:54:42Z</time></trkpt><trkpt lat="42.771751674276004" lon="10.248335944235917"><ele>45.0</ele><time>2026-04-18T12:54:43Z</time></trkpt><trkpt lat="42.771695369637555" lon="10.248446736762624"><ele>45.0</ele><time>2026-04-18T12:54:44Z</time></trkpt><trkpt lat="42.77162887403518" lon="10.248574375656421"><ele>45.6</ele><time>2026-04-18T12:54:45Z</time></trkpt><trkpt lat="42.77156328888909" lon="10.248678726516292"><ele>46.2</ele><time>2026-04-18T12:54:46Z</time></trkpt><trkpt lat="42.77148493478684" lon="10.248767067267794"><ele>46.8</ele><time>2026-04-18T12:54:47Z</time></trkpt><trkpt lat="42.77140028184759" lon="10.248845650969027"><ele>47.4</ele><time>2026-04-18T12:54:48Z</time></trkpt><trkpt lat="42.771319518645285" lon="10.24891045058302"><ele>48.0</ele><time>2026-04-18T12:54:49Z</time></trkpt><trkpt lat="42.77124955060258" lon="10.248977169036003"><ele>48.2</ele><time>2026-04-18T12:54:50Z</time></trkpt><trkpt lat="42.77119435975912" lon="10.249085459926121"><ele>48.4</ele><time>2026-04-18T12:54:51Z</time></trkpt><trkpt lat="42.77115089490228" lon="10.249191732067697"><ele>48.6</ele><time>2026-04-18T12:54:52Z</time></trkpt><trkpt lat="42.771079554430024" lon="10.249275580538814"><ele>48.800000000000004</ele><time>2026-04-18T12:54:53Z</time></trkpt><trkpt lat="42.77101192563346" lon="10.249387575592104"><ele>49.0</ele><time>2026-04-18T12:54:54Z</time></trkpt><trkpt lat="42.77097982153615" lon="10.249528255818403"><ele>49.0</ele><time>2026-04-18T12:54:55Z</time></trkpt><trkpt lat="42.77092198371262" lon="10.24963750716804"><ele>49.0</ele><time>2026-04-18T12:54:56Z</time></trkpt><trkpt lat="42.77085002447607" lon="10.249743863652485"><ele>49.0</ele><time>2026-04-18T12:54:57Z</time></trkpt><trkpt lat="42.770783705889286" lon="10.249855787535417"><ele>49.0</ele><time>2026-04-18T12:54:58Z</time></trkpt><trkpt lat="42.77071727402669" lon="10.249969480649792"><ele>49.0</ele><time>2026-04-18T12:54:59Z</time></trkpt><trkpt lat="42.77066964422168" lon="10.250109378211203"><ele>52.0</ele><time>2026-04-18T12:55:00Z</time></trkpt><trkpt lat="42.7706337565577" lon="10.25025518009059"><ele>55.0</ele><time>2026-04-18T12:55:01Z</time></trkpt><trkpt lat="42.77064229252538" lon="10.250404366630246"><ele>58.0</ele><time>2026-04-18T12:55:02Z</time></trkpt><trkpt lat="42.77068029162739" lon="10.250561098576663"><ele>61.0</ele><time>2026-04-18T12:55:03Z</time></trkpt><trkpt lat="42.77071348194548" lon="10.250699221473178"><ele>63.199999999999996</ele><time>2026-04-18T12:55:04Z</time></trkpt><trkpt lat="42.7707209440958" lon="10.250831014610688"><ele>65.39999999999999</ele><time>2026-04-18T12:55:05Z</time></trkpt><trkpt lat="42.77072624885158" lon="10.250950934758224"><ele>67.6</ele><time>2026-04-18T12:55:06Z</time></trkpt><trkpt lat="42.770808752240065" lon="10.25107326946949"><ele>69.8</ele><time>2026-04-18T12:55:08Z</time></trkpt><trkpt lat="42.770872330298396" lon="10.251070374729732"><ele>72.0</ele><time>2026-04-18T12:55:09Z</time></trkpt><trkpt lat="42.770944325892046" lon="10.250967522113752"><ele>72.0</ele><time>2026-04-18T12:55:11Z</time></trkpt><trkpt lat="42.77094001077887" lon="10.250845215040954"><ele>72.0</ele><time>2026-04-18T12:55:12Z</time></trkpt><trkpt lat="42.770905444280736" lon="10.250702390978919"><ele>72.0</ele><time>2026-04-18T12:55:13Z</time></trkpt><trkpt lat="42.77089183369729" lon="10.250550803397037"><ele>72.0</ele><time>2026-04-18T12:55:14Z</time></trkpt><trkpt lat="42.770904661109434" lon="10.250387998163406"><ele>72.0</ele><time>2026-04-18T12:55:15Z</time></trkpt><trkpt lat="42.770925590911126" lon="10.250237833746606"><ele>72.0</ele><time>2026-04-18T12:55:16Z</time></trkpt><trkpt lat="42.77095972771134" lon="10.2501327932031"><ele>72.0</ele><time>2026-04-18T12:55:17Z</time></trkpt><trkpt lat="42.77102591784105" lon="10.250041041449558"><ele>72.0</ele><time>2026-04-18T12:55:18Z</time></trkpt><trkpt lat="42.77111218362168" lon="10.249968064934547"><ele>72.0</ele><time>2026-04-18T12:55:19Z</time></trkpt><trkpt lat="42.77120837059241" lon="10.249910233291407"><ele>72.0</ele><time>2026-04-18T12:55:20Z</time></trkpt><trkpt lat="42.77128270694404" lon="10.249861611387233"><ele>72.0</ele><time>2026-04-18T12:55:21Z</time></trkpt><trkpt lat="42.771395007377116" lon="10.249829688751403"><ele>72.0</ele><time>2026-04-18T12:55:23Z</time></trkpt><trkpt lat="42.7714600545279" lon="10.249870154409038"><ele>72.0</ele><time>2026-04-18T12:55:24Z</time></trkpt><trkpt lat="42.77151153343183" lon="10.249959224729137"><ele>72.0</ele><time>2026-04-18T12:55:25Z</time></trkpt><trkpt lat="42.77153276371124" lon="10.250052106778792"><ele>72.0</ele><time>2026-04-18T12:55:26Z</time></trkpt><trkpt lat="42.77153392753922" lon="10.250166119060589"><ele>72.0</ele><time>2026-04-18T12:55:27Z</time></trkpt><trkpt lat="42.77151502356494" lon="10.250285123466236"><ele>72.0</ele><time>2026-04-18T12:55:28Z</time></trkpt><trkpt lat="42.77148292507081" lon="10.250388031539773"><ele>72.0</ele><time>2026-04-18T12:55:29Z</time></trkpt><trkpt lat="42.771440039541964" lon="10.25049315133722"><ele>72.0</ele><time>2026-04-18T12:55:30Z</time></trkpt><trkpt lat="42.771380806227455" lon="10.250592959976109"><ele>72.0</ele><time>2026-04-18T12:55:31Z</time></trkpt><trkpt lat="42.77133554853931" lon="10.250699000548282"><ele>72.0</ele><time>2026-04-18T12:55:32Z</time></trkpt><trkpt lat="42.77131540607037" lon="10.250846517094752"><ele>74.75</ele><time>2026-04-18T12:55:33Z</time></trkpt><trkpt lat="42.77132013965549" lon="10.251002135169482"><ele>77.5</ele><time>2026-04-18T12:55:34Z</time></trkpt><trkpt lat="42.771334474012946" lon="10.251172276307845"><ele>80.25</ele><time>2026-04-18T12:55:35Z</time></trkpt><trkpt lat="42.77135038194425" lon="10.251338764459705"><ele>83.0</ele><time>2026-04-18T12:55:35.999Z</time></trkpt><trkpt lat="42.77138145753424" lon="10.25150002549648"><ele>84.16666666666667</ele><time>2026-04-18T12:55:36.999Z</time></trkpt><trkpt lat="42.771420463043476" lon="10.25163981361324"><ele>85.33333333333334</ele><time>2026-04-18T12:55:37.999Z</time></trkpt><trkpt lat="42.77145492752591" lon="10.251762086015644"><ele>86.5</ele><time>2026-04-18T12:55:38.999Z</time></trkpt><trkpt lat="42.771477877672254" lon="10.251876722146129"><ele>87.66666666666667</ele><time>2026-04-18T12:55:39.999Z</time></trkpt><trkpt lat="42.77148193147398" lon="10.251987362389288"><ele>88.83333333333333</ele><time>2026-04-18T12:55:40.999Z</time></trkpt><trkpt lat="42.7714652070731" lon="10.252083320956192"><ele>90.0</ele><time>2026-04-18T12:55:41.999Z</time></trkpt><trkpt lat="42.77143488063672" lon="10.252181554411585"><ele>90.0</ele><time>2026-04-18T12:55:42.999Z</time></trkpt><trkpt lat="42.77137982089939" lon="10.252262699684216"><ele>90.0</ele><time>2026-04-18T12:55:43.999Z</time></trkpt><trkpt lat="42.771300579844066" lon="10.252328974830572"><ele>90.0</ele><time>2026-04-18T12:55:44.999Z</time></trkpt><trkpt lat="42.77123074223655" lon="10.252401921249719"><ele>90.0</ele><time>2026-04-18T12:55:45.999Z</time></trkpt><trkpt lat="42.77117746149022" lon="10.252505997294369"><ele>90.0</ele><time>2026-04-18T12:55:46.999Z</time></trkpt><trkpt lat="42.77113045774665" lon="10.252632480349945"><ele>90.4</ele><time>2026-04-18T12:55:47.999Z</time></trkpt><trkpt lat="42.77107881948725" lon="10.252751541065846"><ele>90.8</ele><time>2026-04-18T12:55:48.999Z</time></trkpt><trkpt lat="42.77102183723019" lon="10.252862240229774"><ele>91.19999999999999</ele><time>2026-04-18T12:55:49.999Z</time></trkpt><trkpt lat="42.7709715957553" lon="10.252990213918777"><ele>91.6</ele><time>2026-04-18T12:55:50.999Z</time></trkpt><trkpt lat="42.77094506914381" lon="10.253138900674124"><ele>92.0</ele><time>2026-04-18T12:55:51.999Z</time></trkpt><trkpt lat="42.770923913246186" lon="10.253301154147813"><ele>93.19999999999999</ele><time>2026-04-18T12:55:52.999Z</time></trkpt><trkpt lat="42.77088886351917" lon="10.253453358842982"><ele>94.4</ele><time>2026-04-18T12:55:53.999Z</time></trkpt><trkpt lat="42.77083836052715" lon="10.253593359949129"><ele>95.6</ele><time>2026-04-18T12:55:54.999Z</time></trkpt><trkpt lat="42.77078169558996" lon="10.253715303114406"><ele>96.80000000000001</ele><time>2026-04-18T12:55:55.999Z</time></trkpt><trkpt lat="42.770719492283746" lon="10.253835468805883"><ele>98.0</ele><time>2026-04-18T12:55:56.999Z</time></trkpt><trkpt lat="42.770652791719876" lon="10.253931228312629"><ele>98.5</ele><time>2026-04-18T12:55:57.999Z</time></trkpt><trkpt lat="42.77057237240037" lon="10.254024101553732"><ele>99.0</ele><time>2026-04-18T12:55:58.999Z</time></trkpt><trkpt lat="42.77047791810827" lon="10.254123824491534"><ele>99.5</ele><time>2026-04-18T12:55:59.999Z</time></trkpt><trkpt lat="42.77037779255178" lon="10.254206911058603"><ele>100.0</ele><time>2026-04-18T12:56:00.999Z</time></trkpt><trkpt lat="42.77026363014722" lon="10.254293259136555"><ele>98.5</ele><time>2026-04-18T12:56:01.999Z</time></trkpt><trkpt lat="42.77014695103797" lon="10.254375549311561"><ele>97.0</ele><time>2026-04-18T12:56:02.999Z</time></trkpt><trkpt lat="42.7700413928225" lon="10.254456065020994"><ele>95.5</ele><time>2026-04-18T12:56:03.999Z</time></trkpt><trkpt lat="42.769929916656444" lon="10.254520829132135"><ele>94.0</ele><time>2026-04-18T12:56:04.999Z</time></trkpt><trkpt lat="42.76982113642375" lon="10.254610474752686"><ele>94.0</ele><time>2026-04-18T12:56:05.999Z</time></trkpt><trkpt lat="42.769724050565095" lon="10.254733410161274"><ele>94.0</ele><time>2026-04-18T12:56:06.999Z</time></trkpt><trkpt lat="42.7696366011459" lon="10.25485782753376"><ele>94.0</ele><time>2026-04-18T12:56:07.999Z</time></trkpt><trkpt lat="42.769560577040885" lon="10.254980232136633"><ele>94.0</ele><time>2026-04-18T12:56:08.999Z</time></trkpt><trkpt lat="42.769491257974686" lon="10.2551108621988"><ele>94.80000000000001</ele><time>2026-04-18T12:56:09.999Z</time></trkpt><trkpt lat="42.76945391898818" lon="10.255246305081922"><ele>95.60000000000001</ele><time>2026-04-18T12:56:10.999Z</time></trkpt><trkpt lat="42.76943740221101" lon="10.255386006104283"><ele>96.4</ele><time>2026-04-18T12:56:11.999Z</time></trkpt><trkpt lat="42.7694393388483" lon="10.25553497041907"><ele>97.2</ele><time>2026-04-18T12:56:12.999Z</time></trkpt><trkpt lat="42.76942321191932" lon="10.255661222839318"><ele>98.0</ele><time>2026-04-18T12:56:13.999Z</time></trkpt><trkpt lat="42.76939137528005" lon="10.255755317086091"><ele>99.60000000000001</ele><time>2026-04-18T12:56:14.999Z</time></trkpt><trkpt lat="42.769342852528496" lon="10.25582528747454"><ele>101.2</ele><time>2026-04-18T12:56:15.999Z</time></trkpt><trkpt lat="42.76926354836715" lon="10.25586396503784"><ele>102.8</ele><time>2026-04-18T12:56:16.999Z</time></trkpt><trkpt lat="42.76917523162582" lon="10.255903089909467"><ele>104.4</ele><time>2026-04-18T12:56:17.999Z</time></trkpt><trkpt lat="42.76905834427416" lon="10.255927386454912"><ele>106.0</ele><time>2026-04-18T12:56:18.999Z</time></trkpt><trkpt lat="42.768944910367125" lon="10.255950613191565"><ele>106.0</ele><time>2026-04-18T12:56:19.999Z</time></trkpt><trkpt lat="42.76885795754302" lon="10.255976016495621"><ele>106.0</ele><time>2026-04-18T12:56:20.999Z</time></trkpt><trkpt lat="42.768755621807244" lon="10.256022061076584"><ele>106.0</ele><time>2026-04-18T12:56:22Z</time></trkpt><trkpt lat="42.768652247390676" lon="10.25605535926192"><ele>106.0</ele><time>2026-04-18T12:56:23Z</time></trkpt><trkpt lat="42.76855276513074" lon="10.256077547216265"><ele>106.0</ele><time>2026-04-18T12:56:24Z</time></trkpt><trkpt lat="42.768466872667304" lon="10.25607431995682"><ele>107.16666666666667</ele><time>2026-04-18T12:56:25Z</time></trkpt><trkpt lat="42.768401360130184" lon="10.256044556871252"><ele>108.33333333333334</ele><time>2026-04-18T12:56:26Z</time></trkpt><trkpt lat="42.76831701919221" lon="10.255995659443123"><ele>109.5</ele><time>2026-04-18T12:56:27Z</time></trkpt><trkpt lat="42.76821541976831" lon="10.25595196183917"><ele>110.66666666666666</ele><time>2026-04-18T12:56:28Z</time></trkpt><trkpt lat="42.76812395397432" lon="10.255931942163624"><ele>111.83333333333333</ele><time>2026-04-18T12:56:29Z</time></trkpt><trkpt lat="42.768049031251486" lon="10.25588801685156"><ele>113.0</ele><time>2026-04-18T12:56:30Z</time></trkpt><trkpt lat="42.76797597164839" lon="10.255834058184945"><ele>113.0</ele><time>2026-04-18T12:56:31Z</time></trkpt><trkpt lat="42.767916014557855" lon="10.255761005558648"><ele>113.00000000000001</ele><time>2026-04-18T12:56:32Z</time></trkpt><trkpt lat="42.76786133639456" lon="10.255672770666877"><ele>113.00000000000001</ele><time>2026-04-18T12:56:33Z</time></trkpt><trkpt lat="42.76780292848631" lon="10.25558612775827"><ele>113.0</ele><time>2026-04-18T12:56:33.999Z</time></trkpt><trkpt lat="42.767721345738714" lon="10.255508144976492"><ele>113.0</ele><time>2026-04-18T12:56:34.999Z</time></trkpt><trkpt lat="42.76762917397276" lon="10.255446746530293"><ele>112.4</ele><time>2026-04-18T12:56:35.999Z</time></trkpt><trkpt lat="42.76754881873526" lon="10.255407189388201"><ele>111.80000000000001</ele><time>2026-04-18T12:56:36.999Z</time></trkpt><trkpt lat="42.767454077652715" lon="10.255390914489428"><ele>111.2</ele><time>2026-04-18T12:56:38Z</time></trkpt><trkpt lat="42.76732885624072" lon="10.255370752273786"><ele>110.6</ele><time>2026-04-18T12:56:39Z</time></trkpt><trkpt lat="42.76722229967428" lon="10.25533451348028"><ele>110.0</ele><time>2026-04-18T12:56:40Z</time></trkpt><trkpt lat="42.76713589555703" lon="10.255277321314791"><ele>109.99999999999999</ele><time>2026-04-18T12:56:41Z</time></trkpt><trkpt lat="42.76707471828132" lon="10.255241216323862"><ele>110.0</ele><time>2026-04-18T12:56:42Z</time></trkpt><trkpt lat="42.767021763181525" lon="10.255194760179544"><ele>110.0</ele><time>2026-04-18T12:56:43Z</time></trkpt><trkpt lat="42.76693058890249" lon="10.255147063373423"><ele>110.0</ele><time>2026-04-18T12:56:45Z</time></trkpt><trkpt lat="42.7668553410522" lon="10.255161478714822"><ele>109.99999999999999</ele><time>2026-04-18T12:56:48Z</time></trkpt><trkpt lat="42.76690244639464" lon="10.255291708078447"><ele>110.0</ele><time>2026-04-18T12:58:58Z</time></trkpt><trkpt lat="42.76687721502149" lon="10.255398032026578"><ele>110.0</ele><time>2026-04-18T12:59:00Z</time></trkpt><trkpt lat="42.76694395440952" lon="10.255499105866404"><ele>110.0</ele><time>2026-04-18T12:59:02Z</time></trkpt><trkpt lat="42.76707623900121" lon="10.255484583185808"><ele>110.0</ele><time>2026-04-18T12:59:04Z</time></trkpt><trkpt lat="42.76715307709087" lon="10.255484962898937"><ele>110.0</ele><time>2026-04-18T12:59:05Z</time></trkpt><trkpt lat="42.76723140915032" lon="10.255500822203823"><ele>110.0</ele><time>2026-04-18T12:59:06Z</time></trkpt><trkpt lat="42.767319360725914" lon="10.255520781253013"><ele>109.99999999999999</ele><time>2026-04-18T12:59:07Z</time></trkpt><trkpt lat="42.7674069612605" lon="10.255551003753995"><ele>110.0</ele><time>2026-04-18T12:59:08Z</time></trkpt><trkpt lat="42.767467499132245" lon="10.255591563194931"><ele>110.0</ele><time>2026-04-18T12:59:09Z</time></trkpt><trkpt lat="42.76753361643629" lon="10.255630807739315"><ele>110.0</ele><time>2026-04-18T12:59:10Z</time></trkpt><trkpt lat="42.76759219375541" lon="10.255684254985663"><ele>110.0</ele><time>2026-04-18T12:59:11Z</time></trkpt><trkpt lat="42.76763199593465" lon="10.255759391776358"><ele>109.99999999999999</ele><time>2026-04-18T12:59:12Z</time></trkpt><trkpt lat="42.76765509487546" lon="10.255861879470693"><ele>110.0</ele><time>2026-04-18T12:59:13Z</time></trkpt><trkpt lat="42.76767466353759" lon="10.255984500646758"><ele>110.49999999999999</ele><time>2026-04-18T12:59:14Z</time></trkpt><trkpt lat="42.76769921356222" lon="10.256079956001196"><ele>111.0</ele><time>2026-04-18T12:59:15Z</time></trkpt><trkpt lat="42.76776106100398" lon="10.256193486016821"><ele>111.5</ele><time>2026-04-18T12:59:17Z</time></trkpt><trkpt lat="42.76781553433472" lon="10.256249351996992"><ele>112.0</ele><time>2026-04-18T12:59:18Z</time></trkpt><trkpt lat="42.767880329513986" lon="10.256306309730617"><ele>112.49999999999999</ele><time>2026-04-18T12:59:19Z</time></trkpt><trkpt lat="42.767947439547164" lon="10.256379391539191"><ele>113.0</ele><time>2026-04-18T12:59:20Z</time></trkpt><trkpt lat="42.76801068162639" lon="10.256447062128506"><ele>117.16666666666666</ele><time>2026-04-18T12:59:21Z</time></trkpt><trkpt lat="42.768084375170865" lon="10.256504186868638"><ele>121.33333333333333</ele><time>2026-04-18T12:59:22Z</time></trkpt><trkpt lat="42.768175438263626" lon="10.25655014326643"><ele>125.5</ele><time>2026-04-18T12:59:23Z</time></trkpt><trkpt lat="42.768251467980825" lon="10.256578395186153"><ele>129.66666666666666</ele><time>2026-04-18T12:59:24Z</time></trkpt><trkpt lat="42.768330933148725" lon="10.256597774173429"><ele>133.83333333333334</ele><time>2026-04-18T12:59:25Z</time></trkpt><trkpt lat="42.76841465909771" lon="10.256628321232922"><ele>138.0</ele><time>2026-04-18T12:59:26Z</time></trkpt><trkpt lat="42.768489401563095" lon="10.25667712780372"><ele>135.0</ele><time>2026-04-18T12:59:27Z</time></trkpt><trkpt lat="42.76857554150926" lon="10.256736471841673"><ele>132.0</ele><time>2026-04-18T12:59:28Z</time></trkpt><trkpt lat="42.768665541915986" lon="10.2568273485045"><ele>129.0</ele><time>2026-04-18T12:59:29Z</time></trkpt><trkpt lat="42.76873905638975" lon="10.25690983669617"><ele>126.0</ele><time>2026-04-18T12:59:30Z</time></trkpt><trkpt lat="42.768796959946414" lon="10.257008444934048"><ele>123.0</ele><time>2026-04-18T12:59:31Z</time></trkpt><trkpt lat="42.76885222402541" lon="10.257093704980493"><ele>123.0</ele><time>2026-04-18T12:59:32Z</time></trkpt><trkpt lat="42.76890847805175" lon="10.257186946956214"><ele>123.0</ele><time>2026-04-18T12:59:33Z</time></trkpt><trkpt lat="42.76896833753816" lon="10.257266307369173"><ele>123.0</ele><time>2026-04-18T12:59:34Z</time></trkpt><trkpt lat="42.76903635305314" lon="10.257350688148648"><ele>123.0</ele><time>2026-04-18T12:59:35Z</time></trkpt><trkpt lat="42.769098085622524" lon="10.257439232071397"><ele>123.0</ele><time>2026-04-18T12:59:36Z</time></trkpt><trkpt lat="42.769154295003815" lon="10.25752059131823"><ele>123.0</ele><time>2026-04-18T12:59:37Z</time></trkpt><trkpt lat="42.76920508169702" lon="10.257599802094488"><ele>126.0</ele><time>2026-04-18T12:59:38Z</time></trkpt><trkpt lat="42.769253224577135" lon="10.257709748064354"><ele>129.0</ele><time>2026-04-18T12:59:40Z</time></trkpt><trkpt lat="42.769214746486526" lon="10.257780284768485"><ele>132.0</ele><time>2026-04-18T12:59:42Z</time></trkpt><trkpt lat="42.76910734927452" lon="10.257770675604057"><ele>135.0</ele><time>2026-04-18T12:59:44Z</time></trkpt><trkpt lat="42.769064603680924" lon="10.257697394540404"><ele>138.0</ele><time>2026-04-18T12:59:45Z</time></trkpt><trkpt lat="42.769011402878185" lon="10.257592812552712"><ele>141.0</ele><time>2026-04-18T12:59:46Z</time></trkpt><trkpt lat="42.76894893312606" lon="10.257506971584048"><ele>141.0</ele><time>2026-04-18T12:59:47Z</time></trkpt><trkpt lat="42.76885687317535" lon="10.257456816970508"><ele>141.0</ele><time>2026-04-18T12:59:48Z</time></trkpt><trkpt lat="42.76875816728642" lon="10.257401816179893"><ele>141.0</ele><time>2026-04-18T12:59:49Z</time></trkpt><trkpt lat="42.768654928124555" lon="10.257345435333642"><ele>141.0</ele><time>2026-04-18T12:59:50Z</time></trkpt><trkpt lat="42.768565210901265" lon="10.25728797081309"><ele>141.0</ele><time>2026-04-18T12:59:51Z</time></trkpt><trkpt lat="42.7684854143397" lon="10.257214885156694"><ele>140.5</ele><time>2026-04-18T12:59:52Z</time></trkpt><trkpt lat="42.76841061316296" lon="10.257153852471117"><ele>140.0</ele><time>2026-04-18T12:59:53Z</time></trkpt><trkpt lat="42.76835008550643" lon="10.257083385307286"><ele>139.5</ele><time>2026-04-18T12:59:54Z</time></trkpt><trkpt lat="42.76827909526855" lon="10.257009755321842"><ele>139.0</ele><time>2026-04-18T12:59:55Z</time></trkpt><trkpt lat="42.76820257622978" lon="10.256961457196018"><ele>138.5</ele><time>2026-04-18T12:59:56Z</time></trkpt><trkpt lat="42.76810904741008" lon="10.256962525255538"><ele>138.0</ele><time>2026-04-18T12:59:57Z</time></trkpt><trkpt lat="42.76802547682875" lon="10.256947760337082"><ele>138.0</ele><time>2026-04-18T12:59:58Z</time></trkpt><trkpt lat="42.76794402329636" lon="10.256932870612973"><ele>138.0</ele><time>2026-04-18T12:59:59Z</time></trkpt><trkpt lat="42.76787227761931" lon="10.256903831724253"><ele>138.0</ele><time>2026-04-18T13:00:00Z</time></trkpt><trkpt lat="42.76780287963149" lon="10.256879239174872"><ele>138.0</ele><time>2026-04-18T13:00:01Z</time></trkpt><trkpt lat="42.7677263720644" lon="10.256857277954966"><ele>138.0</ele><time>2026-04-18T13:00:02Z</time></trkpt><trkpt lat="42.767660074195284" lon="10.25684103737942"><ele>138.0</ele><time>2026-04-18T13:00:03Z</time></trkpt><trkpt lat="42.767573903161946" lon="10.256887767520874"><ele>138.0</ele><time>2026-04-18T13:00:05Z</time></trkpt><trkpt lat="42.76757005707892" lon="10.257023968112241"><ele>138.0</ele><time>2026-04-18T13:00:07Z</time></trkpt><trkpt lat="42.7676691555797" lon="10.257104347865225"><ele>138.0</ele><time>2026-04-18T13:00:09Z</time></trkpt><trkpt lat="42.767735743786126" lon="10.257110852079968"><ele>138.0</ele><time>2026-04-18T13:00:10Z</time></trkpt><trkpt lat="42.767813479905556" lon="10.257089823166208"><ele>138.0</ele><time>2026-04-18T13:00:11Z</time></trkpt><trkpt lat="42.76789008776297" lon="10.257073987919652"><ele>138.0</ele><time>2026-04-18T13:00:12Z</time></trkpt><trkpt lat="42.76802520064061" lon="10.257169044639669"><ele>138.0</ele><time>2026-04-18T13:00:13.999Z</time></trkpt><trkpt lat="42.76811177771338" lon="10.257243199490988"><ele>138.0</ele><time>2026-04-18T13:00:14.999Z</time></trkpt><trkpt lat="42.768190121289315" lon="10.257320201015485"><ele>138.0</ele><time>2026-04-18T13:00:15.999Z</time></trkpt><trkpt lat="42.76825153967744" lon="10.257405632521614"><ele>138.0</ele><time>2026-04-18T13:00:16.999Z</time></trkpt><trkpt lat="42.7682905407936" lon="10.257481937824657"><ele>138.0</ele><time>2026-04-18T13:00:17.999Z</time></trkpt><trkpt lat="42.768330945186854" lon="10.25757012568297"><ele>138.0</ele><time>2026-04-18T13:00:18.999Z</time></trkpt><trkpt lat="42.76836508405739" lon="10.257667349230166"><ele>140.66666666666666</ele><time>2026-04-18T13:00:19.999Z</time></trkpt><trkpt lat="42.76840617139569" lon="10.257763502567315"><ele>143.33333333333334</ele><time>2026-04-18T13:00:20.999Z</time></trkpt><trkpt lat="42.768440214343954" lon="10.257847510703206"><ele>146.0</ele><time>2026-04-18T13:00:21.999Z</time></trkpt><trkpt lat="42.768485528348315" lon="10.257940712728976"><ele>148.66666666666669</ele><time>2026-04-18T13:00:22.999Z</time></trkpt><trkpt lat="42.76852072250746" lon="10.258028471850459"><ele>151.33333333333334</ele><time>2026-04-18T13:00:23.999Z</time></trkpt><trkpt lat="42.76855613917362" lon="10.258131482981046"><ele>154.0</ele><time>2026-04-18T13:00:24.999Z</time></trkpt><trkpt lat="42.76860232039955" lon="10.258230471971107"><ele>154.0</ele><time>2026-04-18T13:00:25.999Z</time></trkpt><trkpt lat="42.768657305475315" lon="10.258359286524502"><ele>154.0</ele><time>2026-04-18T13:00:26.999Z</time></trkpt><trkpt lat="42.768703987742136" lon="10.258490844446007"><ele>154.0</ele><time>2026-04-18T13:00:27.999Z</time></trkpt><trkpt lat="42.76873817909485" lon="10.258634542160339"><ele>154.0</ele><time>2026-04-18T13:00:28.999Z</time></trkpt><trkpt lat="42.76876568569607" lon="10.258792057225916"><ele>154.0</ele><time>2026-04-18T13:00:29.999Z</time></trkpt><trkpt lat="42.76879008427542" lon="10.25892770825963"><ele>156.2</ele><time>2026-04-18T13:00:30.999Z</time></trkpt><trkpt lat="42.768819680632134" lon="10.259043291221854"><ele>158.4</ele><time>2026-04-18T13:00:31.999Z</time></trkpt><trkpt lat="42.768848497684914" lon="10.259161279156833"><ele>160.6</ele><time>2026-04-18T13:00:32.999Z</time></trkpt><trkpt lat="42.76891173032226" lon="10.259285236809419"><ele>162.8</ele><time>2026-04-18T13:00:34Z</time></trkpt><trkpt lat="42.76898155896477" lon="10.259417522005922"><ele>165.0</ele><time>2026-04-18T13:00:35Z</time></trkpt><trkpt lat="42.76903477622778" lon="10.25956308114232"><ele>165.0</ele><time>2026-04-18T13:00:36Z</time></trkpt><trkpt lat="42.76910359368286" lon="10.259674161935527"><ele>165.0</ele><time>2026-04-18T13:00:37Z</time></trkpt><trkpt lat="42.76915844127154" lon="10.259756046418525"><ele>165.0</ele><time>2026-04-18T13:00:38Z</time></trkpt><trkpt lat="42.76924758215868" lon="10.259838470917034"><ele>165.0</ele><time>2026-04-18T13:00:39Z</time></trkpt><trkpt lat="42.76934378296124" lon="10.25990683748006"><ele>165.0</ele><time>2026-04-18T13:00:40Z</time></trkpt><trkpt lat="42.76944923448832" lon="10.259963893905555"><ele>164.6</ele><time>2026-04-18T13:00:41Z</time></trkpt><trkpt lat="42.769551663510796" lon="10.259998205623951"><ele>164.2</ele><time>2026-04-18T13:00:41.999Z</time></trkpt><trkpt lat="42.76964471923567" lon="10.260045553473066"><ele>163.8</ele><time>2026-04-18T13:00:42.999Z</time></trkpt><trkpt lat="42.76972010183143" lon="10.260149974374546"><ele>163.4</ele><time>2026-04-18T13:00:44Z</time></trkpt><trkpt lat="42.769799481438774" lon="10.260249185553722"><ele>163.0</ele><time>2026-04-18T13:00:44.999Z</time></trkpt><trkpt lat="42.76985853972111" lon="10.260354095449525"><ele>163.0</ele><time>2026-04-18T13:00:46Z</time></trkpt><trkpt lat="42.7699226220466" lon="10.260457590269304"><ele>163.0</ele><time>2026-04-18T13:00:47Z</time></trkpt><trkpt lat="42.77000330183602" lon="10.2605425391557"><ele>163.0</ele><time>2026-04-18T13:00:48Z</time></trkpt><trkpt lat="42.7700936798555" lon="10.26060859170371"><ele>163.0</ele><time>2026-04-18T13:00:49Z</time></trkpt><trkpt lat="42.77016264585039" lon="10.260686064444275"><ele>163.0</ele><time>2026-04-18T13:00:50Z</time></trkpt><trkpt lat="42.77023955024827" lon="10.260780608281488"><ele>161.83333333333334</ele><time>2026-04-18T13:00:51Z</time></trkpt><trkpt lat="42.770290816222186" lon="10.260867287306523"><ele>160.66666666666669</ele><time>2026-04-18T13:00:51.999Z</time></trkpt><trkpt lat="42.77035398968586" lon="10.260959681949142"><ele>159.5</ele><time>2026-04-18T13:00:52.999Z</time></trkpt><trkpt lat="42.77040228273529" lon="10.261057876115467"><ele>158.33333333333334</ele><time>2026-04-18T13:00:53.999Z</time></trkpt><trkpt lat="42.77045876968922" lon="10.261162566611278"><ele>157.16666666666666</ele><time>2026-04-18T13:00:54.999Z</time></trkpt><trkpt lat="42.770490573928825" lon="10.261263375966386"><ele>156.0</ele><time>2026-04-18T13:00:55.999Z</time></trkpt><trkpt lat="42.770506027877076" lon="10.261370039924705"><ele>156.16666666666666</ele><time>2026-04-18T13:00:56.999Z</time></trkpt><trkpt lat="42.77048704114553" lon="10.26147134583713"><ele>156.33333333333334</ele><time>2026-04-18T13:00:57.999Z</time></trkpt><trkpt lat="42.7704545481715" lon="10.26158697597865"><ele>156.5</ele><time>2026-04-18T13:00:58.999Z</time></trkpt><trkpt lat="42.77044595727323" lon="10.261689969094139"><ele>156.66666666666669</ele><time>2026-04-18T13:00:59.999Z</time></trkpt><trkpt lat="42.770442396499156" lon="10.261797190187444"><ele>156.83333333333334</ele><time>2026-04-18T13:01:00.999Z</time></trkpt><trkpt lat="42.77044493544028" lon="10.261923887065587"><ele>157.0</ele><time>2026-04-18T13:01:01.999Z</time></trkpt><trkpt lat="42.77043792120758" lon="10.26203167924862"><ele>157.0</ele><time>2026-04-18T13:01:02.999Z</time></trkpt><trkpt lat="42.770392546370275" lon="10.262122107039312"><ele>157.0</ele><time>2026-04-18T13:01:03.999Z</time></trkpt><trkpt lat="42.77034323216557" lon="10.262186337064565"><ele>157.0</ele><time>2026-04-18T13:01:04.999Z</time></trkpt><trkpt lat="42.77028444891136" lon="10.262262544793282"><ele>157.0</ele><time>2026-04-18T13:01:05.999Z</time></trkpt><trkpt lat="42.770216235994475" lon="10.262353019624362"><ele>157.0</ele><time>2026-04-18T13:01:06.999Z</time></trkpt><trkpt lat="42.770131326783066" lon="10.262435756979063"><ele>157.0</ele><time>2026-04-18T13:01:07.999Z</time></trkpt><trkpt lat="42.770037855112484" lon="10.262533920766872"><ele>162.5</ele><time>2026-04-18T13:01:08.999Z</time></trkpt><trkpt lat="42.76997500372427" lon="10.262620237604116"><ele>168.0</ele><time>2026-04-18T13:01:09.999Z</time></trkpt><trkpt lat="42.76992157574837" lon="10.262718534307727"><ele>173.5</ele><time>2026-04-18T13:01:10.999Z</time></trkpt><trkpt lat="42.769857433941965" lon="10.262811925099845"><ele>179.0</ele><time>2026-04-18T13:01:11.999Z</time></trkpt><trkpt lat="42.769809586154786" lon="10.262905643750255"><ele>184.5</ele><time>2026-04-18T13:01:12.999Z</time></trkpt><trkpt lat="42.76977358173668" lon="10.263012636715336"><ele>190.0</ele><time>2026-04-18T13:01:13.999Z</time></trkpt><trkpt lat="42.76975428536428" lon="10.263110614330051"><ele>189.0</ele><time>2026-04-18T13:01:14.999Z</time></trkpt><trkpt lat="42.76976630230427" lon="10.263298578702726"><ele>188.0</ele><time>2026-04-18T13:01:16.999Z</time></trkpt><trkpt lat="42.76979663996724" lon="10.263394872658163"><ele>187.0</ele><time>2026-04-18T13:01:17.999Z</time></trkpt><trkpt lat="42.76984411685186" lon="10.263479336861929"><ele>186.0</ele><time>2026-04-18T13:01:18.999Z</time></trkpt><trkpt lat="42.7699192831637" lon="10.263552646612327"><ele>185.0</ele><time>2026-04-18T13:01:19.999Z</time></trkpt><trkpt lat="42.7699829342964" lon="10.263653026705523"><ele>185.0</ele><time>2026-04-18T13:01:20.999Z</time></trkpt><trkpt lat="42.77002686789067" lon="10.263787377593287"><ele>185.0</ele><time>2026-04-18T13:01:21.999Z</time></trkpt><trkpt lat="42.77006027807999" lon="10.263912974997872"><ele>185.0</ele><time>2026-04-18T13:01:22.999Z</time></trkpt><trkpt lat="42.77010244147465" lon="10.263994778399057"><ele>185.0</ele><time>2026-04-18T13:01:23.999Z</time></trkpt><trkpt lat="42.77016885180923" lon="10.264079129444479"><ele>185.0</ele><time>2026-04-18T13:01:24.999Z</time></trkpt><trkpt lat="42.77025189946189" lon="10.264176038701839"><ele>181.2</ele><time>2026-04-18T13:01:25.999Z</time></trkpt><trkpt lat="42.770325363780714" lon="10.264290055479602"><ele>177.4</ele><time>2026-04-18T13:01:26.999Z</time></trkpt><trkpt lat="42.7703760204093" lon="10.264391080317925"><ele>173.60000000000002</ele><time>2026-04-18T13:01:27.999Z</time></trkpt><trkpt lat="42.77043099811969" lon="10.264478184385977"><ele>169.8</ele><time>2026-04-18T13:01:28.999Z</time></trkpt><trkpt lat="42.77048664712022" lon="10.264560851759686"><ele>166.0</ele><time>2026-04-18T13:01:29.999Z</time></trkpt><trkpt lat="42.77056128697129" lon="10.264626641290604"><ele>166.0</ele><time>2026-04-18T13:01:30.999Z</time></trkpt><trkpt lat="42.77060614833338" lon="10.2646998814205"><ele>166.0</ele><time>2026-04-18T13:01:31.999Z</time></trkpt><trkpt lat="42.7706276082766" lon="10.264843643947266"><ele>166.0</ele><time>2026-04-18T13:01:32.999Z</time></trkpt><trkpt lat="42.77062748418951" lon="10.265013718202933"><ele>166.0</ele><time>2026-04-18T13:01:33.999Z</time></trkpt><trkpt lat="42.77064417906256" lon="10.265180264779387"><ele>166.0</ele><time>2026-04-18T13:01:34.999Z</time></trkpt><trkpt lat="42.77065152269712" lon="10.26531925875469"><ele>168.33333333333334</ele><time>2026-04-18T13:01:35.999Z</time></trkpt><trkpt lat="42.77063404034016" lon="10.2654517979074"><ele>170.66666666666669</ele><time>2026-04-18T13:01:36.999Z</time></trkpt><trkpt lat="42.7706351654806" lon="10.26556008224753"><ele>173.0</ele><time>2026-04-18T13:01:37.999Z</time></trkpt><trkpt lat="42.770662717935856" lon="10.265660048420234"><ele>175.33333333333334</ele><time>2026-04-18T13:01:38.999Z</time></trkpt><trkpt lat="42.77072807376522" lon="10.26573146999315"><ele>177.66666666666666</ele><time>2026-04-18T13:01:39.999Z</time></trkpt><trkpt lat="42.7708064941904" lon="10.265786616974683"><ele>180.0</ele><time>2026-04-18T13:01:40.999Z</time></trkpt><trkpt lat="42.77088147657666" lon="10.26582654106737"><ele>181.6</ele><time>2026-04-18T13:01:41.999Z</time></trkpt><trkpt lat="42.77096898471153" lon="10.265866201717053"><ele>183.2</ele><time>2026-04-18T13:01:42.999Z</time></trkpt><trkpt lat="42.771082565358974" lon="10.2659001512625"><ele>184.8</ele><time>2026-04-18T13:01:43.999Z</time></trkpt><trkpt lat="42.7711859129348" lon="10.265935364954748"><ele>186.4</ele><time>2026-04-18T13:01:44.999Z</time></trkpt><trkpt lat="42.77128735346374" lon="10.265985521880342"><ele>188.0</ele><time>2026-04-18T13:01:45.999Z</time></trkpt><trkpt lat="42.771398393731594" lon="10.266014963047937"><ele>188.0</ele><time>2026-04-18T13:01:46.999Z</time></trkpt><trkpt lat="42.77150468500541" lon="10.266052543736388"><ele>188.0</ele><time>2026-04-18T13:01:47.999Z</time></trkpt><trkpt lat="42.77159975232382" lon="10.266098866201023"><ele>188.0</ele><time>2026-04-18T13:01:48.999Z</time></trkpt><trkpt lat="42.77167775158128" lon="10.266144830364311"><ele>188.0</ele><time>2026-04-18T13:01:49.999Z</time></trkpt><trkpt lat="42.77171260740782" lon="10.266218295553676"><ele>188.0</ele><time>2026-04-18T13:01:50.999Z</time></trkpt><trkpt lat="42.77170502981371" lon="10.266323593623532"><ele>188.0</ele><time>2026-04-18T13:01:51.999Z</time></trkpt><trkpt lat="42.771661313930025" lon="10.266429819718079"><ele>189.60000000000002</ele><time>2026-04-18T13:01:52.999Z</time></trkpt><trkpt lat="42.77161912461616" lon="10.266562015284702"><ele>191.20000000000002</ele><time>2026-04-18T13:01:53.999Z</time></trkpt><trkpt lat="42.77157501295457" lon="10.266691408454621"><ele>192.8</ele><time>2026-04-18T13:01:54.999Z</time></trkpt><trkpt lat="42.771531097732655" lon="10.266819339813619"><ele>194.4</ele><time>2026-04-18T13:01:55.999Z</time></trkpt><trkpt lat="42.77149186140485" lon="10.266924895152094"><ele>196.0</ele><time>2026-04-18T13:01:56.999Z</time></trkpt><trkpt lat="42.77145180092859" lon="10.267025757958976"><ele>196.0</ele><time>2026-04-18T13:01:57.999Z</time></trkpt><trkpt lat="42.77139693705846" lon="10.267118502732005"><ele>196.0</ele><time>2026-04-18T13:01:58.999Z</time></trkpt><trkpt lat="42.77133341779311" lon="10.267228535104708"><ele>196.0</ele><time>2026-04-18T13:01:59.999Z</time></trkpt><trkpt lat="42.771280799822954" lon="10.267319683782244"><ele>196.0</ele><time>2026-04-18T13:02:00.999Z</time></trkpt><trkpt lat="42.77123015232434" lon="10.267417447356765"><ele>196.0</ele><time>2026-04-18T13:02:01.999Z</time></trkpt><trkpt lat="42.77118130727251" lon="10.267522803823121"><ele>194.75</ele><time>2026-04-18T13:02:02.999Z</time></trkpt><trkpt lat="42.77113907296311" lon="10.267613904362292"><ele>193.5</ele><time>2026-04-18T13:02:03.999Z</time></trkpt><trkpt lat="42.77108860077255" lon="10.267722774209782"><ele>192.25</ele><time>2026-04-18T13:02:05.999Z</time></trkpt><trkpt lat="42.77105214171038" lon="10.26783890148479"><ele>191.0</ele><time>2026-04-18T13:02:07.999Z</time></trkpt><trkpt lat="42.77121695665089" lon="10.268040981664853"><ele>193.8</ele><time>2026-04-18T13:02:08.999Z</time></trkpt><trkpt lat="42.771277589676195" lon="10.268152447446084"><ele>196.60000000000002</ele><time>2026-04-18T13:02:09.999Z</time></trkpt><trkpt lat="42.771332463157634" lon="10.268270878514986"><ele>199.4</ele><time>2026-04-18T13:02:10.999Z</time></trkpt><trkpt lat="42.7714302135478" lon="10.268324590375862"><ele>202.2</ele><time>2026-04-18T13:02:11.999Z</time></trkpt><trkpt lat="42.77147295002129" lon="10.268402374045804"><ele>205.0</ele><time>2026-04-18T13:02:12.999Z</time></trkpt><trkpt lat="42.77152344135156" lon="10.26846740889903"><ele>205.0</ele><time>2026-04-18T13:02:13.999Z</time></trkpt><trkpt lat="42.771597519169866" lon="10.26855439506843"><ele>205.0</ele><time>2026-04-18T13:02:14.999Z</time></trkpt><trkpt lat="42.77170995979181" lon="10.268604316239728"><ele>205.0</ele><time>2026-04-18T13:02:15.999Z</time></trkpt><trkpt lat="42.77178615680077" lon="10.26867917528257"><ele>205.0</ele><time>2026-04-18T13:02:16.999Z</time></trkpt><trkpt lat="42.771861158772204" lon="10.268765869342786"><ele>205.0</ele><time>2026-04-18T13:02:17.999Z</time></trkpt><trkpt lat="42.77194050941049" lon="10.268870061234379"><ele>201.2</ele><time>2026-04-18T13:02:18.999Z</time></trkpt><trkpt lat="42.77200229755609" lon="10.268983298501992"><ele>197.4</ele><time>2026-04-18T13:02:19.999Z</time></trkpt><trkpt lat="42.77205134938736" lon="10.269093960335535"><ele>193.60000000000002</ele><time>2026-04-18T13:02:20.999Z</time></trkpt><trkpt lat="42.772077714032896" lon="10.269208126558704"><ele>189.8</ele><time>2026-04-18T13:02:21.999Z</time></trkpt><trkpt lat="42.772066134633796" lon="10.26935056287053"><ele>186.0</ele><time>2026-04-18T13:02:22.999Z</time></trkpt><trkpt lat="42.77201779387441" lon="10.269491227019126"><ele>186.0</ele><time>2026-04-18T13:02:23.999Z</time></trkpt><trkpt lat="42.77196823068967" lon="10.269595335223006"><ele>186.0</ele><time>2026-04-18T13:02:24.999Z</time></trkpt><trkpt lat="42.77193455255086" lon="10.269693412907186"><ele>186.0</ele><time>2026-04-18T13:02:25.999Z</time></trkpt><trkpt lat="42.77187878853794" lon="10.269816957000206"><ele>186.0</ele><time>2026-04-18T13:02:26.999Z</time></trkpt><trkpt lat="42.77181995974715" lon="10.269940572346078"><ele>186.0</ele><time>2026-04-18T13:02:27.999Z</time></trkpt><trkpt lat="42.77175292771079" lon="10.270013811431438"><ele>192.0</ele><time>2026-04-18T13:02:28.999Z</time></trkpt><trkpt lat="42.77168849068116" lon="10.270077470209962"><ele>198.0</ele><time>2026-04-18T13:02:29.999Z</time></trkpt><trkpt lat="42.7716223101027" lon="10.270118838956567"><ele>204.0</ele><time>2026-04-18T13:02:30.999Z</time></trkpt><trkpt lat="42.77153797664014" lon="10.270158969617903"><ele>210.0</ele><time>2026-04-18T13:02:31.999Z</time></trkpt><trkpt lat="42.77146330470085" lon="10.270232851592207"><ele>216.0</ele><time>2026-04-18T13:02:32.999Z</time></trkpt><trkpt lat="42.771393285795554" lon="10.2703564051367"><ele>222.0</ele><time>2026-04-18T13:02:34.999Z</time></trkpt><trkpt lat="42.77140142716452" lon="10.270450636126673"><ele>221.2</ele><time>2026-04-18T13:02:35.999Z</time></trkpt><trkpt lat="42.771450978202154" lon="10.270617943171274"><ele>220.39999999999998</ele><time>2026-04-18T13:02:37.999Z</time></trkpt><trkpt lat="42.77147875033823" lon="10.270699656574092"><ele>219.60000000000002</ele><time>2026-04-18T13:02:38.999Z</time></trkpt><trkpt lat="42.77150824987297" lon="10.270816641595001"><ele>218.8</ele><time>2026-04-18T13:02:40Z</time></trkpt><trkpt lat="42.77151736716547" lon="10.270924867477978"><ele>218.0</ele><time>2026-04-18T13:02:41Z</time></trkpt><trkpt lat="42.77153954791037" lon="10.271063621958627"><ele>218.0</ele><time>2026-04-18T13:02:42Z</time></trkpt><trkpt lat="42.771556723999836" lon="10.271207001456391"><ele>218.0</ele><time>2026-04-18T13:02:43Z</time></trkpt><trkpt lat="42.77160141902605" lon="10.27132098551972"><ele>218.0</ele><time>2026-04-18T13:02:44Z</time></trkpt><trkpt lat="42.77164714378522" lon="10.271415846795438"><ele>218.0</ele><time>2026-04-18T13:02:45Z</time></trkpt><trkpt lat="42.771746606134336" lon="10.271466069194423"><ele>218.0</ele><time>2026-04-18T13:02:47Z</time></trkpt><trkpt lat="42.7719084856497" lon="10.271392470198508"><ele>214.8</ele><time>2026-04-18T13:02:49Z</time></trkpt><trkpt lat="42.772018032707365" lon="10.271313964847497"><ele>211.60000000000002</ele><time>2026-04-18T13:02:50Z</time></trkpt><trkpt lat="42.77212636481535" lon="10.271263864123819"><ele>208.39999999999998</ele><time>2026-04-18T13:02:51Z</time></trkpt><trkpt lat="42.77223782154757" lon="10.27123994554431"><ele>205.2</ele><time>2026-04-18T13:02:52Z</time></trkpt><trkpt lat="42.772330080360575" lon="10.27126400244596"><ele>202.0</ele><time>2026-04-18T13:02:53Z</time></trkpt><trkpt lat="42.7724370343492" lon="10.27131932798602"><ele>202.0</ele><time>2026-04-18T13:02:54Z</time></trkpt><trkpt lat="42.77254179855142" lon="10.271391820035205"><ele>202.0</ele><time>2026-04-18T13:02:55Z</time></trkpt><trkpt lat="42.772598662834646" lon="10.271505358810998"><ele>202.0</ele><time>2026-04-18T13:02:56Z</time></trkpt><trkpt lat="42.77265578819318" lon="10.27162140729359"><ele>202.0</ele><time>2026-04-18T13:02:57Z</time></trkpt><trkpt lat="42.77268483069003" lon="10.271734468199075"><ele>202.0</ele><time>2026-04-18T13:02:58Z</time></trkpt><trkpt lat="42.77269905764169" lon="10.271860829483549"><ele>201.0</ele><time>2026-04-18T13:02:59Z</time></trkpt><trkpt lat="42.77270096623346" lon="10.271977105580154"><ele>200.0</ele><time>2026-04-18T13:03:00Z</time></trkpt><trkpt lat="42.77270299772069" lon="10.272102532245134"><ele>199.0</ele><time>2026-04-18T13:03:01Z</time></trkpt><trkpt lat="42.772707547503664" lon="10.272198588497105"><ele>198.0</ele><time>2026-04-18T13:03:02Z</time></trkpt><trkpt lat="42.77281369387035" lon="10.272283657528586"><ele>197.0</ele><time>2026-04-18T13:03:03Z</time></trkpt><trkpt lat="42.77288014915638" lon="10.272378731366121"><ele>200.0</ele><time>2026-04-18T13:03:04Z</time></trkpt><trkpt lat="42.772967256985744" lon="10.272486497967327"><ele>203.0</ele><time>2026-04-18T13:03:05Z</time></trkpt><trkpt lat="42.77302267402352" lon="10.272616645527698"><ele>206.0</ele><time>2026-04-18T13:03:06Z</time></trkpt><trkpt lat="42.773061161357155" lon="10.272716550271216"><ele>209.0</ele><time>2026-04-18T13:03:07Z</time></trkpt><trkpt lat="42.77303879917137" lon="10.272843176757975"><ele>212.0</ele><time>2026-04-18T13:03:08Z</time></trkpt><trkpt lat="42.77304047294381" lon="10.272974872028504"><ele>212.0</ele><time>2026-04-18T13:03:09Z</time></trkpt><trkpt lat="42.773064216514484" lon="10.27307187347273"><ele>212.0</ele><time>2026-04-18T13:03:10Z</time></trkpt><trkpt lat="42.773129805692435" lon="10.273167870384702"><ele>212.0</ele><time>2026-04-18T13:03:11Z</time></trkpt><trkpt lat="42.77323703801245" lon="10.273255230594831"><ele>212.0</ele><time>2026-04-18T13:03:12Z</time></trkpt><trkpt lat="42.77334931413243" lon="10.273330261448207"><ele>212.0</ele><time>2026-04-18T13:03:13Z</time></trkpt><trkpt lat="42.77344499983046" lon="10.273440090417669"><ele>215.0</ele><time>2026-04-18T13:03:14Z</time></trkpt><trkpt lat="42.77351445969486" lon="10.27356156500662"><ele>218.0</ele><time>2026-04-18T13:03:15Z</time></trkpt><trkpt lat="42.77356168148561" lon="10.273695311061644"><ele>221.0</ele><time>2026-04-18T13:03:16Z</time></trkpt><trkpt lat="42.77360340176268" lon="10.273823702859035"><ele>224.0</ele><time>2026-04-18T13:03:17Z</time></trkpt><trkpt lat="42.773669695745724" lon="10.273919769978637"><ele>227.0</ele><time>2026-04-18T13:03:18Z</time></trkpt><trkpt lat="42.773734057270794" lon="10.273996511074614"><ele>231.0</ele><time>2026-04-18T13:03:19Z</time></trkpt><trkpt lat="42.7738313546994" lon="10.274062555513206"><ele>235.0</ele><time>2026-04-18T13:03:20Z</time></trkpt><trkpt lat="42.77391858377357" lon="10.274111170698262"><ele>239.0</ele><time>2026-04-18T13:03:21Z</time></trkpt><trkpt lat="42.77401570317226" lon="10.27413706713587"><ele>243.0</ele><time>2026-04-18T13:03:22Z</time></trkpt><trkpt lat="42.774120847678724" lon="10.274164081942585"><ele>247.0</ele><time>2026-04-18T13:03:23Z</time></trkpt><trkpt lat="42.774201731943315" lon="10.27420727627883"><ele>246.99999999999997</ele><time>2026-04-18T13:03:24Z</time></trkpt><trkpt lat="42.774267555500714" lon="10.27424622000134"><ele>247.0</ele><time>2026-04-18T13:03:25Z</time></trkpt><trkpt lat="42.77433334934658" lon="10.27424016718178"><ele>247.0</ele><time>2026-04-18T13:03:26Z</time></trkpt><trkpt lat="42.774404026997" lon="10.274191163214365"><ele>247.0</ele><time>2026-04-18T13:03:27Z</time></trkpt><trkpt lat="42.774447815006795" lon="10.274128362702962"><ele>246.99999999999997</ele><time>2026-04-18T13:03:28Z</time></trkpt><trkpt lat="42.7744728042319" lon="10.273991421658218"><ele>247.0</ele><time>2026-04-18T13:03:29Z</time></trkpt><trkpt lat="42.77448056586834" lon="10.273809327724763"><ele>249.5</ele><time>2026-04-18T13:03:30Z</time></trkpt><trkpt lat="42.774469822221114" lon="10.273581262892337"><ele>252.0</ele><time>2026-04-18T13:03:31Z</time></trkpt><trkpt lat="42.774440876792355" lon="10.273382012248874"><ele>254.5</ele><time>2026-04-18T13:03:32Z</time></trkpt><trkpt lat="42.774433334518214" lon="10.273219283065764"><ele>257.0</ele><time>2026-04-18T13:03:33Z</time></trkpt><trkpt lat="42.774440307934995" lon="10.273108751597547"><ele>252.5</ele><time>2026-04-18T13:03:34Z</time></trkpt><trkpt lat="42.774466385052826" lon="10.272968889535646"><ele>248.0</ele><time>2026-04-18T13:03:35Z</time></trkpt><trkpt lat="42.77452537532367" lon="10.272852268695486"><ele>243.5</ele><time>2026-04-18T13:03:35.999Z</time></trkpt><trkpt lat="42.77460459272638" lon="10.272728195219134"><ele>239.0</ele><time>2026-04-18T13:03:36.999Z</time></trkpt><trkpt lat="42.77469690967215" lon="10.272622950652742"><ele>239.0</ele><time>2026-04-18T13:03:37.999Z</time></trkpt><trkpt lat="42.77479982018639" lon="10.272553627587426"><ele>238.99999999999997</ele><time>2026-04-18T13:03:38.999Z</time></trkpt><trkpt lat="42.77488019125689" lon="10.272527025775423"><ele>238.99999999999997</ele><time>2026-04-18T13:03:39.999Z</time></trkpt><trkpt lat="42.774987684137535" lon="10.272498096671228"><ele>239.0</ele><time>2026-04-18T13:03:41.999Z</time></trkpt><trkpt lat="42.775066644296274" lon="10.272416921551288"><ele>239.0</ele><time>2026-04-18T13:03:44.999Z</time></trkpt><trkpt lat="42.775131123677966" lon="10.272410096248615"><ele>237.5714285714286</ele><time>2026-04-18T13:03:48.999Z</time></trkpt><trkpt lat="42.775189433344586" lon="10.272337167398279"><ele>236.14285714285717</ele><time>2026-04-18T13:15:27.992Z</time></trkpt><trkpt lat="42.77520260175382" lon="10.272245209689835"><ele>234.71428571428572</ele><time>2026-04-18T13:15:29.992Z</time></trkpt><trkpt lat="42.775211783237715" lon="10.272156893858565"><ele>233.2857142857143</ele><time>2026-04-18T13:15:31.991Z</time></trkpt><trkpt lat="42.77522034417476" lon="10.272069822452142"><ele>231.8571428571429</ele><time>2026-04-18T13:15:33.992Z</time></trkpt><trkpt lat="42.775220059823575" lon="10.271966382548104"><ele>230.42857142857142</ele><time>2026-04-18T13:15:35.992Z</time></trkpt><trkpt lat="42.77521629535203" lon="10.271849128760632"><ele>229.0</ele><time>2026-04-18T13:15:37.992Z</time></trkpt><trkpt lat="42.77517815792045" lon="10.271729110014748"><ele>228.16666666666666</ele><time>2026-04-18T13:15:39.992Z</time></trkpt><trkpt lat="42.775129720131694" lon="10.27164019217692"><ele>227.33333333333331</ele><time>2026-04-18T13:15:41.991Z</time></trkpt><trkpt lat="42.775101098171994" lon="10.27150891326223"><ele>226.5</ele><time>2026-04-18T13:15:43.991Z</time></trkpt><trkpt lat="42.77508393346814" lon="10.271388585717515"><ele>225.66666666666669</ele><time>2026-04-18T13:15:46.991Z</time></trkpt><trkpt lat="42.77507429511578" lon="10.271269457319711"><ele>224.83333333333334</ele><time>2026-04-18T13:15:49.991Z</time></trkpt><trkpt lat="42.77505887839029" lon="10.271149444717118"><ele>224.0</ele><time>2026-04-18T13:15:52.991Z</time></trkpt><trkpt lat="42.775079425415825" lon="10.27104983580934"><ele>222.28571428571428</ele><time>2026-04-18T13:15:54.991Z</time></trkpt><trkpt lat="42.77514673500347" lon="10.271058084312482"><ele>220.57142857142856</ele><time>2026-04-18T13:16:08.991Z</time></trkpt><trkpt lat="42.77517063787276" lon="10.270958053500763"><ele>218.85714285714286</ele><time>2026-04-18T13:16:14.991Z</time></trkpt><trkpt lat="42.775125444418435" lon="10.27087696867295"><ele>217.14285714285714</ele><time>2026-04-18T13:16:23.991Z</time></trkpt><trkpt lat="42.77508318603437" lon="10.270801934441685"><ele>215.42857142857142</ele><time>2026-04-18T13:16:28.991Z</time></trkpt><trkpt lat="42.775035208878855" lon="10.270719424979077"><ele>213.71428571428572</ele><time>2026-04-18T13:16:34.991Z</time></trkpt><trkpt lat="42.775002602344244" lon="10.27063409239592"><ele>212.0</ele><time>2026-04-18T13:16:41.991Z</time></trkpt><trkpt lat="42.774973290059435" lon="10.270532919740244"><ele>209.0</ele><time>2026-04-18T13:17:38.992Z</time></trkpt><trkpt lat="42.774916392171356" lon="10.270485726719542"><ele>206.0</ele><time>2026-04-18T13:19:14.99Z</time></trkpt><trkpt lat="42.774943081486704" lon="10.270564644180281"><ele>203.0</ele><time>2026-04-18T13:19:41.99Z</time></trkpt><trkpt lat="42.77498145992618" lon="10.270492563486286"><ele>200.0</ele><time>2026-04-18T13:21:04.99Z</time></trkpt><trkpt lat="42.77495293935942" lon="10.27058960097555"><ele>197.0</ele><time>2026-04-18T13:22:08.99Z</time></trkpt><trkpt lat="42.77500314238273" lon="10.270521227279156"><ele>194.0</ele><time>2026-04-18T13:26:04.96Z</time></trkpt><trkpt lat="42.77494520982913" lon="10.270583443100053"><ele>191.0</ele><time>2026-04-18T13:29:19.957Z</time></trkpt><trkpt lat="42.7750175329297" lon="10.270530200907787"><ele>191.0</ele><time>2026-04-18T13:30:33.957Z</time></trkpt><trkpt lat="42.77495125165205" lon="10.27054566080073"><ele>191.0</ele><time>2026-04-18T13:30:47.957Z</time></trkpt><trkpt lat="42.77495592942744" lon="10.270635723616001"><ele>212.0</ele><time>2026-04-18T13:31:00.956Z</time></trkpt></trkseg><trkseg><trkpt lat="42.77498825024162" lon="10.270513887169498"><ele>191.0</ele><time>2026-04-18T13:47:18.88Z</time></trkpt><trkpt lat="42.7749522273363" lon="10.270603194234074"><ele>191.0</ele><time>2026-04-18T13:48:28.878Z</time></trkpt><trkpt lat="42.775012479735544" lon="10.270577754122911"><ele>191.0</ele><time>2026-04-18T13:49:39.876Z</time></trkpt><trkpt lat="42.77505111665873" lon="10.270646013077704"><ele>191.0</ele><time>2026-04-18T13:50:59.874Z</time></trkpt><trkpt lat="42.775045846846986" lon="10.270738598405021"><ele>191.0</ele><time>2026-04-18T13:51:21.873Z</time></trkpt><trkpt lat="42.77512502744441" lon="10.270784627733427"><ele>191.0</ele><time>2026-04-18T13:51:39.873Z</time></trkpt><trkpt lat="42.77514298544043" lon="10.270872595727358"><ele>191.0</ele><time>2026-04-18T13:52:20.872Z</time></trkpt><trkpt lat="42.77516425888985" lon="10.270961069026388"><ele>194.5</ele><time>2026-04-18T13:52:25.872Z</time></trkpt><trkpt lat="42.77512469772091" lon="10.271029572070802"><ele>198.0</ele><time>2026-04-18T13:52:30.871Z</time></trkpt><trkpt lat="42.77506006576341" lon="10.270988976225537"><ele>201.5</ele><time>2026-04-18T13:52:38.871Z</time></trkpt><trkpt lat="42.775024011833786" lon="10.2710850081418"><ele>205.0</ele><time>2026-04-18T13:52:43.871Z</time></trkpt><trkpt lat="42.775032303512155" lon="10.271189174777117"><ele>208.50000000000003</ele><time>2026-04-18T13:52:47.871Z</time></trkpt><trkpt lat="42.77503039178961" lon="10.271304087832892"><ele>212.0</ele><time>2026-04-18T13:52:56.871Z</time></trkpt><trkpt lat="42.77505535750046" lon="10.271422413557337"><ele>210.0</ele><time>2026-04-18T13:52:58.871Z</time></trkpt><trkpt lat="42.77509411787432" lon="10.271532412330052"><ele>208.0</ele><time>2026-04-18T13:53:00.871Z</time></trkpt><trkpt lat="42.77518131371449" lon="10.271652015003436"><ele>206.0</ele><time>2026-04-18T13:53:02.871Z</time></trkpt><trkpt lat="42.775190399935006" lon="10.271768923804453"><ele>204.0</ele><time>2026-04-18T13:53:04.871Z</time></trkpt><trkpt lat="42.7752162896475" lon="10.271903429856676"><ele>202.0</ele><time>2026-04-18T13:53:07.871Z</time></trkpt><trkpt lat="42.77524110552474" lon="10.272031316381682"><ele>201.99999999999997</ele><time>2026-04-18T13:53:09.871Z</time></trkpt><trkpt lat="42.775227859938795" lon="10.27212667917941"><ele>202.0</ele><time>2026-04-18T13:53:11.871Z</time></trkpt><trkpt lat="42.77521276486037" lon="10.272239953246176"><ele>202.0</ele><time>2026-04-18T13:53:13.87Z</time></trkpt><trkpt lat="42.77520898957152" lon="10.272334537259908"><ele>202.0</ele><time>2026-04-18T13:53:15.87Z</time></trkpt><trkpt lat="42.77520026726361" lon="10.272463661788512"><ele>201.99999999999997</ele><time>2026-04-18T13:53:17.87Z</time></trkpt><trkpt lat="42.775163810498555" lon="10.272538896581171"><ele>202.0</ele><time>2026-04-18T13:54:59.868Z</time></trkpt><trkpt lat="42.77519493759505" lon="10.272460908248664"><ele>205.85714285714286</ele><time>2026-04-18T13:55:18.867Z</time></trkpt><trkpt lat="42.775161080846985" lon="10.27238171314692"><ele>209.71428571428572</ele><time>2026-04-18T13:55:22.867Z</time></trkpt><trkpt lat="42.77517067665875" lon="10.272472805321623"><ele>213.57142857142856</ele><time>2026-04-18T13:55:52.867Z</time></trkpt><trkpt lat="42.77519224796493" lon="10.272581568588006"><ele>217.42857142857144</ele><time>2026-04-18T13:56:10.86Z</time></trkpt><trkpt lat="42.77517289660846" lon="10.272495199508962"><ele>221.2857142857143</ele><time>2026-04-18T13:57:52.828Z</time></trkpt><trkpt lat="42.775224666261806" lon="10.272563174061577"><ele>225.14285714285714</ele><time>2026-04-18T14:00:22.822Z</time></trkpt><trkpt lat="42.775269320957456" lon="10.272636707531971"><ele>229.0</ele><time>2026-04-18T14:00:24.822Z</time></trkpt><trkpt lat="42.77528124232088" lon="10.272748546793819"><ele>228.99999999999997</ele><time>2026-04-18T14:00:26.822Z</time></trkpt><trkpt lat="42.77531155823211" lon="10.272854724859627"><ele>229.0</ele><time>2026-04-18T14:00:28.822Z</time></trkpt><trkpt lat="42.775381225381054" lon="10.272909123470834"><ele>229.0</ele><time>2026-04-18T14:00:31.822Z</time></trkpt><trkpt lat="42.77545780074555" lon="10.27296976667652"><ele>229.0</ele><time>2026-04-18T14:00:33.822Z</time></trkpt><trkpt lat="42.77554457556759" lon="10.273021599250153"><ele>228.99999999999997</ele><time>2026-04-18T14:00:35.822Z</time></trkpt><trkpt lat="42.77561099692778" lon="10.273054235798508"><ele>229.0</ele><time>2026-04-18T14:00:36.822Z</time></trkpt><trkpt lat="42.775678356903406" lon="10.273085711406061"><ele>230.99999999999997</ele><time>2026-04-18T14:00:37.822Z</time></trkpt><trkpt lat="42.77577927395784" lon="10.273144131689426"><ele>233.0</ele><time>2026-04-18T14:00:39.822Z</time></trkpt><trkpt lat="42.775842937679485" lon="10.273174005222142"><ele>235.0</ele><time>2026-04-18T14:00:40.822Z</time></trkpt><trkpt lat="42.77590617865918" lon="10.273210947509208"><ele>237.0</ele><time>2026-04-18T14:00:41.822Z</time></trkpt><trkpt lat="42.77597767056282" lon="10.27324647012354"><ele>238.99999999999997</ele><time>2026-04-18T14:00:42.822Z</time></trkpt><trkpt lat="42.77604710837907" lon="10.273283181505075"><ele>241.0</ele><time>2026-04-18T14:00:43.822Z</time></trkpt><trkpt lat="42.77611589040727" lon="10.273406972404777"><ele>241.0</ele><time>2026-04-18T14:00:45.822Z</time></trkpt><trkpt lat="42.77614943273953" lon="10.273483053034797"><ele>241.00000000000003</ele><time>2026-04-18T14:00:46.822Z</time></trkpt><trkpt lat="42.77617588488703" lon="10.273566147645546"><ele>241.0</ele><time>2026-04-18T14:00:47.822Z</time></trkpt><trkpt lat="42.776218812300094" lon="10.273654856020347"><ele>241.0</ele><time>2026-04-18T14:00:48.821Z</time></trkpt><trkpt lat="42.776253988220724" lon="10.273747679281549"><ele>241.00000000000003</ele><time>2026-04-18T14:00:49.821Z</time></trkpt><trkpt lat="42.77631434160221" lon="10.273813111058429"><ele>241.0</ele><time>2026-04-18T14:00:50.821Z</time></trkpt><trkpt lat="42.776365130815634" lon="10.273873122236717"><ele>241.0</ele><time>2026-04-18T14:00:51.821Z</time></trkpt><trkpt lat="42.776434163546234" lon="10.273926464919013"><ele>242.60000000000002</ele><time>2026-04-18T14:00:52.821Z</time></trkpt><trkpt lat="42.77650992479005" lon="10.273972777580594"><ele>244.20000000000002</ele><time>2026-04-18T14:00:53.821Z</time></trkpt><trkpt lat="42.77660725808809" lon="10.273994290243987"><ele>245.79999999999998</ele><time>2026-04-18T14:00:54.821Z</time></trkpt><trkpt lat="42.77669409451163" lon="10.273992549762827"><ele>247.39999999999998</ele><time>2026-04-18T14:00:55.821Z</time></trkpt><trkpt lat="42.77675821818792" lon="10.273981089345499"><ele>249.0</ele><time>2026-04-18T14:00:56.821Z</time></trkpt><trkpt lat="42.77689780056547" lon="10.27393091016513"><ele>249.0</ele><time>2026-04-18T14:00:58.821Z</time></trkpt><trkpt lat="42.776964490196924" lon="10.27389272121635"><ele>249.0</ele><time>2026-04-18T14:00:59.821Z</time></trkpt><trkpt lat="42.77703378491305" lon="10.273845275813285"><ele>249.0</ele><time>2026-04-18T14:01:00.821Z</time></trkpt><trkpt lat="42.777101636023914" lon="10.273793362754251"><ele>249.0</ele><time>2026-04-18T14:01:01.821Z</time></trkpt><trkpt lat="42.777170712444615" lon="10.273745528915182"><ele>249.0</ele><time>2026-04-18T14:01:02.821Z</time></trkpt><trkpt lat="42.777251526607785" lon="10.273687106396"><ele>249.0</ele><time>2026-04-18T14:01:03.821Z</time></trkpt><trkpt lat="42.777333572823096" lon="10.27364583938864"><ele>249.0</ele><time>2026-04-18T14:01:04.821Z</time></trkpt><trkpt lat="42.777413535789385" lon="10.273626245022731"><ele>249.0</ele><time>2026-04-18T14:01:05.821Z</time></trkpt><trkpt lat="42.77748193647156" lon="10.273637220234148"><ele>249.0</ele><time>2026-04-18T14:01:06.821Z</time></trkpt><trkpt lat="42.777550029686964" lon="10.273641257544083"><ele>249.0</ele><time>2026-04-18T14:01:07.821Z</time></trkpt><trkpt lat="42.77762571028024" lon="10.27364493928759"><ele>249.0</ele><time>2026-04-18T14:01:08.821Z</time></trkpt><trkpt lat="42.77770153753569" lon="10.273636514843066"><ele>249.0</ele><time>2026-04-18T14:01:09.821Z</time></trkpt><trkpt lat="42.77778225463045" lon="10.27362807440002"><ele>252.0</ele><time>2026-04-18T14:01:10.821Z</time></trkpt><trkpt lat="42.77785185824174" lon="10.273620413820085"><ele>254.99999999999997</ele><time>2026-04-18T14:01:11.821Z</time></trkpt><trkpt lat="42.777920726246364" lon="10.273615048725292"><ele>258.0</ele><time>2026-04-18T14:01:12.821Z</time></trkpt><trkpt lat="42.77800170242556" lon="10.273613720863946"><ele>261.0</ele><time>2026-04-18T14:01:13.821Z</time></trkpt><trkpt lat="42.77807825796427" lon="10.273618915815735"><ele>264.0</ele><time>2026-04-18T14:01:14.821Z</time></trkpt><trkpt lat="42.77815528761907" lon="10.273613354589338"><ele>267.0</ele><time>2026-04-18T14:01:15.821Z</time></trkpt><trkpt lat="42.778221118578124" lon="10.273583244272666"><ele>270.0</ele><time>2026-04-18T14:01:16.821Z</time></trkpt><trkpt lat="42.77828879253721" lon="10.273552748823056"><ele>270.0</ele><time>2026-04-18T14:01:17.82Z</time></trkpt><trkpt lat="42.77834957258145" lon="10.27351817772126"><ele>270.0</ele><time>2026-04-18T14:01:18.82Z</time></trkpt><trkpt lat="42.77841455645497" lon="10.2734660564362"><ele>270.0</ele><time>2026-04-18T14:01:19.82Z</time></trkpt><trkpt lat="42.7784717602087" lon="10.273401695207864"><ele>270.0</ele><time>2026-04-18T14:01:20.82Z</time></trkpt><trkpt lat="42.77852983829206" lon="10.2733279427349"><ele>270.0</ele><time>2026-04-18T14:01:21.82Z</time></trkpt><trkpt lat="42.77857737682595" lon="10.273252488298192"><ele>270.0</ele><time>2026-04-18T14:01:22.82Z</time></trkpt><trkpt lat="42.77862966967115" lon="10.273170678917694"><ele>270.0</ele><time>2026-04-18T14:01:23.82Z</time></trkpt><trkpt lat="42.778680766457434" lon="10.273096589572985"><ele>272.0</ele><time>2026-04-18T14:01:24.82Z</time></trkpt><trkpt lat="42.778738161241655" lon="10.273032772549216"><ele>274.0</ele><time>2026-04-18T14:01:25.82Z</time></trkpt><trkpt lat="42.77881621519619" lon="10.272994874712024"><ele>276.0</ele><time>2026-04-18T14:01:26.82Z</time></trkpt><trkpt lat="42.77885934524011" lon="10.272912373746394"><ele>278.0</ele><time>2026-04-18T14:01:27.82Z</time></trkpt><trkpt lat="42.77890097332529" lon="10.27277864915556"><ele>280.0</ele><time>2026-04-18T14:01:29.821Z</time></trkpt><trkpt lat="42.778913073741805" lon="10.27267726599663"><ele>282.0</ele><time>2026-04-18T14:01:30.821Z</time></trkpt><trkpt lat="42.77895327605915" lon="10.272589193244134"><ele>282.0</ele><time>2026-04-18T14:01:31.82Z</time></trkpt><trkpt lat="42.77900451751853" lon="10.272509105470267"><ele>282.0</ele><time>2026-04-18T14:01:32.82Z</time></trkpt><trkpt lat="42.779094115833" lon="10.27248952569089"><ele>282.0</ele><time>2026-04-18T14:01:33.82Z</time></trkpt><trkpt lat="42.77917024623076" lon="10.272511916568567"><ele>282.0</ele><time>2026-04-18T14:01:34.82Z</time></trkpt><trkpt lat="42.7792333209357" lon="10.272481791988529"><ele>282.0</ele><time>2026-04-18T14:01:35.821Z</time></trkpt><trkpt lat="42.7793193396431" lon="10.272476668478673"><ele>282.0</ele><time>2026-04-18T14:01:36.821Z</time></trkpt><trkpt lat="42.77940207097976" lon="10.272464063203506"><ele>283.6</ele><time>2026-04-18T14:01:37.82Z</time></trkpt><trkpt lat="42.779523202672344" lon="10.27244265632914"><ele>285.2</ele><time>2026-04-18T14:01:39.82Z</time></trkpt><trkpt lat="42.779616544323275" lon="10.272437448703982"><ele>286.8</ele><time>2026-04-18T14:01:41.82Z</time></trkpt><trkpt lat="42.779723830424885" lon="10.272416246652163"><ele>288.4</ele><time>2026-04-18T14:01:43.82Z</time></trkpt><trkpt lat="42.779794418174205" lon="10.272443644976278"><ele>290.0</ele><time>2026-04-18T14:01:46.82Z</time></trkpt><trkpt lat="42.7798664593174" lon="10.27252498075747"><ele>290.0</ele><time>2026-04-18T14:01:49.82Z</time></trkpt><trkpt lat="42.77989573447224" lon="10.272622785399697"><ele>290.0</ele><time>2026-04-18T14:01:51.82Z</time></trkpt><trkpt lat="42.77991449098285" lon="10.27272289302832"><ele>290.0</ele><time>2026-04-18T14:01:53.82Z</time></trkpt><trkpt lat="42.77993409861032" lon="10.27282859099757"><ele>290.0</ele><time>2026-04-18T14:01:55.82Z</time></trkpt><trkpt lat="42.779946229426805" lon="10.272922093800414"><ele>290.0</ele><time>2026-04-18T14:01:57.82Z</time></trkpt><trkpt lat="42.77996208064275" lon="10.273021266028957"><ele>290.0</ele><time>2026-04-18T14:01:59.82Z</time></trkpt><trkpt lat="42.77998944271798" lon="10.273148164351406"><ele>289.6666666666667</ele><time>2026-04-18T14:02:01.82Z</time></trkpt><trkpt lat="42.77998930248724" lon="10.273301849675546"><ele>289.33333333333337</ele><time>2026-04-18T14:02:03.82Z</time></trkpt><trkpt lat="42.77998444115871" lon="10.273408212713088"><ele>289.0</ele><time>2026-04-18T14:02:04.82Z</time></trkpt><trkpt lat="42.77998017952443" lon="10.273526718064737"><ele>288.6666666666667</ele><time>2026-04-18T14:02:05.82Z</time></trkpt><trkpt lat="42.779975753493964" lon="10.273623429724273"><ele>288.3333333333333</ele><time>2026-04-18T14:02:06.82Z</time></trkpt><trkpt lat="42.779967477056914" lon="10.273726703691533"><ele>288.0</ele><time>2026-04-18T14:02:07.82Z</time></trkpt><trkpt lat="42.77994878929921" lon="10.273824932152529"><ele>288.0</ele><time>2026-04-18T14:02:08.82Z</time></trkpt><trkpt lat="42.77992870147577" lon="10.273919368220868"><ele>288.0</ele><time>2026-04-18T14:02:09.82Z</time></trkpt><trkpt lat="42.77989645561117" lon="10.27399634082285"><ele>288.0</ele><time>2026-04-18T14:02:10.82Z</time></trkpt><trkpt lat="42.779853155680236" lon="10.274075016303085"><ele>288.0</ele><time>2026-04-18T14:02:11.819Z</time></trkpt><trkpt lat="42.779782365143696" lon="10.274186934558562"><ele>288.0</ele><time>2026-04-18T14:02:13.819Z</time></trkpt><trkpt lat="42.77970749493873" lon="10.274289544117266"><ele>288.0</ele><time>2026-04-18T14:02:15.819Z</time></trkpt><trkpt lat="42.77964722919308" lon="10.274331832625776"><ele>286.6</ele><time>2026-04-18T14:02:16.819Z</time></trkpt><trkpt lat="42.779575165630135" lon="10.27443609337491"><ele>285.20000000000005</ele><time>2026-04-18T14:02:18.819Z</time></trkpt><trkpt lat="42.77953345385109" lon="10.274578572721335"><ele>283.8</ele><time>2026-04-18T14:02:20.819Z</time></trkpt><trkpt lat="42.77953566463214" lon="10.274684500363904"><ele>282.40000000000003</ele><time>2026-04-18T14:02:21.819Z</time></trkpt><trkpt lat="42.77954027934212" lon="10.274792512684387"><ele>281.0</ele><time>2026-04-18T14:02:22.819Z</time></trkpt><trkpt lat="42.779556537797916" lon="10.274902622794837"><ele>279.5</ele><time>2026-04-18T14:02:23.819Z</time></trkpt><trkpt lat="42.7795768763177" lon="10.275016415302582"><ele>278.0</ele><time>2026-04-18T14:02:24.819Z</time></trkpt><trkpt lat="42.779604719446844" lon="10.275139934817798"><ele>276.5</ele><time>2026-04-18T14:02:25.819Z</time></trkpt><trkpt lat="42.779628150308135" lon="10.275257580863284"><ele>275.0</ele><time>2026-04-18T14:02:26.819Z</time></trkpt><trkpt lat="42.779645037410425" lon="10.275359904842892"><ele>273.5</ele><time>2026-04-18T14:02:27.819Z</time></trkpt><trkpt lat="42.77964778260753" lon="10.275451707440899"><ele>272.0</ele><time>2026-04-18T14:02:28.819Z</time></trkpt><trkpt lat="42.7796390522857" lon="10.2755396259574"><ele>272.4</ele><time>2026-04-18T14:02:29.819Z</time></trkpt><trkpt lat="42.779600085191134" lon="10.27569165168202"><ele>272.79999999999995</ele><time>2026-04-18T14:02:31.819Z</time></trkpt><trkpt lat="42.77955161526461" lon="10.27574799752247"><ele>273.2</ele><time>2026-04-18T14:02:32.819Z</time></trkpt><trkpt lat="42.77947736607982" lon="10.275795446926356"><ele>273.59999999999997</ele><time>2026-04-18T14:02:33.819Z</time></trkpt><trkpt lat="42.77937299653994" lon="10.275804129139882"><ele>274.0</ele><time>2026-04-18T14:02:34.819Z</time></trkpt><trkpt lat="42.77928733289044" lon="10.275802361833478"><ele>276.59999999999997</ele><time>2026-04-18T14:02:35.819Z</time></trkpt><trkpt lat="42.77919425446679" lon="10.27583690884434"><ele>279.2</ele><time>2026-04-18T14:02:36.819Z</time></trkpt><trkpt lat="42.77910390240769" lon="10.275878358143522"><ele>281.79999999999995</ele><time>2026-04-18T14:02:37.819Z</time></trkpt><trkpt lat="42.779012188194045" lon="10.27589772900964"><ele>284.4</ele><time>2026-04-18T14:02:38.819Z</time></trkpt><trkpt lat="42.778918769241784" lon="10.27593165837656"><ele>287.0</ele><time>2026-04-18T14:02:39.818Z</time></trkpt><trkpt lat="42.77882921942161" lon="10.275973204035862"><ele>287.0</ele><time>2026-04-18T14:02:40.818Z</time></trkpt><trkpt lat="42.77874040320311" lon="10.276015441694563"><ele>287.0</ele><time>2026-04-18T14:02:41.818Z</time></trkpt><trkpt lat="42.77862732743685" lon="10.27605301350444"><ele>287.0</ele><time>2026-04-18T14:02:42.818Z</time></trkpt><trkpt lat="42.77852468429438" lon="10.276088317136216"><ele>287.0</ele><time>2026-04-18T14:02:43.818Z</time></trkpt><trkpt lat="42.77844145858695" lon="10.276132112906293"><ele>287.0</ele><time>2026-04-18T14:02:44.818Z</time></trkpt><trkpt lat="42.77835963367409" lon="10.276178956235118"><ele>287.6</ele><time>2026-04-18T14:02:45.818Z</time></trkpt><trkpt lat="42.778281211545746" lon="10.276216176270063"><ele>288.2</ele><time>2026-04-18T14:02:46.818Z</time></trkpt><trkpt lat="42.778191190596665" lon="10.276285307772149"><ele>288.8</ele><time>2026-04-18T14:02:48.818Z</time></trkpt><trkpt lat="42.77813685025928" lon="10.276423135447322"><ele>289.4</ele><time>2026-04-18T14:02:50.818Z</time></trkpt><trkpt lat="42.77812886284831" lon="10.276531452256506"><ele>290.0</ele><time>2026-04-18T14:02:51.818Z</time></trkpt><trkpt lat="42.778169669752586" lon="10.276647346193059"><ele>290.0</ele><time>2026-04-18T14:02:52.818Z</time></trkpt><trkpt lat="42.77821368267529" lon="10.276775555508996"><ele>290.0</ele><time>2026-04-18T14:02:53.818Z</time></trkpt><trkpt lat="42.77824046421844" lon="10.27692308597561"><ele>290.0</ele><time>2026-04-18T14:02:54.818Z</time></trkpt><trkpt lat="42.778268584908396" lon="10.277068748063272"><ele>290.0</ele><time>2026-04-18T14:02:55.818Z</time></trkpt><trkpt lat="42.77828570695853" lon="10.27718541406485"><ele>290.0</ele><time>2026-04-18T14:02:56.818Z</time></trkpt><trkpt lat="42.778321855654326" lon="10.277330323773866"><ele>289.6</ele><time>2026-04-18T14:02:57.818Z</time></trkpt><trkpt lat="42.778308018418045" lon="10.277480168801427"><ele>289.2</ele><time>2026-04-18T14:02:58.818Z</time></trkpt><trkpt lat="42.778345332306685" lon="10.277600848528873"><ele>288.8</ele><time>2026-04-18T14:02:59.818Z</time></trkpt><trkpt lat="42.77837069292981" lon="10.277704321594433"><ele>288.4</ele><time>2026-04-18T14:03:00.818Z</time></trkpt><trkpt lat="42.77838311053399" lon="10.277814745939166"><ele>288.0</ele><time>2026-04-18T14:03:01.818Z</time></trkpt><trkpt lat="42.778393505502194" lon="10.277944512423554"><ele>288.0</ele><time>2026-04-18T14:03:02.818Z</time></trkpt><trkpt lat="42.778404388908854" lon="10.27808636962909"><ele>288.0</ele><time>2026-04-18T14:03:03.818Z</time></trkpt><trkpt lat="42.7784274989438" lon="10.278217570966179"><ele>288.0</ele><time>2026-04-18T14:03:04.818Z</time></trkpt><trkpt lat="42.77847542211357" lon="10.278349189769507"><ele>288.0</ele><time>2026-04-18T14:03:05.818Z</time></trkpt><trkpt lat="42.77853320359655" lon="10.278469477144975"><ele>288.0</ele><time>2026-04-18T14:03:06.818Z</time></trkpt><trkpt lat="42.77856616373737" lon="10.27856781784609"><ele>288.0</ele><time>2026-04-18T14:03:07.818Z</time></trkpt><trkpt lat="42.77858251762415" lon="10.278723557444334"><ele>288.0</ele><time>2026-04-18T14:03:09.817Z</time></trkpt><trkpt lat="42.77854063491033" lon="10.278793966819716"><ele>288.0</ele><time>2026-04-18T14:03:10.817Z</time></trkpt><trkpt lat="42.778433830697985" lon="10.278889160955549"><ele>288.0</ele><time>2026-04-18T14:03:12.817Z</time></trkpt><trkpt lat="42.77835833443686" lon="10.278934521847464"><ele>288.0</ele><time>2026-04-18T14:03:13.817Z</time></trkpt><trkpt lat="42.7782620773663" lon="10.279004058152209"><ele>286.1666666666667</ele><time>2026-04-18T14:03:14.817Z</time></trkpt><trkpt lat="42.77818268234052" lon="10.279084311214524"><ele>284.3333333333333</ele><time>2026-04-18T14:03:15.817Z</time></trkpt><trkpt lat="42.7781120337605" lon="10.279134769536713"><ele>282.5</ele><time>2026-04-18T14:03:16.817Z</time></trkpt><trkpt lat="42.77804489741059" lon="10.279166980668322"><ele>280.66666666666663</ele><time>2026-04-18T14:03:17.817Z</time></trkpt><trkpt lat="42.77797860097371" lon="10.279227633221373"><ele>278.8333333333333</ele><time>2026-04-18T14:03:18.817Z</time></trkpt><trkpt lat="42.777894969204574" lon="10.279243591105804"><ele>277.0</ele><time>2026-04-18T14:03:19.817Z</time></trkpt><trkpt lat="42.77782476010797" lon="10.279229320864978"><ele>277.0</ele><time>2026-04-18T14:03:20.817Z</time></trkpt><trkpt lat="42.77773846382672" lon="10.279179661125458"><ele>277.0</ele><time>2026-04-18T14:03:21.817Z</time></trkpt><trkpt lat="42.77764045223532" lon="10.279166941809786"><ele>277.0</ele><time>2026-04-18T14:03:22.817Z</time></trkpt><trkpt lat="42.777532935309615" lon="10.279166117697045"><ele>277.0</ele><time>2026-04-18T14:03:23.817Z</time></trkpt><trkpt lat="42.77744062296619" lon="10.279188585082426"><ele>277.0</ele><time>2026-04-18T14:03:24.817Z</time></trkpt><trkpt lat="42.77736348665539" lon="10.27918341372787"><ele>279.0</ele><time>2026-04-18T14:03:25.817Z</time></trkpt><trkpt lat="42.77729828395181" lon="10.279210141395803"><ele>281.0</ele><time>2026-04-18T14:03:26.817Z</time></trkpt><trkpt lat="42.77722970961203" lon="10.279265826156184"><ele>283.0</ele><time>2026-04-18T14:03:27.817Z</time></trkpt><trkpt lat="42.77717966753003" lon="10.279397715120561"><ele>285.0</ele><time>2026-04-18T14:03:28.817Z</time></trkpt><trkpt lat="42.777148998350384" lon="10.279541261141018"><ele>287.0</ele><time>2026-04-18T14:03:29.817Z</time></trkpt><trkpt lat="42.77712220612283" lon="10.27964590716714"><ele>289.0</ele><time>2026-04-18T14:03:30.817Z</time></trkpt><trkpt lat="42.777090423224585" lon="10.279723347542186"><ele>288.8</ele><time>2026-04-18T14:03:31.817Z</time></trkpt><trkpt lat="42.77703809490266" lon="10.279794514295595"><ele>288.59999999999997</ele><time>2026-04-18T14:03:32.817Z</time></trkpt><trkpt lat="42.77695355777666" lon="10.279856383788044"><ele>288.4</ele><time>2026-04-18T14:03:33.816Z</time></trkpt><trkpt lat="42.77685324610304" lon="10.279899531626867"><ele>288.2</ele><time>2026-04-18T14:03:34.816Z</time></trkpt><trkpt lat="42.77674916871515" lon="10.279946621360992"><ele>288.0</ele><time>2026-04-18T14:03:35.816Z</time></trkpt><trkpt lat="42.77664490875129" lon="10.280008725473902"><ele>288.0</ele><time>2026-04-18T14:03:36.816Z</time></trkpt><trkpt lat="42.77657116421336" lon="10.280069798506124"><ele>288.0</ele><time>2026-04-18T14:03:37.816Z</time></trkpt><trkpt lat="42.77650331375129" lon="10.28012026551136"><ele>288.0</ele><time>2026-04-18T14:03:38.816Z</time></trkpt><trkpt lat="42.77642952428278" lon="10.280293605288167"><ele>288.0</ele><time>2026-04-18T14:03:40.816Z</time></trkpt><trkpt lat="42.776408527493366" lon="10.280436464593086"><ele>288.0</ele><time>2026-04-18T14:03:41.816Z</time></trkpt><trkpt lat="42.77642609367772" lon="10.280532105617917"><ele>285.4</ele><time>2026-04-18T14:03:42.816Z</time></trkpt><trkpt lat="42.77646371807353" lon="10.280644148257869"><ele>282.8</ele><time>2026-04-18T14:03:43.816Z</time></trkpt><trkpt lat="42.776497757407164" lon="10.280770147214449"><ele>280.2</ele><time>2026-04-18T14:03:44.816Z</time></trkpt><trkpt lat="42.77653847012856" lon="10.280889439569915"><ele>277.6</ele><time>2026-04-18T14:03:45.816Z</time></trkpt><trkpt lat="42.77655265087319" lon="10.280998616244204"><ele>275.0</ele><time>2026-04-18T14:03:46.816Z</time></trkpt><trkpt lat="42.776556937577126" lon="10.281118485969017"><ele>275.0</ele><time>2026-04-18T14:03:47.816Z</time></trkpt><trkpt lat="42.77658384563261" lon="10.281247777917063"><ele>275.0</ele><time>2026-04-18T14:03:48.816Z</time></trkpt><trkpt lat="42.776611214098104" lon="10.281401102406335"><ele>275.0</ele><time>2026-04-18T14:03:49.816Z</time></trkpt><trkpt lat="42.776617257375975" lon="10.281525548571615"><ele>275.0</ele><time>2026-04-18T14:03:50.816Z</time></trkpt><trkpt lat="42.77658565589503" lon="10.281646936702703"><ele>275.0</ele><time>2026-04-18T14:03:51.816Z</time></trkpt><trkpt lat="42.77654660893467" lon="10.281756071752298"><ele>274.6</ele><time>2026-04-18T14:03:52.816Z</time></trkpt><trkpt lat="42.77650701031201" lon="10.281851912782551"><ele>274.2</ele><time>2026-04-18T14:03:53.816Z</time></trkpt><trkpt lat="42.77646367656356" lon="10.281947035740394"><ele>273.8</ele><time>2026-04-18T14:03:54.816Z</time></trkpt><trkpt lat="42.77641288313954" lon="10.282043013622069"><ele>273.4</ele><time>2026-04-18T14:03:55.816Z</time></trkpt><trkpt lat="42.77639069652955" lon="10.282191611426006"><ele>273.0</ele><time>2026-04-18T14:03:56.816Z</time></trkpt><trkpt lat="42.77638796112439" lon="10.28231917483325"><ele>273.0</ele><time>2026-04-18T14:03:57.816Z</time></trkpt><trkpt lat="42.77639108729816" lon="10.282437120026017"><ele>273.0</ele><time>2026-04-18T14:03:58.816Z</time></trkpt><trkpt lat="42.77643310926398" lon="10.28254422600429"><ele>273.0</ele><time>2026-04-18T14:03:59.816Z</time></trkpt><trkpt lat="42.77649436296408" lon="10.282613195048542"><ele>273.0</ele><time>2026-04-18T14:04:00.816Z</time></trkpt><trkpt lat="42.77652702925398" lon="10.28271124626758"><ele>273.0</ele><time>2026-04-18T14:04:01.815Z</time></trkpt><trkpt lat="42.77658136532412" lon="10.282806933039234"><ele>273.0</ele><time>2026-04-18T14:04:02.815Z</time></trkpt><trkpt lat="42.77663382238584" lon="10.282923709739121"><ele>273.0</ele><time>2026-04-18T14:04:03.815Z</time></trkpt><trkpt lat="42.77667199770327" lon="10.283051897449658"><ele>273.0</ele><time>2026-04-18T14:04:04.815Z</time></trkpt><trkpt lat="42.77670836909313" lon="10.28316334809915"><ele>273.0</ele><time>2026-04-18T14:04:05.815Z</time></trkpt><trkpt lat="42.776712778224166" lon="10.283293991880118"><ele>273.0</ele><time>2026-04-18T14:04:06.815Z</time></trkpt><trkpt lat="42.77672634463899" lon="10.283423684818084"><ele>273.0</ele><time>2026-04-18T14:04:07.815Z</time></trkpt><trkpt lat="42.776736076995086" lon="10.283562667568388"><ele>271.6</ele><time>2026-04-18T14:04:08.815Z</time></trkpt><trkpt lat="42.77674796012028" lon="10.283686340087721"><ele>270.20000000000005</ele><time>2026-04-18T14:04:09.815Z</time></trkpt><trkpt lat="42.77678584083017" lon="10.283795880327366"><ele>268.8</ele><time>2026-04-18T14:04:10.815Z</time></trkpt><trkpt lat="42.77681850233116" lon="10.283893412330142"><ele>267.40000000000003</ele><time>2026-04-18T14:04:11.815Z</time></trkpt><trkpt lat="42.77682181528741" lon="10.284023905777957"><ele>266.0</ele><time>2026-04-18T14:04:12.815Z</time></trkpt><trkpt lat="42.77687047006952" lon="10.28416159765886"><ele>266.0</ele><time>2026-04-18T14:04:13.815Z</time></trkpt><trkpt lat="42.77693716278373" lon="10.284295492284526"><ele>266.0</ele><time>2026-04-18T14:04:14.815Z</time></trkpt><trkpt lat="42.776973500143754" lon="10.284445577304275"><ele>266.0</ele><time>2026-04-18T14:04:15.815Z</time></trkpt><trkpt lat="42.777009093181675" lon="10.284543681608588"><ele>266.0</ele><time>2026-04-18T14:04:16.815Z</time></trkpt><trkpt lat="42.777044319733754" lon="10.284648886538195"><ele>266.0</ele><time>2026-04-18T14:04:17.815Z</time></trkpt><trkpt lat="42.77707713003099" lon="10.28476389766144"><ele>266.83333333333337</ele><time>2026-04-18T14:04:18.815Z</time></trkpt><trkpt lat="42.77710443687579" lon="10.284861244853108"><ele>267.6666666666667</ele><time>2026-04-18T14:04:19.815Z</time></trkpt><trkpt lat="42.77713567590644" lon="10.284963604727135"><ele>268.5</ele><time>2026-04-18T14:04:20.815Z</time></trkpt><trkpt lat="42.7771822734197" lon="10.2850570631527"><ele>269.3333333333333</ele><time>2026-04-18T14:04:21.815Z</time></trkpt><trkpt lat="42.777225287335895" lon="10.285180300963807"><ele>270.16666666666663</ele><time>2026-04-18T14:04:22.815Z</time></trkpt><trkpt lat="42.77727390385097" lon="10.285304673750641"><ele>271.0</ele><time>2026-04-18T14:04:23.815Z</time></trkpt><trkpt lat="42.77729639319769" lon="10.285405167672874"><ele>271.0</ele><time>2026-04-18T14:04:24.815Z</time></trkpt><trkpt lat="42.777328174677706" lon="10.285503998976871"><ele>271.0</ele><time>2026-04-18T14:04:25.815Z</time></trkpt><trkpt lat="42.77735313790833" lon="10.285606556440344"><ele>271.0</ele><time>2026-04-18T14:04:26.815Z</time></trkpt><trkpt lat="42.77736778911953" lon="10.28572930728473"><ele>271.0</ele><time>2026-04-18T14:04:27.815Z</time></trkpt><trkpt lat="42.77740082012838" lon="10.28584539939349"><ele>271.0</ele><time>2026-04-18T14:04:28.815Z</time></trkpt><trkpt lat="42.77740708958843" lon="10.285933659700072"><ele>271.0</ele><time>2026-04-18T14:04:29.815Z</time></trkpt><trkpt lat="42.77738710875072" lon="10.286028426342787"><ele>272.0</ele><time>2026-04-18T14:04:30.814Z</time></trkpt><trkpt lat="42.77738584277664" lon="10.286156454181588"><ele>273.0</ele><time>2026-04-18T14:04:31.814Z</time></trkpt><trkpt lat="42.77736871880267" lon="10.286286065802265"><ele>274.0</ele><time>2026-04-18T14:04:32.814Z</time></trkpt><trkpt lat="42.777357746445865" lon="10.286434972168147"><ele>275.0</ele><time>2026-04-18T14:04:33.814Z</time></trkpt><trkpt lat="42.77735161840745" lon="10.286568445353382"><ele>276.0</ele><time>2026-04-18T14:04:34.814Z</time></trkpt><trkpt lat="42.777357584601" lon="10.286720709637677"><ele>276.0</ele><time>2026-04-18T14:04:35.814Z</time></trkpt><trkpt lat="42.7773746943569" lon="10.286872770601962"><ele>276.0</ele><time>2026-04-18T14:04:36.814Z</time></trkpt><trkpt lat="42.77737668754328" lon="10.287023993187267"><ele>276.0</ele><time>2026-04-18T14:04:37.814Z</time></trkpt><trkpt lat="42.777378665746845" lon="10.287158507663442"><ele>276.0</ele><time>2026-04-18T14:04:38.814Z</time></trkpt><trkpt lat="42.7773688558183" lon="10.28728370530244"><ele>276.0</ele><time>2026-04-18T14:04:39.814Z</time></trkpt><trkpt lat="42.777345676812374" lon="10.287403613665358"><ele>275.6</ele><time>2026-04-18T14:04:40.814Z</time></trkpt><trkpt lat="42.77732675863286" lon="10.287527367574079"><ele>275.20000000000005</ele><time>2026-04-18T14:04:41.814Z</time></trkpt><trkpt lat="42.77731735254115" lon="10.287669845594289"><ele>274.79999999999995</ele><time>2026-04-18T14:04:42.814Z</time></trkpt><trkpt lat="42.777318380215846" lon="10.28782050876826"><ele>274.4</ele><time>2026-04-18T14:04:43.814Z</time></trkpt><trkpt lat="42.777346928421764" lon="10.287974959275779"><ele>274.0</ele><time>2026-04-18T14:04:44.814Z</time></trkpt><trkpt lat="42.7774308110233" lon="10.288141480689731"><ele>274.0</ele><time>2026-04-18T14:04:45.814Z</time></trkpt><trkpt lat="42.77750331712863" lon="10.288247812391734"><ele>274.0</ele><time>2026-04-18T14:04:46.814Z</time></trkpt><trkpt lat="42.777547243553634" lon="10.288403150362262"><ele>274.0</ele><time>2026-04-18T14:04:47.814Z</time></trkpt><trkpt lat="42.77759578247683" lon="10.288580906531143"><ele>274.0</ele><time>2026-04-18T14:04:48.814Z</time></trkpt><trkpt lat="42.77763827146592" lon="10.288742990782975"><ele>270.8</ele><time>2026-04-18T14:04:49.814Z</time></trkpt><trkpt lat="42.77769008452622" lon="10.288891229788366"><ele>267.59999999999997</ele><time>2026-04-18T14:04:50.814Z</time></trkpt><trkpt lat="42.77772504966934" lon="10.289028621935355"><ele>264.4</ele><time>2026-04-18T14:04:51.814Z</time></trkpt><trkpt lat="42.777758533690765" lon="10.2891603300428"><ele>261.2</ele><time>2026-04-18T14:04:52.814Z</time></trkpt><trkpt lat="42.777793651715726" lon="10.289299321450663"><ele>258.0</ele><time>2026-04-18T14:04:53.814Z</time></trkpt><trkpt lat="42.777812759710194" lon="10.289431266252471"><ele>258.0</ele><time>2026-04-18T14:04:54.814Z</time></trkpt><trkpt lat="42.77786423199042" lon="10.289541521791262"><ele>258.0</ele><time>2026-04-18T14:04:55.814Z</time></trkpt><trkpt lat="42.777914334811015" lon="10.289670172026923"><ele>258.0</ele><time>2026-04-18T14:04:56.814Z</time></trkpt><trkpt lat="42.77801617639898" lon="10.289766108180514"><ele>258.0</ele><time>2026-04-18T14:04:57.814Z</time></trkpt><trkpt lat="42.77809949934748" lon="10.289878062035601"><ele>258.0</ele><time>2026-04-18T14:04:58.813Z</time></trkpt><trkpt lat="42.77817870448588" lon="10.28996066558621"><ele>257.4</ele><time>2026-04-18T14:04:59.813Z</time></trkpt><trkpt lat="42.778245000181506" lon="10.290044225992862"><ele>256.8</ele><time>2026-04-18T14:05:00.813Z</time></trkpt><trkpt lat="42.77832312114127" lon="10.290133537313675"><ele>256.2</ele><time>2026-04-18T14:05:01.813Z</time></trkpt><trkpt lat="42.778382283969606" lon="10.290243636783018"><ele>255.6</ele><time>2026-04-18T14:05:02.813Z</time></trkpt><trkpt lat="42.778467038261226" lon="10.290367215485125"><ele>255.0</ele><time>2026-04-18T14:05:03.813Z</time></trkpt><trkpt lat="42.77855096016482" lon="10.290485317796938"><ele>259.0</ele><time>2026-04-18T14:05:04.813Z</time></trkpt><trkpt lat="42.77862155658125" lon="10.290617984029298"><ele>263.0</ele><time>2026-04-18T14:05:05.813Z</time></trkpt><trkpt lat="42.77869746731007" lon="10.290722094686714"><ele>267.0</ele><time>2026-04-18T14:05:06.813Z</time></trkpt><trkpt lat="42.77878221386853" lon="10.29082016433002"><ele>271.0</ele><time>2026-04-18T14:05:07.813Z</time></trkpt><trkpt lat="42.778880796803975" lon="10.290894073759143"><ele>271.0</ele><time>2026-04-18T14:05:08.813Z</time></trkpt><trkpt lat="42.778966872980305" lon="10.290997557571563"><ele>271.0</ele><time>2026-04-18T14:05:09.813Z</time></trkpt><trkpt lat="42.77906208851518" lon="10.291081463700753"><ele>271.0</ele><time>2026-04-18T14:05:10.813Z</time></trkpt><trkpt lat="42.77913413703164" lon="10.29115709141234"><ele>271.0</ele><time>2026-04-18T14:05:11.813Z</time></trkpt><trkpt lat="42.77921113399499" lon="10.291230376576538"><ele>271.0</ele><time>2026-04-18T14:05:12.813Z</time></trkpt><trkpt lat="42.779300524662006" lon="10.291314581841727"><ele>269.2</ele><time>2026-04-18T14:05:13.813Z</time></trkpt><trkpt lat="42.77938461118091" lon="10.291393396827582"><ele>267.40000000000003</ele><time>2026-04-18T14:05:14.813Z</time></trkpt><trkpt lat="42.77946170479005" lon="10.29146332572696"><ele>265.6</ele><time>2026-04-18T14:05:15.813Z</time></trkpt><trkpt lat="42.77952354302542" lon="10.291517055195389"><ele>263.8</ele><time>2026-04-18T14:05:16.813Z</time></trkpt><trkpt lat="42.77959058818018" lon="10.291637496661517"><ele>262.0</ele><time>2026-04-18T14:05:18.813Z</time></trkpt><trkpt lat="42.77955489169693" lon="10.29176268500362"><ele>262.0</ele><time>2026-04-18T14:05:20.813Z</time></trkpt><trkpt lat="42.77946787916724" lon="10.29190019440546"><ele>262.0</ele><time>2026-04-18T14:05:22.813Z</time></trkpt><trkpt lat="42.77941956504441" lon="10.292027817615118"><ele>262.0</ele><time>2026-04-18T14:05:23.813Z</time></trkpt><trkpt lat="42.779400912031996" lon="10.292154686580243"><ele>262.0</ele><time>2026-04-18T14:05:24.813Z</time></trkpt><trkpt lat="42.77940469664206" lon="10.292312526519174"><ele>259.4</ele><time>2026-04-18T14:05:25.813Z</time></trkpt><trkpt lat="42.77940379278313" lon="10.29244242955247"><ele>256.79999999999995</ele><time>2026-04-18T14:05:26.813Z</time></trkpt><trkpt lat="42.77940165579284" lon="10.292556695832493"><ele>254.2</ele><time>2026-04-18T14:05:27.812Z</time></trkpt><trkpt lat="42.779385002456515" lon="10.292697907556239"><ele>251.6</ele><time>2026-04-18T14:05:28.812Z</time></trkpt><trkpt lat="42.77937427483076" lon="10.292845495399515"><ele>249.0</ele><time>2026-04-18T14:05:29.812Z</time></trkpt><trkpt lat="42.77935403262468" lon="10.2929808878548"><ele>252.39999999999998</ele><time>2026-04-18T14:05:30.812Z</time></trkpt><trkpt lat="42.77933616683229" lon="10.293108426334241"><ele>255.79999999999998</ele><time>2026-04-18T14:05:31.812Z</time></trkpt><trkpt lat="42.779318280052" lon="10.29326075908823"><ele>259.20000000000005</ele><time>2026-04-18T14:05:32.812Z</time></trkpt><trkpt lat="42.779319388797624" lon="10.293400276124142"><ele>262.6</ele><time>2026-04-18T14:05:33.812Z</time></trkpt><trkpt lat="42.77931680027896" lon="10.29354444623163"><ele>266.0</ele><time>2026-04-18T14:05:34.812Z</time></trkpt><trkpt lat="42.77933084272502" lon="10.293676539042432"><ele>266.0</ele><time>2026-04-18T14:05:35.812Z</time></trkpt><trkpt lat="42.77934612284013" lon="10.293817316269068"><ele>266.0</ele><time>2026-04-18T14:05:36.812Z</time></trkpt><trkpt lat="42.779353501549" lon="10.293945948392441"><ele>266.0</ele><time>2026-04-18T14:05:37.812Z</time></trkpt><trkpt lat="42.77933175168743" lon="10.294048028738697"><ele>266.0</ele><time>2026-04-18T14:05:38.812Z</time></trkpt><trkpt lat="42.7793144958942" lon="10.294152292336534"><ele>266.0</ele><time>2026-04-18T14:05:39.999Z</time></trkpt><trkpt lat="42.77930775753034" lon="10.294258514833645"><ele>266.0</ele><time>2026-04-18T14:05:40.999Z</time></trkpt><trkpt lat="42.7792883578755" lon="10.294383029763651"><ele>265.6</ele><time>2026-04-18T14:05:41.999Z</time></trkpt><trkpt lat="42.77927119055137" lon="10.294501737028659"><ele>265.20000000000005</ele><time>2026-04-18T14:05:42.999Z</time></trkpt><trkpt lat="42.779260337494335" lon="10.29463536201533"><ele>264.79999999999995</ele><time>2026-04-18T14:05:43.999Z</time></trkpt><trkpt lat="42.77924249646547" lon="10.294771656662922"><ele>264.4</ele><time>2026-04-18T14:05:44.999Z</time></trkpt><trkpt lat="42.77922213797111" lon="10.294899825604933"><ele>264.0</ele><time>2026-04-18T14:05:45.999Z</time></trkpt><trkpt lat="42.779204092450875" lon="10.295013901282548"><ele>263.8</ele><time>2026-04-18T14:05:46.999Z</time></trkpt><trkpt lat="42.77917790237351" lon="10.295167532947108"><ele>263.59999999999997</ele><time>2026-04-18T14:05:47.999Z</time></trkpt><trkpt lat="42.779176201714165" lon="10.295312789876753"><ele>263.4</ele><time>2026-04-18T14:05:48.999Z</time></trkpt><trkpt lat="42.77918675637683" lon="10.295457781681467"><ele>263.2</ele><time>2026-04-18T14:05:49.999Z</time></trkpt><trkpt lat="42.77919436265198" lon="10.295603658750489"><ele>263.0</ele><time>2026-04-18T14:05:50.999Z</time></trkpt><trkpt lat="42.77919276826869" lon="10.295767762510456"><ele>262.25</ele><time>2026-04-18T14:05:51.999Z</time></trkpt><trkpt lat="42.77919376714203" lon="10.295933922786315"><ele>261.5</ele><time>2026-04-18T14:05:52.999Z</time></trkpt><trkpt lat="42.77918940736839" lon="10.296082488317582"><ele>260.75</ele><time>2026-04-18T14:05:54Z</time></trkpt><trkpt lat="42.779163686308955" lon="10.296246535757085"><ele>260.0</ele><time>2026-04-18T14:05:55Z</time></trkpt><trkpt lat="42.77913837897943" lon="10.296432128884708"><ele>259.75</ele><time>2026-04-18T14:05:56Z</time></trkpt><trkpt lat="42.77909503668713" lon="10.296576630087198"><ele>259.5</ele><time>2026-04-18T14:05:57Z</time></trkpt><trkpt lat="42.77908803400822" lon="10.296737842589193"><ele>259.25</ele><time>2026-04-18T14:05:58Z</time></trkpt><trkpt lat="42.77912102124872" lon="10.296892042271988"><ele>259.0</ele><time>2026-04-18T14:05:59Z</time></trkpt><trkpt lat="42.77917516820409" lon="10.297018172014655"><ele>259.0</ele><time>2026-04-18T14:06:00Z</time></trkpt><trkpt lat="42.77922513852411" lon="10.29715125824747"><ele>259.0</ele><time>2026-04-18T14:06:01Z</time></trkpt><trkpt lat="42.779255028966034" lon="10.297282801025199"><ele>259.0</ele><time>2026-04-18T14:06:02Z</time></trkpt><trkpt lat="42.77926544153169" lon="10.297412894485857"><ele>259.0</ele><time>2026-04-18T14:06:03Z</time></trkpt><trkpt lat="42.779256935576306" lon="10.297530484663021"><ele>259.0</ele><time>2026-04-18T14:06:04Z</time></trkpt><trkpt lat="42.77923602693218" lon="10.297643504618389"><ele>258.8333333333333</ele><time>2026-04-18T14:06:05Z</time></trkpt><trkpt lat="42.77918534937332" lon="10.297733895960333"><ele>258.66666666666663</ele><time>2026-04-18T14:06:06Z</time></trkpt><trkpt lat="42.77913460957365" lon="10.297825187977654"><ele>258.5</ele><time>2026-04-18T14:06:07Z</time></trkpt><trkpt lat="42.779087740511024" lon="10.297931549859136"><ele>258.3333333333333</ele><time>2026-04-18T14:06:08Z</time></trkpt><trkpt lat="42.77906600059708" lon="10.29802001490013"><ele>258.1666666666667</ele><time>2026-04-18T14:06:09Z</time></trkpt><trkpt lat="42.77907538488986" lon="10.298124616958985"><ele>258.0</ele><time>2026-04-18T14:06:10Z</time></trkpt><trkpt lat="42.77910048096421" lon="10.298213442954298"><ele>259.2</ele><time>2026-04-18T14:06:11Z</time></trkpt><trkpt lat="42.77914815680683" lon="10.298289784271933"><ele>260.4</ele><time>2026-04-18T14:06:12Z</time></trkpt><trkpt lat="42.77922615452291" lon="10.298382322472827"><ele>261.59999999999997</ele><time>2026-04-18T14:06:13Z</time></trkpt><trkpt lat="42.7793169635656" lon="10.298477329719098"><ele>262.8</ele><time>2026-04-18T14:06:14Z</time></trkpt><trkpt lat="42.779394647800984" lon="10.298594924430144"><ele>264.0</ele><time>2026-04-18T14:06:15Z</time></trkpt><trkpt lat="42.77943587348898" lon="10.298727958790884"><ele>261.5</ele><time>2026-04-18T14:06:16Z</time></trkpt><trkpt lat="42.77947379014585" lon="10.298882407993066"><ele>259.0</ele><time>2026-04-18T14:06:17Z</time></trkpt><trkpt lat="42.77952924554821" lon="10.299007334989073"><ele>256.5</ele><time>2026-04-18T14:06:18Z</time></trkpt><trkpt lat="42.77961218331191" lon="10.299105644177446"><ele>254.0</ele><time>2026-04-18T14:06:19Z</time></trkpt><trkpt lat="42.779706247594454" lon="10.299197837507807"><ele>254.0</ele><time>2026-04-18T14:06:20Z</time></trkpt><trkpt lat="42.77977972004436" lon="10.299283555925784"><ele>253.99999999999997</ele><time>2026-04-18T14:06:21Z</time></trkpt><trkpt lat="42.77983842786701" lon="10.299365878666762"><ele>253.99999999999997</ele><time>2026-04-18T14:06:22Z</time></trkpt><trkpt lat="42.77987388705594" lon="10.299465903891628"><ele>254.0</ele><time>2026-04-18T14:06:23Z</time></trkpt><trkpt lat="42.77990923446049" lon="10.299588237731335"><ele>254.0</ele><time>2026-04-18T14:06:24Z</time></trkpt><trkpt lat="42.779938592741516" lon="10.299708037787758"><ele>255.39999999999998</ele><time>2026-04-18T14:06:25Z</time></trkpt><trkpt lat="42.77995976257659" lon="10.299820407714977"><ele>256.79999999999995</ele><time>2026-04-18T14:06:26Z</time></trkpt><trkpt lat="42.7799780497495" lon="10.299918936421983"><ele>258.20000000000005</ele><time>2026-04-18T14:06:27Z</time></trkpt><trkpt lat="42.779993069301526" lon="10.300041969197917"><ele>259.6</ele><time>2026-04-18T14:06:28Z</time></trkpt><trkpt lat="42.78004688149478" lon="10.300182281605442"><ele>261.0</ele><time>2026-04-18T14:06:29Z</time></trkpt><trkpt lat="42.780055650793535" lon="10.300337786674021"><ele>261.0</ele><time>2026-04-18T14:06:30Z</time></trkpt><trkpt lat="42.78005607280283" lon="10.3004935237661"><ele>261.0</ele><time>2026-04-18T14:06:31Z</time></trkpt><trkpt lat="42.78007284529238" lon="10.300624558979809"><ele>261.0</ele><time>2026-04-18T14:06:32Z</time></trkpt><trkpt lat="42.780075821453686" lon="10.300726924424298"><ele>261.0</ele><time>2026-04-18T14:06:33Z</time></trkpt><trkpt lat="42.780055382261196" lon="10.300848563899521"><ele>261.0</ele><time>2026-04-18T14:06:34Z</time></trkpt><trkpt lat="42.780032705295866" lon="10.300975094989223"><ele>259.8</ele><time>2026-04-18T14:06:35Z</time></trkpt><trkpt lat="42.779998722857364" lon="10.301085922606198"><ele>258.6</ele><time>2026-04-18T14:06:36Z</time></trkpt><trkpt lat="42.77996048747273" lon="10.301211109239624"><ele>257.4</ele><time>2026-04-18T14:06:37Z</time></trkpt><trkpt lat="42.77993788022059" lon="10.301333486206822"><ele>256.2</ele><time>2026-04-18T14:06:38Z</time></trkpt><trkpt lat="42.77990102171951" lon="10.301449877405778"><ele>255.0</ele><time>2026-04-18T14:06:39Z</time></trkpt><trkpt lat="42.77987026330576" lon="10.301582445236726"><ele>253.4</ele><time>2026-04-18T14:06:40Z</time></trkpt><trkpt lat="42.7798484348132" lon="10.301731006770222"><ele>251.8</ele><time>2026-04-18T14:06:41Z</time></trkpt><trkpt lat="42.77982002024504" lon="10.301888765260115"><ele>250.2</ele><time>2026-04-18T14:06:42Z</time></trkpt><trkpt lat="42.77981502188528" lon="10.302041422657606"><ele>248.6</ele><time>2026-04-18T14:06:43Z</time></trkpt><trkpt lat="42.779788584461684" lon="10.302160868391056"><ele>247.0</ele><time>2026-04-18T14:06:44Z</time></trkpt><trkpt lat="42.77976929938577" lon="10.302282724248302"><ele>245.33333333333331</ele><time>2026-04-18T14:06:45Z</time></trkpt><trkpt lat="42.77973653290431" lon="10.302378144235657"><ele>243.66666666666666</ele><time>2026-04-18T14:06:46Z</time></trkpt><trkpt lat="42.779684032416334" lon="10.302481019961315"><ele>242.0</ele><time>2026-04-18T14:06:47Z</time></trkpt><trkpt lat="42.7796097637495" lon="10.302554242471826"><ele>240.33333333333331</ele><time>2026-04-18T14:06:48Z</time></trkpt><trkpt lat="42.77954092644633" lon="10.302609365398428"><ele>238.66666666666666</ele><time>2026-04-18T14:06:49Z</time></trkpt><trkpt lat="42.779486828335635" lon="10.302655065876667"><ele>237.0</ele><time>2026-04-18T14:06:50Z</time></trkpt><trkpt lat="42.77941283062421" lon="10.302708095566244"><ele>237.0</ele><time>2026-04-18T14:06:51Z</time></trkpt><trkpt lat="42.77935998132962" lon="10.302811565128183"><ele>237.0</ele><time>2026-04-18T14:06:52Z</time></trkpt><trkpt lat="42.77927920967672" lon="10.302911111138334"><ele>237.0</ele><time>2026-04-18T14:06:53Z</time></trkpt><trkpt lat="42.77919463245081" lon="10.303002205481674"><ele>237.0</ele><time>2026-04-18T14:06:54Z</time></trkpt><trkpt lat="42.77913982360578" lon="10.303121598062658"><ele>237.0</ele><time>2026-04-18T14:06:55Z</time></trkpt><trkpt lat="42.77909291252325" lon="10.303210958849466"><ele>238.8</ele><time>2026-04-18T14:06:56Z</time></trkpt><trkpt lat="42.77906615270033" lon="10.303338876584672"><ele>240.6</ele><time>2026-04-18T14:06:57Z</time></trkpt><trkpt lat="42.77906126136802" lon="10.303478726710589"><ele>242.40000000000003</ele><time>2026-04-18T14:06:58Z</time></trkpt><trkpt lat="42.7790788200309" lon="10.30362889815195"><ele>244.20000000000002</ele><time>2026-04-18T14:06:59Z</time></trkpt><trkpt lat="42.77909904857146" lon="10.303758881864233"><ele>246.0</ele><time>2026-04-18T14:07:00Z</time></trkpt><trkpt lat="42.77910088908517" lon="10.303884963688882"><ele>245.83333333333334</ele><time>2026-04-18T14:07:01Z</time></trkpt><trkpt lat="42.779090020073966" lon="10.303994752393898"><ele>245.66666666666669</ele><time>2026-04-18T14:07:02Z</time></trkpt><trkpt lat="42.779078624717975" lon="10.304106402202846"><ele>245.5</ele><time>2026-04-18T14:07:03Z</time></trkpt><trkpt lat="42.77907396899223" lon="10.30421298083717"><ele>245.33333333333334</ele><time>2026-04-18T14:07:04Z</time></trkpt><trkpt lat="42.77910777757278" lon="10.304374544078152"><ele>245.16666666666669</ele><time>2026-04-18T14:07:06Z</time></trkpt><trkpt lat="42.77914724893198" lon="10.30445333655185"><ele>245.0</ele><time>2026-04-18T14:07:07Z</time></trkpt><trkpt lat="42.77920210664842" lon="10.304530535074685"><ele>245.00000000000003</ele><time>2026-04-18T14:07:08Z</time></trkpt><trkpt lat="42.779283528486836" lon="10.304608875677488"><ele>245.0</ele><time>2026-04-18T14:07:09Z</time></trkpt><trkpt lat="42.77935472943485" lon="10.304675368257874"><ele>245.0</ele><time>2026-04-18T14:07:10Z</time></trkpt><trkpt lat="42.779423235788364" lon="10.304718354933385"><ele>245.0</ele><time>2026-04-18T14:07:11Z</time></trkpt><trkpt lat="42.77948852667721" lon="10.30477581860096"><ele>245.00000000000003</ele><time>2026-04-18T14:07:12Z</time></trkpt><trkpt lat="42.7795256559388" lon="10.304916278953502"><ele>245.0</ele><time>2026-04-18T14:07:14Z</time></trkpt><trkpt lat="42.77951619831923" lon="10.305023038028274"><ele>241.00000000000003</ele><time>2026-04-18T14:07:15Z</time></trkpt><trkpt lat="42.779512289274045" lon="10.305120012858401"><ele>237.0</ele><time>2026-04-18T14:07:16Z</time></trkpt><trkpt lat="42.77949330230715" lon="10.305207501234472"><ele>233.0</ele><time>2026-04-18T14:07:17Z</time></trkpt><trkpt lat="42.779492020188975" lon="10.305297520788288"><ele>229.0</ele><time>2026-04-18T14:07:18Z</time></trkpt><trkpt lat="42.779507133455574" lon="10.305398811874845"><ele>225.00000000000003</ele><time>2026-04-18T14:07:19Z</time></trkpt><trkpt lat="42.77952618756384" lon="10.305484582521412"><ele>221.0</ele><time>2026-04-18T14:07:20Z</time></trkpt><trkpt lat="42.779600112237205" lon="10.305645177542473"><ele>221.00000000000003</ele><time>2026-04-18T14:07:22Z</time></trkpt><trkpt lat="42.77963960295016" lon="10.305748187558738"><ele>221.0</ele><time>2026-04-18T14:07:23Z</time></trkpt><trkpt lat="42.77970340558979" lon="10.30584558483747"><ele>221.0</ele><time>2026-04-18T14:07:24Z</time></trkpt><trkpt lat="42.779769432801245" lon="10.305930078219879"><ele>221.0</ele><time>2026-04-18T14:07:25Z</time></trkpt><trkpt lat="42.77981284216089" lon="10.306026437395108"><ele>221.00000000000003</ele><time>2026-04-18T14:07:26Z</time></trkpt><trkpt lat="42.77985069723484" lon="10.30614054419346"><ele>221.0</ele><time>2026-04-18T14:07:27Z</time></trkpt><trkpt lat="42.77989605480226" lon="10.306231454029524"><ele>221.00000000000003</ele><time>2026-04-18T14:07:28Z</time></trkpt><trkpt lat="42.779949411724076" lon="10.306336179275435"><ele>221.0</ele><time>2026-04-18T14:07:29Z</time></trkpt><trkpt lat="42.78001034828602" lon="10.306433644583112"><ele>221.0</ele><time>2026-04-18T14:07:30Z</time></trkpt><trkpt lat="42.78007976926058" lon="10.30650779050522"><ele>221.0</ele><time>2026-04-18T14:07:31Z</time></trkpt><trkpt lat="42.7801569704671" lon="10.306526626083604"><ele>221.00000000000003</ele><time>2026-04-18T14:07:32Z</time></trkpt><trkpt lat="42.78023791308087" lon="10.306518363953636"><ele>221.0</ele><time>2026-04-18T14:07:33Z</time></trkpt><trkpt lat="42.780333235233215" lon="10.30647489873853"><ele>217.60000000000002</ele><time>2026-04-18T14:07:34Z</time></trkpt><trkpt lat="42.780398915848664" lon="10.306398289041615"><ele>214.20000000000002</ele><time>2026-04-18T14:07:35Z</time></trkpt><trkpt lat="42.780470223988104" lon="10.306314827347991"><ele>210.8</ele><time>2026-04-18T14:07:36Z</time></trkpt><trkpt lat="42.78054183588763" lon="10.306269923410305"><ele>207.39999999999998</ele><time>2026-04-18T14:07:37Z</time></trkpt><trkpt lat="42.78061621900434" lon="10.306268861668908"><ele>204.0</ele><time>2026-04-18T14:07:38Z</time></trkpt><trkpt lat="42.780737924519386" lon="10.306313333462017"><ele>204.0</ele><time>2026-04-18T14:07:40Z</time></trkpt><trkpt lat="42.78079318525287" lon="10.306366925794057"><ele>204.0</ele><time>2026-04-18T14:07:41Z</time></trkpt><trkpt lat="42.780869175863145" lon="10.306433789209061"><ele>204.0</ele><time>2026-04-18T14:07:42Z</time></trkpt><trkpt lat="42.7809481211336" lon="10.306483882845178"><ele>204.0</ele><time>2026-04-18T14:07:43Z</time></trkpt><trkpt lat="42.78102445791239" lon="10.306531790514494"><ele>204.0</ele><time>2026-04-18T14:07:44Z</time></trkpt><trkpt lat="42.7810839719362" lon="10.306577662717723"><ele>204.0</ele><time>2026-04-18T14:07:45Z</time></trkpt><trkpt lat="42.78114438316293" lon="10.30670882853023"><ele>202.0</ele><time>2026-04-18T14:07:47Z</time></trkpt><trkpt lat="42.78115711190701" lon="10.306795165702736"><ele>200.0</ele><time>2026-04-18T14:07:48Z</time></trkpt><trkpt lat="42.78115170170685" lon="10.306881823116496"><ele>198.0</ele><time>2026-04-18T14:07:49Z</time></trkpt><trkpt lat="42.781132447764165" lon="10.306972845350948"><ele>196.0</ele><time>2026-04-18T14:07:50Z</time></trkpt><trkpt lat="42.78109917386454" lon="10.307081861276039"><ele>194.0</ele><time>2026-04-18T14:07:51Z</time></trkpt><trkpt lat="42.781074280247346" lon="10.307205197333591"><ele>192.0</ele><time>2026-04-18T14:07:52Z</time></trkpt><trkpt lat="42.78106859221131" lon="10.307339978927107"><ele>191.66666666666666</ele><time>2026-04-18T14:07:53Z</time></trkpt><trkpt lat="42.781090137743874" lon="10.307445643034695"><ele>191.33333333333334</ele><time>2026-04-18T14:07:54Z</time></trkpt><trkpt lat="42.78110549567289" lon="10.307564580521039"><ele>191.0</ele><time>2026-04-18T14:07:55Z</time></trkpt><trkpt lat="42.781119619645175" lon="10.30769352173045"><ele>190.66666666666669</ele><time>2026-04-18T14:07:56Z</time></trkpt><trkpt lat="42.78111739831795" lon="10.307826006116713"><ele>190.33333333333334</ele><time>2026-04-18T14:07:57Z</time></trkpt><trkpt lat="42.78111731584115" lon="10.307940768722814"><ele>190.0</ele><time>2026-04-18T14:07:58Z</time></trkpt><trkpt lat="42.78110116334037" lon="10.308063911062693"><ele>189.4</ele><time>2026-04-18T14:07:59Z</time></trkpt><trkpt lat="42.7810859998021" lon="10.308178757459805"><ele>188.8</ele><time>2026-04-18T14:08:00Z</time></trkpt><trkpt lat="42.78106729111809" lon="10.308306742155793"><ele>188.2</ele><time>2026-04-18T14:08:01Z</time></trkpt><trkpt lat="42.7810438251302" lon="10.308458132386246"><ele>187.6</ele><time>2026-04-18T14:08:02Z</time></trkpt><trkpt lat="42.78103135569046" lon="10.308589705575729"><ele>187.0</ele><time>2026-04-18T14:08:03Z</time></trkpt><trkpt lat="42.781059707411046" lon="10.308736851859617"><ele>187.0</ele><time>2026-04-18T14:08:04Z</time></trkpt><trkpt lat="42.78111907402655" lon="10.30885767012882"><ele>187.0</ele><time>2026-04-18T14:08:05Z</time></trkpt><trkpt lat="42.78115965303543" lon="10.308952225103653"><ele>187.0</ele><time>2026-04-18T14:08:06Z</time></trkpt><trkpt lat="42.78121456871196" lon="10.309040651890056"><ele>187.0</ele><time>2026-04-18T14:08:07Z</time></trkpt><trkpt lat="42.78128297853375" lon="10.309119296598544"><ele>187.0</ele><time>2026-04-18T14:08:08Z</time></trkpt><trkpt lat="42.78134838086659" lon="10.309198700228611"><ele>187.0</ele><time>2026-04-18T14:08:09Z</time></trkpt><trkpt lat="42.78139966068701" lon="10.309265195543237"><ele>188.66666666666669</ele><time>2026-04-18T14:08:10Z</time></trkpt><trkpt lat="42.78145503109899" lon="10.309348472683928"><ele>190.33333333333334</ele><time>2026-04-18T14:08:11Z</time></trkpt><trkpt lat="42.78150874103935" lon="10.309437020115592"><ele>192.0</ele><time>2026-04-18T14:08:12Z</time></trkpt><trkpt lat="42.78151482708336" lon="10.309543207803516"><ele>193.66666666666669</ele><time>2026-04-18T14:08:13Z</time></trkpt><trkpt lat="42.78152632579795" lon="10.309653353502508"><ele>195.33333333333334</ele><time>2026-04-18T14:08:14Z</time></trkpt><trkpt lat="42.7815215114531" lon="10.309781141422285"><ele>197.0</ele><time>2026-04-18T14:08:15Z</time></trkpt><trkpt lat="42.78151541973037" lon="10.309902378890802"><ele>197.16666666666669</ele><time>2026-04-18T14:08:16Z</time></trkpt><trkpt lat="42.78148944875574" lon="10.310003589431009"><ele>197.33333333333334</ele><time>2026-04-18T14:08:17Z</time></trkpt><trkpt lat="42.78146979034022" lon="10.31010222402901"><ele>197.5</ele><time>2026-04-18T14:08:18Z</time></trkpt><trkpt lat="42.781436190685874" lon="10.310218083254055"><ele>197.66666666666669</ele><time>2026-04-18T14:08:19Z</time></trkpt><trkpt lat="42.781409741061026" lon="10.310357578416374"><ele>197.83333333333334</ele><time>2026-04-18T14:08:20Z</time></trkpt><trkpt lat="42.78138123370935" lon="10.31048295007717"><ele>198.0</ele><time>2026-04-18T14:08:21Z</time></trkpt><trkpt lat="42.781370921908966" lon="10.310626567901549"><ele>197.4</ele><time>2026-04-18T14:08:22Z</time></trkpt><trkpt lat="42.78136985865691" lon="10.310780291346358"><ele>196.8</ele><time>2026-04-18T14:08:23Z</time></trkpt><trkpt lat="42.78137267782259" lon="10.310916242962644"><ele>196.2</ele><time>2026-04-18T14:08:24Z</time></trkpt><trkpt lat="42.781384212054434" lon="10.311046608070306"><ele>195.6</ele><time>2026-04-18T14:08:25Z</time></trkpt><trkpt lat="42.78139841172712" lon="10.31116866077522"><ele>195.0</ele><time>2026-04-18T14:08:26Z</time></trkpt><trkpt lat="42.781421977594874" lon="10.311291853662455"><ele>195.5</ele><time>2026-04-18T14:08:27Z</time></trkpt><trkpt lat="42.78143323837805" lon="10.311408856319098"><ele>196.0</ele><time>2026-04-18T14:08:28Z</time></trkpt><trkpt lat="42.78144447307419" lon="10.311515968230754"><ele>196.5</ele><time>2026-04-18T14:08:29Z</time></trkpt><trkpt lat="42.781466529165066" lon="10.311635963379015"><ele>197.0</ele><time>2026-04-18T14:08:30Z</time></trkpt><trkpt lat="42.781479956442496" lon="10.31175907539993"><ele>197.5</ele><time>2026-04-18T14:08:31Z</time></trkpt><trkpt lat="42.78149256630106" lon="10.31187308261267"><ele>198.0</ele><time>2026-04-18T14:08:32Z</time></trkpt><trkpt lat="42.78148980099934" lon="10.312010092172963"><ele>198.0</ele><time>2026-04-18T14:08:34Z</time></trkpt><trkpt lat="42.78149384901094" lon="10.31211632306391"><ele>198.0</ele><time>2026-04-18T14:08:39Z</time></trkpt><trkpt lat="42.78154582947573" lon="10.31224225780764"><ele>198.0</ele><time>2026-04-18T14:08:50Z</time></trkpt><trkpt lat="42.781598584693455" lon="10.312312678607222"><ele>198.0</ele><time>2026-04-18T14:08:51Z</time></trkpt><trkpt lat="42.78166976324641" lon="10.31238103076392"><ele>198.0</ele><time>2026-04-18T14:08:52Z</time></trkpt><trkpt lat="42.78173607768089" lon="10.31243624245544"><ele>198.0</ele><time>2026-04-18T14:08:53Z</time></trkpt><trkpt lat="42.7817794948051" lon="10.31250257943239"><ele>196.4</ele><time>2026-04-18T14:08:54Z</time></trkpt><trkpt lat="42.781848815702254" lon="10.31257095709011"><ele>194.8</ele><time>2026-04-18T14:08:55Z</time></trkpt><trkpt lat="42.78192255901199" lon="10.312643679602862"><ele>193.2</ele><time>2026-04-18T14:08:56Z</time></trkpt><trkpt lat="42.78201196446021" lon="10.312731334881923"><ele>191.6</ele><time>2026-04-18T14:08:57Z</time></trkpt><trkpt lat="42.78210108932785" lon="10.31281871503996"><ele>190.0</ele><time>2026-04-18T14:08:58Z</time></trkpt><trkpt lat="42.78218543948935" lon="10.312891224057465"><ele>190.0</ele><time>2026-04-18T14:08:59Z</time></trkpt><trkpt lat="42.78228273583818" lon="10.3129651315354"><ele>190.0</ele><time>2026-04-18T14:09:00Z</time></trkpt><trkpt lat="42.78238285206213" lon="10.313026207701816"><ele>190.0</ele><time>2026-04-18T14:09:01Z</time></trkpt><trkpt lat="42.78249173271335" lon="10.313076272355056"><ele>190.0</ele><time>2026-04-18T14:09:02Z</time></trkpt><trkpt lat="42.782602755846035" lon="10.313120030438148"><ele>187.2</ele><time>2026-04-18T14:09:03Z</time></trkpt><trkpt lat="42.78269339655365" lon="10.313152879483377"><ele>184.4</ele><time>2026-04-18T14:09:04Z</time></trkpt><trkpt lat="42.78278728110993" lon="10.313186582833128"><ele>181.60000000000002</ele><time>2026-04-18T14:09:05Z</time></trkpt><trkpt lat="42.78288260535439" lon="10.313220803017122"><ele>178.8</ele><time>2026-04-18T14:09:06Z</time></trkpt><trkpt lat="42.78295885950185" lon="10.313248328177382"><ele>176.0</ele><time>2026-04-18T14:09:07Z</time></trkpt><trkpt lat="42.78307348806387" lon="10.313270484338807"><ele>176.0</ele><time>2026-04-18T14:09:08Z</time></trkpt><trkpt lat="42.783180692468" lon="10.313317718279187"><ele>176.0</ele><time>2026-04-18T14:09:09Z</time></trkpt><trkpt lat="42.78329898303145" lon="10.313345590824545"><ele>176.0</ele><time>2026-04-18T14:09:10Z</time></trkpt><trkpt lat="42.78342089517492" lon="10.313358359246834"><ele>176.0</ele><time>2026-04-18T14:09:11Z</time></trkpt><trkpt lat="42.78352445714641" lon="10.313358280342353"><ele>175.0</ele><time>2026-04-18T14:09:12Z</time></trkpt><trkpt lat="42.78363828360381" lon="10.313308327143586"><ele>174.0</ele><time>2026-04-18T14:09:13Z</time></trkpt><trkpt lat="42.78375766588608" lon="10.313265306659629"><ele>173.0</ele><time>2026-04-18T14:09:14Z</time></trkpt><trkpt lat="42.78388673885698" lon="10.313232440425738"><ele>172.0</ele><time>2026-04-18T14:09:15Z</time></trkpt><trkpt lat="42.78399969102589" lon="10.313195327192572"><ele>172.0</ele><time>2026-04-18T14:09:16Z</time></trkpt><trkpt lat="42.78410678935797" lon="10.313149135481563"><ele>172.0</ele><time>2026-04-18T14:09:17Z</time></trkpt><trkpt lat="42.78420787885313" lon="10.313070383936669"><ele>172.0</ele><time>2026-04-18T14:09:18Z</time></trkpt><trkpt lat="42.7843103770916" lon="10.312945509510515"><ele>172.0</ele><time>2026-04-18T14:09:19Z</time></trkpt><trkpt lat="42.78436983698567" lon="10.31277104935711"><ele>169.5</ele><time>2026-04-18T14:09:20Z</time></trkpt><trkpt lat="42.78444209274725" lon="10.312627682858276"><ele>167.0</ele><time>2026-04-18T14:09:21Z</time></trkpt><trkpt lat="42.78451179445747" lon="10.31250247859224"><ele>164.5</ele><time>2026-04-18T14:09:22Z</time></trkpt><trkpt lat="42.784583598159244" lon="10.312382598239584"><ele>162.0</ele><time>2026-04-18T14:09:23Z</time></trkpt><trkpt lat="42.78467423122393" lon="10.312266589011"><ele>166.39999999999998</ele><time>2026-04-18T14:09:24Z</time></trkpt><trkpt lat="42.78476551438389" lon="10.312145996412072"><ele>170.79999999999998</ele><time>2026-04-18T14:09:25Z</time></trkpt><trkpt lat="42.78486457976742" lon="10.31202665983828"><ele>175.2</ele><time>2026-04-18T14:09:26Z</time></trkpt><trkpt lat="42.78496177780331" lon="10.312000993800224"><ele>179.6</ele><time>2026-04-18T14:09:27Z</time></trkpt><trkpt lat="42.78504104854583" lon="10.311944093624875"><ele>184.0</ele><time>2026-04-18T14:09:28Z</time></trkpt><trkpt lat="42.78513386575681" lon="10.311975618067596"><ele>183.25</ele><time>2026-04-18T14:09:29Z</time></trkpt><trkpt lat="42.78525493627624" lon="10.312014450693665"><ele>182.5</ele><time>2026-04-18T14:09:30Z</time></trkpt><trkpt lat="42.78535742724626" lon="10.312080597327396"><ele>181.75</ele><time>2026-04-18T14:09:31Z</time></trkpt><trkpt lat="42.78548196888105" lon="10.312170396281154"><ele>181.0</ele><time>2026-04-18T14:09:32Z</time></trkpt><trkpt lat="42.78559014270537" lon="10.312246625602425"><ele>173.75</ele><time>2026-04-18T14:09:33Z</time></trkpt><trkpt lat="42.78568790593975" lon="10.312302867059563"><ele>166.5</ele><time>2026-04-18T14:09:34Z</time></trkpt><trkpt lat="42.78580201621306" lon="10.312366384318661"><ele>159.25</ele><time>2026-04-18T14:09:35Z</time></trkpt><trkpt lat="42.78591893567352" lon="10.312436419118171"><ele>152.0</ele><time>2026-04-18T14:09:36Z</time></trkpt><trkpt lat="42.786025447527535" lon="10.31251800226633"><ele>151.4</ele><time>2026-04-18T14:09:37Z</time></trkpt><trkpt lat="42.786119274861704" lon="10.312609815489509"><ele>150.79999999999998</ele><time>2026-04-18T14:09:38Z</time></trkpt><trkpt lat="42.786208549670086" lon="10.312710473851297"><ele>150.2</ele><time>2026-04-18T14:09:39Z</time></trkpt><trkpt lat="42.786286659140984" lon="10.31279832585291"><ele>149.6</ele><time>2026-04-18T14:09:40Z</time></trkpt><trkpt lat="42.78636684911629" lon="10.312873739037727"><ele>149.0</ele><time>2026-04-18T14:09:41Z</time></trkpt><trkpt lat="42.78644828338462" lon="10.312938964224662"><ele>149.0</ele><time>2026-04-18T14:09:42Z</time></trkpt><trkpt lat="42.78652740530602" lon="10.312970836520348"><ele>149.0</ele><time>2026-04-18T14:09:43Z</time></trkpt><trkpt lat="42.78658483125858" lon="10.313050768753207"><ele>149.0</ele><time>2026-04-18T14:09:44Z</time></trkpt><trkpt lat="42.786618224496046" lon="10.313178995430569"><ele>149.0</ele><time>2026-04-18T14:09:46Z</time></trkpt><trkpt lat="42.786489065672804" lon="10.313253372525955"><ele>149.0</ele><time>2026-04-18T14:09:48Z</time></trkpt><trkpt lat="42.786388366805156" lon="10.313308438600812"><ele>145.75</ele><time>2026-04-18T14:09:49Z</time></trkpt><trkpt lat="42.786275568022575" lon="10.313373621997494"><ele>142.5</ele><time>2026-04-18T14:09:50Z</time></trkpt><trkpt lat="42.78616182723843" lon="10.313444858211621"><ele>139.25</ele><time>2026-04-18T14:09:51Z</time></trkpt><trkpt lat="42.78604530753462" lon="10.313515740746798"><ele>136.0</ele><time>2026-04-18T14:09:52.001Z</time></trkpt><trkpt lat="42.78593780178717" lon="10.313584549830109"><ele>136.0</ele><time>2026-04-18T14:09:53.001Z</time></trkpt><trkpt lat="42.78583701912342" lon="10.313651414893416"><ele>136.0</ele><time>2026-04-18T14:09:54.001Z</time></trkpt><trkpt lat="42.78574530984598" lon="10.313721686142413"><ele>136.0</ele><time>2026-04-18T14:09:55Z</time></trkpt><trkpt lat="42.78566293902393" lon="10.313796475595465"><ele>136.0</ele><time>2026-04-18T14:09:56Z</time></trkpt><trkpt lat="42.78557920819536" lon="10.313873038125443"><ele>136.0</ele><time>2026-04-18T14:09:57Z</time></trkpt><trkpt lat="42.78549524194484" lon="10.31394806774101"><ele>134.5</ele><time>2026-04-18T14:09:58Z</time></trkpt><trkpt lat="42.78541764636636" lon="10.314016093931063"><ele>133.0</ele><time>2026-04-18T14:09:59Z</time></trkpt><trkpt lat="42.78533545322224" lon="10.314076576757849"><ele>131.5</ele><time>2026-04-18T14:10:00Z</time></trkpt><trkpt lat="42.78526245684911" lon="10.314131507597368"><ele>130.0</ele><time>2026-04-18T14:10:01Z</time></trkpt><trkpt lat="42.78520876893122" lon="10.314215255816311"><ele>128.5</ele><time>2026-04-18T14:10:02Z</time></trkpt><trkpt lat="42.78519913845288" lon="10.314329461601721"><ele>127.0</ele><time>2026-04-18T14:10:03Z</time></trkpt><trkpt lat="42.78523076063317" lon="10.3144371333901"><ele>127.0</ele><time>2026-04-18T14:10:04Z</time></trkpt><trkpt lat="42.78529077906948" lon="10.314528532252833"><ele>126.99999999999999</ele><time>2026-04-18T14:10:05Z</time></trkpt><trkpt lat="42.78538414486751" lon="10.31457128139075"><ele>126.99999999999999</ele><time>2026-04-18T14:10:06Z</time></trkpt><trkpt lat="42.78548751699292" lon="10.314555503506325"><ele>127.0</ele><time>2026-04-18T14:10:07Z</time></trkpt><trkpt lat="42.78560293756021" lon="10.314518902186023"><ele>127.0</ele><time>2026-04-18T14:10:08Z</time></trkpt><trkpt lat="42.78571585164159" lon="10.314507603557441"><ele>127.0</ele><time>2026-04-18T14:10:09Z</time></trkpt><trkpt lat="42.78582604028996" lon="10.31452313580436"><ele>126.99999999999999</ele><time>2026-04-18T14:10:10Z</time></trkpt><trkpt lat="42.78592808205237" lon="10.31456621295169"><ele>126.99999999999999</ele><time>2026-04-18T14:10:11Z</time></trkpt><trkpt lat="42.78602689089592" lon="10.314589353780962"><ele>127.0</ele><time>2026-04-18T14:10:12Z</time></trkpt><trkpt lat="42.786132958829505" lon="10.314577876425526"><ele>127.0</ele><time>2026-04-18T14:10:13Z</time></trkpt><trkpt lat="42.786236104436526" lon="10.314506759439626"><ele>124.8</ele><time>2026-04-18T14:10:14Z</time></trkpt><trkpt lat="42.78631799675876" lon="10.314422152706312"><ele>122.6</ele><time>2026-04-18T14:10:15Z</time></trkpt><trkpt lat="42.786399003223266" lon="10.314343302185723"><ele>120.39999999999999</ele><time>2026-04-18T14:10:16Z</time></trkpt><trkpt lat="42.78648026382539" lon="10.314257695791495"><ele>118.19999999999999</ele><time>2026-04-18T14:10:17Z</time></trkpt><trkpt lat="42.786568665348675" lon="10.314170203738016"><ele>116.0</ele><time>2026-04-18T14:10:18Z</time></trkpt><trkpt lat="42.78666089899368" lon="10.314092497390597"><ele>116.0</ele><time>2026-04-18T14:10:19Z</time></trkpt><trkpt lat="42.786762254456825" lon="10.314059985184562"><ele>116.0</ele><time>2026-04-18T14:10:20Z</time></trkpt><trkpt lat="42.786849331417294" lon="10.31400008525834"><ele>116.0</ele><time>2026-04-18T14:10:21Z</time></trkpt><trkpt lat="42.7869330208745" lon="10.31397113991764"><ele>116.0</ele><time>2026-04-18T14:10:22Z</time></trkpt><trkpt lat="42.787019313453854" lon="10.313939092241128"><ele>116.0</ele><time>2026-04-18T14:10:23Z</time></trkpt><trkpt lat="42.78710765577301" lon="10.313895281473533"><ele>116.0</ele><time>2026-04-18T14:10:24Z</time></trkpt><trkpt lat="42.78719007159493" lon="10.313844067836335"><ele>116.0</ele><time>2026-04-18T14:10:25Z</time></trkpt><trkpt lat="42.78728488499167" lon="10.313784473586066"><ele>116.0</ele><time>2026-04-18T14:10:26Z</time></trkpt><trkpt lat="42.787343193763206" lon="10.313686214635803"><ele>116.0</ele><time>2026-04-18T14:10:27Z</time></trkpt><trkpt lat="42.78739931525033" lon="10.31358694874313"><ele>116.0</ele><time>2026-04-18T14:10:28Z</time></trkpt><trkpt lat="42.78746144464904" lon="10.313509881329985"><ele>115.99999999999999</ele><time>2026-04-18T14:10:29Z</time></trkpt><trkpt lat="42.78750326638605" lon="10.313403476625759"><ele>116.0</ele><time>2026-04-18T14:10:30Z</time></trkpt><trkpt lat="42.78754277744838" lon="10.313304668319667"><ele>116.0</ele><time>2026-04-18T14:10:31Z</time></trkpt><trkpt lat="42.78758870169277" lon="10.313229417163619"><ele>116.0</ele><time>2026-04-18T14:10:32Z</time></trkpt><trkpt lat="42.78763117575916" lon="10.313165253376697"><ele>115.99999999999999</ele><time>2026-04-18T14:10:33Z</time></trkpt><trkpt lat="42.78774870084055" lon="10.313079606549145"><ele>116.0</ele><time>2026-04-18T14:10:35Z</time></trkpt><trkpt lat="42.7878321890242" lon="10.313099563279186"><ele>113.8</ele><time>2026-04-18T14:10:36Z</time></trkpt><trkpt lat="42.78794017751766" lon="10.31311003948483"><ele>111.6</ele><time>2026-04-18T14:10:37Z</time></trkpt><trkpt lat="42.78804082418781" lon="10.313100731841454"><ele>109.4</ele><time>2026-04-18T14:10:38Z</time></trkpt><trkpt lat="42.788150126618305" lon="10.3131237358708"><ele>107.2</ele><time>2026-04-18T14:10:39Z</time></trkpt><trkpt lat="42.78824187749082" lon="10.31313996105362"><ele>105.0</ele><time>2026-04-18T14:10:40Z</time></trkpt><trkpt lat="42.788334561321285" lon="10.3131458977065"><ele>105.0</ele><time>2026-04-18T14:10:41Z</time></trkpt><trkpt lat="42.78841001951331" lon="10.313203772356095"><ele>105.0</ele><time>2026-04-18T14:10:42Z</time></trkpt><trkpt lat="42.78846673777429" lon="10.313271083558053"><ele>105.0</ele><time>2026-04-18T14:10:43Z</time></trkpt><trkpt lat="42.78854046143572" lon="10.313347003556872"><ele>105.0</ele><time>2026-04-18T14:10:44Z</time></trkpt><trkpt lat="42.78862242871395" lon="10.313430281830014"><ele>105.0</ele><time>2026-04-18T14:10:45Z</time></trkpt><trkpt lat="42.788720117024255" lon="10.31350034035518"><ele>104.0</ele><time>2026-04-18T14:10:46Z</time></trkpt><trkpt lat="42.78879838068896" lon="10.313606482135297"><ele>103.0</ele><time>2026-04-18T14:10:47Z</time></trkpt><trkpt lat="42.788883414502436" lon="10.313685695429992"><ele>102.0</ele><time>2026-04-18T14:10:48Z</time></trkpt><trkpt lat="42.788973995229014" lon="10.31378447673895"><ele>101.0</ele><time>2026-04-18T14:10:49Z</time></trkpt><trkpt lat="42.78905648865382" lon="10.313878216485197"><ele>100.0</ele><time>2026-04-18T14:10:50Z</time></trkpt><trkpt lat="42.789136700855835" lon="10.31396643973676"><ele>100.0</ele><time>2026-04-18T14:10:51Z</time></trkpt><trkpt lat="42.78921423058334" lon="10.314061851889873"><ele>100.0</ele><time>2026-04-18T14:10:52Z</time></trkpt><trkpt lat="42.78928740822981" lon="10.314156728081938"><ele>100.0</ele><time>2026-04-18T14:10:53Z</time></trkpt><trkpt lat="42.789358690777874" lon="10.314246589503782"><ele>100.0</ele><time>2026-04-18T14:10:54Z</time></trkpt><trkpt lat="42.789420484826515" lon="10.314326818119023"><ele>100.0</ele><time>2026-04-18T14:10:55Z</time></trkpt><trkpt lat="42.789486130674995" lon="10.31439966456268"><ele>98.83333333333334</ele><time>2026-04-18T14:10:56Z</time></trkpt><trkpt lat="42.78955470762549" lon="10.314478166596974"><ele>97.66666666666667</ele><time>2026-04-18T14:10:57Z</time></trkpt><trkpt lat="42.78962436239745" lon="10.31455510904346"><ele>96.5</ele><time>2026-04-18T14:10:58Z</time></trkpt><trkpt lat="42.789687433258365" lon="10.31461929503534"><ele>95.33333333333334</ele><time>2026-04-18T14:10:59Z</time></trkpt><trkpt lat="42.78975912725221" lon="10.314673846725908"><ele>94.16666666666667</ele><time>2026-04-18T14:11:00Z</time></trkpt><trkpt lat="42.789828387939956" lon="10.31471569304985"><ele>93.0</ele><time>2026-04-18T14:11:01Z</time></trkpt><trkpt lat="42.789896721102224" lon="10.314766822476134"><ele>93.0</ele><time>2026-04-18T14:11:02Z</time></trkpt><trkpt lat="42.789963621005" lon="10.314814776403145"><ele>93.0</ele><time>2026-04-18T14:11:03Z</time></trkpt><trkpt lat="42.79003479199683" lon="10.314866167823931"><ele>93.0</ele><time>2026-04-18T14:11:04Z</time></trkpt><trkpt lat="42.7901017834988" lon="10.314913175402818"><ele>93.0</ele><time>2026-04-18T14:11:05Z</time></trkpt><trkpt lat="42.79017317186298" lon="10.314971178489138"><ele>93.0</ele><time>2026-04-18T14:11:06Z</time></trkpt><trkpt lat="42.790259325560044" lon="10.315029420484082"><ele>93.0</ele><time>2026-04-18T14:11:07Z</time></trkpt><trkpt lat="42.79034778387213" lon="10.315081046540623"><ele>93.2</ele><time>2026-04-18T14:11:08Z</time></trkpt><trkpt lat="42.790441492342914" lon="10.315121356792774"><ele>93.4</ele><time>2026-04-18T14:11:09Z</time></trkpt><trkpt lat="42.79054926480732" lon="10.315136070921247"><ele>93.60000000000001</ele><time>2026-04-18T14:11:10Z</time></trkpt><trkpt lat="42.790656251623844" lon="10.315147868293554"><ele>93.80000000000001</ele><time>2026-04-18T14:11:11Z</time></trkpt><trkpt lat="42.7907679090034" lon="10.315154834790754"><ele>94.0</ele><time>2026-04-18T14:11:12Z</time></trkpt><trkpt lat="42.79087389310158" lon="10.315166177107608"><ele>94.0</ele><time>2026-04-18T14:11:13Z</time></trkpt><trkpt lat="42.7909866815793" lon="10.315169263706625"><ele>94.0</ele><time>2026-04-18T14:11:14Z</time></trkpt><trkpt lat="42.79108768049191" lon="10.315183086410284"><ele>94.0</ele><time>2026-04-18T14:11:15Z</time></trkpt><trkpt lat="42.79118404658474" lon="10.315193743877618"><ele>94.0</ele><time>2026-04-18T14:11:16Z</time></trkpt><trkpt lat="42.79127588312078" lon="10.315205089826097"><ele>94.0</ele><time>2026-04-18T14:11:17Z</time></trkpt><trkpt lat="42.79137138876078" lon="10.315216054960722"><ele>93.16666666666666</ele><time>2026-04-18T14:11:18Z</time></trkpt><trkpt lat="42.79145822553809" lon="10.315225941364508"><ele>92.33333333333333</ele><time>2026-04-18T14:11:19Z</time></trkpt><trkpt lat="42.79153454919454" lon="10.31525142971345"><ele>91.5</ele><time>2026-04-18T14:11:20Z</time></trkpt><trkpt lat="42.791603651655" lon="10.315305985291701"><ele>90.66666666666667</ele><time>2026-04-18T14:11:21Z</time></trkpt><trkpt lat="42.79162857666846" lon="10.315412816620059"><ele>89.83333333333334</ele><time>2026-04-18T14:11:22Z</time></trkpt><trkpt lat="42.79163924142269" lon="10.315507091360432"><ele>89.0</ele><time>2026-04-18T14:11:23Z</time></trkpt><trkpt lat="42.791660840767825" lon="10.315617075089468"><ele>86.2</ele><time>2026-04-18T14:11:24Z</time></trkpt><trkpt lat="42.79169848032681" lon="10.31572597396366"><ele>83.4</ele><time>2026-04-18T14:11:25Z</time></trkpt><trkpt lat="42.791750902319436" lon="10.315823618544364"><ele>80.6</ele><time>2026-04-18T14:11:26Z</time></trkpt><trkpt lat="42.79185471380723" lon="10.315857953092383"><ele>77.8</ele><time>2026-04-18T14:11:27Z</time></trkpt><trkpt lat="42.79194444050303" lon="10.315901208019438"><ele>75.0</ele><time>2026-04-18T14:11:28Z</time></trkpt><trkpt lat="42.79201952014801" lon="10.315949792481298"><ele>74.33333333333333</ele><time>2026-04-18T14:11:29Z</time></trkpt><trkpt lat="42.79208418354508" lon="10.315991605716336"><ele>73.66666666666667</ele><time>2026-04-18T14:11:30Z</time></trkpt><trkpt lat="42.79215157733896" lon="10.31607782413414"><ele>73.0</ele><time>2026-04-18T14:11:31Z</time></trkpt><trkpt lat="42.792226728691304" lon="10.316136237768113"><ele>72.33333333333334</ele><time>2026-04-18T14:11:32Z</time></trkpt><trkpt lat="42.79228215279344" lon="10.31619281009177"><ele>71.66666666666667</ele><time>2026-04-18T14:11:33Z</time></trkpt><trkpt lat="42.79233827279345" lon="10.316260039761648"><ele>71.0</ele><time>2026-04-18T14:11:34Z</time></trkpt><trkpt lat="42.79239102949151" lon="10.316328051048675"><ele>71.0</ele><time>2026-04-18T14:11:35Z</time></trkpt><trkpt lat="42.79255893716096" lon="10.316171159773328"><ele>71.0</ele><time>2026-04-18T14:11:38Z</time></trkpt><trkpt lat="42.792581970720484" lon="10.316079347070566"><ele>71.0</ele><time>2026-04-18T14:11:39Z</time></trkpt><trkpt lat="42.792614459348805" lon="10.315984085495545"><ele>71.0</ele><time>2026-04-18T14:11:40Z</time></trkpt><trkpt lat="42.79268180336399" lon="10.31588752921872"><ele>68.66666666666667</ele><time>2026-04-18T14:11:41Z</time></trkpt><trkpt lat="42.792750062548514" lon="10.315813288367309"><ele>66.33333333333334</ele><time>2026-04-18T14:11:42Z</time></trkpt><trkpt lat="42.7928163881371" lon="10.315761645399103"><ele>64.0</ele><time>2026-04-18T14:11:43Z</time></trkpt><trkpt lat="42.79287770669036" lon="10.31569883860818"><ele>61.66666666666667</ele><time>2026-04-18T14:11:44Z</time></trkpt><trkpt lat="42.79294296192127" lon="10.315654081855994"><ele>59.333333333333336</ele><time>2026-04-18T14:11:45Z</time></trkpt><trkpt lat="42.79299375195709" lon="10.31560152930361"><ele>57.0</ele><time>2026-04-18T14:11:46Z</time></trkpt><trkpt lat="42.793019249181235" lon="10.315489541639955"><ele>56.6</ele><time>2026-04-18T14:11:47Z</time></trkpt><trkpt lat="42.79302199224612" lon="10.315347049074923"><ele>56.2</ele><time>2026-04-18T14:11:48Z</time></trkpt><trkpt lat="42.79300584684542" lon="10.315203053852589"><ele>55.8</ele><time>2026-04-18T14:11:49Z</time></trkpt><trkpt lat="42.792997767060925" lon="10.315064469794033"><ele>55.4</ele><time>2026-04-18T14:11:50Z</time></trkpt><trkpt lat="42.79299246246275" lon="10.314951079397202"><ele>55.0</ele><time>2026-04-18T14:11:51Z</time></trkpt><trkpt lat="42.792964876157185" lon="10.314845040479215"><ele>56.4</ele><time>2026-04-18T14:11:52Z</time></trkpt><trkpt lat="42.792987406706445" lon="10.314734188966595"><ele>57.8</ele><time>2026-04-18T14:11:53Z</time></trkpt><trkpt lat="42.79300533190751" lon="10.314624250465386"><ele>59.2</ele><time>2026-04-18T14:11:54Z</time></trkpt><trkpt lat="42.79304808951035" lon="10.31451433631017"><ele>60.6</ele><time>2026-04-18T14:11:55Z</time></trkpt><trkpt lat="42.793130664529606" lon="10.314445905831743"><ele>62.0</ele><time>2026-04-18T14:11:56Z</time></trkpt><trkpt lat="42.79323255863739" lon="10.314440013664145"><ele>62.0</ele><time>2026-04-18T14:11:57Z</time></trkpt><trkpt lat="42.79333878218946" lon="10.314413401499001"><ele>62.0</ele><time>2026-04-18T14:11:58Z</time></trkpt><trkpt lat="42.793458176901574" lon="10.314364009032342"><ele>62.0</ele><time>2026-04-18T14:11:59Z</time></trkpt><trkpt lat="42.79362155246739" lon="10.314317904972812"><ele>62.0</ele><time>2026-04-18T14:12:00Z</time></trkpt><trkpt lat="42.79381785795639" lon="10.314264390752113"><ele>58.333333333333336</ele><time>2026-04-18T14:12:01Z</time></trkpt><trkpt lat="42.7940060392014" lon="10.314227085464205"><ele>54.66666666666667</ele><time>2026-04-18T14:12:02Z</time></trkpt><trkpt lat="42.794185015560444" lon="10.314202499238139"><ele>51.0</ele><time>2026-04-18T14:12:03Z</time></trkpt><trkpt lat="42.79435528258006" lon="10.314178001523159"><ele>47.666666666666664</ele><time>2026-04-18T14:12:04Z</time></trkpt><trkpt lat="42.79451577949734" lon="10.31412632274502"><ele>44.33333333333333</ele><time>2026-04-18T14:12:05Z</time></trkpt><trkpt lat="42.79466773168753" lon="10.314064850684195"><ele>41.0</ele><time>2026-04-18T14:12:06Z</time></trkpt><trkpt lat="42.79481255059455" lon="10.314008439490152"><ele>41.0</ele><time>2026-04-18T14:12:07Z</time></trkpt><trkpt lat="42.79495500344534" lon="10.313947991398589"><ele>41.0</ele><time>2026-04-18T14:12:08Z</time></trkpt><trkpt lat="42.7950967001223" lon="10.313884308914876"><ele>41.0</ele><time>2026-04-18T14:12:09Z</time></trkpt><trkpt lat="42.79522900464136" lon="10.313834802733258"><ele>41.0</ele><time>2026-04-18T14:12:10Z</time></trkpt><trkpt lat="42.795361321747016" lon="10.313786715987618"><ele>40.25</ele><time>2026-04-18T14:12:11Z</time></trkpt><trkpt lat="42.795475695106695" lon="10.313746371170174"><ele>39.5</ele><time>2026-04-18T14:12:12Z</time></trkpt><trkpt lat="42.79557507045072" lon="10.313684651781823"><ele>38.75</ele><time>2026-04-18T14:12:13Z</time></trkpt><trkpt lat="42.795684334345175" lon="10.313629243257173"><ele>38.0</ele><time>2026-04-18T14:12:14Z</time></trkpt><trkpt lat="42.795767854323266" lon="10.313501544740673"><ele>38.0</ele><time>2026-04-18T14:12:15Z</time></trkpt><trkpt lat="42.79582018260897" lon="10.31336820533211"><ele>38.0</ele><time>2026-04-18T14:12:16Z</time></trkpt><trkpt lat="42.79587300947038" lon="10.313260016130506"><ele>38.0</ele><time>2026-04-18T14:12:17Z</time></trkpt><trkpt lat="42.795885784438276" lon="10.31309153962384"><ele>38.0</ele><time>2026-04-18T14:12:18Z</time></trkpt><trkpt lat="42.795969021605366" lon="10.31300337515436"><ele>38.0</ele><time>2026-04-18T14:12:19Z</time></trkpt><trkpt lat="42.79604777451473" lon="10.312956441285108"><ele>36.666666666666664</ele><time>2026-04-18T14:12:20Z</time></trkpt><trkpt lat="42.796148794153346" lon="10.312985892676675"><ele>35.33333333333333</ele><time>2026-04-18T14:12:21Z</time></trkpt><trkpt lat="42.796225991039485" lon="10.313016266938307"><ele>34.0</ele><time>2026-04-18T14:12:22Z</time></trkpt><trkpt lat="42.796282192010544" lon="10.313112660212564"><ele>32.666666666666664</ele><time>2026-04-18T14:12:23Z</time></trkpt><trkpt lat="42.79631985268401" lon="10.313210230250014"><ele>31.333333333333332</ele><time>2026-04-18T14:12:24Z</time></trkpt><trkpt lat="42.796309346338184" lon="10.313320066910457"><ele>30.0</ele><time>2026-04-18T14:12:25Z</time></trkpt><trkpt lat="42.79629245604512" lon="10.313436821164364"><ele>28.5</ele><time>2026-04-18T14:12:26Z</time></trkpt><trkpt lat="42.796276758943804" lon="10.31357413080891"><ele>27.0</ele><time>2026-04-18T14:12:27Z</time></trkpt><trkpt lat="42.796259581224135" lon="10.313729035122078"><ele>25.5</ele><time>2026-04-18T14:12:28Z</time></trkpt><trkpt lat="42.79623805866633" lon="10.313911998210482"><ele>24.0</ele><time>2026-04-18T14:12:29Z</time></trkpt><trkpt lat="42.79621861791101" lon="10.314078973677796"><ele>22.5</ele><time>2026-04-18T14:12:30Z</time></trkpt><trkpt lat="42.796201663698334" lon="10.314224592303578"><ele>21.0</ele><time>2026-04-18T14:12:31Z</time></trkpt><trkpt lat="42.7961841053193" lon="10.314375399802437"><ele>19.5</ele><time>2026-04-18T14:12:32Z</time></trkpt><trkpt lat="42.79618268336871" lon="10.314530942688153"><ele>18.0</ele><time>2026-04-18T14:12:33Z</time></trkpt><trkpt lat="42.79616275954415" lon="10.314689667951761"><ele>17.25</ele><time>2026-04-18T14:12:34Z</time></trkpt><trkpt lat="42.7961444615274" lon="10.314847601581016"><ele>16.5</ele><time>2026-04-18T14:12:35Z</time></trkpt><trkpt lat="42.79613083458738" lon="10.314984579684117"><ele>15.75</ele><time>2026-04-18T14:12:36Z</time></trkpt><trkpt lat="42.79611192307762" lon="10.315142426561438"><ele>15.0</ele><time>2026-04-18T14:12:37Z</time></trkpt><trkpt lat="42.79608526299546" lon="10.315302085124884"><ele>15.0</ele><time>2026-04-18T14:12:38Z</time></trkpt><trkpt lat="42.796064142519086" lon="10.315452598461219"><ele>15.0</ele><time>2026-04-18T14:12:39Z</time></trkpt><trkpt lat="42.796039171946795" lon="10.315593362112326"><ele>15.0</ele><time>2026-04-18T14:12:40Z</time></trkpt><trkpt lat="42.796008056385965" lon="10.31573667870254"><ele>15.0</ele><time>2026-04-18T14:12:41Z</time></trkpt><trkpt lat="42.79597135598839" lon="10.315883287035025"><ele>15.0</ele><time>2026-04-18T14:12:42Z</time></trkpt><trkpt lat="42.795931812732604" lon="10.316025332517805"><ele>15.0</ele><time>2026-04-18T14:12:43Z</time></trkpt><trkpt lat="42.795886251417684" lon="10.316179422784773"><ele>15.0</ele><time>2026-04-18T14:12:44Z</time></trkpt><trkpt lat="42.795858494833496" lon="10.316329886893566"><ele>15.0</ele><time>2026-04-18T14:12:45Z</time></trkpt><trkpt lat="42.79581021348829" lon="10.316452335748767"><ele>15.0</ele><time>2026-04-18T14:12:46Z</time></trkpt><trkpt lat="42.79577183822794" lon="10.316586350131201"><ele>15.0</ele><time>2026-04-18T14:12:47Z</time></trkpt><trkpt lat="42.79573784896507" lon="10.316713749675761"><ele>15.0</ele><time>2026-04-18T14:12:48Z</time></trkpt><trkpt lat="42.79569572727594" lon="10.316850362635739"><ele>15.0</ele><time>2026-04-18T14:12:49Z</time></trkpt><trkpt lat="42.795661570103114" lon="10.316979292509686"><ele>15.0</ele><time>2026-04-18T14:12:50Z</time></trkpt><trkpt lat="42.79562758490056" lon="10.317096789895993"><ele>15.0</ele><time>2026-04-18T14:12:51Z</time></trkpt><trkpt lat="42.795581761378656" lon="10.317211223823255"><ele>15.0</ele><time>2026-04-18T14:12:52Z</time></trkpt><trkpt lat="42.79554757839837" lon="10.317338786911934"><ele>15.0</ele><time>2026-04-18T14:12:53Z</time></trkpt><trkpt lat="42.79551783347063" lon="10.317460266080122"><ele>15.0</ele><time>2026-04-18T14:12:54Z</time></trkpt><trkpt lat="42.79549017865418" lon="10.317576790137705"><ele>15.0</ele><time>2026-04-18T14:12:55Z</time></trkpt><trkpt lat="42.79544014886204" lon="10.317692759167278"><ele>15.0</ele><time>2026-04-18T14:12:56Z</time></trkpt><trkpt lat="42.7953985873432" lon="10.317827407118395"><ele>15.0</ele><time>2026-04-18T14:12:57Z</time></trkpt><trkpt lat="42.795370932338805" lon="10.317969017824536"><ele>14.5</ele><time>2026-04-18T14:12:58Z</time></trkpt><trkpt lat="42.795323079892896" lon="10.318116992522144"><ele>14.0</ele><time>2026-04-18T14:12:59Z</time></trkpt><trkpt lat="42.79527399797919" lon="10.318269123689776"><ele>13.5</ele><time>2026-04-18T14:13:00Z</time></trkpt><trkpt lat="42.79523202475786" lon="10.318420275200582"><ele>13.0</ele><time>2026-04-18T14:13:01Z</time></trkpt><trkpt lat="42.795187581690115" lon="10.318561830119025"><ele>13.4</ele><time>2026-04-18T14:13:02Z</time></trkpt><trkpt lat="42.7951441372252" lon="10.318697882398194"><ele>13.8</ele><time>2026-04-18T14:13:03Z</time></trkpt><trkpt lat="42.79506960432641" lon="10.318815504404851"><ele>14.2</ele><time>2026-04-18T14:13:04Z</time></trkpt><trkpt lat="42.79502368746999" lon="10.318954081500422"><ele>14.6</ele><time>2026-04-18T14:13:05Z</time></trkpt><trkpt lat="42.794977149192206" lon="10.319094515538634"><ele>15.0</ele><time>2026-04-18T14:13:06Z</time></trkpt><trkpt lat="42.79493304574972" lon="10.319231928577874"><ele>15.0</ele><time>2026-04-18T14:13:07Z</time></trkpt><trkpt lat="42.79488955601326" lon="10.319368322094908"><ele>15.0</ele><time>2026-04-18T14:13:08Z</time></trkpt><trkpt lat="42.794847531058906" lon="10.319501223308109"><ele>15.0</ele><time>2026-04-18T14:13:09Z</time></trkpt><trkpt lat="42.79480633489477" lon="10.319624465038315"><ele>15.0</ele><time>2026-04-18T14:13:10Z</time></trkpt><trkpt lat="42.794770424721946" lon="10.31973035658629"><ele>15.0</ele><time>2026-04-18T14:13:11Z</time></trkpt><trkpt lat="42.79473955939078" lon="10.319821371896923"><ele>15.5</ele><time>2026-04-18T14:13:12Z</time></trkpt><trkpt lat="42.79468749804596" lon="10.319950458664866"><ele>16.0</ele><time>2026-04-18T14:13:14Z</time></trkpt><trkpt lat="42.79461242784152" lon="10.320004731805707"><ele>16.5</ele><time>2026-04-18T14:13:16Z</time></trkpt><trkpt lat="42.79446379498279" lon="10.319953599291114"><ele>17.0</ele><time>2026-04-18T14:13:18Z</time></trkpt><trkpt lat="42.79434805747683" lon="10.319925606300746"><ele>17.5</ele><time>2026-04-18T14:13:19Z</time></trkpt><trkpt lat="42.79422504903286" lon="10.319897313910637"><ele>18.0</ele><time>2026-04-18T14:13:20Z</time></trkpt><trkpt lat="42.79409860114493" lon="10.319867932163413"><ele>18.5</ele><time>2026-04-18T14:13:21Z</time></trkpt><trkpt lat="42.79396448758961" lon="10.319836712329838"><ele>19.0</ele><time>2026-04-18T14:13:22Z</time></trkpt><trkpt lat="42.793846123644336" lon="10.31981699853941"><ele>19.0</ele><time>2026-04-18T14:13:23Z</time></trkpt><trkpt lat="42.793736603577024" lon="10.319789382048393"><ele>19.0</ele><time>2026-04-18T14:13:24Z</time></trkpt><trkpt lat="42.793627898476295" lon="10.319763017428192"><ele>19.0</ele><time>2026-04-18T14:13:25Z</time></trkpt><trkpt lat="42.79351471285728" lon="10.319737270507343"><ele>19.0</ele><time>2026-04-18T14:13:26Z</time></trkpt><trkpt lat="42.79339256321658" lon="10.319709144939784"><ele>20.25</ele><time>2026-04-18T14:13:27Z</time></trkpt><trkpt lat="42.793272718393084" lon="10.319688128920864"><ele>21.5</ele><time>2026-04-18T14:13:28Z</time></trkpt><trkpt lat="42.7931487149228" lon="10.319672022630646"><ele>22.75</ele><time>2026-04-18T14:13:29Z</time></trkpt><trkpt lat="42.79301992264276" lon="10.319658443132944"><ele>24.0</ele><time>2026-04-18T14:13:30Z</time></trkpt><trkpt lat="42.792893905790294" lon="10.31963984797854"><ele>24.0</ele><time>2026-04-18T14:13:31Z</time></trkpt><trkpt lat="42.79277583877032" lon="10.31962837363331"><ele>24.0</ele><time>2026-04-18T14:13:32Z</time></trkpt><trkpt lat="42.79265608588865" lon="10.319617297259132"><ele>24.0</ele><time>2026-04-18T14:13:33Z</time></trkpt><trkpt lat="42.792532264934394" lon="10.319604149988004"><ele>24.0</ele><time>2026-04-18T14:13:34Z</time></trkpt><trkpt lat="42.79240611682594" lon="10.319594311632784"><ele>25.25</ele><time>2026-04-18T14:13:35Z</time></trkpt><trkpt lat="42.79227693969487" lon="10.319563044048909"><ele>26.5</ele><time>2026-04-18T14:13:36Z</time></trkpt><trkpt lat="42.79214694277666" lon="10.319532402192626"><ele>27.75</ele><time>2026-04-18T14:13:37Z</time></trkpt><trkpt lat="42.7920111616849" lon="10.319496322949192"><ele>29.0</ele><time>2026-04-18T14:13:38Z</time></trkpt><trkpt lat="42.79188552757784" lon="10.319502187304352"><ele>30.2</ele><time>2026-04-18T14:13:39Z</time></trkpt><trkpt lat="42.791767638183195" lon="10.319522805741295"><ele>31.4</ele><time>2026-04-18T14:13:40Z</time></trkpt><trkpt lat="42.79166482902165" lon="10.319507083966608"><ele>32.6</ele><time>2026-04-18T14:13:40.999Z</time></trkpt><trkpt lat="42.79157330176671" lon="10.319440373447012"><ele>33.8</ele><time>2026-04-18T14:13:41.999Z</time></trkpt><trkpt lat="42.79148435081306" lon="10.319375378734536"><ele>35.0</ele><time>2026-04-18T14:13:42.999Z</time></trkpt><trkpt lat="42.79139060486777" lon="10.319314073224838"><ele>35.0</ele><time>2026-04-18T14:13:43.999Z</time></trkpt><trkpt lat="42.79129162311764" lon="10.319231943779178"><ele>35.0</ele><time>2026-04-18T14:13:44.999Z</time></trkpt><trkpt lat="42.79119490242629" lon="10.319178505044354"><ele>35.0</ele><time>2026-04-18T14:13:45.999Z</time></trkpt><trkpt lat="42.79107494469142" lon="10.319175165808643"><ele>35.0</ele><time>2026-04-18T14:13:46.999Z</time></trkpt><trkpt lat="42.790936547481465" lon="10.31917650407879"><ele>38.5</ele><time>2026-04-18T14:13:47.999Z</time></trkpt><trkpt lat="42.79081643294272" lon="10.31916017317474"><ele>42.0</ele><time>2026-04-18T14:13:48.999Z</time></trkpt><trkpt lat="42.79069677147959" lon="10.319118488276423"><ele>45.5</ele><time>2026-04-18T14:13:49.999Z</time></trkpt><trkpt lat="42.790585284696384" lon="10.319060804292915"><ele>49.0</ele><time>2026-04-18T14:13:50.999Z</time></trkpt><trkpt lat="42.79048186540627" lon="10.319012483791184"><ele>49.0</ele><time>2026-04-18T14:13:51.999Z</time></trkpt><trkpt lat="42.79037490507855" lon="10.318973897352736"><ele>49.0</ele><time>2026-04-18T14:13:52.999Z</time></trkpt><trkpt lat="42.79027296430912" lon="10.318971303566851"><ele>49.0</ele><time>2026-04-18T14:13:53.999Z</time></trkpt><trkpt lat="42.790176115266384" lon="10.31897501979148"><ele>49.0</ele><time>2026-04-18T14:13:54.999Z</time></trkpt><trkpt lat="42.790097819241524" lon="10.318941801756681"><ele>49.0</ele><time>2026-04-18T14:13:55.999Z</time></trkpt><trkpt lat="42.79001524295278" lon="10.318906772854023"><ele>49.800000000000004</ele><time>2026-04-18T14:13:56.999Z</time></trkpt><trkpt lat="42.78993401610691" lon="10.31887953080453"><ele>50.6</ele><time>2026-04-18T14:13:57.999Z</time></trkpt><trkpt lat="42.789846716820726" lon="10.318852191566764"><ele>51.4</ele><time>2026-04-18T14:13:58.999Z</time></trkpt><trkpt lat="42.78975388175785" lon="10.318839160242288"><ele>52.2</ele><time>2026-04-18T14:13:59.999Z</time></trkpt><trkpt lat="42.78965089212145" lon="10.318851656634182"><ele>53.0</ele><time>2026-04-18T14:14:00.999Z</time></trkpt><trkpt lat="42.789524496827205" lon="10.318890891001558"><ele>55.5</ele><time>2026-04-18T14:14:01.999Z</time></trkpt><trkpt lat="42.789408995330604" lon="10.318919821662424"><ele>58.0</ele><time>2026-04-18T14:14:02.999Z</time></trkpt><trkpt lat="42.78927941123904" lon="10.318939018719085"><ele>60.5</ele><time>2026-04-18T14:14:04Z</time></trkpt><trkpt lat="42.789132819775446" lon="10.318976849319743"><ele>63.0</ele><time>2026-04-18T14:14:05Z</time></trkpt><trkpt lat="42.78900189811371" lon="10.318970167606958"><ele>65.25</ele><time>2026-04-18T14:14:06Z</time></trkpt><trkpt lat="42.78888351299499" lon="10.31898473496723"><ele>67.5</ele><time>2026-04-18T14:14:07Z</time></trkpt><trkpt lat="42.78877037725753" lon="10.319015862127426"><ele>69.75</ele><time>2026-04-18T14:14:08Z</time></trkpt><trkpt lat="42.78866148531631" lon="10.319024481760291"><ele>72.0</ele><time>2026-04-18T14:14:09Z</time></trkpt><trkpt lat="42.788551062741384" lon="10.319035272418828"><ele>74.2</ele><time>2026-04-18T14:14:10Z</time></trkpt><trkpt lat="42.7884486554722" lon="10.319041391495754"><ele>76.4</ele><time>2026-04-18T14:14:11Z</time></trkpt><trkpt lat="42.78835149933423" lon="10.319046715277365"><ele>78.60000000000001</ele><time>2026-04-18T14:14:12Z</time></trkpt><trkpt lat="42.78825506352701" lon="10.319047455326533"><ele>80.80000000000001</ele><time>2026-04-18T14:14:13Z</time></trkpt><trkpt lat="42.788149649414045" lon="10.31904565166993"><ele>83.0</ele><time>2026-04-18T14:14:14Z</time></trkpt><trkpt lat="42.78805378766533" lon="10.319035389803254"><ele>83.0</ele><time>2026-04-18T14:14:15Z</time></trkpt><trkpt lat="42.78796110629886" lon="10.319031605182108"><ele>83.0</ele><time>2026-04-18T14:14:16Z</time></trkpt><trkpt lat="42.78788511512805" lon="10.3190255239466"><ele>83.0</ele><time>2026-04-18T14:14:17Z</time></trkpt><trkpt lat="42.787811008019005" lon="10.319017854515254"><ele>83.0</ele><time>2026-04-18T14:14:18Z</time></trkpt><trkpt lat="42.78772846631632" lon="10.319030247024925"><ele>83.0</ele><time>2026-04-18T14:14:19Z</time></trkpt><trkpt lat="42.7876605804102" lon="10.319087465737164"><ele>83.0</ele><time>2026-04-18T14:14:20Z</time></trkpt><trkpt lat="42.78761414028738" lon="10.31918824615452"><ele>85.5</ele><time>2026-04-18T14:14:21Z</time></trkpt><trkpt lat="42.7875453946075" lon="10.31926485366446"><ele>88.0</ele><time>2026-04-18T14:14:22Z</time></trkpt><trkpt lat="42.78747527100643" lon="10.319331385434836"><ele>90.5</ele><time>2026-04-18T14:14:23Z</time></trkpt><trkpt lat="42.787418072483945" lon="10.31937993903887"><ele>93.0</ele><time>2026-04-18T14:14:24Z</time></trkpt><trkpt lat="42.78736992995574" lon="10.319469951997265"><ele>95.49999999999999</ele><time>2026-04-18T14:14:26Z</time></trkpt><trkpt lat="42.787429821454346" lon="10.319523829979317"><ele>98.0</ele><time>2026-04-18T14:14:28Z</time></trkpt><trkpt lat="42.78749720345058" lon="10.319546833308486"><ele>98.0</ele><time>2026-04-18T14:14:29Z</time></trkpt><trkpt lat="42.78759454889635" lon="10.319520033084736"><ele>98.0</ele><time>2026-04-18T14:14:30Z</time></trkpt><trkpt lat="42.78768784151468" lon="10.319488274695795"><ele>98.0</ele><time>2026-04-18T14:14:31Z</time></trkpt><trkpt lat="42.78776442862143" lon="10.319498688023492"><ele>98.0</ele><time>2026-04-18T14:14:32Z</time></trkpt><trkpt lat="42.78780052316878" lon="10.319596590287231"><ele>98.0</ele><time>2026-04-18T14:14:34Z</time></trkpt><trkpt lat="42.78769931512863" lon="10.319687850724662"><ele>101.0</ele><time>2026-04-18T14:14:36Z</time></trkpt><trkpt lat="42.78763131752072" lon="10.319735867718979"><ele>104.0</ele><time>2026-04-18T14:14:37Z</time></trkpt><trkpt lat="42.78755202044409" lon="10.319828067855"><ele>107.00000000000001</ele><time>2026-04-18T14:14:38Z</time></trkpt><trkpt lat="42.7874522064518" lon="10.319923609628665"><ele>110.0</ele><time>2026-04-18T14:14:39Z</time></trkpt><trkpt lat="42.787357729710926" lon="10.319994958670994"><ele>113.0</ele><time>2026-04-18T14:14:40Z</time></trkpt><trkpt lat="42.787262093523914" lon="10.320061009849654"><ele>113.0</ele><time>2026-04-18T14:14:41Z</time></trkpt><trkpt lat="42.787168457648214" lon="10.320122801749298"><ele>113.00000000000001</ele><time>2026-04-18T14:14:42Z</time></trkpt><trkpt lat="42.78707633092718" lon="10.320180080270287"><ele>113.00000000000001</ele><time>2026-04-18T14:14:43Z</time></trkpt><trkpt lat="42.78697935023066" lon="10.320192825530734"><ele>113.0</ele><time>2026-04-18T14:14:44Z</time></trkpt><trkpt lat="42.78688857440766" lon="10.320194523467876"><ele>113.0</ele><time>2026-04-18T14:14:45Z</time></trkpt><trkpt lat="42.78680599829631" lon="10.320213081553941"><ele>112.99999999999999</ele><time>2026-04-18T14:14:46Z</time></trkpt><trkpt lat="42.78671797421687" lon="10.320227572017583"><ele>113.0</ele><time>2026-04-18T14:14:48Z</time></trkpt><trkpt lat="42.78671450146182" lon="10.320352402007083"><ele>113.0</ele><time>2026-04-18T14:14:49Z</time></trkpt><trkpt lat="42.786805772119095" lon="10.320414539381492"><ele>113.0</ele><time>2026-04-18T14:14:50Z</time></trkpt><trkpt lat="42.786861628722114" lon="10.320457298429126"><ele>112.99999999999999</ele><time>2026-04-18T14:14:51Z</time></trkpt><trkpt lat="42.786907396399954" lon="10.320520037268272"><ele>113.0</ele><time>2026-04-18T14:14:52Z</time></trkpt><trkpt lat="42.78683148482246" lon="10.320514118775757"><ele>114.85714285714286</ele><time>2026-04-18T14:15:01Z</time></trkpt><trkpt lat="42.786773023680865" lon="10.32046763824506"><ele>116.71428571428571</ele><time>2026-04-18T14:15:04Z</time></trkpt><trkpt lat="42.78669885794278" lon="10.320455098499519"><ele>118.57142857142857</ele><time>2026-04-18T14:15:06Z</time></trkpt><trkpt lat="42.78663400055087" lon="10.32046397976212"><ele>120.42857142857143</ele><time>2026-04-18T14:15:08Z</time></trkpt><trkpt lat="42.786545742188075" lon="10.320453112149698"><ele>122.28571428571428</ele><time>2026-04-18T14:15:12Z</time></trkpt><trkpt lat="42.786482113201544" lon="10.320399377557706"><ele>124.14285714285714</ele><time>2026-04-18T14:15:15Z</time></trkpt><trkpt lat="42.78641996665236" lon="10.320383951004134"><ele>126.0</ele><time>2026-04-18T14:15:17Z</time></trkpt><trkpt lat="42.78635698683291" lon="10.320351119537873"><ele>126.0</ele><time>2026-04-18T14:15:19Z</time></trkpt><trkpt lat="42.78629061039953" lon="10.320291800679463"><ele>126.0</ele><time>2026-04-18T14:15:22Z</time></trkpt><trkpt lat="42.786233718042276" lon="10.320231073589865"><ele>126.0</ele><time>2026-04-18T14:15:24Z</time></trkpt><trkpt lat="42.78616463383499" lon="10.320299185200016"><ele>126.0</ele><time>2026-04-18T14:15:27Z</time></trkpt><trkpt lat="42.78608678684803" lon="10.3203536330286"><ele>126.0</ele><time>2026-04-18T14:15:31Z</time></trkpt><trkpt lat="42.7859965665903" lon="10.320360020709243"><ele>126.0</ele><time>2026-04-18T14:15:33.999Z</time></trkpt><trkpt lat="42.78595449870167" lon="10.320294218351648"><ele>130.83333333333334</ele><time>2026-04-18T14:15:37.999Z</time></trkpt><trkpt lat="42.78591981995715" lon="10.32020836412332"><ele>135.66666666666666</ele><time>2026-04-18T14:15:40.999Z</time></trkpt><trkpt lat="42.785845035199486" lon="10.320209790637332"><ele>140.5</ele><time>2026-04-18T14:15:42.999Z</time></trkpt><trkpt lat="42.785787195640424" lon="10.320274032216952"><ele>145.33333333333331</ele><time>2026-04-18T14:15:44.999Z</time></trkpt><trkpt lat="42.78570958656868" lon="10.32027342001798"><ele>150.16666666666666</ele><time>2026-04-18T14:15:47.999Z</time></trkpt><trkpt lat="42.78561171381295" lon="10.320285176795613"><ele>155.0</ele><time>2026-04-18T14:15:50.999Z</time></trkpt><trkpt lat="42.785514306913534" lon="10.320303634875659"><ele>155.0</ele><time>2026-04-18T14:15:54.999Z</time></trkpt><trkpt lat="42.785442663310356" lon="10.32034490132255"><ele>155.0</ele><time>2026-04-18T14:15:56.999Z</time></trkpt><trkpt lat="42.78539212728736" lon="10.320401569983181"><ele>155.0</ele><time>2026-04-18T14:15:58.999Z</time></trkpt><trkpt lat="42.78532398452337" lon="10.320413962063386"><ele>155.0</ele><time>2026-04-18T14:16:02.999Z</time></trkpt><trkpt lat="42.78524137748943" lon="10.32041826198349"><ele>155.0</ele><time>2026-04-18T14:16:05.999Z</time></trkpt><trkpt lat="42.78517535925138" lon="10.32044915172354"><ele>155.0</ele><time>2026-04-18T14:16:07.999Z</time></trkpt><trkpt lat="42.78511474276811" lon="10.320501933037825"><ele>155.0</ele><time>2026-04-18T14:16:10Z</time></trkpt><trkpt lat="42.78506469288386" lon="10.32057131738438"><ele>153.66666666666666</ele><time>2026-04-18T14:16:13Z</time></trkpt><trkpt lat="42.7851406985568" lon="10.320577200372709"><ele>152.33333333333331</ele><time>2026-04-18T14:17:25.999Z</time></trkpt><trkpt lat="42.785174450545085" lon="10.320664008487253"><ele>151.0</ele><time>2026-04-18T14:17:40.999Z</time></trkpt><trkpt lat="42.78524033873532" lon="10.320751522126471"><ele>149.66666666666666</ele><time>2026-04-18T14:17:42.999Z</time></trkpt><trkpt lat="42.78531692928094" lon="10.320808748567988"><ele>148.33333333333334</ele><time>2026-04-18T14:17:43.999Z</time></trkpt><trkpt lat="42.785362782850235" lon="10.32087387418609"><ele>147.0</ele><time>2026-04-18T14:17:44.999Z</time></trkpt><trkpt lat="42.785280085199965" lon="10.320972481256796"><ele>147.0</ele><time>2026-04-18T14:17:45.999Z</time></trkpt><trkpt lat="42.78525368746489" lon="10.321106650584271"><ele>147.0</ele><time>2026-04-18T14:17:47.999Z</time></trkpt><trkpt lat="42.785214424336694" lon="10.321186563283765"><ele>147.0</ele><time>2026-04-18T14:17:48.999Z</time></trkpt><trkpt lat="42.78516243371276" lon="10.321266865493639"><ele>147.0</ele><time>2026-04-18T14:17:49.999Z</time></trkpt><trkpt lat="42.78509205678607" lon="10.321335096735037"><ele>147.0</ele><time>2026-04-18T14:17:50.999Z</time></trkpt><trkpt lat="42.78503938332125" lon="10.321402826546198"><ele>147.0</ele><time>2026-04-18T14:17:51.999Z</time></trkpt><trkpt lat="42.78496554220317" lon="10.321457410467415"><ele>150.2</ele><time>2026-04-18T14:17:52.999Z</time></trkpt><trkpt lat="42.78490859711434" lon="10.321494293878919"><ele>153.39999999999998</ele><time>2026-04-18T14:17:53.999Z</time></trkpt><trkpt lat="42.78483864870523" lon="10.321565611071703"><ele>156.60000000000002</ele><time>2026-04-18T14:17:55.999Z</time></trkpt><trkpt lat="42.78475297874656" lon="10.321651991926295"><ele>159.8</ele><time>2026-04-18T14:17:57.999Z</time></trkpt><trkpt lat="42.78469665883292" lon="10.321796483555177"><ele>163.0</ele><time>2026-04-18T14:17:59.999Z</time></trkpt><trkpt lat="42.78470529482168" lon="10.321932417507066"><ele>163.0</ele><time>2026-04-18T14:18:01.999Z</time></trkpt><trkpt lat="42.78478715417062" lon="10.322034281743212"><ele>163.0</ele><time>2026-04-18T14:18:03.999Z</time></trkpt><trkpt lat="42.78487085639388" lon="10.322118750929906"><ele>163.0</ele><time>2026-04-18T14:18:05.999Z</time></trkpt><trkpt lat="42.78493563017915" lon="10.322234442946177"><ele>163.0</ele><time>2026-04-18T14:18:07.999Z</time></trkpt><trkpt lat="42.784889680588684" lon="10.322343849731412"><ele>163.0</ele><time>2026-04-18T14:18:08.999Z</time></trkpt><trkpt lat="42.78486401630709" lon="10.32244787791616"><ele>163.33333333333334</ele><time>2026-04-18T14:18:10.999Z</time></trkpt><trkpt lat="42.78482726616139" lon="10.322586119038549"><ele>163.66666666666669</ele><time>2026-04-18T14:18:12.999Z</time></trkpt><trkpt lat="42.784806183096826" lon="10.32267272120978"><ele>164.0</ele><time>2026-04-18T14:18:13.999Z</time></trkpt><trkpt lat="42.784805880407625" lon="10.322774898345536"><ele>164.33333333333334</ele><time>2026-04-18T14:18:14.999Z</time></trkpt><trkpt lat="42.7848243339057" lon="10.322865370838821"><ele>164.66666666666666</ele><time>2026-04-18T14:18:16Z</time></trkpt><trkpt lat="42.78483918749362" lon="10.323003852435509"><ele>165.0</ele><time>2026-04-18T14:18:18Z</time></trkpt><trkpt lat="42.78485018484837" lon="10.32315130043111"><ele>166.16666666666666</ele><time>2026-04-18T14:18:20Z</time></trkpt><trkpt lat="42.7849002846681" lon="10.323293439371357"><ele>167.33333333333334</ele><time>2026-04-18T14:18:22Z</time></trkpt><trkpt lat="42.78493442225104" lon="10.323382365029637"><ele>168.5</ele><time>2026-04-18T14:18:23Z</time></trkpt><trkpt lat="42.78496367407042" lon="10.323474481317254"><ele>169.66666666666669</ele><time>2026-04-18T14:18:24Z</time></trkpt><trkpt lat="42.784989697601446" lon="10.323584195736437"><ele>170.83333333333334</ele><time>2026-04-18T14:18:25Z</time></trkpt><trkpt lat="42.785011663232034" lon="10.323682535336287"><ele>172.0</ele><time>2026-04-18T14:18:26Z</time></trkpt><trkpt lat="42.78505598898592" lon="10.323812902027072"><ele>173.33333333333334</ele><time>2026-04-18T14:18:28Z</time></trkpt><trkpt lat="42.78508663267549" lon="10.323913478510574"><ele>174.66666666666669</ele><time>2026-04-18T14:18:30Z</time></trkpt><trkpt lat="42.78512744249011" lon="10.323987556772542"><ele>176.0</ele><time>2026-04-18T14:18:31Z</time></trkpt><trkpt lat="42.78517310611662" lon="10.324071067034234"><ele>177.33333333333334</ele><time>2026-04-18T14:18:32Z</time></trkpt><trkpt lat="42.78522177427101" lon="10.324143980098755"><ele>178.66666666666666</ele><time>2026-04-18T14:18:33Z</time></trkpt><trkpt lat="42.78526271022003" lon="10.324232231304311"><ele>180.0</ele><time>2026-04-18T14:18:34Z</time></trkpt><trkpt lat="42.78532868967134" lon="10.324379488877293"><ele>178.16666666666666</ele><time>2026-04-18T14:18:36Z</time></trkpt><trkpt lat="42.78538067675212" lon="10.324500090211078"><ele>176.33333333333334</ele><time>2026-04-18T14:18:38Z</time></trkpt><trkpt lat="42.78542257879594" lon="10.324633417599559"><ele>174.5</ele><time>2026-04-18T14:18:40Z</time></trkpt><trkpt lat="42.78544337390789" lon="10.324720613076163"><ele>172.66666666666669</ele><time>2026-04-18T14:18:41Z</time></trkpt><trkpt lat="42.785461792705085" lon="10.324823719121895"><ele>170.83333333333334</ele><time>2026-04-18T14:18:42Z</time></trkpt><trkpt lat="42.78547600891661" lon="10.32491889517737"><ele>169.0</ele><time>2026-04-18T14:18:43Z</time></trkpt><trkpt lat="42.78548267136467" lon="10.325034767740908"><ele>169.0</ele><time>2026-04-18T14:18:44Z</time></trkpt><trkpt lat="42.78546469367496" lon="10.32515635826196"><ele>169.0</ele><time>2026-04-18T14:18:45Z</time></trkpt><trkpt lat="42.78549645394745" lon="10.325272382817545"><ele>169.0</ele><time>2026-04-18T14:18:46Z</time></trkpt><trkpt lat="42.7855421682795" lon="10.325387312829692"><ele>169.0</ele><time>2026-04-18T14:18:47Z</time></trkpt><trkpt lat="42.78556772325855" lon="10.325484621149442"><ele>169.0</ele><time>2026-04-18T14:18:48Z</time></trkpt><trkpt lat="42.785584840488795" lon="10.325600501895186"><ele>169.0</ele><time>2026-04-18T14:18:49Z</time></trkpt><trkpt lat="42.785595295051124" lon="10.325705433228654"><ele>170.0</ele><time>2026-04-18T14:18:50Z</time></trkpt><trkpt lat="42.7856237487711" lon="10.325853170448699"><ele>171.0</ele><time>2026-04-18T14:18:52Z</time></trkpt><trkpt lat="42.785627372305406" lon="10.325941806881668"><ele>172.0</ele><time>2026-04-18T14:18:53Z</time></trkpt><trkpt lat="42.78561980097094" lon="10.326045267741108"><ele>173.0</ele><time>2026-04-18T14:18:54Z</time></trkpt><trkpt lat="42.78561530601615" lon="10.326204600190268"><ele>174.0</ele><time>2026-04-18T14:18:55Z</time></trkpt><trkpt lat="42.78556038689799" lon="10.326334961807156"><ele>174.0</ele><time>2026-04-18T14:18:56Z</time></trkpt><trkpt lat="42.785522147457925" lon="10.326434431869913"><ele>174.0</ele><time>2026-04-18T14:18:57Z</time></trkpt><trkpt lat="42.78553763626534" lon="10.326537035670158"><ele>174.0</ele><time>2026-04-18T14:18:58Z</time></trkpt><trkpt lat="42.78556970835764" lon="10.32664088787414"><ele>174.0</ele><time>2026-04-18T14:18:59Z</time></trkpt><trkpt lat="42.78557733669171" lon="10.32673338073657"><ele>174.0</ele><time>2026-04-18T14:19:00Z</time></trkpt><trkpt lat="42.785597862553196" lon="10.326821860286177"><ele>174.0</ele><time>2026-04-18T14:19:01Z</time></trkpt><trkpt lat="42.78562200324496" lon="10.326971351974752"><ele>174.0</ele><time>2026-04-18T14:19:03Z</time></trkpt><trkpt lat="42.78561971417544" lon="10.327060908692856"><ele>174.0</ele><time>2026-04-18T14:19:04Z</time></trkpt><trkpt lat="42.78560212767317" lon="10.32714559742944"><ele>174.0</ele><time>2026-04-18T14:19:05Z</time></trkpt><trkpt lat="42.7855659687421" lon="10.327309823579384"><ele>174.0</ele><time>2026-04-18T14:19:07Z</time></trkpt><trkpt lat="42.78554722293051" lon="10.327394963057747"><ele>174.0</ele><time>2026-04-18T14:19:08Z</time></trkpt><trkpt lat="42.785528503215566" lon="10.327479984012566"><ele>174.0</ele><time>2026-04-18T14:19:09Z</time></trkpt><trkpt lat="42.78559829662885" lon="10.327596056894656"><ele>174.6</ele><time>2026-04-18T14:19:10Z</time></trkpt><trkpt lat="42.78561630608288" lon="10.327704051263359"><ele>175.2</ele><time>2026-04-18T14:19:11Z</time></trkpt><trkpt lat="42.78565067088244" lon="10.327801348620373"><ele>175.79999999999998</ele><time>2026-04-18T14:19:12Z</time></trkpt><trkpt lat="42.78561435855356" lon="10.32795027210952"><ele>176.39999999999998</ele><time>2026-04-18T14:19:13Z</time></trkpt><trkpt lat="42.78566545317522" lon="10.328048850447448"><ele>177.0</ele><time>2026-04-18T14:19:14Z</time></trkpt><trkpt lat="42.7857153841545" lon="10.328165531977257"><ele>177.0</ele><time>2026-04-18T14:19:16Z</time></trkpt><trkpt lat="42.78574392954801" lon="10.32824250467081"><ele>177.0</ele><time>2026-04-18T14:19:18Z</time></trkpt><trkpt lat="42.78558935036849" lon="10.328222529304684"><ele>177.0</ele><time>2026-04-18T14:19:23.999Z</time></trkpt><trkpt lat="42.78549974262716" lon="10.32817618488856"><ele>177.0</ele><time>2026-04-18T14:19:24.999Z</time></trkpt><trkpt lat="42.785410209139876" lon="10.328141070194794"><ele>177.0</ele><time>2026-04-18T14:19:25.999Z</time></trkpt><trkpt lat="42.785316784299695" lon="10.32809727260128"><ele>177.0</ele><time>2026-04-18T14:19:26.999Z</time></trkpt><trkpt lat="42.78522673794495" lon="10.32806791778643"><ele>177.0</ele><time>2026-04-18T14:19:27.999Z</time></trkpt><trkpt lat="42.78515893183177" lon="10.328053296528264"><ele>177.0</ele><time>2026-04-18T14:19:28.999Z</time></trkpt><trkpt lat="42.785043196534275" lon="10.328123958540967"><ele>177.0</ele><time>2026-04-18T14:19:30.999Z</time></trkpt><trkpt lat="42.78493068255996" lon="10.32818770491376"><ele>177.0</ele><time>2026-04-18T14:19:31.999Z</time></trkpt><trkpt lat="42.78484027098586" lon="10.328215823420177"><ele>179.2</ele><time>2026-04-18T14:19:32.999Z</time></trkpt><trkpt lat="42.78475226081335" lon="10.328231482515708"><ele>181.39999999999998</ele><time>2026-04-18T14:19:33.999Z</time></trkpt><trkpt lat="42.78466008568197" lon="10.328227627057164"><ele>183.60000000000002</ele><time>2026-04-18T14:19:34.999Z</time></trkpt><trkpt lat="42.78457568831692" lon="10.32821873718254"><ele>185.8</ele><time>2026-04-18T14:19:35.999Z</time></trkpt><trkpt lat="42.78449453176104" lon="10.328218941262937"><ele>188.0</ele><time>2026-04-18T14:19:36.999Z</time></trkpt><trkpt lat="42.78436240387609" lon="10.328184078849626"><ele>189.16666666666666</ele><time>2026-04-18T14:19:38.999Z</time></trkpt><trkpt lat="42.78429116412412" lon="10.32817136160005"><ele>190.33333333333331</ele><time>2026-04-18T14:19:40.999Z</time></trkpt><trkpt lat="42.784213018419656" lon="10.328155055347345"><ele>191.5</ele><time>2026-04-18T14:19:43.999Z</time></trkpt><trkpt lat="42.78415419079893" lon="10.328117273609061"><ele>192.66666666666666</ele><time>2026-04-18T14:19:47.999Z</time></trkpt><trkpt lat="42.78407980017419" lon="10.328079251039835"><ele>193.83333333333334</ele><time>2026-04-18T14:19:55.999Z</time></trkpt><trkpt lat="42.783990067025044" lon="10.328069302299685"><ele>195.0</ele><time>2026-04-18T14:19:58.999Z</time></trkpt><trkpt lat="42.78392547463639" lon="10.328055198727146"><ele>198.66666666666666</ele><time>2026-04-18T14:20:00.999Z</time></trkpt><trkpt lat="42.783842770568924" lon="10.328051479841417"><ele>202.33333333333331</ele><time>2026-04-18T14:20:08.999Z</time></trkpt><trkpt lat="42.78376728553301" lon="10.328041798996953"><ele>206.0</ele><time>2026-04-18T14:20:10.999Z</time></trkpt><trkpt lat="42.783689419250194" lon="10.328010374192205"><ele>209.66666666666666</ele><time>2026-04-18T14:20:12.999Z</time></trkpt><trkpt lat="42.78361036059839" lon="10.328009590279997"><ele>213.33333333333331</ele><time>2026-04-18T14:20:14.999Z</time></trkpt><trkpt lat="42.78350728175297" lon="10.328014410843307"><ele>217.0</ele><time>2026-04-18T14:20:16.999Z</time></trkpt><trkpt lat="42.78342557528353" lon="10.328027999750475"><ele>217.83333333333331</ele><time>2026-04-18T14:20:18.999Z</time></trkpt><trkpt lat="42.783357578504756" lon="10.328027382988681"><ele>218.66666666666666</ele><time>2026-04-18T14:20:20.999Z</time></trkpt><trkpt lat="42.783238271202144" lon="10.328020136449556"><ele>219.5</ele><time>2026-04-18T14:20:23Z</time></trkpt><trkpt lat="42.78315019499612" lon="10.328043273693307"><ele>220.33333333333331</ele><time>2026-04-18T14:20:25Z</time></trkpt><trkpt lat="42.783073951004674" lon="10.328056604405228"><ele>221.16666666666666</ele><time>2026-04-18T14:20:28Z</time></trkpt><trkpt lat="42.78300541358158" lon="10.328110460989752"><ele>222.0</ele><time>2026-04-18T14:20:30Z</time></trkpt><trkpt lat="42.78289746382033" lon="10.328141182603613"><ele>219.16666666666666</ele><time>2026-04-18T14:20:33Z</time></trkpt><trkpt lat="42.78281649578387" lon="10.328170727419964"><ele>216.33333333333331</ele><time>2026-04-18T14:20:35Z</time></trkpt><trkpt lat="42.78274653969661" lon="10.328236884898645"><ele>213.5</ele><time>2026-04-18T14:20:37Z</time></trkpt><trkpt lat="42.78268858172314" lon="10.328272760324209"><ele>210.66666666666666</ele><time>2026-04-18T14:20:39Z</time></trkpt><trkpt lat="42.78262780357912" lon="10.328341236300263"><ele>207.83333333333331</ele><time>2026-04-18T14:20:42Z</time></trkpt><trkpt lat="42.78264799878706" lon="10.328441136852586"><ele>205.0</ele><time>2026-04-18T14:20:45Z</time></trkpt><trkpt lat="42.782688077811" lon="10.328522305335145"><ele>203.16666666666666</ele><time>2026-04-18T14:20:48Z</time></trkpt><trkpt lat="42.78274662939317" lon="10.32860953354079"><ele>201.33333333333331</ele><time>2026-04-18T14:20:54Z</time></trkpt><trkpt lat="42.782788733841386" lon="10.328701785212425"><ele>199.5</ele><time>2026-04-18T14:20:56Z</time></trkpt><trkpt lat="42.782869896794224" lon="10.3287865745394"><ele>197.66666666666669</ele><time>2026-04-18T14:20:58Z</time></trkpt><trkpt lat="42.782929801553585" lon="10.328832065271614"><ele>195.83333333333334</ele><time>2026-04-18T14:21:00Z</time></trkpt><trkpt lat="42.78298307685262" lon="10.328911679961053"><ele>194.0</ele><time>2026-04-18T14:21:02Z</time></trkpt><trkpt lat="42.78304776410689" lon="10.328983351112155"><ele>192.50000000000003</ele><time>2026-04-18T14:21:04Z</time></trkpt><trkpt lat="42.78308851408523" lon="10.32907527817935"><ele>191.0</ele><time>2026-04-18T14:21:06Z</time></trkpt><trkpt lat="42.78312923156837" lon="10.329169749374504"><ele>189.5</ele><time>2026-04-18T14:21:08Z</time></trkpt><trkpt lat="42.78318503923907" lon="10.329254878809474"><ele>188.0</ele><time>2026-04-18T14:21:10Z</time></trkpt><trkpt lat="42.783221125051206" lon="10.329342510071573"><ele>186.5</ele><time>2026-04-18T14:21:12Z</time></trkpt><trkpt lat="42.783282001635975" lon="10.329435447945412"><ele>185.0</ele><time>2026-04-18T14:21:14Z</time></trkpt><trkpt lat="42.783311416115126" lon="10.329514711837454"><ele>185.0</ele><time>2026-04-18T14:21:16Z</time></trkpt><trkpt lat="42.78334835686283" lon="10.329612096582503"><ele>185.0</ele><time>2026-04-18T14:21:18Z</time></trkpt><trkpt lat="42.78338056375955" lon="10.32970711558401"><ele>185.0</ele><time>2026-04-18T14:21:20Z</time></trkpt><trkpt lat="42.78345527068805" lon="10.32981792979307"><ele>185.0</ele><time>2026-04-18T14:21:22Z</time></trkpt><trkpt lat="42.78352527531928" lon="10.329939667732733"><ele>185.0</ele><time>2026-04-18T14:21:24Z</time></trkpt><trkpt lat="42.783577384322854" lon="10.330032416679376"><ele>185.5</ele><time>2026-04-18T14:21:26Z</time></trkpt><trkpt lat="42.78360910321131" lon="10.330119266320112"><ele>186.0</ele><time>2026-04-18T14:21:30Z</time></trkpt><trkpt lat="42.78361497163916" lon="10.330209403156648"><ele>186.5</ele><time>2026-04-18T14:21:34.999Z</time></trkpt><trkpt lat="42.783555151883576" lon="10.330248835426998"><ele>187.0</ele><time>2026-04-18T14:21:39.999Z</time></trkpt><trkpt lat="42.783477935447564" lon="10.330200265214364"><ele>187.5</ele><time>2026-04-18T14:21:42.999Z</time></trkpt><trkpt lat="42.783384778580604" lon="10.330246880992615"><ele>188.0</ele><time>2026-04-18T14:21:45.999Z</time></trkpt><trkpt lat="42.78329755842709" lon="10.330266018494946"><ele>188.0</ele><time>2026-04-18T14:21:48.999Z</time></trkpt><trkpt lat="42.78323539033861" lon="10.330320173922336"><ele>188.0</ele><time>2026-04-18T14:21:51.999Z</time></trkpt><trkpt lat="42.78317270438937" lon="10.330375412453805"><ele>188.0</ele><time>2026-04-18T14:21:53.999Z</time></trkpt><trkpt lat="42.78311660926468" lon="10.330418779575425"><ele>188.0</ele><time>2026-04-18T14:21:55.999Z</time></trkpt><trkpt lat="42.78306843320415" lon="10.330347456387097"><ele>188.0</ele><time>2026-04-18T14:21:58.999Z</time></trkpt><trkpt lat="42.78300538930237" lon="10.330468675938524"><ele>188.0</ele><time>2026-04-18T14:22:04.999Z</time></trkpt><trkpt lat="42.78296343766519" lon="10.330588881896363"><ele>187.16666666666666</ele><time>2026-04-18T14:22:06.999Z</time></trkpt><trkpt lat="42.782918035275664" lon="10.330717635602474"><ele>186.33333333333331</ele><time>2026-04-18T14:22:08.999Z</time></trkpt><trkpt lat="42.78285904675092" lon="10.330804133757047"><ele>185.5</ele><time>2026-04-18T14:22:10.999Z</time></trkpt><trkpt lat="42.78278134567583" lon="10.330856979708699"><ele>184.66666666666666</ele><time>2026-04-18T14:22:12.999Z</time></trkpt><trkpt lat="42.78271431442047" lon="10.330899864617901"><ele>183.83333333333334</ele><time>2026-04-18T14:22:14.999Z</time></trkpt><trkpt lat="42.78265019192664" lon="10.330924837139703"><ele>183.0</ele><time>2026-04-18T14:22:16.999Z</time></trkpt><trkpt lat="42.78255224086885" lon="10.330918369687977"><ele>187.8</ele><time>2026-04-18T14:22:18.999Z</time></trkpt><trkpt lat="42.782480682979916" lon="10.33092161111646"><ele>192.60000000000002</ele><time>2026-04-18T14:22:21.999Z</time></trkpt><trkpt lat="42.7824104526438" lon="10.331001991100058"><ele>197.39999999999998</ele><time>2026-04-18T14:22:48Z</time></trkpt><trkpt lat="42.7823273504833" lon="10.330955252904841"><ele>202.2</ele><time>2026-04-18T14:22:51Z</time></trkpt><trkpt lat="42.782246827876335" lon="10.330855096862354"><ele>207.0</ele><time>2026-04-18T14:22:53Z</time></trkpt><trkpt lat="42.78218247659187" lon="10.330717058336404"><ele>207.0</ele><time>2026-04-18T14:22:55Z</time></trkpt><trkpt lat="42.782132708466676" lon="10.330639079233839"><ele>207.0</ele><time>2026-04-18T14:22:56Z</time></trkpt><trkpt lat="42.782090504534644" lon="10.330567507185787"><ele>207.0</ele><time>2026-04-18T14:22:57Z</time></trkpt><trkpt lat="42.782013939692185" lon="10.330468788222761"><ele>207.0</ele><time>2026-04-18T14:22:59Z</time></trkpt><trkpt lat="42.781932866361835" lon="10.330399621382737"><ele>207.0</ele><time>2026-04-18T14:23:01Z</time></trkpt><trkpt lat="42.781822201850275" lon="10.330367429816684"><ele>211.16666666666666</ele><time>2026-04-18T14:23:03Z</time></trkpt><trkpt lat="42.781731898699356" lon="10.330303115274255"><ele>215.33333333333331</ele><time>2026-04-18T14:23:05Z</time></trkpt><trkpt lat="42.78165105026433" lon="10.330278882529184"><ele>219.5</ele><time>2026-04-18T14:23:07Z</time></trkpt><trkpt lat="42.78157873131873" lon="10.330220955216651"><ele>223.66666666666666</ele><time>2026-04-18T14:23:09Z</time></trkpt><trkpt lat="42.7814934320337" lon="10.330181086685402"><ele>227.83333333333331</ele><time>2026-04-18T14:23:11Z</time></trkpt><trkpt lat="42.781412187460106" lon="10.330164465336194"><ele>232.0</ele><time>2026-04-18T14:23:13Z</time></trkpt><trkpt lat="42.78133545919925" lon="10.330159705114424"><ele>231.99999999999997</ele><time>2026-04-18T14:23:16Z</time></trkpt><trkpt lat="42.781327779524325" lon="10.33005802539453"><ele>232.0</ele><time>2026-04-18T14:23:20Z</time></trkpt><trkpt lat="42.78138862465659" lon="10.330024736593055"><ele>232.0</ele><time>2026-04-18T14:23:22Z</time></trkpt><trkpt lat="42.781474138010815" lon="10.329927650820435"><ele>232.0</ele><time>2026-04-18T14:23:24Z</time></trkpt><trkpt lat="42.78155691046014" lon="10.32984794435427"><ele>231.99999999999997</ele><time>2026-04-18T14:23:26Z</time></trkpt><trkpt lat="42.781635729273454" lon="10.32984748992396"><ele>232.0</ele><time>2026-04-18T14:23:29Z</time></trkpt><trkpt lat="42.781740698471864" lon="10.329854067809611"><ele>231.99999999999997</ele><time>2026-04-18T14:23:31Z</time></trkpt><trkpt lat="42.78183621520529" lon="10.32986027021185"><ele>232.0</ele><time>2026-04-18T14:23:33Z</time></trkpt><trkpt lat="42.78191427321153" lon="10.32987455127753"><ele>232.0</ele><time>2026-04-18T14:23:34.999Z</time></trkpt><trkpt lat="42.78198386963698" lon="10.329885377326828"><ele>232.0</ele><time>2026-04-18T14:23:37.999Z</time></trkpt><trkpt lat="42.782033518712595" lon="10.329827226025836"><ele>231.99999999999997</ele><time>2026-04-18T14:23:41.999Z</time></trkpt><trkpt lat="42.78204112936208" lon="10.329686588012418"><ele>232.0</ele><time>2026-04-18T14:23:44.999Z</time></trkpt><trkpt lat="42.78200977873805" lon="10.329565060240373"><ele>233.5714285714286</ele><time>2026-04-18T14:23:47.999Z</time></trkpt><trkpt lat="42.781974052509085" lon="10.329483325442572"><ele>235.14285714285717</ele><time>2026-04-18T14:23:49.999Z</time></trkpt><trkpt lat="42.78192793202281" lon="10.329422820857886"><ele>236.71428571428572</ele><time>2026-04-18T14:23:52.999Z</time></trkpt><trkpt lat="42.78185750636744" lon="10.329406299892202"><ele>238.2857142857143</ele><time>2026-04-18T14:23:54.999Z</time></trkpt><trkpt lat="42.781787350546466" lon="10.329375049524524"><ele>239.8571428571429</ele><time>2026-04-18T14:23:56.999Z</time></trkpt><trkpt lat="42.7817454370609" lon="10.329307299343384"><ele>241.42857142857142</ele><time>2026-04-18T14:23:59.999Z</time></trkpt><trkpt lat="42.78167409594592" lon="10.329270926274697"><ele>243.0</ele><time>2026-04-18T14:24:02.999Z</time></trkpt><trkpt lat="42.781701869544854" lon="10.329387473701791"><ele>243.0</ele><time>2026-04-18T14:24:07.999Z</time></trkpt><trkpt lat="42.781713149752804" lon="10.329493348414003"><ele>243.0</ele><time>2026-04-18T14:24:09.999Z</time></trkpt><trkpt lat="42.781644711085065" lon="10.32958957840036"><ele>243.0</ele><time>2026-04-18T14:24:12.999Z</time></trkpt><trkpt lat="42.78157701502311" lon="10.329664542750628"><ele>243.0</ele><time>2026-04-18T14:24:14.999Z</time></trkpt><trkpt lat="42.78148047111322" lon="10.329763943432344"><ele>243.0</ele><time>2026-04-18T14:24:16.999Z</time></trkpt><trkpt lat="42.78142371257796" lon="10.329807077230885"><ele>240.25</ele><time>2026-04-18T14:24:17.999Z</time></trkpt><trkpt lat="42.781323116006924" lon="10.329860302871154"><ele>237.5</ele><time>2026-04-18T14:24:19.999Z</time></trkpt><trkpt lat="42.78124186840576" lon="10.329957403955433"><ele>234.75</ele><time>2026-04-18T14:24:21.999Z</time></trkpt><trkpt lat="42.78114701449004" lon="10.330054594069992"><ele>232.0</ele><time>2026-04-18T14:24:23.999Z</time></trkpt><trkpt lat="42.78105563133582" lon="10.330149774785886"><ele>233.83333333333331</ele><time>2026-04-18T14:24:25.999Z</time></trkpt><trkpt lat="42.78092899770823" lon="10.330184393474866"><ele>235.66666666666666</ele><time>2026-04-18T14:24:27.999Z</time></trkpt><trkpt lat="42.780856184927416" lon="10.33019138098681"><ele>237.5</ele><time>2026-04-18T14:24:28.999Z</time></trkpt><trkpt lat="42.78077336759531" lon="10.33019696070754"><ele>239.33333333333331</ele><time>2026-04-18T14:24:29.999Z</time></trkpt><trkpt lat="42.780694105333914" lon="10.330221140413501"><ele>241.16666666666666</ele><time>2026-04-18T14:24:30.999Z</time></trkpt><trkpt lat="42.78063194669205" lon="10.330264918863106"><ele>243.0</ele><time>2026-04-18T14:24:31.999Z</time></trkpt><trkpt lat="42.780580077995126" lon="10.330339209997787"><ele>243.0</ele><time>2026-04-18T14:24:32.999Z</time></trkpt><trkpt lat="42.78053645709789" lon="10.33042862908661"><ele>243.0</ele><time>2026-04-18T14:24:34Z</time></trkpt><trkpt lat="42.780511034057156" lon="10.330511326425716"><ele>243.0</ele><time>2026-04-18T14:24:35Z</time></trkpt><trkpt lat="42.78047731954881" lon="10.330590341057855"><ele>243.0</ele><time>2026-04-18T14:24:36Z</time></trkpt><trkpt lat="42.780444925517145" lon="10.330666239222815"><ele>243.0</ele><time>2026-04-18T14:24:37Z</time></trkpt><trkpt lat="42.78041757569173" lon="10.330752230504826"><ele>243.0</ele><time>2026-04-18T14:24:38Z</time></trkpt><trkpt lat="42.78038915941809" lon="10.330831811642868"><ele>243.0</ele><time>2026-04-18T14:24:39Z</time></trkpt><trkpt lat="42.78035172472845" lon="10.33090314380796"><ele>239.2</ele><time>2026-04-18T14:24:40Z</time></trkpt><trkpt lat="42.78030713369773" lon="10.331068277664302"><ele>235.4</ele><time>2026-04-18T14:24:42Z</time></trkpt><trkpt lat="42.78026886805759" lon="10.331167561869153"><ele>231.59999999999997</ele><time>2026-04-18T14:24:43Z</time></trkpt><trkpt lat="42.78022591157285" lon="10.331262722907798"><ele>227.79999999999998</ele><time>2026-04-18T14:24:44Z</time></trkpt><trkpt lat="42.78019301257028" lon="10.331335954232161"><ele>224.0</ele><time>2026-04-18T14:24:45Z</time></trkpt><trkpt lat="42.78015038787724" lon="10.331469129856803"><ele>224.0</ele><time>2026-04-18T14:24:47Z</time></trkpt><trkpt lat="42.78010600048901" lon="10.33160019779157"><ele>223.99999999999997</ele><time>2026-04-18T14:24:49Z</time></trkpt><trkpt lat="42.78006435727659" lon="10.33174578454663"><ele>223.99999999999997</ele><time>2026-04-18T14:24:51Z</time></trkpt><trkpt lat="42.78002380305034" lon="10.331859720618949"><ele>224.0</ele><time>2026-04-18T14:24:53Z</time></trkpt><trkpt lat="42.779999203020814" lon="10.332014545504574"><ele>224.0</ele><time>2026-04-18T14:24:55Z</time></trkpt><trkpt lat="42.77999885408559" lon="10.33210411103321"><ele>221.79999999999998</ele><time>2026-04-18T14:24:56Z</time></trkpt><trkpt lat="42.779990067749345" lon="10.332286121823019"><ele>219.59999999999997</ele><time>2026-04-18T14:24:58Z</time></trkpt><trkpt lat="42.77997594416885" lon="10.332415214132393"><ele>217.4</ele><time>2026-04-18T14:24:59Z</time></trkpt><trkpt lat="42.779969512278974" lon="10.332538107398824"><ele>215.2</ele><time>2026-04-18T14:25:00Z</time></trkpt><trkpt lat="42.77995940601797" lon="10.3326665431"><ele>213.0</ele><time>2026-04-18T14:25:01Z</time></trkpt><trkpt lat="42.779945778608976" lon="10.332783316061407"><ele>213.0</ele><time>2026-04-18T14:25:02Z</time></trkpt><trkpt lat="42.779927510926576" lon="10.332901360625042"><ele>213.0</ele><time>2026-04-18T14:25:03Z</time></trkpt><trkpt lat="42.779911046539574" lon="10.332998514867349"><ele>213.0</ele><time>2026-04-18T14:25:04Z</time></trkpt><trkpt lat="42.77989117539636" lon="10.333093682466245"><ele>213.0</ele><time>2026-04-18T14:25:05Z</time></trkpt><trkpt lat="42.779875360145134" lon="10.333180698652873"><ele>213.0</ele><time>2026-04-18T14:25:06Z</time></trkpt><trkpt lat="42.77983502877824" lon="10.333311734854487"><ele>213.0</ele><time>2026-04-18T14:25:08Z</time></trkpt><trkpt lat="42.7797964799465" lon="10.333453316866779"><ele>212.5</ele><time>2026-04-18T14:25:10Z</time></trkpt><trkpt lat="42.77976474147972" lon="10.333599892275139"><ele>212.0</ele><time>2026-04-18T14:25:12Z</time></trkpt><trkpt lat="42.77977150563435" lon="10.333697386545644"><ele>211.5</ele><time>2026-04-18T14:25:14Z</time></trkpt><trkpt lat="42.77979750337361" lon="10.333781922309134"><ele>211.0</ele><time>2026-04-18T14:25:16Z</time></trkpt><trkpt lat="42.779755832178274" lon="10.333877045619197"><ele>210.5</ele><time>2026-04-18T14:25:19Z</time></trkpt><trkpt lat="42.77977226002329" lon="10.333970007792466"><ele>210.0</ele><time>2026-04-18T14:25:21Z</time></trkpt><trkpt lat="42.77982271493558" lon="10.334113350172348"><ele>209.2</ele><time>2026-04-18T14:25:23Z</time></trkpt><trkpt lat="42.77984266056739" lon="10.334200167710039"><ele>208.4</ele><time>2026-04-18T14:25:24Z</time></trkpt><trkpt lat="42.77986579275988" lon="10.33436705713417"><ele>207.60000000000002</ele><time>2026-04-18T14:25:26Z</time></trkpt><trkpt lat="42.77991621311371" lon="10.334547934346734"><ele>206.8</ele><time>2026-04-18T14:25:28Z</time></trkpt><trkpt lat="42.77996710654255" lon="10.334646575890753"><ele>206.0</ele><time>2026-04-18T14:25:29Z</time></trkpt><trkpt lat="42.7799963431708" lon="10.334743989202806"><ele>205.8</ele><time>2026-04-18T14:25:30Z</time></trkpt><trkpt lat="42.78004696235926" lon="10.334903618687138"><ele>205.60000000000002</ele><time>2026-04-18T14:25:31.999Z</time></trkpt><trkpt lat="42.780079960576884" lon="10.33498706237547"><ele>205.4</ele><time>2026-04-18T14:25:32.999Z</time></trkpt><trkpt lat="42.7800943900383" lon="10.33508389716361"><ele>205.2</ele><time>2026-04-18T14:25:33.999Z</time></trkpt><trkpt lat="42.780092173016214" lon="10.335204980574213"><ele>205.0</ele><time>2026-04-18T14:25:35.999Z</time></trkpt><trkpt lat="42.78012684255933" lon="10.33534367394175"><ele>205.0</ele><time>2026-04-18T14:25:38.999Z</time></trkpt><trkpt lat="42.78014320807668" lon="10.335486439451296"><ele>205.0</ele><time>2026-04-18T14:25:40.999Z</time></trkpt><trkpt lat="42.780114101347486" lon="10.335598050527269"><ele>205.0</ele><time>2026-04-18T14:25:42.999Z</time></trkpt><trkpt lat="42.78010974361959" lon="10.335734035600629"><ele>205.0</ele><time>2026-04-18T14:25:44.999Z</time></trkpt><trkpt lat="42.78014201973908" lon="10.335868474890946"><ele>205.0</ele><time>2026-04-18T14:25:46.999Z</time></trkpt><trkpt lat="42.78014356335954" lon="10.33595586412836"><ele>203.33333333333331</ele><time>2026-04-18T14:25:48.999Z</time></trkpt><trkpt lat="42.78015493385839" lon="10.336050410696943"><ele>201.66666666666666</ele><time>2026-04-18T14:25:50.999Z</time></trkpt><trkpt lat="42.78014376025477" lon="10.336149846934854"><ele>200.0</ele><time>2026-04-18T14:25:52.999Z</time></trkpt><trkpt lat="42.780158563380596" lon="10.336276438711279"><ele>198.33333333333331</ele><time>2026-04-18T14:25:55.999Z</time></trkpt><trkpt lat="42.78014792007604" lon="10.33637164207327"><ele>196.66666666666666</ele><time>2026-04-18T14:25:57.999Z</time></trkpt><trkpt lat="42.78011696272151" lon="10.336453237061123"><ele>195.0</ele><time>2026-04-18T14:25:59.999Z</time></trkpt><trkpt lat="42.78007300164607" lon="10.336534960089482"><ele>192.0</ele><time>2026-04-18T14:26:01.999Z</time></trkpt><trkpt lat="42.779990841014914" lon="10.336595350674783"><ele>189.0</ele><time>2026-04-18T14:26:03.999Z</time></trkpt><trkpt lat="42.779906572563675" lon="10.336690156315155"><ele>186.0</ele><time>2026-04-18T14:26:05.999Z</time></trkpt><trkpt lat="42.779845295392235" lon="10.336795128723868"><ele>183.0</ele><time>2026-04-18T14:26:07.999Z</time></trkpt><trkpt lat="42.77977799380621" lon="10.336872054541331"><ele>180.0</ele><time>2026-04-18T14:26:09.999Z</time></trkpt><trkpt lat="42.779753006336726" lon="10.336966375136988"><ele>180.0</ele><time>2026-04-18T14:26:11.999Z</time></trkpt><trkpt lat="42.779717885039936" lon="10.337083257244828"><ele>180.0</ele><time>2026-04-18T14:26:14.999Z</time></trkpt><trkpt lat="42.779678769017615" lon="10.337196617346843"><ele>180.0</ele><time>2026-04-18T14:26:17.999Z</time></trkpt><trkpt lat="42.779639139522885" lon="10.337309768569584"><ele>180.0</ele><time>2026-04-18T14:26:19.999Z</time></trkpt><trkpt lat="42.77958803844683" lon="10.33740873439304"><ele>180.0</ele><time>2026-04-18T14:26:21.999Z</time></trkpt><trkpt lat="42.77954803443761" lon="10.33751184929367"><ele>177.0</ele><time>2026-04-18T14:26:23.999Z</time></trkpt><trkpt lat="42.779511345785714" lon="10.33765649177306"><ele>174.0</ele><time>2026-04-18T14:26:25.999Z</time></trkpt><trkpt lat="42.77949515975874" lon="10.337814771739891"><ele>171.0</ele><time>2026-04-18T14:26:27.999Z</time></trkpt><trkpt lat="42.779495688785474" lon="10.337929631281753"><ele>168.0</ele><time>2026-04-18T14:26:29.999Z</time></trkpt><trkpt lat="42.77950297005661" lon="10.338039743634654"><ele>165.0</ele><time>2026-04-18T14:26:31.999Z</time></trkpt><trkpt lat="42.77952021647033" lon="10.338188844564883"><ele>163.5</ele><time>2026-04-18T14:26:33.999Z</time></trkpt><trkpt lat="42.77954371024607" lon="10.338310631434705"><ele>162.0</ele><time>2026-04-18T14:26:35.999Z</time></trkpt><trkpt lat="42.779570029406635" lon="10.338428010704988"><ele>160.5</ele><time>2026-04-18T14:26:38.999Z</time></trkpt><trkpt lat="42.77958434851662" lon="10.338519909056734"><ele>159.0</ele><time>2026-04-18T14:26:41Z</time></trkpt><trkpt lat="42.77961409678738" lon="10.338618067662118"><ele>157.5</ele><time>2026-04-18T14:26:43Z</time></trkpt><trkpt lat="42.77966147651382" lon="10.338714946526201"><ele>156.0</ele><time>2026-04-18T14:26:46Z</time></trkpt><trkpt lat="42.779686827330586" lon="10.338815354448474"><ele>154.8</ele><time>2026-04-18T14:26:48Z</time></trkpt><trkpt lat="42.77974758791494" lon="10.338919753053583"><ele>153.6</ele><time>2026-04-18T14:26:52Z</time></trkpt><trkpt lat="42.779804076368784" lon="10.33902704315655"><ele>152.4</ele><time>2026-04-18T14:26:54Z</time></trkpt><trkpt lat="42.77985964228618" lon="10.339133174831971"><ele>151.2</ele><time>2026-04-18T14:26:56Z</time></trkpt><trkpt lat="42.77988789926559" lon="10.339241133999732"><ele>150.0</ele><time>2026-04-18T14:26:58Z</time></trkpt><trkpt lat="42.779919376794595" lon="10.339352160613402"><ele>149.99999999999997</ele><time>2026-04-18T14:27:00Z</time></trkpt><trkpt lat="42.77994968419125" lon="10.339432039885"><ele>150.0</ele><time>2026-04-18T14:27:03Z</time></trkpt><trkpt lat="42.779990550535224" lon="10.339499103542089"><ele>150.0</ele><time>2026-04-18T14:27:07Z</time></trkpt><trkpt lat="42.779995123142506" lon="10.33958481537372"><ele>150.0</ele><time>2026-04-18T14:27:34Z</time></trkpt><trkpt lat="42.77995293757821" lon="10.339650763900467"><ele>150.0</ele><time>2026-04-18T14:27:40Z</time></trkpt><trkpt lat="42.77988808902327" lon="10.339711307608829"><ele>149.99999999999997</ele><time>2026-04-18T14:27:45Z</time></trkpt><trkpt lat="42.77984722326756" lon="10.339786030645373"><ele>150.0</ele><time>2026-04-18T14:27:48Z</time></trkpt><trkpt lat="42.77980712943124" lon="10.339862497938682"><ele>148.57142857142856</ele><time>2026-04-18T14:27:51.999Z</time></trkpt><trkpt lat="42.77976819523187" lon="10.339937558755148"><ele>147.14285714285714</ele><time>2026-04-18T14:27:55.999Z</time></trkpt><trkpt lat="42.7797538000592" lon="10.34002809923814"><ele>145.71428571428572</ele><time>2026-04-18T14:27:57.999Z</time></trkpt><trkpt lat="42.77974533890714" lon="10.340123458111904"><ele>144.28571428571428</ele><time>2026-04-18T14:28:02.999Z</time></trkpt><trkpt lat="42.77974690912269" lon="10.340230951875107"><ele>142.85714285714286</ele><time>2026-04-18T14:28:06.999Z</time></trkpt><trkpt lat="42.77975587672256" lon="10.340345224752527"><ele>141.42857142857142</ele><time>2026-04-18T14:28:10.999Z</time></trkpt><trkpt lat="42.77976975453309" lon="10.340432030693517"><ele>140.0</ele><time>2026-04-18T14:28:13.999Z</time></trkpt><trkpt lat="42.77971723578646" lon="10.340500018379908"><ele>140.0</ele><time>2026-04-18T14:28:17.999Z</time></trkpt><trkpt lat="42.779656624446794" lon="10.340435776878296"><ele>140.0</ele><time>2026-04-18T14:28:20.999Z</time></trkpt><trkpt lat="42.77958494550124" lon="10.340400808679693"><ele>140.0</ele><time>2026-04-18T14:28:24.999Z</time></trkpt><trkpt lat="42.77956834987531" lon="10.340506446732636"><ele>140.0</ele><time>2026-04-18T14:28:27.999Z</time></trkpt><trkpt lat="42.779573442021835" lon="10.34060944256185"><ele>140.0</ele><time>2026-04-18T14:28:30.999Z</time></trkpt><trkpt lat="42.77956514359269" lon="10.340696530787008"><ele>140.0</ele><time>2026-04-18T14:28:32.999Z</time></trkpt><trkpt lat="42.77955095557657" lon="10.340806613974316"><ele>137.0</ele><time>2026-04-18T14:28:34.999Z</time></trkpt><trkpt lat="42.779550554148706" lon="10.340909360543918"><ele>134.0</ele><time>2026-04-18T14:28:40.999Z</time></trkpt><trkpt lat="42.77954702355348" lon="10.34100169582524"><ele>131.0</ele><time>2026-04-18T14:28:58Z</time></trkpt><trkpt lat="42.779483562547746" lon="10.341021958495508"><ele>128.0</ele><time>2026-04-18T14:29:04Z</time></trkpt><trkpt lat="42.77941230706985" lon="10.34103824019492"><ele>125.0</ele><time>2026-04-18T14:29:09Z</time></trkpt><trkpt lat="42.779397124507135" lon="10.341133116288317"><ele>122.0</ele><time>2026-04-18T14:29:13Z</time></trkpt><trkpt lat="42.779350277659944" lon="10.341236042415302"><ele>119.0</ele><time>2026-04-18T14:29:17Z</time></trkpt><trkpt lat="42.779340458735376" lon="10.341343226081431"><ele>115.49999999999999</ele><time>2026-04-18T14:29:20Z</time></trkpt><trkpt lat="42.779351048192495" lon="10.341444133772425"><ele>112.0</ele><time>2026-04-18T14:29:24Z</time></trkpt><trkpt lat="42.77934754514577" lon="10.341531432779847"><ele>108.5</ele><time>2026-04-18T14:29:27Z</time></trkpt><trkpt lat="42.77931271065595" lon="10.341622294063933"><ele>105.0</ele><time>2026-04-18T14:29:30Z</time></trkpt><trkpt lat="42.779264150509526" lon="10.341704250157868"><ele>101.49999999999999</ele><time>2026-04-18T14:29:33Z</time></trkpt><trkpt lat="42.779230270526554" lon="10.341781102944381"><ele>98.0</ele><time>2026-04-18T14:29:35Z</time></trkpt><trkpt lat="42.77914812182515" lon="10.341904117002045"><ele>97.99999999999999</ele><time>2026-04-18T14:29:37Z</time></trkpt><trkpt lat="42.779099000005345" lon="10.342002066780456"><ele>98.0</ele><time>2026-04-18T14:29:39Z</time></trkpt><trkpt lat="42.7790509439093" lon="10.342078909618982"><ele>98.0</ele><time>2026-04-18T14:29:41Z</time></trkpt><trkpt lat="42.7790236257073" lon="10.342169561842871"><ele>98.0</ele><time>2026-04-18T14:29:43Z</time></trkpt><trkpt lat="42.7789886717644" lon="10.342256215823392"><ele>97.99999999999999</ele><time>2026-04-18T14:29:47Z</time></trkpt><trkpt lat="42.77895461122788" lon="10.34235619936457"><ele>98.0</ele><time>2026-04-18T14:29:51Z</time></trkpt><trkpt lat="42.778908469585176" lon="10.342422942266914"><ele>96.28571428571429</ele><time>2026-04-18T14:29:55Z</time></trkpt><trkpt lat="42.77886542553232" lon="10.342493180713486"><ele>94.57142857142857</ele><time>2026-04-18T14:29:57.999Z</time></trkpt><trkpt lat="42.77882203662823" lon="10.34256196638841"><ele>92.85714285714286</ele><time>2026-04-18T14:30:22.999Z</time></trkpt><trkpt lat="42.778769944760185" lon="10.342625315862593"><ele>91.14285714285714</ele><time>2026-04-18T14:30:32.999Z</time></trkpt><trkpt lat="42.778728110615205" lon="10.342700938001242"><ele>89.42857142857143</ele><time>2026-04-18T14:30:42.999Z</time></trkpt><trkpt lat="42.778775429961335" lon="10.342759360230703"><ele>87.71428571428572</ele><time>2026-04-18T14:30:46.999Z</time></trkpt><trkpt lat="42.77883765163362" lon="10.342743779855857"><ele>86.0</ele><time>2026-04-18T14:30:52Z</time></trkpt><trkpt lat="42.77890921330444" lon="10.342707638265319"><ele>86.0</ele><time>2026-04-18T14:32:11.999Z</time></trkpt><trkpt lat="42.77903455230849" lon="10.342699102392704"><ele>86.0</ele><time>2026-04-18T14:32:13.999Z</time></trkpt><trkpt lat="42.779134095017696" lon="10.342706332329582"><ele>86.0</ele><time>2026-04-18T14:32:14.999Z</time></trkpt><trkpt lat="42.77923321191171" lon="10.342763470181184"><ele>86.0</ele><time>2026-04-18T14:32:15.999Z</time></trkpt><trkpt lat="42.77931723519059" lon="10.34277678148998"><ele>86.0</ele><time>2026-04-18T14:32:16.999Z</time></trkpt><trkpt lat="42.77939634055198" lon="10.342789313749345"><ele>84.0</ele><time>2026-04-18T14:32:17.999Z</time></trkpt><trkpt lat="42.779466266864574" lon="10.342800391819765"><ele>82.0</ele><time>2026-04-18T14:32:18.999Z</time></trkpt><trkpt lat="42.7796005600219" lon="10.34282166720367"><ele>80.0</ele><time>2026-04-18T14:32:20.999Z</time></trkpt><trkpt lat="42.779679310897144" lon="10.342688769710342"><ele>78.0</ele><time>2026-04-18T14:32:21.999Z</time></trkpt><trkpt lat="42.779744065460974" lon="10.342665032876432"><ele>76.0</ele><time>2026-04-18T14:32:22.999Z</time></trkpt><trkpt lat="42.779833879805544" lon="10.34257118037199"><ele>76.0</ele><time>2026-04-18T14:32:24.999Z</time></trkpt><trkpt lat="42.779927918360855" lon="10.342513728491186"><ele>76.0</ele><time>2026-04-18T14:32:26.999Z</time></trkpt><trkpt lat="42.779984108373" lon="10.342454251692796"><ele>76.0</ele><time>2026-04-18T14:32:27.999Z</time></trkpt><trkpt lat="42.780041246572495" lon="10.342399221290085"><ele>76.0</ele><time>2026-04-18T14:32:28.999Z</time></trkpt><trkpt lat="42.78010471490982" lon="10.342354908064086"><ele>76.0</ele><time>2026-04-18T14:32:29.999Z</time></trkpt><trkpt lat="42.78017415719837" lon="10.342317043439488"><ele>76.0</ele><time>2026-04-18T14:32:30.999Z</time></trkpt><trkpt lat="42.78023816220004" lon="10.34229145462147"><ele>73.6</ele><time>2026-04-18T14:32:31.999Z</time></trkpt><trkpt lat="42.780303135586976" lon="10.342282310568606"><ele>71.19999999999999</ele><time>2026-04-18T14:32:32.999Z</time></trkpt><trkpt lat="42.78043201372293" lon="10.342261282532542"><ele>68.80000000000001</ele><time>2026-04-18T14:32:34.999Z</time></trkpt><trkpt lat="42.78056240195486" lon="10.342272102365675"><ele>66.4</ele><time>2026-04-18T14:32:36.999Z</time></trkpt><trkpt lat="42.78063795979023" lon="10.34226629793487"><ele>64.0</ele><time>2026-04-18T14:32:37.999Z</time></trkpt><trkpt lat="42.78071003086484" lon="10.342241324879321"><ele>63.99999999999999</ele><time>2026-04-18T14:32:38.999Z</time></trkpt><trkpt lat="42.78078912398458" lon="10.342237420336405"><ele>64.0</ele><time>2026-04-18T14:32:39.999Z</time></trkpt><trkpt lat="42.78087263271713" lon="10.342204835711179"><ele>64.0</ele><time>2026-04-18T14:32:40.999Z</time></trkpt><trkpt lat="42.780949673083484" lon="10.342159523055392"><ele>64.0</ele><time>2026-04-18T14:32:41.999Z</time></trkpt><trkpt lat="42.78103214761578" lon="10.342129157463393"><ele>63.99999999999999</ele><time>2026-04-18T14:32:42.999Z</time></trkpt><trkpt lat="42.78109839148676" lon="10.342092243072198"><ele>64.0</ele><time>2026-04-18T14:32:43.999Z</time></trkpt><trkpt lat="42.781168564057886" lon="10.342056051974769"><ele>65.16666666666666</ele><time>2026-04-18T14:32:44.999Z</time></trkpt><trkpt lat="42.78123079926741" lon="10.342023954535975"><ele>66.33333333333333</ele><time>2026-04-18T14:32:45.999Z</time></trkpt><trkpt lat="42.78128503393767" lon="10.341972858578174"><ele>67.5</ele><time>2026-04-18T14:32:46.999Z</time></trkpt><trkpt lat="42.781349626927394" lon="10.341953439686787"><ele>68.66666666666667</ele><time>2026-04-18T14:32:47.999Z</time></trkpt><trkpt lat="42.78146809969662" lon="10.34187748313681"><ele>69.83333333333334</ele><time>2026-04-18T14:32:49.999Z</time></trkpt><trkpt lat="42.78152915736802" lon="10.341839635322236"><ele>71.0</ele><time>2026-04-18T14:32:50.999Z</time></trkpt><trkpt lat="42.78158871116919" lon="10.34178850011693"><ele>71.0</ele><time>2026-04-18T14:32:51.999Z</time></trkpt><trkpt lat="42.78167434648071" lon="10.341687657629295"><ele>71.0</ele><time>2026-04-18T14:32:53.999Z</time></trkpt><trkpt lat="42.781781951940616" lon="10.341617544079172"><ele>71.0</ele><time>2026-04-18T14:32:55.999Z</time></trkpt><trkpt lat="42.781881069879354" lon="10.341619012237494"><ele>71.0</ele><time>2026-04-18T14:32:58Z</time></trkpt><trkpt lat="42.781961887820046" lon="10.341699419249863"><ele>71.0</ele><time>2026-04-18T14:33:00Z</time></trkpt><trkpt lat="42.78198716656524" lon="10.341820738769535"><ele>70.0</ele><time>2026-04-18T14:33:02Z</time></trkpt><trkpt lat="42.78203099347734" lon="10.341900990700733"><ele>69.0</ele><time>2026-04-18T14:33:03Z</time></trkpt><trkpt lat="42.7820856220166" lon="10.342031570680605"><ele>68.0</ele><time>2026-04-18T14:33:05Z</time></trkpt><trkpt lat="42.78214773761567" lon="10.34205149526826"><ele>67.0</ele><time>2026-04-18T14:33:06Z</time></trkpt><trkpt lat="42.78228672512944" lon="10.342062488643622"><ele>66.0</ele><time>2026-04-18T14:33:08Z</time></trkpt><trkpt lat="42.78237751551967" lon="10.342078799374393"><ele>66.0</ele><time>2026-04-18T14:33:09Z</time></trkpt><trkpt lat="42.782468523652085" lon="10.34209194104523"><ele>66.0</ele><time>2026-04-18T14:33:10Z</time></trkpt><trkpt lat="42.78254558851209" lon="10.342103096447078"><ele>66.0</ele><time>2026-04-18T14:33:11Z</time></trkpt><trkpt lat="42.78261299623415" lon="10.342108760579695"><ele>66.0</ele><time>2026-04-18T14:33:12Z</time></trkpt><trkpt lat="42.782688316415886" lon="10.342117739496112"><ele>66.0</ele><time>2026-04-18T14:33:13Z</time></trkpt><trkpt lat="42.78275779740665" lon="10.342123904037374"><ele>66.0</ele><time>2026-04-18T14:33:14Z</time></trkpt><trkpt lat="42.782836761000006" lon="10.342128031689885"><ele>64.5</ele><time>2026-04-18T14:33:15Z</time></trkpt><trkpt lat="42.78292329040808" lon="10.342125871630627"><ele>63.0</ele><time>2026-04-18T14:33:16Z</time></trkpt><trkpt lat="42.783001896378124" lon="10.342110894904327"><ele>61.5</ele><time>2026-04-18T14:33:17Z</time></trkpt><trkpt lat="42.78308626364174" lon="10.342109351607977"><ele>60.0</ele><time>2026-04-18T14:33:18Z</time></trkpt><trkpt lat="42.783151290753324" lon="10.342083364751739"><ele>58.5</ele><time>2026-04-18T14:33:19Z</time></trkpt><trkpt lat="42.78321451721038" lon="10.342040374043236"><ele>57.0</ele><time>2026-04-18T14:33:20Z</time></trkpt><trkpt lat="42.78328804932133" lon="10.341994371451218"><ele>57.0</ele><time>2026-04-18T14:33:21Z</time></trkpt><trkpt lat="42.783373859520424" lon="10.341923695824033"><ele>57.0</ele><time>2026-04-18T14:33:22Z</time></trkpt><trkpt lat="42.78343006068051" lon="10.34184511416659"><ele>57.0</ele><time>2026-04-18T14:33:23Z</time></trkpt><trkpt lat="42.78349914877167" lon="10.34172951763416"><ele>57.0</ele><time>2026-04-18T14:33:25Z</time></trkpt><trkpt lat="42.7835528308333" lon="10.341661654896216"><ele>57.0</ele><time>2026-04-18T14:33:27Z</time></trkpt><trkpt lat="42.783531734974325" lon="10.341805365584891"><ele>57.0</ele><time>2026-04-18T14:33:36Z</time></trkpt><trkpt lat="42.78348979606197" lon="10.341889486341175"><ele>57.0</ele><time>2026-04-18T14:33:37Z</time></trkpt><trkpt lat="42.7834355157266" lon="10.341979576659547"><ele>57.0</ele><time>2026-04-18T14:33:38Z</time></trkpt><trkpt lat="42.78337638851403" lon="10.342047001418601"><ele>57.0</ele><time>2026-04-18T14:33:39Z</time></trkpt><trkpt lat="42.7833273336691" lon="10.34213197851208"><ele>57.0</ele><time>2026-04-18T14:33:40Z</time></trkpt><trkpt lat="42.78327864835818" lon="10.342221896463103"><ele>57.0</ele><time>2026-04-18T14:33:41Z</time></trkpt><trkpt lat="42.78322370898046" lon="10.34233296520158"><ele>54.8</ele><time>2026-04-18T14:33:42Z</time></trkpt><trkpt lat="42.78317336740554" lon="10.342440187142582"><ele>52.6</ele><time>2026-04-18T14:33:43Z</time></trkpt><trkpt lat="42.78312174790671" lon="10.342556997749734"><ele>50.4</ele><time>2026-04-18T14:33:44Z</time></trkpt><trkpt lat="42.78306837463798" lon="10.342677776978972"><ele>48.199999999999996</ele><time>2026-04-18T14:33:45Z</time></trkpt><trkpt lat="42.7830130945797" lon="10.342802871169654"><ele>46.0</ele><time>2026-04-18T14:33:46Z</time></trkpt><trkpt lat="42.78295555587851" lon="10.342925713806501"><ele>46.0</ele><time>2026-04-18T14:33:47Z</time></trkpt><trkpt lat="42.78289548359526" lon="10.343039428363332"><ele>46.0</ele><time>2026-04-18T14:33:48Z</time></trkpt><trkpt lat="42.78282525899131" lon="10.343152440329657"><ele>46.0</ele><time>2026-04-18T14:33:49Z</time></trkpt><trkpt lat="42.78276196218275" lon="10.343268662669688"><ele>46.0</ele><time>2026-04-18T14:33:50Z</time></trkpt><trkpt lat="42.78266623749102" lon="10.343354381826167"><ele>46.0</ele><time>2026-04-18T14:33:51Z</time></trkpt><trkpt lat="42.78257257593661" lon="10.343469488236467"><ele>46.0</ele><time>2026-04-18T14:33:52Z</time></trkpt><trkpt lat="42.78247319520755" lon="10.343579135438938"><ele>46.0</ele><time>2026-04-18T14:33:53Z</time></trkpt><trkpt lat="42.78236610363113" lon="10.343692437081252"><ele>46.0</ele><time>2026-04-18T14:33:54Z</time></trkpt><trkpt lat="42.78225058756035" lon="10.343806510829799"><ele>46.0</ele><time>2026-04-18T14:33:55Z</time></trkpt><trkpt lat="42.78213630864365" lon="10.343927131813247"><ele>45.66666666666667</ele><time>2026-04-18T14:33:56Z</time></trkpt><trkpt lat="42.782017054231574" lon="10.344053751140143"><ele>45.333333333333336</ele><time>2026-04-18T14:33:57Z</time></trkpt><trkpt lat="42.781891436478126" lon="10.3441867008521"><ele>45.0</ele><time>2026-04-18T14:33:58Z</time></trkpt><trkpt lat="42.78176562840485" lon="10.344311198609535"><ele>45.0</ele><time>2026-04-18T14:33:59Z</time></trkpt><trkpt lat="42.781650592247715" lon="10.34444183744856"><ele>45.0</ele><time>2026-04-18T14:34:00Z</time></trkpt><trkpt lat="42.78153265853645" lon="10.344568618894712"><ele>45.0</ele><time>2026-04-18T14:34:01Z</time></trkpt><trkpt lat="42.78141415957094" lon="10.344693589436943"><ele>44.666666666666664</ele><time>2026-04-18T14:34:02Z</time></trkpt><trkpt lat="42.78128206874298" lon="10.344827142223803"><ele>44.33333333333333</ele><time>2026-04-18T14:34:03Z</time></trkpt><trkpt lat="42.781156441438924" lon="10.34495851511014"><ele>44.0</ele><time>2026-04-18T14:34:04Z</time></trkpt><trkpt lat="42.781032421619976" lon="10.345090267314557"><ele>45.25</ele><time>2026-04-18T14:34:05Z</time></trkpt><trkpt lat="42.780913869874084" lon="10.345201378984191"><ele>46.5</ele><time>2026-04-18T14:34:06Z</time></trkpt><trkpt lat="42.78080662707196" lon="10.345322291980558"><ele>47.75</ele><time>2026-04-18T14:34:07Z</time></trkpt><trkpt lat="42.78070180784755" lon="10.345421485504968"><ele>49.0</ele><time>2026-04-18T14:34:08Z</time></trkpt><trkpt lat="42.78060281742748" lon="10.345533132440881"><ele>48.75</ele><time>2026-04-18T14:34:08.999Z</time></trkpt><trkpt lat="42.78049399226534" lon="10.345645961737027"><ele>48.5</ele><time>2026-04-18T14:34:09.999Z</time></trkpt><trkpt lat="42.78038490826019" lon="10.345758837757364"><ele>48.25</ele><time>2026-04-18T14:34:10.999Z</time></trkpt><trkpt lat="42.78026753307548" lon="10.345886603029744"><ele>48.0</ele><time>2026-04-18T14:34:11.999Z</time></trkpt><trkpt lat="42.780148386006516" lon="10.346009084495112"><ele>48.0</ele><time>2026-04-18T14:34:12.999Z</time></trkpt><trkpt lat="42.780036075563636" lon="10.346117376538077"><ele>48.0</ele><time>2026-04-18T14:34:13.999Z</time></trkpt><trkpt lat="42.779925032630516" lon="10.346247387839316"><ele>48.0</ele><time>2026-04-18T14:34:14.999Z</time></trkpt><trkpt lat="42.77982095793864" lon="10.346347848770414"><ele>48.0</ele><time>2026-04-18T14:34:15.999Z</time></trkpt><trkpt lat="42.779718837660795" lon="10.346434658700225"><ele>47.8</ele><time>2026-04-18T14:34:16.999Z</time></trkpt><trkpt lat="42.77962820479695" lon="10.346528850779379"><ele>47.599999999999994</ele><time>2026-04-18T14:34:17.999Z</time></trkpt><trkpt lat="42.779537040298024" lon="10.346622545655736"><ele>47.400000000000006</ele><time>2026-04-18T14:34:18.999Z</time></trkpt><trkpt lat="42.77945519747849" lon="10.346706642900212"><ele>47.2</ele><time>2026-04-18T14:34:19.999Z</time></trkpt><trkpt lat="42.779383295154226" lon="10.346781736134451"><ele>47.0</ele><time>2026-04-18T14:34:20.999Z</time></trkpt><trkpt lat="42.779322342975505" lon="10.346873726014403"><ele>47.0</ele><time>2026-04-18T14:34:21.999Z</time></trkpt><trkpt lat="42.779249171153445" lon="10.346940650782901"><ele>47.0</ele><time>2026-04-18T14:34:22.999Z</time></trkpt><trkpt lat="42.77919796540879" lon="10.347008656194726"><ele>47.0</ele><time>2026-04-18T14:34:23.999Z</time></trkpt><trkpt lat="42.77912759945881" lon="10.347061387438876"><ele>47.0</ele><time>2026-04-18T14:34:28.999Z</time></trkpt><trkpt lat="42.779199369673826" lon="10.347346281080497"><ele>47.166666666666664</ele><time>2026-04-18T14:34:32.999Z</time></trkpt><trkpt lat="42.779201124717886" lon="10.347444277143069"><ele>47.33333333333333</ele><time>2026-04-18T14:34:33.999Z</time></trkpt><trkpt lat="42.779205047430615" lon="10.347560449179241"><ele>47.5</ele><time>2026-04-18T14:34:34.999Z</time></trkpt><trkpt lat="42.7792072009087" lon="10.347670101623535"><ele>47.666666666666664</ele><time>2026-04-18T14:34:35.999Z</time></trkpt><trkpt lat="42.77921627540122" lon="10.347777201912036"><ele>47.833333333333336</ele><time>2026-04-18T14:34:36.999Z</time></trkpt><trkpt lat="42.779225816644455" lon="10.347896388811852"><ele>48.0</ele><time>2026-04-18T14:34:37.999Z</time></trkpt><trkpt lat="42.7792493136077" lon="10.348006932774434"><ele>47.8</ele><time>2026-04-18T14:34:38.999Z</time></trkpt><trkpt lat="42.779289071228234" lon="10.348110331986149"><ele>47.599999999999994</ele><time>2026-04-18T14:34:39.999Z</time></trkpt><trkpt lat="42.77932625581754" lon="10.348201748035802"><ele>47.400000000000006</ele><time>2026-04-18T14:34:40.999Z</time></trkpt><trkpt lat="42.77935459258548" lon="10.3482918424184"><ele>47.2</ele><time>2026-04-18T14:34:41.999Z</time></trkpt><trkpt lat="42.77938431900737" lon="10.348386355088008"><ele>47.0</ele><time>2026-04-18T14:34:42.999Z</time></trkpt><trkpt lat="42.77957052182178" lon="10.348385360198769"><ele>50.2</ele><time>2026-04-18T14:34:43.999Z</time></trkpt><trkpt lat="42.77965568623721" lon="10.348469672340613"><ele>53.400000000000006</ele><time>2026-04-18T14:34:44.999Z</time></trkpt><trkpt lat="42.779732334243405" lon="10.348539722367063"><ele>56.599999999999994</ele><time>2026-04-18T14:34:45.999Z</time></trkpt><trkpt lat="42.779792078780645" lon="10.348637116631288"><ele>59.8</ele><time>2026-04-18T14:34:46.999Z</time></trkpt><trkpt lat="42.77986620616941" lon="10.348725455335066"><ele>63.0</ele><time>2026-04-18T14:34:47.999Z</time></trkpt><trkpt lat="42.77992851660095" lon="10.348814006124323"><ele>61.0</ele><time>2026-04-18T14:34:48.999Z</time></trkpt><trkpt lat="42.78000225724312" lon="10.34891276182718"><ele>59.0</ele><time>2026-04-18T14:34:49.999Z</time></trkpt><trkpt lat="42.780087964362544" lon="10.349035047259182"><ele>57.0</ele><time>2026-04-18T14:34:50.999Z</time></trkpt><trkpt lat="42.780177555116474" lon="10.349169839914822"><ele>55.0</ele><time>2026-04-18T14:34:51.999Z</time></trkpt><trkpt lat="42.78025761601082" lon="10.349287725164551"><ele>57.75</ele><time>2026-04-18T14:34:52.999Z</time></trkpt><trkpt lat="42.78033285667941" lon="10.349402447264593"><ele>60.5</ele><time>2026-04-18T14:34:53.999Z</time></trkpt><trkpt lat="42.78041316413065" lon="10.349521992132212"><ele>63.25</ele><time>2026-04-18T14:34:54.999Z</time></trkpt><trkpt lat="42.78049634515205" lon="10.349643423046256"><ele>66.0</ele><time>2026-04-18T14:34:55.999Z</time></trkpt><trkpt lat="42.78058321567252" lon="10.34976500527349"><ele>66.0</ele><time>2026-04-18T14:34:56.999Z</time></trkpt><trkpt lat="42.78066899214933" lon="10.349892321779947"><ele>66.0</ele><time>2026-04-18T14:34:57.999Z</time></trkpt><trkpt lat="42.780729881383905" lon="10.350035187061291"><ele>66.0</ele><time>2026-04-18T14:34:58.999Z</time></trkpt><trkpt lat="42.78081574514208" lon="10.350156461341138"><ele>66.0</ele><time>2026-04-18T14:34:59.999Z</time></trkpt><trkpt lat="42.78089811629056" lon="10.350279515226886"><ele>66.0</ele><time>2026-04-18T14:35:00.999Z</time></trkpt><trkpt lat="42.78098204241036" lon="10.350400687934005"><ele>66.0</ele><time>2026-04-18T14:35:01.999Z</time></trkpt><trkpt lat="42.781065760658976" lon="10.350522525926769"><ele>66.0</ele><time>2026-04-18T14:35:02.999Z</time></trkpt><trkpt lat="42.781145996821095" lon="10.350643897562703"><ele>66.0</ele><time>2026-04-18T14:35:04Z</time></trkpt><trkpt lat="42.78122319034155" lon="10.350761766697477"><ele>66.8</ele><time>2026-04-18T14:35:05Z</time></trkpt><trkpt lat="42.78130530153477" lon="10.350869154849585"><ele>67.6</ele><time>2026-04-18T14:35:06Z</time></trkpt><trkpt lat="42.781397345268644" lon="10.350952650519826"><ele>68.4</ele><time>2026-04-18T14:35:07Z</time></trkpt><trkpt lat="42.78149531397848" lon="10.351002631736964"><ele>69.2</ele><time>2026-04-18T14:35:08Z</time></trkpt><trkpt lat="42.781594000015886" lon="10.351062855436911"><ele>70.0</ele><time>2026-04-18T14:35:09Z</time></trkpt><trkpt lat="42.78169053090929" lon="10.351131325907104"><ele>70.0</ele><time>2026-04-18T14:35:10Z</time></trkpt><trkpt lat="42.78178639239232" lon="10.351194919546044"><ele>70.0</ele><time>2026-04-18T14:35:11Z</time></trkpt><trkpt lat="42.78188881722649" lon="10.351274887693409"><ele>70.0</ele><time>2026-04-18T14:35:12Z</time></trkpt><trkpt lat="42.78198737521748" lon="10.351346171007316"><ele>70.0</ele><time>2026-04-18T14:35:13Z</time></trkpt><trkpt lat="42.78207634577845" lon="10.351439131738937"><ele>70.0</ele><time>2026-04-18T14:35:14Z</time></trkpt><trkpt lat="42.78217103492086" lon="10.351519281607954"><ele>69.6</ele><time>2026-04-18T14:35:15Z</time></trkpt><trkpt lat="42.782262581040555" lon="10.351605084131874"><ele>69.2</ele><time>2026-04-18T14:35:16Z</time></trkpt><trkpt lat="42.78234324824722" lon="10.351693506135568"><ele>68.8</ele><time>2026-04-18T14:35:17Z</time></trkpt><trkpt lat="42.78241199161788" lon="10.351774005582827"><ele>68.4</ele><time>2026-04-18T14:35:18Z</time></trkpt><trkpt lat="42.78248041884738" lon="10.351867445510374"><ele>68.0</ele><time>2026-04-18T14:35:19Z</time></trkpt><trkpt lat="42.78251215065432" lon="10.352000362506638"><ele>68.0</ele><time>2026-04-18T14:35:20Z</time></trkpt><trkpt lat="42.78255190202638" lon="10.352132101090316"><ele>68.0</ele><time>2026-04-18T14:35:21Z</time></trkpt><trkpt lat="42.78258106570228" lon="10.352263676029503"><ele>68.0</ele><time>2026-04-18T14:35:22Z</time></trkpt><trkpt lat="42.782609226787834" lon="10.35240812930123"><ele>68.0</ele><time>2026-04-18T14:35:23Z</time></trkpt><trkpt lat="42.78261508193675" lon="10.352546966560798"><ele>68.0</ele><time>2026-04-18T14:35:24Z</time></trkpt><trkpt lat="42.782653666074204" lon="10.352696663238259"><ele>68.25</ele><time>2026-04-18T14:35:25Z</time></trkpt><trkpt lat="42.78264882132942" lon="10.352864143723837"><ele>68.5</ele><time>2026-04-18T14:35:26Z</time></trkpt><trkpt lat="42.78264405810277" lon="10.353028092722525"><ele>68.75</ele><time>2026-04-18T14:35:27Z</time></trkpt><trkpt lat="42.782619711303596" lon="10.353185979592554"><ele>69.0</ele><time>2026-04-18T14:35:28Z</time></trkpt><trkpt lat="42.78252658913636" lon="10.353304479811957"><ele>69.0</ele><time>2026-04-18T14:35:29Z</time></trkpt><trkpt lat="42.78246759093448" lon="10.353437316357432"><ele>69.0</ele><time>2026-04-18T14:35:30Z</time></trkpt><trkpt lat="42.78239509167525" lon="10.353569997380564"><ele>69.0</ele><time>2026-04-18T14:35:31Z</time></trkpt><trkpt lat="42.78231622221475" lon="10.353682526025453"><ele>69.0</ele><time>2026-04-18T14:35:32Z</time></trkpt><trkpt lat="42.782221153275415" lon="10.353778402203254"><ele>69.0</ele><time>2026-04-18T14:35:33Z</time></trkpt><trkpt lat="42.78212662600518" lon="10.353864832549608"><ele>69.0</ele><time>2026-04-18T14:35:34Z</time></trkpt><trkpt lat="42.78204129545469" lon="10.353949328058103"><ele>69.0</ele><time>2026-04-18T14:35:35Z</time></trkpt><trkpt lat="42.7819685559399" lon="10.354060470486955"><ele>69.0</ele><time>2026-04-18T14:35:36Z</time></trkpt><trkpt lat="42.78191887823278" lon="10.354195797844154"><ele>69.0</ele><time>2026-04-18T14:35:37Z</time></trkpt><trkpt lat="42.78188083883916" lon="10.354344202965835"><ele>69.5</ele><time>2026-04-18T14:35:38Z</time></trkpt><trkpt lat="42.78184271277063" lon="10.354487036648422"><ele>70.0</ele><time>2026-04-18T14:35:39Z</time></trkpt><trkpt lat="42.78181078963358" lon="10.35464832390712"><ele>70.5</ele><time>2026-04-18T14:35:40Z</time></trkpt><trkpt lat="42.78179978220101" lon="10.354801692260208"><ele>71.0</ele><time>2026-04-18T14:35:41Z</time></trkpt><trkpt lat="42.78181294502974" lon="10.354946285665282"><ele>75.75</ele><time>2026-04-18T14:35:42Z</time></trkpt><trkpt lat="42.78188527612198" lon="10.355080808631804"><ele>80.5</ele><time>2026-04-18T14:35:43Z</time></trkpt><trkpt lat="42.781933007066776" lon="10.355230851121354"><ele>85.25</ele><time>2026-04-18T14:35:44Z</time></trkpt><trkpt lat="42.78198844678952" lon="10.355369965768865"><ele>90.0</ele><time>2026-04-18T14:35:45Z</time></trkpt><trkpt lat="42.78205719666351" lon="10.355488844097565"><ele>90.0</ele><time>2026-04-18T14:35:46Z</time></trkpt><trkpt lat="42.78210777977871" lon="10.355599411939165"><ele>90.0</ele><time>2026-04-18T14:35:47Z</time></trkpt><trkpt lat="42.78217055711193" lon="10.355683368967064"><ele>90.0</ele><time>2026-04-18T14:35:48Z</time></trkpt><trkpt lat="42.78223475045765" lon="10.355754316322827"><ele>90.0</ele><time>2026-04-18T14:35:49Z</time></trkpt><trkpt lat="42.78230226551699" lon="10.355813158087015"><ele>90.0</ele><time>2026-04-18T14:35:50Z</time></trkpt><trkpt lat="42.78237572452032" lon="10.355866209181501"><ele>90.0</ele><time>2026-04-18T14:35:51Z</time></trkpt><trkpt lat="42.782449498878236" lon="10.355925619212979"><ele>90.0</ele><time>2026-04-18T14:35:52Z</time></trkpt><trkpt lat="42.78252245597974" lon="10.355993428002282"><ele>90.0</ele><time>2026-04-18T14:35:53Z</time></trkpt><trkpt lat="42.78259591996561" lon="10.356057649303173"><ele>90.0</ele><time>2026-04-18T14:35:54Z</time></trkpt><trkpt lat="42.78266320838329" lon="10.356116716137725"><ele>90.0</ele><time>2026-04-18T14:35:55Z</time></trkpt><trkpt lat="42.782719470104624" lon="10.356170854202094"><ele>90.0</ele><time>2026-04-18T14:35:56Z</time></trkpt><trkpt lat="42.78278328865667" lon="10.356223678398592"><ele>90.0</ele><time>2026-04-18T14:35:57Z</time></trkpt><trkpt lat="42.78285865495053" lon="10.356259616503058"><ele>90.2</ele><time>2026-04-18T14:35:58Z</time></trkpt><trkpt lat="42.7829412330417" lon="10.35629264480978"><ele>90.4</ele><time>2026-04-18T14:35:59Z</time></trkpt><trkpt lat="42.783032116998335" lon="10.356305183293662"><ele>90.6</ele><time>2026-04-18T14:36:00Z</time></trkpt><trkpt lat="42.7831299309858" lon="10.35632881052375"><ele>90.8</ele><time>2026-04-18T14:36:01Z</time></trkpt><trkpt lat="42.783244769673324" lon="10.356359144322667"><ele>91.0</ele><time>2026-04-18T14:36:02Z</time></trkpt><trkpt lat="42.783339406928654" lon="10.356418653952458"><ele>90.8</ele><time>2026-04-18T14:36:03Z</time></trkpt><trkpt lat="42.78342530485425" lon="10.356478078368193"><ele>90.6</ele><time>2026-04-18T14:36:04Z</time></trkpt><trkpt lat="42.783502484305004" lon="10.356538401815"><ele>90.4</ele><time>2026-04-18T14:36:05Z</time></trkpt><trkpt lat="42.783586516970175" lon="10.356607374001213"><ele>90.2</ele><time>2026-04-18T14:36:06Z</time></trkpt><trkpt lat="42.783673761145096" lon="10.356679358463056"><ele>90.0</ele><time>2026-04-18T14:36:07Z</time></trkpt><trkpt lat="42.78375865716175" lon="10.35674969946435"><ele>90.0</ele><time>2026-04-18T14:36:07.999Z</time></trkpt><trkpt lat="42.78383873134949" lon="10.356816130108408"><ele>90.0</ele><time>2026-04-18T14:36:08.999Z</time></trkpt><trkpt lat="42.78391035102085" lon="10.356875546789325"><ele>90.0</ele><time>2026-04-18T14:36:09.999Z</time></trkpt><trkpt lat="42.78398604250052" lon="10.356915043052984"><ele>90.0</ele><time>2026-04-18T14:36:10.999Z</time></trkpt><trkpt lat="42.78404230275029" lon="10.356998994071406"><ele>90.0</ele><time>2026-04-18T14:36:11.999Z</time></trkpt><trkpt lat="42.78408760402836" lon="10.357092470086865"><ele>90.0</ele><time>2026-04-18T14:36:12.999Z</time></trkpt><trkpt lat="42.784178377192774" lon="10.35717227020669"><ele>90.0</ele><time>2026-04-18T14:36:14.999Z</time></trkpt><trkpt lat="42.784255846399034" lon="10.357198723479"><ele>90.0</ele><time>2026-04-18T14:36:16.999Z</time></trkpt><trkpt lat="42.784323081787825" lon="10.357181664223715"><ele>90.0</ele><time>2026-04-18T14:36:17.999Z</time></trkpt><trkpt lat="42.784400707661135" lon="10.357160837070628"><ele>90.0</ele><time>2026-04-18T14:36:18.999Z</time></trkpt><trkpt lat="42.78446950812837" lon="10.357161247767863"><ele>90.0</ele><time>2026-04-18T14:36:19.999Z</time></trkpt><trkpt lat="42.78452799222172" lon="10.357215592210226"><ele>90.0</ele><time>2026-04-18T14:36:20.999Z</time></trkpt><trkpt lat="42.78455236461068" lon="10.357297145138844"><ele>90.0</ele><time>2026-04-18T14:36:21.999Z</time></trkpt><trkpt lat="42.78454670463257" lon="10.3574936877998"><ele>90.5</ele><time>2026-04-18T14:36:23.999Z</time></trkpt><trkpt lat="42.78457106645538" lon="10.357624461983024"><ele>91.0</ele><time>2026-04-18T14:36:24.999Z</time></trkpt><trkpt lat="42.784561613834605" lon="10.357749820262747"><ele>91.5</ele><time>2026-04-18T14:36:25.999Z</time></trkpt><trkpt lat="42.78458373359739" lon="10.357855345979397"><ele>92.0</ele><time>2026-04-18T14:36:26.999Z</time></trkpt><trkpt lat="42.78459270372042" lon="10.35796462484748"><ele>92.5</ele><time>2026-04-18T14:36:27.999Z</time></trkpt><trkpt lat="42.78458808216865" lon="10.358088626368735"><ele>93.0</ele><time>2026-04-18T14:36:28.999Z</time></trkpt><trkpt lat="42.78458624926522" lon="10.358213847177742"><ele>93.0</ele><time>2026-04-18T14:36:29.999Z</time></trkpt><trkpt lat="42.78455878056165" lon="10.358321829785162"><ele>93.0</ele><time>2026-04-18T14:36:30.999Z</time></trkpt><trkpt lat="42.78452037709801" lon="10.358443764688246"><ele>93.0</ele><time>2026-04-18T14:36:31.999Z</time></trkpt><trkpt lat="42.784480472716645" lon="10.358558477233428"><ele>93.0</ele><time>2026-04-18T14:36:32.999Z</time></trkpt><trkpt lat="42.78446294238146" lon="10.358683417359394"><ele>93.0</ele><time>2026-04-18T14:36:33.999Z</time></trkpt><trkpt lat="42.7844627546867" lon="10.35878446725683"><ele>93.0</ele><time>2026-04-18T14:36:34.999Z</time></trkpt><trkpt lat="42.78451686406695" lon="10.358895863435318"><ele>94.2</ele><time>2026-04-18T14:36:35.999Z</time></trkpt><trkpt lat="42.78459549291589" lon="10.358965920548032"><ele>95.4</ele><time>2026-04-18T14:36:36.999Z</time></trkpt><trkpt lat="42.7846881836476" lon="10.359032026033342"><ele>96.60000000000001</ele><time>2026-04-18T14:36:37.999Z</time></trkpt><trkpt lat="42.78480233276289" lon="10.359107936997493"><ele>97.80000000000001</ele><time>2026-04-18T14:36:38.999Z</time></trkpt><trkpt lat="42.7848926805692" lon="10.359184633673259"><ele>99.0</ele><time>2026-04-18T14:36:39.999Z</time></trkpt><trkpt lat="42.78497939199874" lon="10.35926201997438"><ele>99.0</ele><time>2026-04-18T14:36:40.999Z</time></trkpt><trkpt lat="42.78506128674415" lon="10.359354492690251"><ele>99.0</ele><time>2026-04-18T14:36:41.999Z</time></trkpt><trkpt lat="42.785142548994266" lon="10.359436309303424"><ele>99.0</ele><time>2026-04-18T14:36:42.999Z</time></trkpt><trkpt lat="42.78521546890948" lon="10.359549531424374"><ele>99.0</ele><time>2026-04-18T14:36:43.999Z</time></trkpt><trkpt lat="42.785291414340044" lon="10.359657557733625"><ele>99.0</ele><time>2026-04-18T14:36:44.999Z</time></trkpt><trkpt lat="42.7853640110069" lon="10.35976677659131"><ele>101.16666666666667</ele><time>2026-04-18T14:36:45.999Z</time></trkpt><trkpt lat="42.78542789311326" lon="10.359869441747065"><ele>103.33333333333334</ele><time>2026-04-18T14:36:46.999Z</time></trkpt><trkpt lat="42.78548580507625" lon="10.35995295241778"><ele>105.5</ele><time>2026-04-18T14:36:47.999Z</time></trkpt><trkpt lat="42.78554156226288" lon="10.360043580490824"><ele>107.66666666666667</ele><time>2026-04-18T14:36:48.999Z</time></trkpt><trkpt lat="42.785597511544616" lon="10.36013803153132"><ele>109.83333333333334</ele><time>2026-04-18T14:36:49.999Z</time></trkpt><trkpt lat="42.7856478596677" lon="10.360230427588206"><ele>112.0</ele><time>2026-04-18T14:36:50.999Z</time></trkpt><trkpt lat="42.785682679237944" lon="10.360314768791435"><ele>112.0</ele><time>2026-04-18T14:36:51.999Z</time></trkpt><trkpt lat="42.78569995536037" lon="10.360464212647615"><ele>111.99999999999999</ele><time>2026-04-18T14:36:53.999Z</time></trkpt><trkpt lat="42.78563794887358" lon="10.36054853976507"><ele>111.99999999999999</ele><time>2026-04-18T14:36:54.999Z</time></trkpt><trkpt lat="42.78554857682021" lon="10.360628421797227"><ele>112.0</ele><time>2026-04-18T14:36:55.999Z</time></trkpt><trkpt lat="42.78544329559817" lon="10.360664523979716"><ele>112.0</ele><time>2026-04-18T14:36:56.999Z</time></trkpt><trkpt lat="42.785396467845906" lon="10.3607486019241"><ele>114.6</ele><time>2026-04-18T14:36:57.999Z</time></trkpt><trkpt lat="42.78532797565768" lon="10.360820538585452"><ele>117.19999999999999</ele><time>2026-04-18T14:36:58.999Z</time></trkpt><trkpt lat="42.78526466371776" lon="10.360947681126158"><ele>119.8</ele><time>2026-04-18T14:36:59.999Z</time></trkpt><trkpt lat="42.78523155511147" lon="10.361085162445548"><ele>122.4</ele><time>2026-04-18T14:37:00.999Z</time></trkpt><trkpt lat="42.78523173113903" lon="10.361232262382833"><ele>125.0</ele><time>2026-04-18T14:37:01.999Z</time></trkpt><trkpt lat="42.78530344114364" lon="10.361382321994261"><ele>127.0</ele><time>2026-04-18T14:37:02.999Z</time></trkpt><trkpt lat="42.78535992261805" lon="10.361540382229654"><ele>129.0</ele><time>2026-04-18T14:37:03.999Z</time></trkpt><trkpt lat="42.785428818598916" lon="10.36166401374247"><ele>131.0</ele><time>2026-04-18T14:37:04.999Z</time></trkpt><trkpt lat="42.78547330965214" lon="10.361745253987237"><ele>133.0</ele><time>2026-04-18T14:37:05.999Z</time></trkpt><trkpt lat="42.78551550846821" lon="10.361842398712206"><ele>135.0</ele><time>2026-04-18T14:37:06.999Z</time></trkpt><trkpt lat="42.785549498525434" lon="10.361947615029427"><ele>135.0</ele><time>2026-04-18T14:37:07.999Z</time></trkpt><trkpt lat="42.7855762413991" lon="10.362064928714107"><ele>135.0</ele><time>2026-04-18T14:37:08.999Z</time></trkpt><trkpt lat="42.78559808139798" lon="10.362190853176115"><ele>135.0</ele><time>2026-04-18T14:37:10Z</time></trkpt><trkpt lat="42.7855496914643" lon="10.362304128337481"><ele>135.0</ele><time>2026-04-18T14:37:11Z</time></trkpt><trkpt lat="42.7855275571669" lon="10.362401164191107"><ele>135.0</ele><time>2026-04-18T14:37:12Z</time></trkpt><trkpt lat="42.785520025644345" lon="10.362527136888954"><ele>135.0</ele><time>2026-04-18T14:37:13Z</time></trkpt><trkpt lat="42.78555508661745" lon="10.362649079235958"><ele>135.4</ele><time>2026-04-18T14:37:14Z</time></trkpt><trkpt lat="42.7855792946703" lon="10.362772684526135"><ele>135.8</ele><time>2026-04-18T14:37:15Z</time></trkpt><trkpt lat="42.785642212068296" lon="10.362920091506407"><ele>136.2</ele><time>2026-04-18T14:37:16Z</time></trkpt><trkpt lat="42.78569830650061" lon="10.363033238604501"><ele>136.6</ele><time>2026-04-18T14:37:17Z</time></trkpt><trkpt lat="42.78574833258848" lon="10.363143204519076"><ele>137.0</ele><time>2026-04-18T14:37:18Z</time></trkpt><trkpt lat="42.78577932603397" lon="10.363261002226743"><ele>137.4</ele><time>2026-04-18T14:37:19Z</time></trkpt><trkpt lat="42.78576663373196" lon="10.363398563644767"><ele>137.79999999999998</ele><time>2026-04-18T14:37:20Z</time></trkpt><trkpt lat="42.78575295679286" lon="10.363521343154892"><ele>138.2</ele><time>2026-04-18T14:37:21Z</time></trkpt><trkpt lat="42.78572357596342" lon="10.363644960355126"><ele>138.6</ele><time>2026-04-18T14:37:22Z</time></trkpt><trkpt lat="42.78569069094639" lon="10.363767964472567"><ele>139.0</ele><time>2026-04-18T14:37:23Z</time></trkpt><trkpt lat="42.78565485415411" lon="10.363888797033649"><ele>140.8</ele><time>2026-04-18T14:37:24Z</time></trkpt><trkpt lat="42.785617307897994" lon="10.364008522262521"><ele>142.60000000000002</ele><time>2026-04-18T14:37:25Z</time></trkpt><trkpt lat="42.78557446769289" lon="10.364138950246051"><ele>144.4</ele><time>2026-04-18T14:37:26Z</time></trkpt><trkpt lat="42.78553242648174" lon="10.364257319909404"><ele>146.20000000000002</ele><time>2026-04-18T14:37:27Z</time></trkpt><trkpt lat="42.785490560419596" lon="10.364372551426223"><ele>148.0</ele><time>2026-04-18T14:37:28Z</time></trkpt><trkpt lat="42.785444838651" lon="10.364488212251931"><ele>148.0</ele><time>2026-04-18T14:37:29Z</time></trkpt><trkpt lat="42.78539562944055" lon="10.364603908197427"><ele>148.0</ele><time>2026-04-18T14:37:30Z</time></trkpt><trkpt lat="42.78534880207536" lon="10.364728179041531"><ele>148.0</ele><time>2026-04-18T14:37:31Z</time></trkpt><trkpt lat="42.7852902043019" lon="10.364831567123097"><ele>148.0</ele><time>2026-04-18T14:37:32Z</time></trkpt><trkpt lat="42.78522857705541" lon="10.364924116137244"><ele>148.0</ele><time>2026-04-18T14:37:33Z</time></trkpt><trkpt lat="42.78518511816977" lon="10.365033686491897"><ele>146.8</ele><time>2026-04-18T14:37:34Z</time></trkpt><trkpt lat="42.78512314751806" lon="10.36512370261812"><ele>145.60000000000002</ele><time>2026-04-18T14:37:35Z</time></trkpt><trkpt lat="42.785085624740205" lon="10.365242741241765"><ele>144.39999999999998</ele><time>2026-04-18T14:37:36Z</time></trkpt><trkpt lat="42.78503814653012" lon="10.365363820246122"><ele>143.2</ele><time>2026-04-18T14:37:37Z</time></trkpt><trkpt lat="42.78499082610293" lon="10.365499581742922"><ele>142.0</ele><time>2026-04-18T14:37:38Z</time></trkpt><trkpt lat="42.784951034523935" lon="10.365644880955811"><ele>144.4</ele><time>2026-04-18T14:37:39Z</time></trkpt><trkpt lat="42.784906969772265" lon="10.36578004573163"><ele>146.79999999999998</ele><time>2026-04-18T14:37:40Z</time></trkpt><trkpt lat="42.784858990024425" lon="10.365889087725884"><ele>149.2</ele><time>2026-04-18T14:37:41Z</time></trkpt><trkpt lat="42.7848010370555" lon="10.365972904329203"><ele>151.6</ele><time>2026-04-18T14:37:42Z</time></trkpt><trkpt lat="42.78474183759743" lon="10.366040475553424"><ele>154.0</ele><time>2026-04-18T14:37:43Z</time></trkpt><trkpt lat="42.78468853784464" lon="10.366143064657333"><ele>154.0</ele><time>2026-04-18T14:37:44Z</time></trkpt><trkpt lat="42.784633349502045" lon="10.366241579017293"><ele>154.0</ele><time>2026-04-18T14:37:45Z</time></trkpt><trkpt lat="42.78459219966844" lon="10.366358559330271"><ele>154.0</ele><time>2026-04-18T14:37:46Z</time></trkpt><trkpt lat="42.7845632436162" lon="10.36651129089033"><ele>154.0</ele><time>2026-04-18T14:37:47Z</time></trkpt><trkpt lat="42.78454090246056" lon="10.36667294637325"><ele>154.0</ele><time>2026-04-18T14:37:48Z</time></trkpt><trkpt lat="42.78449020762296" lon="10.36681163093541"><ele>153.83333333333334</ele><time>2026-04-18T14:37:49Z</time></trkpt><trkpt lat="42.784451244332345" lon="10.36693247155045"><ele>153.66666666666669</ele><time>2026-04-18T14:37:50Z</time></trkpt><trkpt lat="42.78440513337972" lon="10.367043222933436"><ele>153.5</ele><time>2026-04-18T14:37:51Z</time></trkpt><trkpt lat="42.78435228752435" lon="10.367142118517371"><ele>153.33333333333334</ele><time>2026-04-18T14:37:52Z</time></trkpt><trkpt lat="42.784296574141585" lon="10.367221596142787"><ele>153.16666666666666</ele><time>2026-04-18T14:37:53Z</time></trkpt><trkpt lat="42.78422392100775" lon="10.367287191271005"><ele>153.0</ele><time>2026-04-18T14:37:54Z</time></trkpt><trkpt lat="42.7841389386302" lon="10.36732839713596"><ele>153.83333333333334</ele><time>2026-04-18T14:37:55Z</time></trkpt><trkpt lat="42.78405693468044" lon="10.367354993295647"><ele>154.66666666666666</ele><time>2026-04-18T14:37:56Z</time></trkpt><trkpt lat="42.78397431118901" lon="10.367384400927207"><ele>155.5</ele><time>2026-04-18T14:37:57Z</time></trkpt><trkpt lat="42.78388859579239" lon="10.367420978337202"><ele>156.33333333333331</ele><time>2026-04-18T14:37:58Z</time></trkpt><trkpt lat="42.78380552178425" lon="10.367456932274395"><ele>157.16666666666666</ele><time>2026-04-18T14:37:59Z</time></trkpt><trkpt lat="42.783717441963894" lon="10.367496481757561"><ele>158.0</ele><time>2026-04-18T14:38:00Z</time></trkpt><trkpt lat="42.78364179610741" lon="10.36752039021123"><ele>158.0</ele><time>2026-04-18T14:38:01Z</time></trkpt><trkpt lat="42.78357433949557" lon="10.36750739223336"><ele>158.0</ele><time>2026-04-18T14:38:02Z</time></trkpt><trkpt lat="42.78351026735313" lon="10.367490632040965"><ele>158.0</ele><time>2026-04-18T14:38:03Z</time></trkpt><trkpt lat="42.7834426066009" lon="10.367456888348796"><ele>158.0</ele><time>2026-04-18T14:38:04Z</time></trkpt><trkpt lat="42.78336875341977" lon="10.367422969046821"><ele>158.0</ele><time>2026-04-18T14:38:05Z</time></trkpt><trkpt lat="42.78329825003272" lon="10.36739408017955"><ele>158.0</ele><time>2026-04-18T14:38:06Z</time></trkpt><trkpt lat="42.7831846794225" lon="10.367400581242098"><ele>159.60000000000002</ele><time>2026-04-18T14:38:08Z</time></trkpt><trkpt lat="42.783117726509275" lon="10.367416677839781"><ele>161.20000000000002</ele><time>2026-04-18T14:38:08.999Z</time></trkpt><trkpt lat="42.783081059366054" lon="10.3675396598212"><ele>162.8</ele><time>2026-04-18T14:38:09.999Z</time></trkpt><trkpt lat="42.78307911974072" lon="10.367683564207846"><ele>164.4</ele><time>2026-04-18T14:38:10.999Z</time></trkpt><trkpt lat="42.78309752714295" lon="10.367878147162639"><ele>166.0</ele><time>2026-04-18T14:38:11.999Z</time></trkpt><trkpt lat="42.783104575599616" lon="10.368025979616649"><ele>166.0</ele><time>2026-04-18T14:38:12.999Z</time></trkpt><trkpt lat="42.78308951818586" lon="10.368149183720423"><ele>166.0</ele><time>2026-04-18T14:38:13.999Z</time></trkpt><trkpt lat="42.78305710000495" lon="10.36826088513134"><ele>166.0</ele><time>2026-04-18T14:38:14.999Z</time></trkpt><trkpt lat="42.78304096008483" lon="10.368382577984072"><ele>166.0</ele><time>2026-04-18T14:38:15.999Z</time></trkpt><trkpt lat="42.78301366887436" lon="10.368511603195024"><ele>166.0</ele><time>2026-04-18T14:38:16.999Z</time></trkpt><trkpt lat="42.78296065231126" lon="10.368632157335412"><ele>166.0</ele><time>2026-04-18T14:38:17.999Z</time></trkpt><trkpt lat="42.78289679235405" lon="10.36874423172529"><ele>166.0</ele><time>2026-04-18T14:38:18.999Z</time></trkpt><trkpt lat="42.782833580579805" lon="10.368872067806686"><ele>166.0</ele><time>2026-04-18T14:38:19.999Z</time></trkpt><trkpt lat="42.78278132470347" lon="10.369018893092159"><ele>166.0</ele><time>2026-04-18T14:38:20.999Z</time></trkpt><trkpt lat="42.78272654302865" lon="10.369173150240256"><ele>166.0</ele><time>2026-04-18T14:38:21.999Z</time></trkpt><trkpt lat="42.7826755647042" lon="10.369300751599"><ele>166.0</ele><time>2026-04-18T14:38:22.999Z</time></trkpt><trkpt lat="42.7826217163366" lon="10.369418397026726"><ele>166.0</ele><time>2026-04-18T14:38:23.999Z</time></trkpt><trkpt lat="42.78256226821434" lon="10.369548150365382"><ele>166.0</ele><time>2026-04-18T14:38:24.999Z</time></trkpt><trkpt lat="42.78252127011877" lon="10.369678271971477"><ele>166.0</ele><time>2026-04-18T14:38:25.999Z</time></trkpt><trkpt lat="42.78247531997457" lon="10.369798926756882"><ele>168.20000000000002</ele><time>2026-04-18T14:38:26.999Z</time></trkpt><trkpt lat="42.78242481176536" lon="10.369912886556461"><ele>170.4</ele><time>2026-04-18T14:38:27.999Z</time></trkpt><trkpt lat="42.782393576145374" lon="10.370040814351634"><ele>172.6</ele><time>2026-04-18T14:38:28.999Z</time></trkpt><trkpt lat="42.78236313972044" lon="10.370176575444908"><ele>174.8</ele><time>2026-04-18T14:38:29.999Z</time></trkpt><trkpt lat="42.78231738744527" lon="10.370304096182837"><ele>177.0</ele><time>2026-04-18T14:38:30.999Z</time></trkpt><trkpt lat="42.78226246161263" lon="10.37042656329974"><ele>178.2</ele><time>2026-04-18T14:38:31.999Z</time></trkpt><trkpt lat="42.782209035110235" lon="10.3705458336401"><ele>179.39999999999998</ele><time>2026-04-18T14:38:32.999Z</time></trkpt><trkpt lat="42.78215163601542" lon="10.37067344422909"><ele>180.60000000000002</ele><time>2026-04-18T14:38:33.999Z</time></trkpt><trkpt lat="42.782095879379185" lon="10.370797567381572"><ele>181.8</ele><time>2026-04-18T14:38:34.999Z</time></trkpt><trkpt lat="42.78203569570001" lon="10.370919691228885"><ele>183.0</ele><time>2026-04-18T14:38:35.999Z</time></trkpt><trkpt lat="42.781967192628116" lon="10.371031713775459"><ele>183.0</ele><time>2026-04-18T14:38:36.999Z</time></trkpt><trkpt lat="42.78191302404324" lon="10.371153949799695"><ele>183.0</ele><time>2026-04-18T14:38:37.999Z</time></trkpt><trkpt lat="42.781863150371244" lon="10.371267207934936"><ele>183.0</ele><time>2026-04-18T14:38:38.999Z</time></trkpt><trkpt lat="42.78181256900237" lon="10.371382073184147"><ele>183.0</ele><time>2026-04-18T14:38:39.999Z</time></trkpt><trkpt lat="42.7817673538585" lon="10.371484752273188"><ele>183.0</ele><time>2026-04-18T14:38:40.999Z</time></trkpt><trkpt lat="42.78172149931816" lon="10.371600394624535"><ele>185.60000000000002</ele><time>2026-04-18T14:38:41.999Z</time></trkpt><trkpt lat="42.78166426593668" lon="10.37170492878514"><ele>188.20000000000002</ele><time>2026-04-18T14:38:42.999Z</time></trkpt><trkpt lat="42.781603146747756" lon="10.371808167330125"><ele>190.8</ele><time>2026-04-18T14:38:43.999Z</time></trkpt><trkpt lat="42.78153771359139" lon="10.371863950558819"><ele>193.4</ele><time>2026-04-18T14:38:44.999Z</time></trkpt><trkpt lat="42.781476715791214" lon="10.371915491068634"><ele>196.0</ele><time>2026-04-18T14:38:45.999Z</time></trkpt><trkpt lat="42.781350855265586" lon="10.371969326856153"><ele>195.99999999999997</ele><time>2026-04-18T14:38:47.999Z</time></trkpt><trkpt lat="42.78127896641873" lon="10.371975811523134"><ele>196.0</ele><time>2026-04-18T14:38:48.999Z</time></trkpt><trkpt lat="42.78120449890266" lon="10.37198086961932"><ele>196.0</ele><time>2026-04-18T14:38:49.999Z</time></trkpt><trkpt lat="42.781136876922574" lon="10.371983904749445"><ele>196.0</ele><time>2026-04-18T14:38:50.999Z</time></trkpt><trkpt lat="42.78105829837196" lon="10.371985886779779"><ele>195.99999999999997</ele><time>2026-04-18T14:38:51.999Z</time></trkpt><trkpt lat="42.780973329717554" lon="10.371970384757745"><ele>196.0</ele><time>2026-04-18T14:38:52.999Z</time></trkpt><trkpt lat="42.78089353390487" lon="10.371929283051248"><ele>196.4</ele><time>2026-04-18T14:38:53.999Z</time></trkpt><trkpt lat="42.7808092442586" lon="10.37187684487343"><ele>196.8</ele><time>2026-04-18T14:38:54.999Z</time></trkpt><trkpt lat="42.780724358124594" lon="10.371808823822958"><ele>197.20000000000002</ele><time>2026-04-18T14:38:55.999Z</time></trkpt><trkpt lat="42.780635852636685" lon="10.371727148408501"><ele>197.60000000000002</ele><time>2026-04-18T14:38:56.999Z</time></trkpt><trkpt lat="42.78054577627891" lon="10.371651571770176"><ele>198.0</ele><time>2026-04-18T14:38:57.999Z</time></trkpt><trkpt lat="42.780457709210935" lon="10.37157216042646"><ele>198.0</ele><time>2026-04-18T14:38:58.999Z</time></trkpt><trkpt lat="42.780369760124124" lon="10.371520167408121"><ele>198.0</ele><time>2026-04-18T14:38:59.999Z</time></trkpt><trkpt lat="42.78028142865499" lon="10.371502342610118"><ele>198.0</ele><time>2026-04-18T14:39:00.999Z</time></trkpt><trkpt lat="42.78021068729993" lon="10.371529523600593"><ele>198.0</ele><time>2026-04-18T14:39:01.999Z</time></trkpt><trkpt lat="42.78014751969738" lon="10.371575345186004"><ele>198.0</ele><time>2026-04-18T14:39:02.999Z</time></trkpt><trkpt lat="42.78009373612177" lon="10.37164479975646"><ele>198.0</ele><time>2026-04-18T14:39:03.999Z</time></trkpt><trkpt lat="42.78005047600598" lon="10.371743056527428"><ele>198.66666666666666</ele><time>2026-04-18T14:39:04.999Z</time></trkpt><trkpt lat="42.78003796009621" lon="10.371845463516447"><ele>199.33333333333331</ele><time>2026-04-18T14:39:05.999Z</time></trkpt><trkpt lat="42.78000362922368" lon="10.371965940037573"><ele>200.0</ele><time>2026-04-18T14:39:06.999Z</time></trkpt><trkpt lat="42.780020897643325" lon="10.372087345549126"><ele>200.66666666666666</ele><time>2026-04-18T14:39:07.999Z</time></trkpt><trkpt lat="42.78001990260761" lon="10.372191592521457"><ele>201.33333333333331</ele><time>2026-04-18T14:39:08.999Z</time></trkpt><trkpt lat="42.78005914180231" lon="10.372297910194685"><ele>202.0</ele><time>2026-04-18T14:39:09.999Z</time></trkpt><trkpt lat="42.78017472453938" lon="10.372395592112765"><ele>204.8</ele><time>2026-04-18T14:39:10.999Z</time></trkpt><trkpt lat="42.780252742290656" lon="10.372505345443003"><ele>207.6</ele><time>2026-04-18T14:39:11.999Z</time></trkpt><trkpt lat="42.7803337273673" lon="10.372588695253413"><ele>210.40000000000003</ele><time>2026-04-18T14:39:12.999Z</time></trkpt><trkpt lat="42.78040068861176" lon="10.372667549304657"><ele>213.20000000000002</ele><time>2026-04-18T14:39:13.999Z</time></trkpt><trkpt lat="42.780457536857114" lon="10.372753623495125"><ele>216.0</ele><time>2026-04-18T14:39:14.999Z</time></trkpt><trkpt lat="42.78048677727625" lon="10.372836105142573"><ele>216.0</ele><time>2026-04-18T14:39:16Z</time></trkpt><trkpt lat="42.78050946245065" lon="10.372934742719965"><ele>216.00000000000003</ele><time>2026-04-18T14:39:17Z</time></trkpt><trkpt lat="42.78051706349916" lon="10.373047512942852"><ele>216.00000000000003</ele><time>2026-04-18T14:39:18Z</time></trkpt><trkpt lat="42.780521993571206" lon="10.373173231273384"><ele>216.0</ele><time>2026-04-18T14:39:19Z</time></trkpt><trkpt lat="42.78052586233442" lon="10.37331343166042"><ele>216.0</ele><time>2026-04-18T14:39:20Z</time></trkpt><trkpt lat="42.780534817970405" lon="10.373462952542209"><ele>218.8</ele><time>2026-04-18T14:39:21Z</time></trkpt><trkpt lat="42.78054811686968" lon="10.373605020815205"><ele>221.60000000000002</ele><time>2026-04-18T14:39:22Z</time></trkpt><trkpt lat="42.78055305883362" lon="10.373737260462722"><ele>224.4</ele><time>2026-04-18T14:39:23Z</time></trkpt><trkpt lat="42.780553256459775" lon="10.373863577440778"><ele>227.2</ele><time>2026-04-18T14:39:24Z</time></trkpt><trkpt lat="42.78054573927655" lon="10.37397659073764"><ele>230.0</ele><time>2026-04-18T14:39:25Z</time></trkpt><trkpt lat="42.780530616583945" lon="10.374090644418876"><ele>232.0</ele><time>2026-04-18T14:39:26Z</time></trkpt><trkpt lat="42.78050718483558" lon="10.374208643401868"><ele>234.0</ele><time>2026-04-18T14:39:27Z</time></trkpt><trkpt lat="42.78047279221206" lon="10.374323941292335"><ele>236.0</ele><time>2026-04-18T14:39:28Z</time></trkpt><trkpt lat="42.780426396521335" lon="10.374434352487684"><ele>238.0</ele><time>2026-04-18T14:39:29Z</time></trkpt><trkpt lat="42.78037048271263" lon="10.374548059858979"><ele>240.0</ele><time>2026-04-18T14:39:30Z</time></trkpt><trkpt lat="42.78031817042289" lon="10.374667912120705"><ele>241.0</ele><time>2026-04-18T14:39:31Z</time></trkpt><trkpt lat="42.78027887455205" lon="10.374802643504557"><ele>242.0</ele><time>2026-04-18T14:39:32Z</time></trkpt><trkpt lat="42.78024306425817" lon="10.374930053336417"><ele>243.0</ele><time>2026-04-18T14:39:33Z</time></trkpt><trkpt lat="42.780219558549334" lon="10.37502860402219"><ele>244.0</ele><time>2026-04-18T14:39:34Z</time></trkpt><trkpt lat="42.7802067299966" lon="10.375115122445214"><ele>245.0</ele><time>2026-04-18T14:39:47Z</time></trkpt><trkpt lat="42.780214642801305" lon="10.375245121483829"><ele>246.0</ele><time>2026-04-18T14:39:49Z</time></trkpt><trkpt lat="42.78019747126" lon="10.375421885939138"><ele>245.66666666666666</ele><time>2026-04-18T14:39:51Z</time></trkpt><trkpt lat="42.780143459239426" lon="10.375494508482554"><ele>245.33333333333331</ele><time>2026-04-18T14:39:52Z</time></trkpt><trkpt lat="42.780090837223746" lon="10.375571381186813"><ele>245.0</ele><time>2026-04-18T14:39:53Z</time></trkpt><trkpt lat="42.780018826492594" lon="10.375637406612329"><ele>244.66666666666666</ele><time>2026-04-18T14:39:54Z</time></trkpt><trkpt lat="42.77995461895474" lon="10.375727542350594"><ele>244.33333333333331</ele><time>2026-04-18T14:39:55Z</time></trkpt><trkpt lat="42.77988551462296" lon="10.375798598844751"><ele>244.0</ele><time>2026-04-18T14:39:56Z</time></trkpt><trkpt lat="42.77981471191178" lon="10.375873772337592"><ele>243.99999999999997</ele><time>2026-04-18T14:39:57Z</time></trkpt><trkpt lat="42.77974557211765" lon="10.375937161783442"><ele>244.0</ele><time>2026-04-18T14:39:58Z</time></trkpt><trkpt lat="42.779654050694056" lon="10.375966089811431"><ele>244.0</ele><time>2026-04-18T14:39:59Z</time></trkpt><trkpt lat="42.77956757678893" lon="10.375994885755585"><ele>244.0</ele><time>2026-04-18T14:40:00Z</time></trkpt><trkpt lat="42.77949078567868" lon="10.376039633362367"><ele>243.99999999999997</ele><time>2026-04-18T14:40:01Z</time></trkpt><trkpt lat="42.7794026787397" lon="10.376057599429494"><ele>244.0</ele><time>2026-04-18T14:40:02Z</time></trkpt><trkpt lat="42.7793290703576" lon="10.37609396078241"><ele>244.0</ele><time>2026-04-18T14:40:03Z</time></trkpt><trkpt lat="42.779267318734384" lon="10.376156265956277"><ele>243.99999999999997</ele><time>2026-04-18T14:40:04Z</time></trkpt><trkpt lat="42.77920704271254" lon="10.376242231160127"><ele>243.99999999999997</ele><time>2026-04-18T14:40:04.999Z</time></trkpt><trkpt lat="42.77915137819756" lon="10.376318072244805"><ele>244.0</ele><time>2026-04-18T14:40:05.999Z</time></trkpt><trkpt lat="42.779085647803875" lon="10.376417971446909"><ele>244.0</ele><time>2026-04-18T14:40:07.999Z</time></trkpt><trkpt lat="42.779243210099025" lon="10.37667820643684"><ele>244.0</ele><time>2026-04-18T14:40:08.999Z</time></trkpt><trkpt lat="42.779288310223194" lon="10.376779651132459"><ele>243.99999999999997</ele><time>2026-04-18T14:40:14.999Z</time></trkpt><trkpt lat="42.77934262715749" lon="10.376901839308566"><ele>243.99999999999997</ele><time>2026-04-18T14:40:16.999Z</time></trkpt><trkpt lat="42.77939657802457" lon="10.377067027321509"><ele>244.0</ele><time>2026-04-18T14:40:20.999Z</time></trkpt><trkpt lat="42.77935111340936" lon="10.37718969896753"><ele>244.0</ele><time>2026-04-18T14:40:23.999Z</time></trkpt><trkpt lat="42.77921852297361" lon="10.37719466264098"><ele>246.2</ele><time>2026-04-18T14:40:25.999Z</time></trkpt><trkpt lat="42.779097468938154" lon="10.377206438916346"><ele>248.39999999999998</ele><time>2026-04-18T14:40:27.999Z</time></trkpt><trkpt lat="42.77903316219785" lon="10.377230456110729"><ele>250.6</ele><time>2026-04-18T14:40:28.999Z</time></trkpt><trkpt lat="42.77890439139349" lon="10.377282546987622"><ele>252.8</ele><time>2026-04-18T14:40:30.999Z</time></trkpt><trkpt lat="42.778837833698866" lon="10.377322886762435"><ele>255.0</ele><time>2026-04-18T14:40:31.999Z</time></trkpt><trkpt lat="42.77877640476222" lon="10.377379356473865"><ele>255.0</ele><time>2026-04-18T14:40:32.999Z</time></trkpt><trkpt lat="42.778716019632604" lon="10.377419135495611"><ele>255.00000000000003</ele><time>2026-04-18T14:40:33.999Z</time></trkpt><trkpt lat="42.778649177016575" lon="10.37746372073331"><ele>255.0</ele><time>2026-04-18T14:40:34.999Z</time></trkpt><trkpt lat="42.77857451119278" lon="10.37749137023011"><ele>255.0</ele><time>2026-04-18T14:40:35.999Z</time></trkpt><trkpt lat="42.778500853274046" lon="10.377507934523276"><ele>255.00000000000003</ele><time>2026-04-18T14:40:36.999Z</time></trkpt><trkpt lat="42.77844624384229" lon="10.377551856981414"><ele>255.0</ele><time>2026-04-18T14:40:37.999Z</time></trkpt><trkpt lat="42.77838906255107" lon="10.377604790743147"><ele>255.0</ele><time>2026-04-18T14:40:38.999Z</time></trkpt><trkpt lat="42.77833651323336" lon="10.377658810232075"><ele>252.5</ele><time>2026-04-18T14:40:39.999Z</time></trkpt><trkpt lat="42.7782920820746" lon="10.377719770815707"><ele>250.0</ele><time>2026-04-18T14:40:40.999Z</time></trkpt><trkpt lat="42.77823659857015" lon="10.377777476237462"><ele>247.5</ele><time>2026-04-18T14:40:41.999Z</time></trkpt><trkpt lat="42.778171511222006" lon="10.377813386663233"><ele>245.0</ele><time>2026-04-18T14:40:42.999Z</time></trkpt><trkpt lat="42.77810588135018" lon="10.377831745987697"><ele>242.5</ele><time>2026-04-18T14:40:43.999Z</time></trkpt><trkpt lat="42.778012571817534" lon="10.377824073913734"><ele>240.0</ele><time>2026-04-18T14:40:45.999Z</time></trkpt><trkpt lat="42.7779531794889" lon="10.37791273852923"><ele>240.0</ele><time>2026-04-18T14:40:48.999Z</time></trkpt><trkpt lat="42.7779147681564" lon="10.37802252529354"><ele>244.0</ele><time>2026-04-18T14:40:50.999Z</time></trkpt><trkpt lat="42.77788919859251" lon="10.378134203521379"><ele>244.0</ele><time>2026-04-18T14:40:52.999Z</time></trkpt><trkpt lat="42.777823415111264" lon="10.378216621557177"><ele>244.0</ele><time>2026-04-18T14:40:55.999Z</time></trkpt><trkpt lat="42.777760830556105" lon="10.378259539302215"><ele>244.0</ele><time>2026-04-18T14:40:58.999Z</time></trkpt><trkpt lat="42.77768619530452" lon="10.378292459936599"><ele>244.0</ele><time>2026-04-18T14:42:39.999Z</time></trkpt></trkseg></trk></gpx>